<?xml version="1.0" encoding="UTF-8"?>
<gpx version="1.1" creator="https://www.youtrack.es" xsi:schemaLocation="http://www.topografix.com/GPX/1/1 http://www.topografix.com/GPX/1/1/gpx.xsd http://www.garmin.com/xmlschemas/GpxExtensions/v3 http://www.garmin.com/xmlschemas/GpxExtensionsv3.xsd http://www.garmin.com/xmlschemas/TrackPointExtension/v1 http://www.garmin.com/xmlschemas/TrackPointExtensionv1.xsd" xmlns:gpxtpx="http://www.garmin.com/xmlschemas/TrackPointExtension/v1" xmlns:gpxx="http://www.garmin.com/xmlschemas/GpxExtensions/v3" xmlns:xsi="http://www.w3.org/2001/XMLSchema-instance">
  <metadata>
    <link href="https://www.youtrack.es">
      <text>YouTrack.es</text>
    </link>
    <time>2026-05-09T06:17:19Z</time>
  </metadata>
  <trk>
    <src>https://www.youtrack.es</src>
    <link href="https://www.youtrack.es/ruta/643-castrelos">
      <text>YouTrack.es</text>
    </link>
    <trkseg>
      <trkpt lat="42.21984333" lon="-8.740285">
        <ele>66.0</ele>
        <time>2018-05-14T10:30:49.000Z</time>
      </trkpt>
      <trkpt lat="42.21984333" lon="-8.74028833">
        <ele>66.0</ele>
        <time>2018-05-14T10:30:50.000Z</time>
      </trkpt>
      <trkpt lat="42.21984333" lon="-8.74028667">
        <ele>66.0</ele>
        <time>2018-05-14T10:30:51.000Z</time>
      </trkpt>
      <trkpt lat="42.21984667" lon="-8.74028667">
        <ele>65.0</ele>
        <time>2018-05-14T10:30:52.000Z</time>
      </trkpt>
      <trkpt lat="42.219845" lon="-8.74028667">
        <ele>65.0</ele>
        <time>2018-05-14T10:30:53.000Z</time>
      </trkpt>
      <trkpt lat="42.219835" lon="-8.740285">
        <ele>65.0</ele>
        <time>2018-05-14T10:30:54.000Z</time>
      </trkpt>
      <trkpt lat="42.21981833" lon="-8.74028167">
        <ele>65.0</ele>
        <time>2018-05-14T10:30:55.000Z</time>
      </trkpt>
      <trkpt lat="42.2198" lon="-8.74028167">
        <ele>65.0</ele>
        <time>2018-05-14T10:30:56.000Z</time>
      </trkpt>
      <trkpt lat="42.21977833" lon="-8.74028">
        <ele>65.0</ele>
        <time>2018-05-14T10:30:57.000Z</time>
      </trkpt>
      <trkpt lat="42.21975333" lon="-8.740275">
        <ele>65.0</ele>
        <time>2018-05-14T10:30:58.000Z</time>
      </trkpt>
      <trkpt lat="42.219725" lon="-8.74026667">
        <ele>65.0</ele>
        <time>2018-05-14T10:30:59.000Z</time>
      </trkpt>
      <trkpt lat="42.21969333" lon="-8.74025667">
        <ele>65.0</ele>
        <time>2018-05-14T10:31:00.000Z</time>
      </trkpt>
      <trkpt lat="42.21966" lon="-8.74024833">
        <ele>65.0</ele>
        <time>2018-05-14T10:31:01.000Z</time>
      </trkpt>
      <trkpt lat="42.219625" lon="-8.74023833">
        <ele>65.0</ele>
        <time>2018-05-14T10:31:02.000Z</time>
      </trkpt>
      <trkpt lat="42.21959" lon="-8.74023167">
        <ele>65.0</ele>
        <time>2018-05-14T10:31:03.000Z</time>
      </trkpt>
      <trkpt lat="42.219555" lon="-8.74022333">
        <ele>65.0</ele>
        <time>2018-05-14T10:31:04.000Z</time>
      </trkpt>
      <trkpt lat="42.21952333" lon="-8.740215">
        <ele>65.0</ele>
        <time>2018-05-14T10:31:05.000Z</time>
      </trkpt>
      <trkpt lat="42.21949667" lon="-8.74020667">
        <ele>64.0</ele>
        <time>2018-05-14T10:31:06.000Z</time>
      </trkpt>
      <trkpt lat="42.21947" lon="-8.7402">
        <ele>64.0</ele>
        <time>2018-05-14T10:31:07.000Z</time>
      </trkpt>
      <trkpt lat="42.21944" lon="-8.74019167">
        <ele>64.0</ele>
        <time>2018-05-14T10:31:08.000Z</time>
      </trkpt>
      <trkpt lat="42.21940667" lon="-8.74017667">
        <ele>64.0</ele>
        <time>2018-05-14T10:31:09.000Z</time>
      </trkpt>
      <trkpt lat="42.21937167" lon="-8.74015333">
        <ele>64.0</ele>
        <time>2018-05-14T10:31:10.000Z</time>
      </trkpt>
      <trkpt lat="42.21934" lon="-8.74012667">
        <ele>64.0</ele>
        <time>2018-05-14T10:31:11.000Z</time>
      </trkpt>
      <trkpt lat="42.21931333" lon="-8.74008833">
        <ele>64.0</ele>
        <time>2018-05-14T10:31:12.000Z</time>
      </trkpt>
      <trkpt lat="42.21929" lon="-8.740045">
        <ele>64.0</ele>
        <time>2018-05-14T10:31:13.000Z</time>
      </trkpt>
      <trkpt lat="42.21926833" lon="-8.73999167">
        <ele>64.0</ele>
        <time>2018-05-14T10:31:14.000Z</time>
      </trkpt>
      <trkpt lat="42.21924667" lon="-8.73993833">
        <ele>64.0</ele>
        <time>2018-05-14T10:31:15.000Z</time>
      </trkpt>
      <trkpt lat="42.219225" lon="-8.73988833">
        <ele>64.0</ele>
        <time>2018-05-14T10:31:16.000Z</time>
      </trkpt>
      <trkpt lat="42.21920667" lon="-8.73984">
        <ele>63.0</ele>
        <time>2018-05-14T10:31:17.000Z</time>
      </trkpt>
      <trkpt lat="42.21919" lon="-8.73978833">
        <ele>63.0</ele>
        <time>2018-05-14T10:31:18.000Z</time>
      </trkpt>
      <trkpt lat="42.21918" lon="-8.73973667">
        <ele>63.0</ele>
        <time>2018-05-14T10:31:19.000Z</time>
      </trkpt>
      <trkpt lat="42.219175" lon="-8.739685">
        <ele>62.0</ele>
        <time>2018-05-14T10:31:20.000Z</time>
      </trkpt>
      <trkpt lat="42.21917167" lon="-8.73963667">
        <ele>62.0</ele>
        <time>2018-05-14T10:31:21.000Z</time>
      </trkpt>
      <trkpt lat="42.21916667" lon="-8.73959833">
        <ele>62.0</ele>
        <time>2018-05-14T10:31:22.000Z</time>
      </trkpt>
      <trkpt lat="42.21916" lon="-8.73956">
        <ele>62.0</ele>
        <time>2018-05-14T10:31:23.000Z</time>
      </trkpt>
      <trkpt lat="42.21915333" lon="-8.73951833">
        <ele>61.0</ele>
        <time>2018-05-14T10:31:24.000Z</time>
      </trkpt>
      <trkpt lat="42.21914833" lon="-8.73947333">
        <ele>61.0</ele>
        <time>2018-05-14T10:31:25.000Z</time>
      </trkpt>
      <trkpt lat="42.21914667" lon="-8.739425">
        <ele>60.0</ele>
        <time>2018-05-14T10:31:26.000Z</time>
      </trkpt>
      <trkpt lat="42.21914667" lon="-8.739375">
        <ele>60.0</ele>
        <time>2018-05-14T10:31:27.000Z</time>
      </trkpt>
      <trkpt lat="42.21914667" lon="-8.73932167">
        <ele>60.0</ele>
        <time>2018-05-14T10:31:28.000Z</time>
      </trkpt>
      <trkpt lat="42.21915" lon="-8.73927">
        <ele>60.0</ele>
        <time>2018-05-14T10:31:29.000Z</time>
      </trkpt>
      <trkpt lat="42.21915333" lon="-8.73921833">
        <ele>60.0</ele>
        <time>2018-05-14T10:31:30.000Z</time>
      </trkpt>
      <trkpt lat="42.21915667" lon="-8.73916667">
        <ele>60.0</ele>
        <time>2018-05-14T10:31:31.000Z</time>
      </trkpt>
      <trkpt lat="42.21916167" lon="-8.73911667">
        <ele>60.0</ele>
        <time>2018-05-14T10:31:32.000Z</time>
      </trkpt>
      <trkpt lat="42.219165" lon="-8.739065">
        <ele>60.0</ele>
        <time>2018-05-14T10:31:33.000Z</time>
      </trkpt>
      <trkpt lat="42.21916833" lon="-8.73901833">
        <ele>60.0</ele>
        <time>2018-05-14T10:31:34.000Z</time>
      </trkpt>
      <trkpt lat="42.21917" lon="-8.73897167">
        <ele>60.0</ele>
        <time>2018-05-14T10:31:35.000Z</time>
      </trkpt>
      <trkpt lat="42.21917167" lon="-8.73892667">
        <ele>60.0</ele>
        <time>2018-05-14T10:31:36.000Z</time>
      </trkpt>
      <trkpt lat="42.21917" lon="-8.738885">
        <ele>60.0</ele>
        <time>2018-05-14T10:31:37.000Z</time>
      </trkpt>
      <trkpt lat="42.21916667" lon="-8.73884333">
        <ele>60.0</ele>
        <time>2018-05-14T10:31:38.000Z</time>
      </trkpt>
      <trkpt lat="42.21916667" lon="-8.7388">
        <ele>60.0</ele>
        <time>2018-05-14T10:31:39.000Z</time>
      </trkpt>
      <trkpt lat="42.21917167" lon="-8.73875667">
        <ele>59.0</ele>
        <time>2018-05-14T10:31:40.000Z</time>
      </trkpt>
      <trkpt lat="42.21918" lon="-8.738715">
        <ele>59.0</ele>
        <time>2018-05-14T10:31:41.000Z</time>
      </trkpt>
      <trkpt lat="42.21918833" lon="-8.73867333">
        <ele>59.0</ele>
        <time>2018-05-14T10:31:42.000Z</time>
      </trkpt>
      <trkpt lat="42.21919333" lon="-8.738635">
        <ele>59.0</ele>
        <time>2018-05-14T10:31:43.000Z</time>
      </trkpt>
      <trkpt lat="42.219195" lon="-8.73859667">
        <ele>59.0</ele>
        <time>2018-05-14T10:31:44.000Z</time>
      </trkpt>
      <trkpt lat="42.21919333" lon="-8.73856167">
        <ele>59.0</ele>
        <time>2018-05-14T10:31:45.000Z</time>
      </trkpt>
      <trkpt lat="42.21919167" lon="-8.738535">
        <ele>59.0</ele>
        <time>2018-05-14T10:31:46.000Z</time>
      </trkpt>
      <trkpt lat="42.21918667" lon="-8.73851333">
        <ele>59.0</ele>
        <time>2018-05-14T10:31:47.000Z</time>
      </trkpt>
      <trkpt lat="42.21918167" lon="-8.73849667">
        <ele>59.0</ele>
        <time>2018-05-14T10:31:48.000Z</time>
      </trkpt>
      <trkpt lat="42.219175" lon="-8.73849">
        <ele>59.0</ele>
        <time>2018-05-14T10:31:49.000Z</time>
      </trkpt>
      <trkpt lat="42.21916333" lon="-8.73849">
        <ele>59.0</ele>
        <time>2018-05-14T10:31:50.000Z</time>
      </trkpt>
      <trkpt lat="42.21915" lon="-8.73849333">
        <ele>59.0</ele>
        <time>2018-05-14T10:31:51.000Z</time>
      </trkpt>
      <trkpt lat="42.21913333" lon="-8.7385">
        <ele>59.0</ele>
        <time>2018-05-14T10:31:52.000Z</time>
      </trkpt>
      <trkpt lat="42.21911167" lon="-8.73850833">
        <ele>59.0</ele>
        <time>2018-05-14T10:31:53.000Z</time>
      </trkpt>
      <trkpt lat="42.219085" lon="-8.73851833">
        <ele>60.0</ele>
        <time>2018-05-14T10:31:54.000Z</time>
      </trkpt>
      <trkpt lat="42.21905667" lon="-8.73853333">
        <ele>60.0</ele>
        <time>2018-05-14T10:31:55.000Z</time>
      </trkpt>
      <trkpt lat="42.21902833" lon="-8.73854833">
        <ele>60.0</ele>
        <time>2018-05-14T10:31:56.000Z</time>
      </trkpt>
      <trkpt lat="42.21900167" lon="-8.738565">
        <ele>61.0</ele>
        <time>2018-05-14T10:31:57.000Z</time>
      </trkpt>
      <trkpt lat="42.21897333" lon="-8.73858">
        <ele>61.0</ele>
        <time>2018-05-14T10:31:58.000Z</time>
      </trkpt>
      <trkpt lat="42.21894167" lon="-8.73859667">
        <ele>61.0</ele>
        <time>2018-05-14T10:31:59.000Z</time>
      </trkpt>
      <trkpt lat="42.21891" lon="-8.73861167">
        <ele>61.0</ele>
        <time>2018-05-14T10:32:00.000Z</time>
      </trkpt>
      <trkpt lat="42.21887667" lon="-8.73862333">
        <ele>62.0</ele>
        <time>2018-05-14T10:32:01.000Z</time>
      </trkpt>
      <trkpt lat="42.21884167" lon="-8.73863833">
        <ele>62.0</ele>
        <time>2018-05-14T10:32:02.000Z</time>
      </trkpt>
      <trkpt lat="42.21880667" lon="-8.73865333">
        <ele>62.0</ele>
        <time>2018-05-14T10:32:03.000Z</time>
      </trkpt>
      <trkpt lat="42.21876833" lon="-8.73866833">
        <ele>62.0</ele>
        <time>2018-05-14T10:32:04.000Z</time>
      </trkpt>
      <trkpt lat="42.21873167" lon="-8.73868">
        <ele>62.0</ele>
        <time>2018-05-14T10:32:05.000Z</time>
      </trkpt>
      <trkpt lat="42.218695" lon="-8.73869333">
        <ele>62.0</ele>
        <time>2018-05-14T10:32:06.000Z</time>
      </trkpt>
      <trkpt lat="42.21865667" lon="-8.73870667">
        <ele>63.0</ele>
        <time>2018-05-14T10:32:07.000Z</time>
      </trkpt>
      <trkpt lat="42.21861833" lon="-8.73871833">
        <ele>63.0</ele>
        <time>2018-05-14T10:32:08.000Z</time>
      </trkpt>
      <trkpt lat="42.21858333" lon="-8.73873167">
        <ele>63.0</ele>
        <time>2018-05-14T10:32:09.000Z</time>
      </trkpt>
      <trkpt lat="42.21854833" lon="-8.73874333">
        <ele>63.0</ele>
        <time>2018-05-14T10:32:10.000Z</time>
      </trkpt>
      <trkpt lat="42.21851333" lon="-8.73875667">
        <ele>64.0</ele>
        <time>2018-05-14T10:32:11.000Z</time>
      </trkpt>
      <trkpt lat="42.21848" lon="-8.73876667">
        <ele>64.0</ele>
        <time>2018-05-14T10:32:12.000Z</time>
      </trkpt>
      <trkpt lat="42.21844833" lon="-8.738775">
        <ele>64.0</ele>
        <time>2018-05-14T10:32:13.000Z</time>
      </trkpt>
      <trkpt lat="42.21841333" lon="-8.73878">
        <ele>64.0</ele>
        <time>2018-05-14T10:32:14.000Z</time>
      </trkpt>
      <trkpt lat="42.21837833" lon="-8.73877833">
        <ele>65.0</ele>
        <time>2018-05-14T10:32:15.000Z</time>
      </trkpt>
      <trkpt lat="42.21833833" lon="-8.73877333">
        <ele>65.0</ele>
        <time>2018-05-14T10:32:16.000Z</time>
      </trkpt>
      <trkpt lat="42.21830167" lon="-8.73876667">
        <ele>65.0</ele>
        <time>2018-05-14T10:32:17.000Z</time>
      </trkpt>
      <trkpt lat="42.21826333" lon="-8.73876167">
        <ele>65.0</ele>
        <time>2018-05-14T10:32:18.000Z</time>
      </trkpt>
      <trkpt lat="42.218225" lon="-8.73875333">
        <ele>65.0</ele>
        <time>2018-05-14T10:32:19.000Z</time>
      </trkpt>
      <trkpt lat="42.21818833" lon="-8.738745">
        <ele>65.0</ele>
        <time>2018-05-14T10:32:20.000Z</time>
      </trkpt>
      <trkpt lat="42.21815167" lon="-8.73873667">
        <ele>64.0</ele>
        <time>2018-05-14T10:32:21.000Z</time>
      </trkpt>
      <trkpt lat="42.21811667" lon="-8.73872333">
        <ele>64.0</ele>
        <time>2018-05-14T10:32:22.000Z</time>
      </trkpt>
      <trkpt lat="42.21808333" lon="-8.738705">
        <ele>64.0</ele>
        <time>2018-05-14T10:32:23.000Z</time>
      </trkpt>
      <trkpt lat="42.21805333" lon="-8.73867833">
        <ele>63.0</ele>
        <time>2018-05-14T10:32:24.000Z</time>
      </trkpt>
      <trkpt lat="42.21802333" lon="-8.73864167">
        <ele>63.0</ele>
        <time>2018-05-14T10:32:25.000Z</time>
      </trkpt>
      <trkpt lat="42.21799667" lon="-8.73859833">
        <ele>63.0</ele>
        <time>2018-05-14T10:32:26.000Z</time>
      </trkpt>
      <trkpt lat="42.21796833" lon="-8.73855667">
        <ele>63.0</ele>
        <time>2018-05-14T10:32:27.000Z</time>
      </trkpt>
      <trkpt lat="42.21794167" lon="-8.73850833">
        <ele>63.0</ele>
        <time>2018-05-14T10:32:28.000Z</time>
      </trkpt>
      <trkpt lat="42.21790833" lon="-8.73845833">
        <ele>63.0</ele>
        <time>2018-05-14T10:32:29.000Z</time>
      </trkpt>
      <trkpt lat="42.21787833" lon="-8.73840667">
        <ele>63.0</ele>
        <time>2018-05-14T10:32:30.000Z</time>
      </trkpt>
      <trkpt lat="42.21785667" lon="-8.73836">
        <ele>63.0</ele>
        <time>2018-05-14T10:32:31.000Z</time>
      </trkpt>
      <trkpt lat="42.21784667" lon="-8.73831667">
        <ele>63.0</ele>
        <time>2018-05-14T10:32:32.000Z</time>
      </trkpt>
      <trkpt lat="42.21784833" lon="-8.73827667">
        <ele>63.0</ele>
        <time>2018-05-14T10:32:33.000Z</time>
      </trkpt>
      <trkpt lat="42.21785333" lon="-8.73824667">
        <ele>64.0</ele>
        <time>2018-05-14T10:32:34.000Z</time>
      </trkpt>
      <trkpt lat="42.21786333" lon="-8.73821833">
        <ele>64.0</ele>
        <time>2018-05-14T10:32:35.000Z</time>
      </trkpt>
      <trkpt lat="42.21787833" lon="-8.73819833">
        <ele>64.0</ele>
        <time>2018-05-14T10:32:36.000Z</time>
      </trkpt>
      <trkpt lat="42.217895" lon="-8.738175">
        <ele>64.0</ele>
        <time>2018-05-14T10:32:37.000Z</time>
      </trkpt>
      <trkpt lat="42.217915" lon="-8.73815333">
        <ele>64.0</ele>
        <time>2018-05-14T10:32:38.000Z</time>
      </trkpt>
      <trkpt lat="42.21793833" lon="-8.73813167">
        <ele>64.0</ele>
        <time>2018-05-14T10:32:39.000Z</time>
      </trkpt>
      <trkpt lat="42.21796167" lon="-8.73810667">
        <ele>65.0</ele>
        <time>2018-05-14T10:32:40.000Z</time>
      </trkpt>
      <trkpt lat="42.21798833" lon="-8.73807667">
        <ele>65.0</ele>
        <time>2018-05-14T10:32:41.000Z</time>
      </trkpt>
      <trkpt lat="42.21801167" lon="-8.738045">
        <ele>65.0</ele>
        <time>2018-05-14T10:32:42.000Z</time>
      </trkpt>
      <trkpt lat="42.21803333" lon="-8.738015">
        <ele>66.0</ele>
        <time>2018-05-14T10:32:43.000Z</time>
      </trkpt>
      <trkpt lat="42.218055" lon="-8.73798167">
        <ele>66.0</ele>
        <time>2018-05-14T10:32:44.000Z</time>
      </trkpt>
      <trkpt lat="42.21807667" lon="-8.73794667">
        <ele>66.0</ele>
        <time>2018-05-14T10:32:45.000Z</time>
      </trkpt>
      <trkpt lat="42.21809833" lon="-8.73791333">
        <ele>66.0</ele>
        <time>2018-05-14T10:32:46.000Z</time>
      </trkpt>
      <trkpt lat="42.21811833" lon="-8.73788167">
        <ele>67.0</ele>
        <time>2018-05-14T10:32:47.000Z</time>
      </trkpt>
      <trkpt lat="42.218135" lon="-8.73784667">
        <ele>67.0</ele>
        <time>2018-05-14T10:32:48.000Z</time>
      </trkpt>
      <trkpt lat="42.21815" lon="-8.73781333">
        <ele>67.0</ele>
        <time>2018-05-14T10:32:49.000Z</time>
      </trkpt>
      <trkpt lat="42.21816333" lon="-8.73778333">
        <ele>67.0</ele>
        <time>2018-05-14T10:32:50.000Z</time>
      </trkpt>
      <trkpt lat="42.21817167" lon="-8.73775333">
        <ele>68.0</ele>
        <time>2018-05-14T10:32:51.000Z</time>
      </trkpt>
      <trkpt lat="42.21818167" lon="-8.73772333">
        <ele>68.0</ele>
        <time>2018-05-14T10:32:52.000Z</time>
      </trkpt>
      <trkpt lat="42.21819" lon="-8.73769">
        <ele>68.0</ele>
        <time>2018-05-14T10:32:53.000Z</time>
      </trkpt>
      <trkpt lat="42.21819667" lon="-8.73765667">
        <ele>68.0</ele>
        <time>2018-05-14T10:32:54.000Z</time>
      </trkpt>
      <trkpt lat="42.218205" lon="-8.73762167">
        <ele>69.0</ele>
        <time>2018-05-14T10:32:55.000Z</time>
      </trkpt>
      <trkpt lat="42.21821333" lon="-8.73759">
        <ele>69.0</ele>
        <time>2018-05-14T10:32:56.000Z</time>
      </trkpt>
      <trkpt lat="42.218225" lon="-8.73755833">
        <ele>69.0</ele>
        <time>2018-05-14T10:32:57.000Z</time>
      </trkpt>
      <trkpt lat="42.21824" lon="-8.73753">
        <ele>70.0</ele>
        <time>2018-05-14T10:32:58.000Z</time>
      </trkpt>
      <trkpt lat="42.21825667" lon="-8.73750333">
        <ele>70.0</ele>
        <time>2018-05-14T10:32:59.000Z</time>
      </trkpt>
      <trkpt lat="42.21827667" lon="-8.73748">
        <ele>70.0</ele>
        <time>2018-05-14T10:33:00.000Z</time>
      </trkpt>
      <trkpt lat="42.218295" lon="-8.73745333">
        <ele>70.0</ele>
        <time>2018-05-14T10:33:01.000Z</time>
      </trkpt>
      <trkpt lat="42.21831667" lon="-8.73742167">
        <ele>70.0</ele>
        <time>2018-05-14T10:33:02.000Z</time>
      </trkpt>
      <trkpt lat="42.21833667" lon="-8.73739167">
        <ele>70.0</ele>
        <time>2018-05-14T10:33:03.000Z</time>
      </trkpt>
      <trkpt lat="42.21836" lon="-8.73736167">
        <ele>70.0</ele>
        <time>2018-05-14T10:33:04.000Z</time>
      </trkpt>
      <trkpt lat="42.21838" lon="-8.73732833">
        <ele>70.0</ele>
        <time>2018-05-14T10:33:05.000Z</time>
      </trkpt>
      <trkpt lat="42.21839833" lon="-8.73729333">
        <ele>70.0</ele>
        <time>2018-05-14T10:33:06.000Z</time>
      </trkpt>
      <trkpt lat="42.218415" lon="-8.73725667">
        <ele>70.0</ele>
        <time>2018-05-14T10:33:07.000Z</time>
      </trkpt>
      <trkpt lat="42.21843167" lon="-8.73722">
        <ele>70.0</ele>
        <time>2018-05-14T10:33:08.000Z</time>
      </trkpt>
      <trkpt lat="42.21844667" lon="-8.73718667">
        <ele>70.0</ele>
        <time>2018-05-14T10:33:09.000Z</time>
      </trkpt>
      <trkpt lat="42.21846667" lon="-8.73715167">
        <ele>70.0</ele>
        <time>2018-05-14T10:33:10.000Z</time>
      </trkpt>
      <trkpt lat="42.21848667" lon="-8.73712167">
        <ele>70.0</ele>
        <time>2018-05-14T10:33:11.000Z</time>
      </trkpt>
      <trkpt lat="42.21851" lon="-8.73709833">
        <ele>70.0</ele>
        <time>2018-05-14T10:33:12.000Z</time>
      </trkpt>
      <trkpt lat="42.21853" lon="-8.73708">
        <ele>70.0</ele>
        <time>2018-05-14T10:33:13.000Z</time>
      </trkpt>
      <trkpt lat="42.218555" lon="-8.73706167">
        <ele>69.0</ele>
        <time>2018-05-14T10:33:14.000Z</time>
      </trkpt>
      <trkpt lat="42.21858167" lon="-8.73704167">
        <ele>69.0</ele>
        <time>2018-05-14T10:33:15.000Z</time>
      </trkpt>
      <trkpt lat="42.21860833" lon="-8.73702">
        <ele>69.0</ele>
        <time>2018-05-14T10:33:16.000Z</time>
      </trkpt>
      <trkpt lat="42.21863333" lon="-8.73699833">
        <ele>69.0</ele>
        <time>2018-05-14T10:33:17.000Z</time>
      </trkpt>
      <trkpt lat="42.21866" lon="-8.73697333">
        <ele>69.0</ele>
        <time>2018-05-14T10:33:18.000Z</time>
      </trkpt>
      <trkpt lat="42.218685" lon="-8.73695167">
        <ele>68.0</ele>
        <time>2018-05-14T10:33:19.000Z</time>
      </trkpt>
      <trkpt lat="42.21870833" lon="-8.73692833">
        <ele>68.0</ele>
        <time>2018-05-14T10:33:20.000Z</time>
      </trkpt>
      <trkpt lat="42.21873" lon="-8.73690333">
        <ele>67.0</ele>
        <time>2018-05-14T10:33:21.000Z</time>
      </trkpt>
      <trkpt lat="42.21875167" lon="-8.73687667">
        <ele>67.0</ele>
        <time>2018-05-14T10:33:22.000Z</time>
      </trkpt>
      <trkpt lat="42.21877333" lon="-8.73685167">
        <ele>67.0</ele>
        <time>2018-05-14T10:33:23.000Z</time>
      </trkpt>
      <trkpt lat="42.21879333" lon="-8.736825">
        <ele>66.0</ele>
        <time>2018-05-14T10:33:24.000Z</time>
      </trkpt>
      <trkpt lat="42.21881667" lon="-8.73679667">
        <ele>66.0</ele>
        <time>2018-05-14T10:33:25.000Z</time>
      </trkpt>
      <trkpt lat="42.21884" lon="-8.73676667">
        <ele>65.0</ele>
        <time>2018-05-14T10:33:26.000Z</time>
      </trkpt>
      <trkpt lat="42.21886667" lon="-8.73673667">
        <ele>65.0</ele>
        <time>2018-05-14T10:33:27.000Z</time>
      </trkpt>
      <trkpt lat="42.21889" lon="-8.73671">
        <ele>64.0</ele>
        <time>2018-05-14T10:33:28.000Z</time>
      </trkpt>
      <trkpt lat="42.21891167" lon="-8.736685">
        <ele>64.0</ele>
        <time>2018-05-14T10:33:29.000Z</time>
      </trkpt>
      <trkpt lat="42.21892833" lon="-8.73666">
        <ele>63.0</ele>
        <time>2018-05-14T10:33:30.000Z</time>
      </trkpt>
      <trkpt lat="42.21893833" lon="-8.73663667">
        <ele>63.0</ele>
        <time>2018-05-14T10:33:31.000Z</time>
      </trkpt>
      <trkpt lat="42.21894833" lon="-8.736615">
        <ele>62.0</ele>
        <time>2018-05-14T10:33:32.000Z</time>
      </trkpt>
      <trkpt lat="42.21895833" lon="-8.73659833">
        <ele>62.0</ele>
        <time>2018-05-14T10:33:33.000Z</time>
      </trkpt>
      <trkpt lat="42.21897167" lon="-8.73657667">
        <ele>62.0</ele>
        <time>2018-05-14T10:33:34.000Z</time>
      </trkpt>
      <trkpt lat="42.21898333" lon="-8.73655333">
        <ele>61.0</ele>
        <time>2018-05-14T10:33:35.000Z</time>
      </trkpt>
      <trkpt lat="42.21899167" lon="-8.73653">
        <ele>61.0</ele>
        <time>2018-05-14T10:33:36.000Z</time>
      </trkpt>
      <trkpt lat="42.21899667" lon="-8.7365">
        <ele>61.0</ele>
        <time>2018-05-14T10:33:37.000Z</time>
      </trkpt>
      <trkpt lat="42.218995" lon="-8.73645333">
        <ele>61.0</ele>
        <time>2018-05-14T10:33:38.000Z</time>
      </trkpt>
      <trkpt lat="42.21899" lon="-8.73641167">
        <ele>61.0</ele>
        <time>2018-05-14T10:33:39.000Z</time>
      </trkpt>
      <trkpt lat="42.21898" lon="-8.73637">
        <ele>61.0</ele>
        <time>2018-05-14T10:33:40.000Z</time>
      </trkpt>
      <trkpt lat="42.21896667" lon="-8.73633">
        <ele>61.0</ele>
        <time>2018-05-14T10:33:41.000Z</time>
      </trkpt>
      <trkpt lat="42.218955" lon="-8.73629333">
        <ele>61.0</ele>
        <time>2018-05-14T10:33:42.000Z</time>
      </trkpt>
      <trkpt lat="42.218945" lon="-8.73626333">
        <ele>61.0</ele>
        <time>2018-05-14T10:33:43.000Z</time>
      </trkpt>
      <trkpt lat="42.218935" lon="-8.73623833">
        <ele>61.0</ele>
        <time>2018-05-14T10:33:44.000Z</time>
      </trkpt>
      <trkpt lat="42.21892333" lon="-8.73621833">
        <ele>61.0</ele>
        <time>2018-05-14T10:33:45.000Z</time>
      </trkpt>
      <trkpt lat="42.21890667" lon="-8.736195">
        <ele>61.0</ele>
        <time>2018-05-14T10:33:46.000Z</time>
      </trkpt>
      <trkpt lat="42.21888833" lon="-8.73617">
        <ele>61.0</ele>
        <time>2018-05-14T10:33:47.000Z</time>
      </trkpt>
      <trkpt lat="42.21886833" lon="-8.73614333">
        <ele>61.0</ele>
        <time>2018-05-14T10:33:48.000Z</time>
      </trkpt>
      <trkpt lat="42.21884833" lon="-8.73611667">
        <ele>61.0</ele>
        <time>2018-05-14T10:33:49.000Z</time>
      </trkpt>
      <trkpt lat="42.21882667" lon="-8.73608833">
        <ele>61.0</ele>
        <time>2018-05-14T10:33:50.000Z</time>
      </trkpt>
      <trkpt lat="42.21880667" lon="-8.736055">
        <ele>61.0</ele>
        <time>2018-05-14T10:33:51.000Z</time>
      </trkpt>
      <trkpt lat="42.21878833" lon="-8.736025">
        <ele>61.0</ele>
        <time>2018-05-14T10:33:52.000Z</time>
      </trkpt>
      <trkpt lat="42.21877667" lon="-8.73599667">
        <ele>61.0</ele>
        <time>2018-05-14T10:33:53.000Z</time>
      </trkpt>
      <trkpt lat="42.218765" lon="-8.73596333">
        <ele>61.0</ele>
        <time>2018-05-14T10:33:54.000Z</time>
      </trkpt>
      <trkpt lat="42.218755" lon="-8.73593">
        <ele>61.0</ele>
        <time>2018-05-14T10:33:55.000Z</time>
      </trkpt>
      <trkpt lat="42.21874667" lon="-8.73589333">
        <ele>61.0</ele>
        <time>2018-05-14T10:33:56.000Z</time>
      </trkpt>
      <trkpt lat="42.21874167" lon="-8.73585667">
        <ele>61.0</ele>
        <time>2018-05-14T10:33:57.000Z</time>
      </trkpt>
      <trkpt lat="42.21874167" lon="-8.73582167">
        <ele>61.0</ele>
        <time>2018-05-14T10:33:58.000Z</time>
      </trkpt>
      <trkpt lat="42.21874333" lon="-8.73579">
        <ele>61.0</ele>
        <time>2018-05-14T10:33:59.000Z</time>
      </trkpt>
      <trkpt lat="42.218745" lon="-8.73576167">
        <ele>61.0</ele>
        <time>2018-05-14T10:34:00.000Z</time>
      </trkpt>
      <trkpt lat="42.21875" lon="-8.73573">
        <ele>61.0</ele>
        <time>2018-05-14T10:34:01.000Z</time>
      </trkpt>
      <trkpt lat="42.21875667" lon="-8.73570167">
        <ele>61.0</ele>
        <time>2018-05-14T10:34:02.000Z</time>
      </trkpt>
      <trkpt lat="42.218765" lon="-8.73567333">
        <ele>61.0</ele>
        <time>2018-05-14T10:34:03.000Z</time>
      </trkpt>
      <trkpt lat="42.21877333" lon="-8.73564667">
        <ele>61.0</ele>
        <time>2018-05-14T10:34:04.000Z</time>
      </trkpt>
      <trkpt lat="42.21878167" lon="-8.73561833">
        <ele>62.0</ele>
        <time>2018-05-14T10:34:05.000Z</time>
      </trkpt>
      <trkpt lat="42.21879167" lon="-8.73558833">
        <ele>62.0</ele>
        <time>2018-05-14T10:34:06.000Z</time>
      </trkpt>
      <trkpt lat="42.21880333" lon="-8.73555833">
        <ele>62.0</ele>
        <time>2018-05-14T10:34:07.000Z</time>
      </trkpt>
      <trkpt lat="42.21881833" lon="-8.73552667">
        <ele>62.0</ele>
        <time>2018-05-14T10:34:08.000Z</time>
      </trkpt>
      <trkpt lat="42.21883333" lon="-8.73549833">
        <ele>62.0</ele>
        <time>2018-05-14T10:34:09.000Z</time>
      </trkpt>
      <trkpt lat="42.21884833" lon="-8.73546667">
        <ele>62.0</ele>
        <time>2018-05-14T10:34:10.000Z</time>
      </trkpt>
      <trkpt lat="42.21886167" lon="-8.735435">
        <ele>62.0</ele>
        <time>2018-05-14T10:34:11.000Z</time>
      </trkpt>
      <trkpt lat="42.21887667" lon="-8.735405">
        <ele>63.0</ele>
        <time>2018-05-14T10:34:12.000Z</time>
      </trkpt>
      <trkpt lat="42.21889" lon="-8.73537333">
        <ele>63.0</ele>
        <time>2018-05-14T10:34:13.000Z</time>
      </trkpt>
      <trkpt lat="42.21890333" lon="-8.73534">
        <ele>63.0</ele>
        <time>2018-05-14T10:34:14.000Z</time>
      </trkpt>
      <trkpt lat="42.21891667" lon="-8.73531">
        <ele>63.0</ele>
        <time>2018-05-14T10:34:15.000Z</time>
      </trkpt>
      <trkpt lat="42.21893333" lon="-8.73527833">
        <ele>63.0</ele>
        <time>2018-05-14T10:34:16.000Z</time>
      </trkpt>
      <trkpt lat="42.218955" lon="-8.73524833">
        <ele>64.0</ele>
        <time>2018-05-14T10:34:17.000Z</time>
      </trkpt>
      <trkpt lat="42.21898333" lon="-8.73521667">
        <ele>64.0</ele>
        <time>2018-05-14T10:34:18.000Z</time>
      </trkpt>
      <trkpt lat="42.21901667" lon="-8.73519167">
        <ele>64.0</ele>
        <time>2018-05-14T10:34:19.000Z</time>
      </trkpt>
      <trkpt lat="42.21906167" lon="-8.73517333">
        <ele>65.0</ele>
        <time>2018-05-14T10:34:20.000Z</time>
      </trkpt>
      <trkpt lat="42.21911167" lon="-8.73516833">
        <ele>65.0</ele>
        <time>2018-05-14T10:34:21.000Z</time>
      </trkpt>
      <trkpt lat="42.21916333" lon="-8.73517833">
        <ele>65.0</ele>
        <time>2018-05-14T10:34:22.000Z</time>
      </trkpt>
      <trkpt lat="42.21920667" lon="-8.73519667">
        <ele>66.0</ele>
        <time>2018-05-14T10:34:23.000Z</time>
      </trkpt>
      <trkpt lat="42.219245" lon="-8.73522">
        <ele>66.0</ele>
        <time>2018-05-14T10:34:24.000Z</time>
      </trkpt>
      <trkpt lat="42.21927667" lon="-8.73524667">
        <ele>67.0</ele>
        <time>2018-05-14T10:34:25.000Z</time>
      </trkpt>
      <trkpt lat="42.219305" lon="-8.73526833">
        <ele>67.0</ele>
        <time>2018-05-14T10:34:26.000Z</time>
      </trkpt>
      <trkpt lat="42.21932667" lon="-8.73528167">
        <ele>68.0</ele>
        <time>2018-05-14T10:34:27.000Z</time>
      </trkpt>
      <trkpt lat="42.219345" lon="-8.73528667">
        <ele>68.0</ele>
        <time>2018-05-14T10:34:28.000Z</time>
      </trkpt>
      <trkpt lat="42.21935667" lon="-8.73528167">
        <ele>69.0</ele>
        <time>2018-05-14T10:34:29.000Z</time>
      </trkpt>
      <trkpt lat="42.21936167" lon="-8.73526833">
        <ele>69.0</ele>
        <time>2018-05-14T10:34:30.000Z</time>
      </trkpt>
      <trkpt lat="42.21935833" lon="-8.73524333">
        <ele>70.0</ele>
        <time>2018-05-14T10:34:31.000Z</time>
      </trkpt>
      <trkpt lat="42.21935333" lon="-8.73521333">
        <ele>70.0</ele>
        <time>2018-05-14T10:34:32.000Z</time>
      </trkpt>
      <trkpt lat="42.21934833" lon="-8.73517833">
        <ele>70.0</ele>
        <time>2018-05-14T10:34:33.000Z</time>
      </trkpt>
      <trkpt lat="42.21934" lon="-8.73514">
        <ele>71.0</ele>
        <time>2018-05-14T10:34:34.000Z</time>
      </trkpt>
      <trkpt lat="42.21932833" lon="-8.73509833">
        <ele>71.0</ele>
        <time>2018-05-14T10:34:35.000Z</time>
      </trkpt>
      <trkpt lat="42.21931667" lon="-8.73505667">
        <ele>72.0</ele>
        <time>2018-05-14T10:34:36.000Z</time>
      </trkpt>
      <trkpt lat="42.21930333" lon="-8.73501333">
        <ele>72.0</ele>
        <time>2018-05-14T10:34:37.000Z</time>
      </trkpt>
      <trkpt lat="42.21929333" lon="-8.73496833">
        <ele>73.0</ele>
        <time>2018-05-14T10:34:38.000Z</time>
      </trkpt>
      <trkpt lat="42.21928167" lon="-8.73492667">
        <ele>73.0</ele>
        <time>2018-05-14T10:34:39.000Z</time>
      </trkpt>
      <trkpt lat="42.21927" lon="-8.734885">
        <ele>73.0</ele>
        <time>2018-05-14T10:34:40.000Z</time>
      </trkpt>
      <trkpt lat="42.21926167" lon="-8.73484833">
        <ele>74.0</ele>
        <time>2018-05-14T10:34:41.000Z</time>
      </trkpt>
      <trkpt lat="42.21925833" lon="-8.73481">
        <ele>74.0</ele>
        <time>2018-05-14T10:34:42.000Z</time>
      </trkpt>
      <trkpt lat="42.21925833" lon="-8.73477333">
        <ele>74.0</ele>
        <time>2018-05-14T10:34:43.000Z</time>
      </trkpt>
      <trkpt lat="42.21926167" lon="-8.73474167">
        <ele>74.0</ele>
        <time>2018-05-14T10:34:44.000Z</time>
      </trkpt>
      <trkpt lat="42.219265" lon="-8.73471167">
        <ele>74.0</ele>
        <time>2018-05-14T10:34:45.000Z</time>
      </trkpt>
      <trkpt lat="42.21927167" lon="-8.73468333">
        <ele>74.0</ele>
        <time>2018-05-14T10:34:46.000Z</time>
      </trkpt>
      <trkpt lat="42.21927667" lon="-8.73465333">
        <ele>74.0</ele>
        <time>2018-05-14T10:34:47.000Z</time>
      </trkpt>
      <trkpt lat="42.21928" lon="-8.73462667">
        <ele>74.0</ele>
        <time>2018-05-14T10:34:48.000Z</time>
      </trkpt>
      <trkpt lat="42.21928167" lon="-8.7346">
        <ele>74.0</ele>
        <time>2018-05-14T10:34:49.000Z</time>
      </trkpt>
      <trkpt lat="42.21928333" lon="-8.73457333">
        <ele>74.0</ele>
        <time>2018-05-14T10:34:50.000Z</time>
      </trkpt>
      <trkpt lat="42.21928667" lon="-8.73455">
        <ele>74.0</ele>
        <time>2018-05-14T10:34:51.000Z</time>
      </trkpt>
      <trkpt lat="42.21928833" lon="-8.734525">
        <ele>74.0</ele>
        <time>2018-05-14T10:34:52.000Z</time>
      </trkpt>
      <trkpt lat="42.21929167" lon="-8.73450167">
        <ele>74.0</ele>
        <time>2018-05-14T10:34:53.000Z</time>
      </trkpt>
      <trkpt lat="42.21929" lon="-8.73447833">
        <ele>74.0</ele>
        <time>2018-05-14T10:34:54.000Z</time>
      </trkpt>
      <trkpt lat="42.21929" lon="-8.73445667">
        <ele>74.0</ele>
        <time>2018-05-14T10:34:55.000Z</time>
      </trkpt>
      <trkpt lat="42.21928833" lon="-8.73444">
        <ele>74.0</ele>
        <time>2018-05-14T10:34:56.000Z</time>
      </trkpt>
      <trkpt lat="42.219285" lon="-8.73442167">
        <ele>74.0</ele>
        <time>2018-05-14T10:34:57.000Z</time>
      </trkpt>
      <trkpt lat="42.21927833" lon="-8.73440667">
        <ele>75.0</ele>
        <time>2018-05-14T10:34:58.000Z</time>
      </trkpt>
      <trkpt lat="42.21927333" lon="-8.734395">
        <ele>75.0</ele>
        <time>2018-05-14T10:34:59.000Z</time>
      </trkpt>
      <trkpt lat="42.21926833" lon="-8.73438">
        <ele>75.0</ele>
        <time>2018-05-14T10:35:00.000Z</time>
      </trkpt>
      <trkpt lat="42.21926167" lon="-8.734365">
        <ele>75.0</ele>
        <time>2018-05-14T10:35:01.000Z</time>
      </trkpt>
      <trkpt lat="42.21925667" lon="-8.734355">
        <ele>75.0</ele>
        <time>2018-05-14T10:35:02.000Z</time>
      </trkpt>
      <trkpt lat="42.21924833" lon="-8.73434833">
        <ele>75.0</ele>
        <time>2018-05-14T10:35:03.000Z</time>
      </trkpt>
      <trkpt lat="42.21923833" lon="-8.73434667">
        <ele>75.0</ele>
        <time>2018-05-14T10:35:04.000Z</time>
      </trkpt>
      <trkpt lat="42.219225" lon="-8.73435167">
        <ele>75.0</ele>
        <time>2018-05-14T10:35:05.000Z</time>
      </trkpt>
      <trkpt lat="42.21921" lon="-8.73435667">
        <ele>75.0</ele>
        <time>2018-05-14T10:35:06.000Z</time>
      </trkpt>
      <trkpt lat="42.21919167" lon="-8.73436333">
        <ele>75.0</ele>
        <time>2018-05-14T10:35:07.000Z</time>
      </trkpt>
      <trkpt lat="42.21917167" lon="-8.73436833">
        <ele>75.0</ele>
        <time>2018-05-14T10:35:08.000Z</time>
      </trkpt>
      <trkpt lat="42.21914667" lon="-8.734375">
        <ele>76.0</ele>
        <time>2018-05-14T10:35:09.000Z</time>
      </trkpt>
      <trkpt lat="42.21912" lon="-8.734385">
        <ele>76.0</ele>
        <time>2018-05-14T10:35:10.000Z</time>
      </trkpt>
      <trkpt lat="42.219095" lon="-8.734395">
        <ele>76.0</ele>
        <time>2018-05-14T10:35:11.000Z</time>
      </trkpt>
      <trkpt lat="42.21906667" lon="-8.73441">
        <ele>76.0</ele>
        <time>2018-05-14T10:35:12.000Z</time>
      </trkpt>
      <trkpt lat="42.21904167" lon="-8.73442333">
        <ele>76.0</ele>
        <time>2018-05-14T10:35:13.000Z</time>
      </trkpt>
      <trkpt lat="42.21901667" lon="-8.734435">
        <ele>76.0</ele>
        <time>2018-05-14T10:35:14.000Z</time>
      </trkpt>
      <trkpt lat="42.21899333" lon="-8.73444667">
        <ele>76.0</ele>
        <time>2018-05-14T10:35:15.000Z</time>
      </trkpt>
      <trkpt lat="42.21896333" lon="-8.73445667">
        <ele>76.0</ele>
        <time>2018-05-14T10:35:16.000Z</time>
      </trkpt>
      <trkpt lat="42.21892167" lon="-8.734465">
        <ele>76.0</ele>
        <time>2018-05-14T10:35:17.000Z</time>
      </trkpt>
      <trkpt lat="42.21888" lon="-8.73447333">
        <ele>77.0</ele>
        <time>2018-05-14T10:35:18.000Z</time>
      </trkpt>
      <trkpt lat="42.21883667" lon="-8.73448">
        <ele>77.0</ele>
        <time>2018-05-14T10:35:19.000Z</time>
      </trkpt>
      <trkpt lat="42.21879167" lon="-8.734485">
        <ele>77.0</ele>
        <time>2018-05-14T10:35:20.000Z</time>
      </trkpt>
      <trkpt lat="42.218745" lon="-8.73449">
        <ele>77.0</ele>
        <time>2018-05-14T10:35:21.000Z</time>
      </trkpt>
      <trkpt lat="42.21869667" lon="-8.73449333">
        <ele>77.0</ele>
        <time>2018-05-14T10:35:22.000Z</time>
      </trkpt>
      <trkpt lat="42.218645" lon="-8.73449167">
        <ele>77.0</ele>
        <time>2018-05-14T10:35:23.000Z</time>
      </trkpt>
      <trkpt lat="42.21859833" lon="-8.73448833">
        <ele>77.0</ele>
        <time>2018-05-14T10:35:24.000Z</time>
      </trkpt>
      <trkpt lat="42.21856" lon="-8.73448333">
        <ele>76.0</ele>
        <time>2018-05-14T10:35:25.000Z</time>
      </trkpt>
      <trkpt lat="42.21852833" lon="-8.73447167">
        <ele>76.0</ele>
        <time>2018-05-14T10:35:26.000Z</time>
      </trkpt>
      <trkpt lat="42.2185" lon="-8.73444833">
        <ele>76.0</ele>
        <time>2018-05-14T10:35:27.000Z</time>
      </trkpt>
      <trkpt lat="42.21847333" lon="-8.73442667">
        <ele>75.0</ele>
        <time>2018-05-14T10:35:28.000Z</time>
      </trkpt>
      <trkpt lat="42.21845" lon="-8.73440833">
        <ele>75.0</ele>
        <time>2018-05-14T10:35:29.000Z</time>
      </trkpt>
      <trkpt lat="42.21842833" lon="-8.73439333">
        <ele>75.0</ele>
        <time>2018-05-14T10:35:30.000Z</time>
      </trkpt>
      <trkpt lat="42.218405" lon="-8.73437833">
        <ele>74.0</ele>
        <time>2018-05-14T10:35:31.000Z</time>
      </trkpt>
      <trkpt lat="42.21837833" lon="-8.73436167">
        <ele>74.0</ele>
        <time>2018-05-14T10:35:32.000Z</time>
      </trkpt>
      <trkpt lat="42.21835" lon="-8.73434667">
        <ele>74.0</ele>
        <time>2018-05-14T10:35:33.000Z</time>
      </trkpt>
      <trkpt lat="42.21832333" lon="-8.73433">
        <ele>73.0</ele>
        <time>2018-05-14T10:35:34.000Z</time>
      </trkpt>
      <trkpt lat="42.218295" lon="-8.734315">
        <ele>73.0</ele>
        <time>2018-05-14T10:35:35.000Z</time>
      </trkpt>
      <trkpt lat="42.21826333" lon="-8.73430333">
        <ele>72.0</ele>
        <time>2018-05-14T10:35:36.000Z</time>
      </trkpt>
      <trkpt lat="42.21823333" lon="-8.73429333">
        <ele>72.0</ele>
        <time>2018-05-14T10:35:37.000Z</time>
      </trkpt>
      <trkpt lat="42.21820667" lon="-8.734285">
        <ele>72.0</ele>
        <time>2018-05-14T10:35:38.000Z</time>
      </trkpt>
      <trkpt lat="42.21817833" lon="-8.73427833">
        <ele>71.0</ele>
        <time>2018-05-14T10:35:39.000Z</time>
      </trkpt>
      <trkpt lat="42.21815333" lon="-8.734275">
        <ele>71.0</ele>
        <time>2018-05-14T10:35:40.000Z</time>
      </trkpt>
      <trkpt lat="42.21812833" lon="-8.73427167">
        <ele>71.0</ele>
        <time>2018-05-14T10:35:41.000Z</time>
      </trkpt>
      <trkpt lat="42.218105" lon="-8.73427">
        <ele>71.0</ele>
        <time>2018-05-14T10:35:42.000Z</time>
      </trkpt>
      <trkpt lat="42.21808167" lon="-8.73427">
        <ele>70.0</ele>
        <time>2018-05-14T10:35:43.000Z</time>
      </trkpt>
      <trkpt lat="42.21805833" lon="-8.73427167">
        <ele>70.0</ele>
        <time>2018-05-14T10:35:44.000Z</time>
      </trkpt>
      <trkpt lat="42.218035" lon="-8.734275">
        <ele>70.0</ele>
        <time>2018-05-14T10:35:45.000Z</time>
      </trkpt>
      <trkpt lat="42.21801" lon="-8.734285">
        <ele>70.0</ele>
        <time>2018-05-14T10:35:46.000Z</time>
      </trkpt>
      <trkpt lat="42.21798833" lon="-8.73430833">
        <ele>70.0</ele>
        <time>2018-05-14T10:35:47.000Z</time>
      </trkpt>
      <trkpt lat="42.21796833" lon="-8.73434167">
        <ele>70.0</ele>
        <time>2018-05-14T10:35:48.000Z</time>
      </trkpt>
      <trkpt lat="42.21794667" lon="-8.73438">
        <ele>70.0</ele>
        <time>2018-05-14T10:35:49.000Z</time>
      </trkpt>
      <trkpt lat="42.21792167" lon="-8.73442">
        <ele>70.0</ele>
        <time>2018-05-14T10:35:50.000Z</time>
      </trkpt>
      <trkpt lat="42.2179" lon="-8.73445833">
        <ele>70.0</ele>
        <time>2018-05-14T10:35:51.000Z</time>
      </trkpt>
      <trkpt lat="42.21787833" lon="-8.73449167">
        <ele>70.0</ele>
        <time>2018-05-14T10:35:52.000Z</time>
      </trkpt>
      <trkpt lat="42.21785333" lon="-8.73452167">
        <ele>70.0</ele>
        <time>2018-05-14T10:35:53.000Z</time>
      </trkpt>
      <trkpt lat="42.21783" lon="-8.73454333">
        <ele>70.0</ele>
        <time>2018-05-14T10:35:54.000Z</time>
      </trkpt>
      <trkpt lat="42.21780833" lon="-8.73456167">
        <ele>70.0</ele>
        <time>2018-05-14T10:35:55.000Z</time>
      </trkpt>
      <trkpt lat="42.21779167" lon="-8.73458">
        <ele>70.0</ele>
        <time>2018-05-14T10:35:56.000Z</time>
      </trkpt>
      <trkpt lat="42.21778" lon="-8.73459333">
        <ele>70.0</ele>
        <time>2018-05-14T10:35:57.000Z</time>
      </trkpt>
      <trkpt lat="42.21776833" lon="-8.73460833">
        <ele>70.0</ele>
        <time>2018-05-14T10:35:58.000Z</time>
      </trkpt>
      <trkpt lat="42.21776333" lon="-8.73462">
        <ele>70.0</ele>
        <time>2018-05-14T10:35:59.000Z</time>
      </trkpt>
      <trkpt lat="42.21775833" lon="-8.73462333">
        <ele>71.0</ele>
        <time>2018-05-14T10:36:00.000Z</time>
      </trkpt>
      <trkpt lat="42.21776" lon="-8.734615">
        <ele>71.0</ele>
        <time>2018-05-14T10:36:01.000Z</time>
      </trkpt>
      <trkpt lat="42.21776167" lon="-8.73459">
        <ele>71.0</ele>
        <time>2018-05-14T10:36:02.000Z</time>
      </trkpt>
      <trkpt lat="42.21776167" lon="-8.73454667">
        <ele>71.0</ele>
        <time>2018-05-14T10:36:03.000Z</time>
      </trkpt>
      <trkpt lat="42.21776167" lon="-8.734495">
        <ele>71.0</ele>
        <time>2018-05-14T10:36:04.000Z</time>
      </trkpt>
      <trkpt lat="42.21776167" lon="-8.73443667">
        <ele>71.0</ele>
        <time>2018-05-14T10:36:05.000Z</time>
      </trkpt>
      <trkpt lat="42.21775667" lon="-8.734375">
        <ele>71.0</ele>
        <time>2018-05-14T10:36:06.000Z</time>
      </trkpt>
      <trkpt lat="42.21774833" lon="-8.73431167">
        <ele>71.0</ele>
        <time>2018-05-14T10:36:07.000Z</time>
      </trkpt>
      <trkpt lat="42.21773667" lon="-8.734255">
        <ele>71.0</ele>
        <time>2018-05-14T10:36:08.000Z</time>
      </trkpt>
      <trkpt lat="42.21773" lon="-8.73420333">
        <ele>71.0</ele>
        <time>2018-05-14T10:36:09.000Z</time>
      </trkpt>
      <trkpt lat="42.21772167" lon="-8.73415667">
        <ele>70.0</ele>
        <time>2018-05-14T10:36:10.000Z</time>
      </trkpt>
      <trkpt lat="42.21771333" lon="-8.73411333">
        <ele>70.0</ele>
        <time>2018-05-14T10:36:11.000Z</time>
      </trkpt>
      <trkpt lat="42.21770333" lon="-8.734075">
        <ele>70.0</ele>
        <time>2018-05-14T10:36:12.000Z</time>
      </trkpt>
      <trkpt lat="42.217695" lon="-8.73403833">
        <ele>70.0</ele>
        <time>2018-05-14T10:36:13.000Z</time>
      </trkpt>
      <trkpt lat="42.21768667" lon="-8.73399833">
        <ele>70.0</ele>
        <time>2018-05-14T10:36:14.000Z</time>
      </trkpt>
      <trkpt lat="42.21767833" lon="-8.73395333">
        <ele>70.0</ele>
        <time>2018-05-14T10:36:15.000Z</time>
      </trkpt>
      <trkpt lat="42.21767167" lon="-8.73390667">
        <ele>69.0</ele>
        <time>2018-05-14T10:36:16.000Z</time>
      </trkpt>
      <trkpt lat="42.217665" lon="-8.73386167">
        <ele>69.0</ele>
        <time>2018-05-14T10:36:17.000Z</time>
      </trkpt>
      <trkpt lat="42.21765667" lon="-8.73382167">
        <ele>69.0</ele>
        <time>2018-05-14T10:36:18.000Z</time>
      </trkpt>
      <trkpt lat="42.21764667" lon="-8.73378333">
        <ele>69.0</ele>
        <time>2018-05-14T10:36:19.000Z</time>
      </trkpt>
      <trkpt lat="42.21763333" lon="-8.73374667">
        <ele>70.0</ele>
        <time>2018-05-14T10:36:20.000Z</time>
      </trkpt>
      <trkpt lat="42.21761833" lon="-8.73371167">
        <ele>70.0</ele>
        <time>2018-05-14T10:36:21.000Z</time>
      </trkpt>
      <trkpt lat="42.21760333" lon="-8.733675">
        <ele>70.0</ele>
        <time>2018-05-14T10:36:22.000Z</time>
      </trkpt>
      <trkpt lat="42.21758833" lon="-8.73364">
        <ele>70.0</ele>
        <time>2018-05-14T10:36:23.000Z</time>
      </trkpt>
      <trkpt lat="42.21757167" lon="-8.733605">
        <ele>70.0</ele>
        <time>2018-05-14T10:36:24.000Z</time>
      </trkpt>
      <trkpt lat="42.21755667" lon="-8.73357167">
        <ele>70.0</ele>
        <time>2018-05-14T10:36:25.000Z</time>
      </trkpt>
      <trkpt lat="42.21754167" lon="-8.73354">
        <ele>70.0</ele>
        <time>2018-05-14T10:36:26.000Z</time>
      </trkpt>
      <trkpt lat="42.21752833" lon="-8.73350333">
        <ele>70.0</ele>
        <time>2018-05-14T10:36:27.000Z</time>
      </trkpt>
      <trkpt lat="42.21751667" lon="-8.73346667">
        <ele>70.0</ele>
        <time>2018-05-14T10:36:28.000Z</time>
      </trkpt>
      <trkpt lat="42.217505" lon="-8.73342167">
        <ele>70.0</ele>
        <time>2018-05-14T10:36:29.000Z</time>
      </trkpt>
      <trkpt lat="42.217495" lon="-8.73338333">
        <ele>70.0</ele>
        <time>2018-05-14T10:36:30.000Z</time>
      </trkpt>
      <trkpt lat="42.21748333" lon="-8.73334">
        <ele>70.0</ele>
        <time>2018-05-14T10:36:31.000Z</time>
      </trkpt>
      <trkpt lat="42.21747333" lon="-8.73329667">
        <ele>70.0</ele>
        <time>2018-05-14T10:36:32.000Z</time>
      </trkpt>
      <trkpt lat="42.21746667" lon="-8.73325167">
        <ele>69.0</ele>
        <time>2018-05-14T10:36:33.000Z</time>
      </trkpt>
      <trkpt lat="42.21746167" lon="-8.73320333">
        <ele>69.0</ele>
        <time>2018-05-14T10:36:34.000Z</time>
      </trkpt>
      <trkpt lat="42.21745833" lon="-8.73315667">
        <ele>68.0</ele>
        <time>2018-05-14T10:36:35.000Z</time>
      </trkpt>
      <trkpt lat="42.21745833" lon="-8.73310833">
        <ele>67.0</ele>
        <time>2018-05-14T10:36:36.000Z</time>
      </trkpt>
      <trkpt lat="42.21746333" lon="-8.73306">
        <ele>67.0</ele>
        <time>2018-05-14T10:36:37.000Z</time>
      </trkpt>
      <trkpt lat="42.21747" lon="-8.733015">
        <ele>66.0</ele>
        <time>2018-05-14T10:36:38.000Z</time>
      </trkpt>
      <trkpt lat="42.21748333" lon="-8.73297833">
        <ele>66.0</ele>
        <time>2018-05-14T10:36:39.000Z</time>
      </trkpt>
      <trkpt lat="42.21750167" lon="-8.732945">
        <ele>65.0</ele>
        <time>2018-05-14T10:36:40.000Z</time>
      </trkpt>
      <trkpt lat="42.21752" lon="-8.73291667">
        <ele>65.0</ele>
        <time>2018-05-14T10:36:41.000Z</time>
      </trkpt>
      <trkpt lat="42.217535" lon="-8.73289">
        <ele>64.0</ele>
        <time>2018-05-14T10:36:42.000Z</time>
      </trkpt>
      <trkpt lat="42.21755" lon="-8.73286667">
        <ele>64.0</ele>
        <time>2018-05-14T10:36:43.000Z</time>
      </trkpt>
      <trkpt lat="42.21756667" lon="-8.73284333">
        <ele>63.0</ele>
        <time>2018-05-14T10:36:44.000Z</time>
      </trkpt>
      <trkpt lat="42.217585" lon="-8.73282333">
        <ele>63.0</ele>
        <time>2018-05-14T10:36:45.000Z</time>
      </trkpt>
      <trkpt lat="42.21760167" lon="-8.7328">
        <ele>63.0</ele>
        <time>2018-05-14T10:36:46.000Z</time>
      </trkpt>
      <trkpt lat="42.21762" lon="-8.732775">
        <ele>62.0</ele>
        <time>2018-05-14T10:36:47.000Z</time>
      </trkpt>
      <trkpt lat="42.21763" lon="-8.73274333">
        <ele>62.0</ele>
        <time>2018-05-14T10:36:48.000Z</time>
      </trkpt>
      <trkpt lat="42.21764" lon="-8.73270833">
        <ele>62.0</ele>
        <time>2018-05-14T10:36:49.000Z</time>
      </trkpt>
      <trkpt lat="42.21764833" lon="-8.73267333">
        <ele>61.0</ele>
        <time>2018-05-14T10:36:50.000Z</time>
      </trkpt>
      <trkpt lat="42.21765333" lon="-8.73263667">
        <ele>61.0</ele>
        <time>2018-05-14T10:36:51.000Z</time>
      </trkpt>
      <trkpt lat="42.21766" lon="-8.73260333">
        <ele>61.0</ele>
        <time>2018-05-14T10:36:52.000Z</time>
      </trkpt>
      <trkpt lat="42.21766167" lon="-8.73257167">
        <ele>61.0</ele>
        <time>2018-05-14T10:36:53.000Z</time>
      </trkpt>
      <trkpt lat="42.21766333" lon="-8.73254167">
        <ele>60.0</ele>
        <time>2018-05-14T10:36:54.000Z</time>
      </trkpt>
      <trkpt lat="42.21766167" lon="-8.73251833">
        <ele>60.0</ele>
        <time>2018-05-14T10:36:55.000Z</time>
      </trkpt>
      <trkpt lat="42.21765333" lon="-8.7325">
        <ele>60.0</ele>
        <time>2018-05-14T10:36:56.000Z</time>
      </trkpt>
      <trkpt lat="42.21764167" lon="-8.73248333">
        <ele>60.0</ele>
        <time>2018-05-14T10:36:57.000Z</time>
      </trkpt>
      <trkpt lat="42.21763" lon="-8.73246833">
        <ele>59.0</ele>
        <time>2018-05-14T10:36:58.000Z</time>
      </trkpt>
      <trkpt lat="42.21761167" lon="-8.732455">
        <ele>59.0</ele>
        <time>2018-05-14T10:36:59.000Z</time>
      </trkpt>
      <trkpt lat="42.217595" lon="-8.732445">
        <ele>59.0</ele>
        <time>2018-05-14T10:37:00.000Z</time>
      </trkpt>
      <trkpt lat="42.21757667" lon="-8.732435">
        <ele>59.0</ele>
        <time>2018-05-14T10:37:01.000Z</time>
      </trkpt>
      <trkpt lat="42.21755333" lon="-8.73242667">
        <ele>59.0</ele>
        <time>2018-05-14T10:37:02.000Z</time>
      </trkpt>
      <trkpt lat="42.21752667" lon="-8.73241667">
        <ele>59.0</ele>
        <time>2018-05-14T10:37:03.000Z</time>
      </trkpt>
      <trkpt lat="42.21750167" lon="-8.73240333">
        <ele>59.0</ele>
        <time>2018-05-14T10:37:04.000Z</time>
      </trkpt>
      <trkpt lat="42.217475" lon="-8.73239667">
        <ele>59.0</ele>
        <time>2018-05-14T10:37:05.000Z</time>
      </trkpt>
      <trkpt lat="42.21744333" lon="-8.73240167">
        <ele>59.0</ele>
        <time>2018-05-14T10:37:06.000Z</time>
      </trkpt>
      <trkpt lat="42.21741" lon="-8.732415">
        <ele>59.0</ele>
        <time>2018-05-14T10:37:07.000Z</time>
      </trkpt>
      <trkpt lat="42.217375" lon="-8.73242667">
        <ele>59.0</ele>
        <time>2018-05-14T10:37:08.000Z</time>
      </trkpt>
      <trkpt lat="42.21734" lon="-8.732435">
        <ele>59.0</ele>
        <time>2018-05-14T10:37:09.000Z</time>
      </trkpt>
      <trkpt lat="42.217305" lon="-8.73244">
        <ele>59.0</ele>
        <time>2018-05-14T10:37:10.000Z</time>
      </trkpt>
      <trkpt lat="42.21727167" lon="-8.73244667">
        <ele>59.0</ele>
        <time>2018-05-14T10:37:11.000Z</time>
      </trkpt>
      <trkpt lat="42.21724" lon="-8.73245167">
        <ele>59.0</ele>
        <time>2018-05-14T10:37:12.000Z</time>
      </trkpt>
      <trkpt lat="42.217205" lon="-8.73245167">
        <ele>59.0</ele>
        <time>2018-05-14T10:37:13.000Z</time>
      </trkpt>
      <trkpt lat="42.21716833" lon="-8.73245167">
        <ele>59.0</ele>
        <time>2018-05-14T10:37:14.000Z</time>
      </trkpt>
      <trkpt lat="42.21713333" lon="-8.73244833">
        <ele>59.0</ele>
        <time>2018-05-14T10:37:15.000Z</time>
      </trkpt>
      <trkpt lat="42.21709333" lon="-8.73244333">
        <ele>59.0</ele>
        <time>2018-05-14T10:37:16.000Z</time>
      </trkpt>
      <trkpt lat="42.21705167" lon="-8.73244167">
        <ele>59.0</ele>
        <time>2018-05-14T10:37:17.000Z</time>
      </trkpt>
      <trkpt lat="42.217005" lon="-8.73244">
        <ele>59.0</ele>
        <time>2018-05-14T10:37:18.000Z</time>
      </trkpt>
      <trkpt lat="42.21695833" lon="-8.73243833">
        <ele>59.0</ele>
        <time>2018-05-14T10:37:19.000Z</time>
      </trkpt>
      <trkpt lat="42.21691167" lon="-8.73243833">
        <ele>59.0</ele>
        <time>2018-05-14T10:37:20.000Z</time>
      </trkpt>
      <trkpt lat="42.21686333" lon="-8.73244167">
        <ele>59.0</ele>
        <time>2018-05-14T10:37:21.000Z</time>
      </trkpt>
      <trkpt lat="42.21681667" lon="-8.73244333">
        <ele>59.0</ele>
        <time>2018-05-14T10:37:22.000Z</time>
      </trkpt>
      <trkpt lat="42.21677" lon="-8.732445">
        <ele>60.0</ele>
        <time>2018-05-14T10:37:23.000Z</time>
      </trkpt>
      <trkpt lat="42.21672667" lon="-8.73245">
        <ele>60.0</ele>
        <time>2018-05-14T10:37:24.000Z</time>
      </trkpt>
      <trkpt lat="42.21668333" lon="-8.732455">
        <ele>60.0</ele>
        <time>2018-05-14T10:37:25.000Z</time>
      </trkpt>
      <trkpt lat="42.216645" lon="-8.73245833">
        <ele>60.0</ele>
        <time>2018-05-14T10:37:26.000Z</time>
      </trkpt>
      <trkpt lat="42.21661" lon="-8.73245667">
        <ele>60.0</ele>
        <time>2018-05-14T10:37:27.000Z</time>
      </trkpt>
      <trkpt lat="42.216575" lon="-8.73245333">
        <ele>60.0</ele>
        <time>2018-05-14T10:37:28.000Z</time>
      </trkpt>
      <trkpt lat="42.216545" lon="-8.73245167">
        <ele>60.0</ele>
        <time>2018-05-14T10:37:29.000Z</time>
      </trkpt>
      <trkpt lat="42.216515" lon="-8.73244833">
        <ele>60.0</ele>
        <time>2018-05-14T10:37:30.000Z</time>
      </trkpt>
      <trkpt lat="42.21648333" lon="-8.73244333">
        <ele>60.0</ele>
        <time>2018-05-14T10:37:31.000Z</time>
      </trkpt>
      <trkpt lat="42.21645167" lon="-8.73243833">
        <ele>60.0</ele>
        <time>2018-05-14T10:37:32.000Z</time>
      </trkpt>
      <trkpt lat="42.21641667" lon="-8.732435">
        <ele>60.0</ele>
        <time>2018-05-14T10:37:33.000Z</time>
      </trkpt>
      <trkpt lat="42.21638167" lon="-8.73243333">
        <ele>60.0</ele>
        <time>2018-05-14T10:37:34.000Z</time>
      </trkpt>
      <trkpt lat="42.21634667" lon="-8.732435">
        <ele>60.0</ele>
        <time>2018-05-14T10:37:35.000Z</time>
      </trkpt>
      <trkpt lat="42.21631333" lon="-8.73243667">
        <ele>61.0</ele>
        <time>2018-05-14T10:37:36.000Z</time>
      </trkpt>
      <trkpt lat="42.21628167" lon="-8.73244">
        <ele>61.0</ele>
        <time>2018-05-14T10:37:37.000Z</time>
      </trkpt>
      <trkpt lat="42.21624667" lon="-8.73244167">
        <ele>60.0</ele>
        <time>2018-05-14T10:37:38.000Z</time>
      </trkpt>
      <trkpt lat="42.21621" lon="-8.73244333">
        <ele>60.0</ele>
        <time>2018-05-14T10:37:39.000Z</time>
      </trkpt>
      <trkpt lat="42.21617167" lon="-8.73244667">
        <ele>60.0</ele>
        <time>2018-05-14T10:37:40.000Z</time>
      </trkpt>
      <trkpt lat="42.21613333" lon="-8.73245">
        <ele>60.0</ele>
        <time>2018-05-14T10:37:41.000Z</time>
      </trkpt>
      <trkpt lat="42.216095" lon="-8.73245333">
        <ele>59.0</ele>
        <time>2018-05-14T10:37:42.000Z</time>
      </trkpt>
      <trkpt lat="42.21605833" lon="-8.73245667">
        <ele>59.0</ele>
        <time>2018-05-14T10:37:43.000Z</time>
      </trkpt>
      <trkpt lat="42.21602" lon="-8.73246">
        <ele>59.0</ele>
        <time>2018-05-14T10:37:44.000Z</time>
      </trkpt>
      <trkpt lat="42.21598333" lon="-8.732465">
        <ele>59.0</ele>
        <time>2018-05-14T10:37:45.000Z</time>
      </trkpt>
      <trkpt lat="42.21594667" lon="-8.73247167">
        <ele>59.0</ele>
        <time>2018-05-14T10:37:46.000Z</time>
      </trkpt>
      <trkpt lat="42.21591" lon="-8.73247667">
        <ele>58.0</ele>
        <time>2018-05-14T10:37:47.000Z</time>
      </trkpt>
      <trkpt lat="42.215875" lon="-8.73248167">
        <ele>58.0</ele>
        <time>2018-05-14T10:37:48.000Z</time>
      </trkpt>
      <trkpt lat="42.21584" lon="-8.732485">
        <ele>58.0</ele>
        <time>2018-05-14T10:37:49.000Z</time>
      </trkpt>
      <trkpt lat="42.215805" lon="-8.73248833">
        <ele>58.0</ele>
        <time>2018-05-14T10:37:50.000Z</time>
      </trkpt>
      <trkpt lat="42.21577333" lon="-8.73249167">
        <ele>58.0</ele>
        <time>2018-05-14T10:37:51.000Z</time>
      </trkpt>
      <trkpt lat="42.21574333" lon="-8.73249167">
        <ele>58.0</ele>
        <time>2018-05-14T10:37:52.000Z</time>
      </trkpt>
      <trkpt lat="42.21571167" lon="-8.73249">
        <ele>58.0</ele>
        <time>2018-05-14T10:37:53.000Z</time>
      </trkpt>
      <trkpt lat="42.21568167" lon="-8.73248833">
        <ele>58.0</ele>
        <time>2018-05-14T10:37:54.000Z</time>
      </trkpt>
      <trkpt lat="42.21565167" lon="-8.73248667">
        <ele>58.0</ele>
        <time>2018-05-14T10:37:55.000Z</time>
      </trkpt>
      <trkpt lat="42.21562167" lon="-8.73248667">
        <ele>57.0</ele>
        <time>2018-05-14T10:37:56.000Z</time>
      </trkpt>
      <trkpt lat="42.21559" lon="-8.73248333">
        <ele>57.0</ele>
        <time>2018-05-14T10:37:57.000Z</time>
      </trkpt>
      <trkpt lat="42.21555833" lon="-8.73247833">
        <ele>57.0</ele>
        <time>2018-05-14T10:37:58.000Z</time>
      </trkpt>
      <trkpt lat="42.21553" lon="-8.73246833">
        <ele>57.0</ele>
        <time>2018-05-14T10:37:59.000Z</time>
      </trkpt>
      <trkpt lat="42.21550333" lon="-8.73246167">
        <ele>57.0</ele>
        <time>2018-05-14T10:38:00.000Z</time>
      </trkpt>
      <trkpt lat="42.21547667" lon="-8.732455">
        <ele>57.0</ele>
        <time>2018-05-14T10:38:01.000Z</time>
      </trkpt>
      <trkpt lat="42.21545167" lon="-8.73244833">
        <ele>57.0</ele>
        <time>2018-05-14T10:38:02.000Z</time>
      </trkpt>
      <trkpt lat="42.21542833" lon="-8.73244">
        <ele>57.0</ele>
        <time>2018-05-14T10:38:03.000Z</time>
      </trkpt>
      <trkpt lat="42.21540333" lon="-8.73243333">
        <ele>56.0</ele>
        <time>2018-05-14T10:38:04.000Z</time>
      </trkpt>
      <trkpt lat="42.21538" lon="-8.73243">
        <ele>56.0</ele>
        <time>2018-05-14T10:38:05.000Z</time>
      </trkpt>
      <trkpt lat="42.215355" lon="-8.732425">
        <ele>56.0</ele>
        <time>2018-05-14T10:38:06.000Z</time>
      </trkpt>
      <trkpt lat="42.21533" lon="-8.73241833">
        <ele>56.0</ele>
        <time>2018-05-14T10:38:07.000Z</time>
      </trkpt>
      <trkpt lat="42.21530667" lon="-8.73241167">
        <ele>56.0</ele>
        <time>2018-05-14T10:38:08.000Z</time>
      </trkpt>
      <trkpt lat="42.21528167" lon="-8.73240667">
        <ele>56.0</ele>
        <time>2018-05-14T10:38:09.000Z</time>
      </trkpt>
      <trkpt lat="42.21525333" lon="-8.73240333">
        <ele>56.0</ele>
        <time>2018-05-14T10:38:10.000Z</time>
      </trkpt>
      <trkpt lat="42.21506333" lon="-8.73227">
        <ele>48.0</ele>
        <time>2018-05-14T10:38:11.000Z</time>
      </trkpt>
      <trkpt lat="42.215065" lon="-8.73227">
        <ele>48.0</ele>
        <time>2018-05-14T10:38:12.000Z</time>
      </trkpt>
      <trkpt lat="42.21506333" lon="-8.73227167">
        <ele>47.0</ele>
        <time>2018-05-14T10:38:13.000Z</time>
      </trkpt>
      <trkpt lat="42.21506333" lon="-8.73227333">
        <ele>47.0</ele>
        <time>2018-05-14T10:38:14.000Z</time>
      </trkpt>
      <trkpt lat="42.21506" lon="-8.73227667">
        <ele>47.0</ele>
        <time>2018-05-14T10:38:15.000Z</time>
      </trkpt>
      <trkpt lat="42.215055" lon="-8.732285">
        <ele>46.0</ele>
        <time>2018-05-14T10:38:16.000Z</time>
      </trkpt>
      <trkpt lat="42.21504833" lon="-8.73229833">
        <ele>46.0</ele>
        <time>2018-05-14T10:38:17.000Z</time>
      </trkpt>
      <trkpt lat="42.21503833" lon="-8.73231">
        <ele>45.0</ele>
        <time>2018-05-14T10:38:18.000Z</time>
      </trkpt>
      <trkpt lat="42.215025" lon="-8.73232">
        <ele>45.0</ele>
        <time>2018-05-14T10:38:19.000Z</time>
      </trkpt>
      <trkpt lat="42.215005" lon="-8.73233">
        <ele>44.0</ele>
        <time>2018-05-14T10:38:20.000Z</time>
      </trkpt>
      <trkpt lat="42.21497833" lon="-8.732335">
        <ele>43.0</ele>
        <time>2018-05-14T10:38:21.000Z</time>
      </trkpt>
      <trkpt lat="42.21494667" lon="-8.732335">
        <ele>42.0</ele>
        <time>2018-05-14T10:38:22.000Z</time>
      </trkpt>
      <trkpt lat="42.21491" lon="-8.73233">
        <ele>41.0</ele>
        <time>2018-05-14T10:38:23.000Z</time>
      </trkpt>
      <trkpt lat="42.21487333" lon="-8.732325">
        <ele>41.0</ele>
        <time>2018-05-14T10:38:24.000Z</time>
      </trkpt>
      <trkpt lat="42.21483833" lon="-8.73231833">
        <ele>40.0</ele>
        <time>2018-05-14T10:38:25.000Z</time>
      </trkpt>
      <trkpt lat="42.21480167" lon="-8.73231167">
        <ele>40.0</ele>
        <time>2018-05-14T10:38:26.000Z</time>
      </trkpt>
      <trkpt lat="42.21476833" lon="-8.732305">
        <ele>39.0</ele>
        <time>2018-05-14T10:38:27.000Z</time>
      </trkpt>
      <trkpt lat="42.214735" lon="-8.73229833">
        <ele>39.0</ele>
        <time>2018-05-14T10:38:28.000Z</time>
      </trkpt>
      <trkpt lat="42.21470167" lon="-8.73229667">
        <ele>39.0</ele>
        <time>2018-05-14T10:38:29.000Z</time>
      </trkpt>
      <trkpt lat="42.21466833" lon="-8.73229333">
        <ele>38.0</ele>
        <time>2018-05-14T10:38:30.000Z</time>
      </trkpt>
      <trkpt lat="42.214635" lon="-8.73229167">
        <ele>38.0</ele>
        <time>2018-05-14T10:38:31.000Z</time>
      </trkpt>
      <trkpt lat="42.2146" lon="-8.73228833">
        <ele>38.0</ele>
        <time>2018-05-14T10:38:32.000Z</time>
      </trkpt>
      <trkpt lat="42.21456833" lon="-8.73228667">
        <ele>38.0</ele>
        <time>2018-05-14T10:38:33.000Z</time>
      </trkpt>
      <trkpt lat="42.21453333" lon="-8.732285">
        <ele>38.0</ele>
        <time>2018-05-14T10:38:34.000Z</time>
      </trkpt>
      <trkpt lat="42.2145" lon="-8.73228667">
        <ele>37.0</ele>
        <time>2018-05-14T10:38:35.000Z</time>
      </trkpt>
      <trkpt lat="42.21446833" lon="-8.73228333">
        <ele>37.0</ele>
        <time>2018-05-14T10:38:36.000Z</time>
      </trkpt>
      <trkpt lat="42.21443667" lon="-8.73227333">
        <ele>37.0</ele>
        <time>2018-05-14T10:38:37.000Z</time>
      </trkpt>
      <trkpt lat="42.21441167" lon="-8.73225">
        <ele>37.0</ele>
        <time>2018-05-14T10:38:38.000Z</time>
      </trkpt>
      <trkpt lat="42.214395" lon="-8.73221333">
        <ele>37.0</ele>
        <time>2018-05-14T10:38:39.000Z</time>
      </trkpt>
      <trkpt lat="42.21438333" lon="-8.73216333">
        <ele>37.0</ele>
        <time>2018-05-14T10:38:40.000Z</time>
      </trkpt>
      <trkpt lat="42.21437167" lon="-8.73211667">
        <ele>36.0</ele>
        <time>2018-05-14T10:38:41.000Z</time>
      </trkpt>
      <trkpt lat="42.21436333" lon="-8.73206667">
        <ele>36.0</ele>
        <time>2018-05-14T10:38:42.000Z</time>
      </trkpt>
      <trkpt lat="42.21435667" lon="-8.73201333">
        <ele>36.0</ele>
        <time>2018-05-14T10:38:43.000Z</time>
      </trkpt>
      <trkpt lat="42.21435167" lon="-8.73195667">
        <ele>36.0</ele>
        <time>2018-05-14T10:38:44.000Z</time>
      </trkpt>
      <trkpt lat="42.214345" lon="-8.73190167">
        <ele>35.0</ele>
        <time>2018-05-14T10:38:45.000Z</time>
      </trkpt>
      <trkpt lat="42.21433833" lon="-8.73185">
        <ele>35.0</ele>
        <time>2018-05-14T10:38:46.000Z</time>
      </trkpt>
      <trkpt lat="42.21433" lon="-8.73179667">
        <ele>35.0</ele>
        <time>2018-05-14T10:38:47.000Z</time>
      </trkpt>
      <trkpt lat="42.21432167" lon="-8.73174833">
        <ele>35.0</ele>
        <time>2018-05-14T10:38:48.000Z</time>
      </trkpt>
      <trkpt lat="42.21431167" lon="-8.7317">
        <ele>34.0</ele>
        <time>2018-05-14T10:38:49.000Z</time>
      </trkpt>
      <trkpt lat="42.2143" lon="-8.73165333">
        <ele>34.0</ele>
        <time>2018-05-14T10:38:50.000Z</time>
      </trkpt>
      <trkpt lat="42.21429167" lon="-8.73160833">
        <ele>34.0</ele>
        <time>2018-05-14T10:38:51.000Z</time>
      </trkpt>
      <trkpt lat="42.21428167" lon="-8.73156333">
        <ele>33.0</ele>
        <time>2018-05-14T10:38:52.000Z</time>
      </trkpt>
      <trkpt lat="42.214275" lon="-8.73151833">
        <ele>33.0</ele>
        <time>2018-05-14T10:38:53.000Z</time>
      </trkpt>
      <trkpt lat="42.21427" lon="-8.73147333">
        <ele>33.0</ele>
        <time>2018-05-14T10:38:54.000Z</time>
      </trkpt>
      <trkpt lat="42.21426167" lon="-8.73143">
        <ele>32.0</ele>
        <time>2018-05-14T10:38:55.000Z</time>
      </trkpt>
      <trkpt lat="42.214255" lon="-8.73138333">
        <ele>32.0</ele>
        <time>2018-05-14T10:38:56.000Z</time>
      </trkpt>
      <trkpt lat="42.21425" lon="-8.73133667">
        <ele>31.0</ele>
        <time>2018-05-14T10:38:57.000Z</time>
      </trkpt>
      <trkpt lat="42.21424667" lon="-8.731295">
        <ele>31.0</ele>
        <time>2018-05-14T10:38:58.000Z</time>
      </trkpt>
      <trkpt lat="42.21424" lon="-8.731255">
        <ele>30.0</ele>
        <time>2018-05-14T10:38:59.000Z</time>
      </trkpt>
      <trkpt lat="42.21423" lon="-8.73121833">
        <ele>30.0</ele>
        <time>2018-05-14T10:39:00.000Z</time>
      </trkpt>
      <trkpt lat="42.21421833" lon="-8.73118667">
        <ele>29.0</ele>
        <time>2018-05-14T10:39:01.000Z</time>
      </trkpt>
      <trkpt lat="42.21420333" lon="-8.73116">
        <ele>29.0</ele>
        <time>2018-05-14T10:39:02.000Z</time>
      </trkpt>
      <trkpt lat="42.21418333" lon="-8.73114">
        <ele>29.0</ele>
        <time>2018-05-14T10:39:03.000Z</time>
      </trkpt>
      <trkpt lat="42.21416167" lon="-8.731125">
        <ele>28.0</ele>
        <time>2018-05-14T10:39:04.000Z</time>
      </trkpt>
      <trkpt lat="42.21413833" lon="-8.73111667">
        <ele>28.0</ele>
        <time>2018-05-14T10:39:05.000Z</time>
      </trkpt>
      <trkpt lat="42.21411667" lon="-8.73111167">
        <ele>28.0</ele>
        <time>2018-05-14T10:39:06.000Z</time>
      </trkpt>
      <trkpt lat="42.21409333" lon="-8.73111167">
        <ele>27.0</ele>
        <time>2018-05-14T10:39:07.000Z</time>
      </trkpt>
      <trkpt lat="42.21407167" lon="-8.73111167">
        <ele>27.0</ele>
        <time>2018-05-14T10:39:08.000Z</time>
      </trkpt>
      <trkpt lat="42.21405" lon="-8.73112">
        <ele>27.0</ele>
        <time>2018-05-14T10:39:09.000Z</time>
      </trkpt>
      <trkpt lat="42.21403167" lon="-8.73113167">
        <ele>27.0</ele>
        <time>2018-05-14T10:39:10.000Z</time>
      </trkpt>
      <trkpt lat="42.21401167" lon="-8.73114">
        <ele>26.0</ele>
        <time>2018-05-14T10:39:11.000Z</time>
      </trkpt>
      <trkpt lat="42.21399167" lon="-8.73115">
        <ele>26.0</ele>
        <time>2018-05-14T10:39:12.000Z</time>
      </trkpt>
      <trkpt lat="42.21396833" lon="-8.73116">
        <ele>26.0</ele>
        <time>2018-05-14T10:39:13.000Z</time>
      </trkpt>
      <trkpt lat="42.21394167" lon="-8.73117167">
        <ele>25.0</ele>
        <time>2018-05-14T10:39:14.000Z</time>
      </trkpt>
      <trkpt lat="42.21391667" lon="-8.73118667">
        <ele>25.0</ele>
        <time>2018-05-14T10:39:15.000Z</time>
      </trkpt>
      <trkpt lat="42.21389" lon="-8.73120667">
        <ele>25.0</ele>
        <time>2018-05-14T10:39:16.000Z</time>
      </trkpt>
      <trkpt lat="42.213865" lon="-8.73122667">
        <ele>24.0</ele>
        <time>2018-05-14T10:39:17.000Z</time>
      </trkpt>
      <trkpt lat="42.21384167" lon="-8.73124667">
        <ele>24.0</ele>
        <time>2018-05-14T10:39:18.000Z</time>
      </trkpt>
      <trkpt lat="42.21381667" lon="-8.73126667">
        <ele>24.0</ele>
        <time>2018-05-14T10:39:19.000Z</time>
      </trkpt>
      <trkpt lat="42.21379" lon="-8.73129">
        <ele>24.0</ele>
        <time>2018-05-14T10:39:20.000Z</time>
      </trkpt>
      <trkpt lat="42.21376333" lon="-8.73131167">
        <ele>24.0</ele>
        <time>2018-05-14T10:39:21.000Z</time>
      </trkpt>
      <trkpt lat="42.21373667" lon="-8.73133">
        <ele>24.0</ele>
        <time>2018-05-14T10:39:22.000Z</time>
      </trkpt>
      <trkpt lat="42.21370833" lon="-8.73135">
        <ele>24.0</ele>
        <time>2018-05-14T10:39:23.000Z</time>
      </trkpt>
      <trkpt lat="42.21368" lon="-8.73136833">
        <ele>24.0</ele>
        <time>2018-05-14T10:39:24.000Z</time>
      </trkpt>
      <trkpt lat="42.21365" lon="-8.73138833">
        <ele>24.0</ele>
        <time>2018-05-14T10:39:25.000Z</time>
      </trkpt>
      <trkpt lat="42.21361833" lon="-8.73141">
        <ele>24.0</ele>
        <time>2018-05-14T10:39:26.000Z</time>
      </trkpt>
      <trkpt lat="42.21358667" lon="-8.73143167">
        <ele>24.0</ele>
        <time>2018-05-14T10:39:27.000Z</time>
      </trkpt>
      <trkpt lat="42.21355667" lon="-8.73145">
        <ele>24.0</ele>
        <time>2018-05-14T10:39:28.000Z</time>
      </trkpt>
      <trkpt lat="42.21352667" lon="-8.73147167">
        <ele>24.0</ele>
        <time>2018-05-14T10:39:29.000Z</time>
      </trkpt>
      <trkpt lat="42.21349833" lon="-8.73149167">
        <ele>24.0</ele>
        <time>2018-05-14T10:39:30.000Z</time>
      </trkpt>
      <trkpt lat="42.21347" lon="-8.73151167">
        <ele>24.0</ele>
        <time>2018-05-14T10:39:31.000Z</time>
      </trkpt>
      <trkpt lat="42.21344333" lon="-8.73153167">
        <ele>24.0</ele>
        <time>2018-05-14T10:39:32.000Z</time>
      </trkpt>
      <trkpt lat="42.213415" lon="-8.73155167">
        <ele>24.0</ele>
        <time>2018-05-14T10:39:33.000Z</time>
      </trkpt>
      <trkpt lat="42.21338667" lon="-8.73156833">
        <ele>25.0</ele>
        <time>2018-05-14T10:39:34.000Z</time>
      </trkpt>
      <trkpt lat="42.21335667" lon="-8.73158667">
        <ele>25.0</ele>
        <time>2018-05-14T10:39:35.000Z</time>
      </trkpt>
      <trkpt lat="42.21332833" lon="-8.731605">
        <ele>25.0</ele>
        <time>2018-05-14T10:39:36.000Z</time>
      </trkpt>
      <trkpt lat="42.2133" lon="-8.73162167">
        <ele>25.0</ele>
        <time>2018-05-14T10:39:37.000Z</time>
      </trkpt>
      <trkpt lat="42.21327" lon="-8.73164">
        <ele>25.0</ele>
        <time>2018-05-14T10:39:38.000Z</time>
      </trkpt>
      <trkpt lat="42.21324" lon="-8.73165833">
        <ele>25.0</ele>
        <time>2018-05-14T10:39:39.000Z</time>
      </trkpt>
      <trkpt lat="42.21321" lon="-8.73167333">
        <ele>24.0</ele>
        <time>2018-05-14T10:39:40.000Z</time>
      </trkpt>
      <trkpt lat="42.21317833" lon="-8.73169167">
        <ele>24.0</ele>
        <time>2018-05-14T10:39:41.000Z</time>
      </trkpt>
      <trkpt lat="42.213145" lon="-8.73170667">
        <ele>24.0</ele>
        <time>2018-05-14T10:39:42.000Z</time>
      </trkpt>
      <trkpt lat="42.21311167" lon="-8.73171333">
        <ele>24.0</ele>
        <time>2018-05-14T10:39:43.000Z</time>
      </trkpt>
      <trkpt lat="42.21307833" lon="-8.731715">
        <ele>23.0</ele>
        <time>2018-05-14T10:39:44.000Z</time>
      </trkpt>
      <trkpt lat="42.213045" lon="-8.73170833">
        <ele>23.0</ele>
        <time>2018-05-14T10:39:45.000Z</time>
      </trkpt>
      <trkpt lat="42.21301333" lon="-8.73169333">
        <ele>23.0</ele>
        <time>2018-05-14T10:39:46.000Z</time>
      </trkpt>
      <trkpt lat="42.21298333" lon="-8.73167333">
        <ele>23.0</ele>
        <time>2018-05-14T10:39:47.000Z</time>
      </trkpt>
      <trkpt lat="42.21295667" lon="-8.73164833">
        <ele>23.0</ele>
        <time>2018-05-14T10:39:48.000Z</time>
      </trkpt>
      <trkpt lat="42.212935" lon="-8.73162167">
        <ele>23.0</ele>
        <time>2018-05-14T10:39:49.000Z</time>
      </trkpt>
      <trkpt lat="42.21291833" lon="-8.731595">
        <ele>23.0</ele>
        <time>2018-05-14T10:39:50.000Z</time>
      </trkpt>
      <trkpt lat="42.212905" lon="-8.731565">
        <ele>23.0</ele>
        <time>2018-05-14T10:39:51.000Z</time>
      </trkpt>
      <trkpt lat="42.21289167" lon="-8.73152833">
        <ele>23.0</ele>
        <time>2018-05-14T10:39:52.000Z</time>
      </trkpt>
      <trkpt lat="42.21288" lon="-8.73149">
        <ele>23.0</ele>
        <time>2018-05-14T10:39:53.000Z</time>
      </trkpt>
      <trkpt lat="42.21287" lon="-8.73144833">
        <ele>22.0</ele>
        <time>2018-05-14T10:39:54.000Z</time>
      </trkpt>
      <trkpt lat="42.21286667" lon="-8.73140167">
        <ele>22.0</ele>
        <time>2018-05-14T10:39:55.000Z</time>
      </trkpt>
      <trkpt lat="42.21286667" lon="-8.73135667">
        <ele>22.0</ele>
        <time>2018-05-14T10:39:56.000Z</time>
      </trkpt>
      <trkpt lat="42.21286833" lon="-8.73131333">
        <ele>22.0</ele>
        <time>2018-05-14T10:39:57.000Z</time>
      </trkpt>
      <trkpt lat="42.21287167" lon="-8.73127">
        <ele>22.0</ele>
        <time>2018-05-14T10:39:58.000Z</time>
      </trkpt>
      <trkpt lat="42.212875" lon="-8.73122667">
        <ele>22.0</ele>
        <time>2018-05-14T10:39:59.000Z</time>
      </trkpt>
      <trkpt lat="42.21287833" lon="-8.73118333">
        <ele>22.0</ele>
        <time>2018-05-14T10:40:00.000Z</time>
      </trkpt>
      <trkpt lat="42.21288333" lon="-8.73114333">
        <ele>22.0</ele>
        <time>2018-05-14T10:40:01.000Z</time>
      </trkpt>
      <trkpt lat="42.21289167" lon="-8.73110833">
        <ele>22.0</ele>
        <time>2018-05-14T10:40:02.000Z</time>
      </trkpt>
      <trkpt lat="42.21290167" lon="-8.731075">
        <ele>22.0</ele>
        <time>2018-05-14T10:40:03.000Z</time>
      </trkpt>
      <trkpt lat="42.21291333" lon="-8.73104167">
        <ele>22.0</ele>
        <time>2018-05-14T10:40:04.000Z</time>
      </trkpt>
      <trkpt lat="42.21292667" lon="-8.73100333">
        <ele>22.0</ele>
        <time>2018-05-14T10:40:05.000Z</time>
      </trkpt>
      <trkpt lat="42.21293833" lon="-8.73096833">
        <ele>22.0</ele>
        <time>2018-05-14T10:40:06.000Z</time>
      </trkpt>
      <trkpt lat="42.21295" lon="-8.73093333">
        <ele>22.0</ele>
        <time>2018-05-14T10:40:07.000Z</time>
      </trkpt>
      <trkpt lat="42.21296" lon="-8.7309">
        <ele>22.0</ele>
        <time>2018-05-14T10:40:08.000Z</time>
      </trkpt>
      <trkpt lat="42.21297333" lon="-8.730865">
        <ele>22.0</ele>
        <time>2018-05-14T10:40:09.000Z</time>
      </trkpt>
      <trkpt lat="42.21299" lon="-8.73083">
        <ele>22.0</ele>
        <time>2018-05-14T10:40:10.000Z</time>
      </trkpt>
      <trkpt lat="42.21300833" lon="-8.730795">
        <ele>22.0</ele>
        <time>2018-05-14T10:40:11.000Z</time>
      </trkpt>
      <trkpt lat="42.21302833" lon="-8.73076333">
        <ele>22.0</ele>
        <time>2018-05-14T10:40:12.000Z</time>
      </trkpt>
      <trkpt lat="42.21304833" lon="-8.730735">
        <ele>22.0</ele>
        <time>2018-05-14T10:40:13.000Z</time>
      </trkpt>
      <trkpt lat="42.21307" lon="-8.73070667">
        <ele>22.0</ele>
        <time>2018-05-14T10:40:14.000Z</time>
      </trkpt>
      <trkpt lat="42.21309167" lon="-8.73067833">
        <ele>22.0</ele>
        <time>2018-05-14T10:40:15.000Z</time>
      </trkpt>
      <trkpt lat="42.21311333" lon="-8.73065333">
        <ele>22.0</ele>
        <time>2018-05-14T10:40:16.000Z</time>
      </trkpt>
      <trkpt lat="42.21313833" lon="-8.730635">
        <ele>23.0</ele>
        <time>2018-05-14T10:40:17.000Z</time>
      </trkpt>
      <trkpt lat="42.213165" lon="-8.730615">
        <ele>23.0</ele>
        <time>2018-05-14T10:40:18.000Z</time>
      </trkpt>
      <trkpt lat="42.21319167" lon="-8.730595">
        <ele>23.0</ele>
        <time>2018-05-14T10:40:19.000Z</time>
      </trkpt>
      <trkpt lat="42.21322" lon="-8.730575">
        <ele>23.0</ele>
        <time>2018-05-14T10:40:20.000Z</time>
      </trkpt>
      <trkpt lat="42.21325" lon="-8.730555">
        <ele>23.0</ele>
        <time>2018-05-14T10:40:21.000Z</time>
      </trkpt>
      <trkpt lat="42.21328" lon="-8.73054167">
        <ele>23.0</ele>
        <time>2018-05-14T10:40:22.000Z</time>
      </trkpt>
      <trkpt lat="42.21331" lon="-8.73053167">
        <ele>24.0</ele>
        <time>2018-05-14T10:40:23.000Z</time>
      </trkpt>
      <trkpt lat="42.21334333" lon="-8.730525">
        <ele>24.0</ele>
        <time>2018-05-14T10:40:24.000Z</time>
      </trkpt>
      <trkpt lat="42.21337667" lon="-8.73052333">
        <ele>24.0</ele>
        <time>2018-05-14T10:40:25.000Z</time>
      </trkpt>
      <trkpt lat="42.21341" lon="-8.73052">
        <ele>24.0</ele>
        <time>2018-05-14T10:40:26.000Z</time>
      </trkpt>
      <trkpt lat="42.21344" lon="-8.73051167">
        <ele>24.0</ele>
        <time>2018-05-14T10:40:27.000Z</time>
      </trkpt>
      <trkpt lat="42.21347" lon="-8.73050167">
        <ele>24.0</ele>
        <time>2018-05-14T10:40:28.000Z</time>
      </trkpt>
      <trkpt lat="42.21349667" lon="-8.73049167">
        <ele>24.0</ele>
        <time>2018-05-14T10:40:29.000Z</time>
      </trkpt>
      <trkpt lat="42.21352333" lon="-8.73048667">
        <ele>24.0</ele>
        <time>2018-05-14T10:40:30.000Z</time>
      </trkpt>
      <trkpt lat="42.21354833" lon="-8.73048333">
        <ele>24.0</ele>
        <time>2018-05-14T10:40:31.000Z</time>
      </trkpt>
      <trkpt lat="42.21357833" lon="-8.73047833">
        <ele>24.0</ele>
        <time>2018-05-14T10:40:32.000Z</time>
      </trkpt>
      <trkpt lat="42.21361" lon="-8.73046833">
        <ele>25.0</ele>
        <time>2018-05-14T10:40:33.000Z</time>
      </trkpt>
      <trkpt lat="42.21364167" lon="-8.73045833">
        <ele>25.0</ele>
        <time>2018-05-14T10:40:34.000Z</time>
      </trkpt>
      <trkpt lat="42.21367667" lon="-8.73044667">
        <ele>25.0</ele>
        <time>2018-05-14T10:40:35.000Z</time>
      </trkpt>
      <trkpt lat="42.21371167" lon="-8.73043167">
        <ele>25.0</ele>
        <time>2018-05-14T10:40:36.000Z</time>
      </trkpt>
      <trkpt lat="42.21374833" lon="-8.73042167">
        <ele>25.0</ele>
        <time>2018-05-14T10:40:37.000Z</time>
      </trkpt>
      <trkpt lat="42.213785" lon="-8.73041">
        <ele>25.0</ele>
        <time>2018-05-14T10:40:38.000Z</time>
      </trkpt>
      <trkpt lat="42.21382" lon="-8.73039667">
        <ele>25.0</ele>
        <time>2018-05-14T10:40:39.000Z</time>
      </trkpt>
      <trkpt lat="42.21385333" lon="-8.73037833">
        <ele>25.0</ele>
        <time>2018-05-14T10:40:40.000Z</time>
      </trkpt>
      <trkpt lat="42.21388667" lon="-8.73035833">
        <ele>25.0</ele>
        <time>2018-05-14T10:40:41.000Z</time>
      </trkpt>
      <trkpt lat="42.21392" lon="-8.73034">
        <ele>25.0</ele>
        <time>2018-05-14T10:40:42.000Z</time>
      </trkpt>
      <trkpt lat="42.21395" lon="-8.73031667">
        <ele>25.0</ele>
        <time>2018-05-14T10:40:43.000Z</time>
      </trkpt>
      <trkpt lat="42.21398" lon="-8.73029167">
        <ele>25.0</ele>
        <time>2018-05-14T10:40:44.000Z</time>
      </trkpt>
      <trkpt lat="42.21401" lon="-8.73026833">
        <ele>25.0</ele>
        <time>2018-05-14T10:40:45.000Z</time>
      </trkpt>
      <trkpt lat="42.21404167" lon="-8.730245">
        <ele>25.0</ele>
        <time>2018-05-14T10:40:46.000Z</time>
      </trkpt>
      <trkpt lat="42.214075" lon="-8.73022">
        <ele>25.0</ele>
        <time>2018-05-14T10:40:47.000Z</time>
      </trkpt>
      <trkpt lat="42.21410833" lon="-8.730195">
        <ele>24.0</ele>
        <time>2018-05-14T10:40:48.000Z</time>
      </trkpt>
      <trkpt lat="42.21414167" lon="-8.73016833">
        <ele>24.0</ele>
        <time>2018-05-14T10:40:49.000Z</time>
      </trkpt>
      <trkpt lat="42.21417333" lon="-8.73014333">
        <ele>24.0</ele>
        <time>2018-05-14T10:40:50.000Z</time>
      </trkpt>
      <trkpt lat="42.214205" lon="-8.73011667">
        <ele>24.0</ele>
        <time>2018-05-14T10:40:51.000Z</time>
      </trkpt>
      <trkpt lat="42.21423333" lon="-8.73009">
        <ele>24.0</ele>
        <time>2018-05-14T10:40:52.000Z</time>
      </trkpt>
      <trkpt lat="42.21426167" lon="-8.73006">
        <ele>24.0</ele>
        <time>2018-05-14T10:40:53.000Z</time>
      </trkpt>
      <trkpt lat="42.21428667" lon="-8.73003167">
        <ele>24.0</ele>
        <time>2018-05-14T10:40:54.000Z</time>
      </trkpt>
      <trkpt lat="42.21431167" lon="-8.73000333">
        <ele>24.0</ele>
        <time>2018-05-14T10:40:55.000Z</time>
      </trkpt>
      <trkpt lat="42.21433667" lon="-8.72997167">
        <ele>24.0</ele>
        <time>2018-05-14T10:40:56.000Z</time>
      </trkpt>
      <trkpt lat="42.21435833" lon="-8.72993667">
        <ele>23.0</ele>
        <time>2018-05-14T10:40:57.000Z</time>
      </trkpt>
      <trkpt lat="42.21437833" lon="-8.72990167">
        <ele>23.0</ele>
        <time>2018-05-14T10:40:58.000Z</time>
      </trkpt>
      <trkpt lat="42.2144" lon="-8.729865">
        <ele>23.0</ele>
        <time>2018-05-14T10:40:59.000Z</time>
      </trkpt>
      <trkpt lat="42.21441833" lon="-8.72982667">
        <ele>23.0</ele>
        <time>2018-05-14T10:41:00.000Z</time>
      </trkpt>
      <trkpt lat="42.214435" lon="-8.72979">
        <ele>23.0</ele>
        <time>2018-05-14T10:41:01.000Z</time>
      </trkpt>
      <trkpt lat="42.21445" lon="-8.729755">
        <ele>23.0</ele>
        <time>2018-05-14T10:41:02.000Z</time>
      </trkpt>
      <trkpt lat="42.21446333" lon="-8.72971667">
        <ele>23.0</ele>
        <time>2018-05-14T10:41:03.000Z</time>
      </trkpt>
      <trkpt lat="42.21447833" lon="-8.72968167">
        <ele>23.0</ele>
        <time>2018-05-14T10:41:04.000Z</time>
      </trkpt>
      <trkpt lat="42.21449667" lon="-8.72964667">
        <ele>23.0</ele>
        <time>2018-05-14T10:41:05.000Z</time>
      </trkpt>
      <trkpt lat="42.214515" lon="-8.72961167">
        <ele>23.0</ele>
        <time>2018-05-14T10:41:06.000Z</time>
      </trkpt>
      <trkpt lat="42.214535" lon="-8.72958">
        <ele>23.0</ele>
        <time>2018-05-14T10:41:07.000Z</time>
      </trkpt>
      <trkpt lat="42.21455333" lon="-8.72955167">
        <ele>23.0</ele>
        <time>2018-05-14T10:41:08.000Z</time>
      </trkpt>
      <trkpt lat="42.21457" lon="-8.72952667">
        <ele>23.0</ele>
        <time>2018-05-14T10:41:09.000Z</time>
      </trkpt>
      <trkpt lat="42.21458833" lon="-8.7295">
        <ele>23.0</ele>
        <time>2018-05-14T10:41:10.000Z</time>
      </trkpt>
      <trkpt lat="42.21460667" lon="-8.72947333">
        <ele>23.0</ele>
        <time>2018-05-14T10:41:11.000Z</time>
      </trkpt>
      <trkpt lat="42.214625" lon="-8.72944833">
        <ele>23.0</ele>
        <time>2018-05-14T10:41:12.000Z</time>
      </trkpt>
      <trkpt lat="42.214645" lon="-8.729425">
        <ele>23.0</ele>
        <time>2018-05-14T10:41:13.000Z</time>
      </trkpt>
      <trkpt lat="42.214665" lon="-8.72939833">
        <ele>23.0</ele>
        <time>2018-05-14T10:41:14.000Z</time>
      </trkpt>
      <trkpt lat="42.21469" lon="-8.72937167">
        <ele>22.0</ele>
        <time>2018-05-14T10:41:15.000Z</time>
      </trkpt>
      <trkpt lat="42.214715" lon="-8.729345">
        <ele>22.0</ele>
        <time>2018-05-14T10:41:16.000Z</time>
      </trkpt>
      <trkpt lat="42.21474" lon="-8.72932167">
        <ele>23.0</ele>
        <time>2018-05-14T10:41:17.000Z</time>
      </trkpt>
      <trkpt lat="42.21476667" lon="-8.729295">
        <ele>23.0</ele>
        <time>2018-05-14T10:41:18.000Z</time>
      </trkpt>
      <trkpt lat="42.21479667" lon="-8.72927">
        <ele>23.0</ele>
        <time>2018-05-14T10:41:19.000Z</time>
      </trkpt>
      <trkpt lat="42.21482667" lon="-8.72924333">
        <ele>23.0</ele>
        <time>2018-05-14T10:41:20.000Z</time>
      </trkpt>
      <trkpt lat="42.21485667" lon="-8.72922">
        <ele>23.0</ele>
        <time>2018-05-14T10:41:21.000Z</time>
      </trkpt>
      <trkpt lat="42.21488667" lon="-8.72919833">
        <ele>23.0</ele>
        <time>2018-05-14T10:41:22.000Z</time>
      </trkpt>
      <trkpt lat="42.214915" lon="-8.72917667">
        <ele>23.0</ele>
        <time>2018-05-14T10:41:23.000Z</time>
      </trkpt>
      <trkpt lat="42.214945" lon="-8.729155">
        <ele>23.0</ele>
        <time>2018-05-14T10:41:24.000Z</time>
      </trkpt>
      <trkpt lat="42.214975" lon="-8.729135">
        <ele>23.0</ele>
        <time>2018-05-14T10:41:25.000Z</time>
      </trkpt>
      <trkpt lat="42.21500333" lon="-8.729115">
        <ele>23.0</ele>
        <time>2018-05-14T10:41:26.000Z</time>
      </trkpt>
      <trkpt lat="42.21503" lon="-8.72909667">
        <ele>23.0</ele>
        <time>2018-05-14T10:41:27.000Z</time>
      </trkpt>
      <trkpt lat="42.21505667" lon="-8.72908">
        <ele>23.0</ele>
        <time>2018-05-14T10:41:28.000Z</time>
      </trkpt>
      <trkpt lat="42.21508333" lon="-8.729065">
        <ele>23.0</ele>
        <time>2018-05-14T10:41:29.000Z</time>
      </trkpt>
      <trkpt lat="42.21510667" lon="-8.72904667">
        <ele>23.0</ele>
        <time>2018-05-14T10:41:30.000Z</time>
      </trkpt>
      <trkpt lat="42.21513167" lon="-8.72903">
        <ele>23.0</ele>
        <time>2018-05-14T10:41:31.000Z</time>
      </trkpt>
      <trkpt lat="42.21516" lon="-8.72901333">
        <ele>23.0</ele>
        <time>2018-05-14T10:41:32.000Z</time>
      </trkpt>
      <trkpt lat="42.21519" lon="-8.72899667">
        <ele>23.0</ele>
        <time>2018-05-14T10:41:33.000Z</time>
      </trkpt>
      <trkpt lat="42.21522" lon="-8.72898">
        <ele>23.0</ele>
        <time>2018-05-14T10:41:34.000Z</time>
      </trkpt>
      <trkpt lat="42.21525167" lon="-8.72896333">
        <ele>23.0</ele>
        <time>2018-05-14T10:41:35.000Z</time>
      </trkpt>
      <trkpt lat="42.21528333" lon="-8.72894833">
        <ele>23.0</ele>
        <time>2018-05-14T10:41:36.000Z</time>
      </trkpt>
      <trkpt lat="42.21531333" lon="-8.72893167">
        <ele>23.0</ele>
        <time>2018-05-14T10:41:37.000Z</time>
      </trkpt>
      <trkpt lat="42.21534167" lon="-8.72891167">
        <ele>23.0</ele>
        <time>2018-05-14T10:41:38.000Z</time>
      </trkpt>
      <trkpt lat="42.21536833" lon="-8.72889167">
        <ele>23.0</ele>
        <time>2018-05-14T10:41:39.000Z</time>
      </trkpt>
      <trkpt lat="42.21539667" lon="-8.72887333">
        <ele>23.0</ele>
        <time>2018-05-14T10:41:40.000Z</time>
      </trkpt>
      <trkpt lat="42.21541833" lon="-8.72885167">
        <ele>23.0</ele>
        <time>2018-05-14T10:41:41.000Z</time>
      </trkpt>
      <trkpt lat="42.21543833" lon="-8.72882667">
        <ele>23.0</ele>
        <time>2018-05-14T10:41:42.000Z</time>
      </trkpt>
      <trkpt lat="42.21545667" lon="-8.7288">
        <ele>23.0</ele>
        <time>2018-05-14T10:41:43.000Z</time>
      </trkpt>
      <trkpt lat="42.21547333" lon="-8.72877333">
        <ele>23.0</ele>
        <time>2018-05-14T10:41:44.000Z</time>
      </trkpt>
      <trkpt lat="42.21549" lon="-8.72874667">
        <ele>23.0</ele>
        <time>2018-05-14T10:41:45.000Z</time>
      </trkpt>
      <trkpt lat="42.21551" lon="-8.72871667">
        <ele>23.0</ele>
        <time>2018-05-14T10:41:46.000Z</time>
      </trkpt>
      <trkpt lat="42.21552833" lon="-8.72868833">
        <ele>23.0</ele>
        <time>2018-05-14T10:41:47.000Z</time>
      </trkpt>
      <trkpt lat="42.21554833" lon="-8.72866">
        <ele>23.0</ele>
        <time>2018-05-14T10:41:48.000Z</time>
      </trkpt>
      <trkpt lat="42.215565" lon="-8.728625">
        <ele>23.0</ele>
        <time>2018-05-14T10:41:49.000Z</time>
      </trkpt>
      <trkpt lat="42.21557833" lon="-8.72859">
        <ele>23.0</ele>
        <time>2018-05-14T10:41:50.000Z</time>
      </trkpt>
      <trkpt lat="42.21559333" lon="-8.72855167">
        <ele>23.0</ele>
        <time>2018-05-14T10:41:51.000Z</time>
      </trkpt>
      <trkpt lat="42.21560667" lon="-8.72851167">
        <ele>23.0</ele>
        <time>2018-05-14T10:41:52.000Z</time>
      </trkpt>
      <trkpt lat="42.21562167" lon="-8.728475">
        <ele>23.0</ele>
        <time>2018-05-14T10:41:53.000Z</time>
      </trkpt>
      <trkpt lat="42.21563667" lon="-8.72844">
        <ele>23.0</ele>
        <time>2018-05-14T10:41:54.000Z</time>
      </trkpt>
      <trkpt lat="42.21565167" lon="-8.728405">
        <ele>23.0</ele>
        <time>2018-05-14T10:41:55.000Z</time>
      </trkpt>
      <trkpt lat="42.21566833" lon="-8.72837">
        <ele>23.0</ele>
        <time>2018-05-14T10:41:56.000Z</time>
      </trkpt>
      <trkpt lat="42.21568667" lon="-8.728335">
        <ele>23.0</ele>
        <time>2018-05-14T10:41:57.000Z</time>
      </trkpt>
      <trkpt lat="42.215705" lon="-8.7283">
        <ele>23.0</ele>
        <time>2018-05-14T10:41:58.000Z</time>
      </trkpt>
      <trkpt lat="42.21572333" lon="-8.72826667">
        <ele>22.0</ele>
        <time>2018-05-14T10:41:59.000Z</time>
      </trkpt>
      <trkpt lat="42.215745" lon="-8.72823333">
        <ele>22.0</ele>
        <time>2018-05-14T10:42:00.000Z</time>
      </trkpt>
      <trkpt lat="42.215765" lon="-8.72820333">
        <ele>22.0</ele>
        <time>2018-05-14T10:42:01.000Z</time>
      </trkpt>
      <trkpt lat="42.21578667" lon="-8.72817667">
        <ele>22.0</ele>
        <time>2018-05-14T10:42:02.000Z</time>
      </trkpt>
      <trkpt lat="42.21580833" lon="-8.72814667">
        <ele>23.0</ele>
        <time>2018-05-14T10:42:03.000Z</time>
      </trkpt>
      <trkpt lat="42.21583167" lon="-8.72811333">
        <ele>23.0</ele>
        <time>2018-05-14T10:42:04.000Z</time>
      </trkpt>
      <trkpt lat="42.21585333" lon="-8.72808167">
        <ele>23.0</ele>
        <time>2018-05-14T10:42:05.000Z</time>
      </trkpt>
      <trkpt lat="42.21587667" lon="-8.72805167">
        <ele>23.0</ele>
        <time>2018-05-14T10:42:06.000Z</time>
      </trkpt>
      <trkpt lat="42.21589667" lon="-8.72802">
        <ele>23.0</ele>
        <time>2018-05-14T10:42:07.000Z</time>
      </trkpt>
      <trkpt lat="42.21591833" lon="-8.72798667">
        <ele>23.0</ele>
        <time>2018-05-14T10:42:08.000Z</time>
      </trkpt>
      <trkpt lat="42.21594167" lon="-8.727955">
        <ele>22.0</ele>
        <time>2018-05-14T10:42:09.000Z</time>
      </trkpt>
      <trkpt lat="42.21596333" lon="-8.72792333">
        <ele>23.0</ele>
        <time>2018-05-14T10:42:10.000Z</time>
      </trkpt>
      <trkpt lat="42.21598667" lon="-8.72789">
        <ele>23.0</ele>
        <time>2018-05-14T10:42:11.000Z</time>
      </trkpt>
      <trkpt lat="42.21601" lon="-8.72785667">
        <ele>23.0</ele>
        <time>2018-05-14T10:42:12.000Z</time>
      </trkpt>
      <trkpt lat="42.21603333" lon="-8.727825">
        <ele>23.0</ele>
        <time>2018-05-14T10:42:13.000Z</time>
      </trkpt>
      <trkpt lat="42.216055" lon="-8.727795">
        <ele>23.0</ele>
        <time>2018-05-14T10:42:14.000Z</time>
      </trkpt>
      <trkpt lat="42.216075" lon="-8.72776667">
        <ele>23.0</ele>
        <time>2018-05-14T10:42:15.000Z</time>
      </trkpt>
      <trkpt lat="42.216095" lon="-8.72773667">
        <ele>23.0</ele>
        <time>2018-05-14T10:42:16.000Z</time>
      </trkpt>
      <trkpt lat="42.21611167" lon="-8.72770667">
        <ele>23.0</ele>
        <time>2018-05-14T10:42:17.000Z</time>
      </trkpt>
      <trkpt lat="42.21613167" lon="-8.727675">
        <ele>23.0</ele>
        <time>2018-05-14T10:42:18.000Z</time>
      </trkpt>
      <trkpt lat="42.21615167" lon="-8.72764">
        <ele>23.0</ele>
        <time>2018-05-14T10:42:19.000Z</time>
      </trkpt>
      <trkpt lat="42.21617333" lon="-8.72760667">
        <ele>24.0</ele>
        <time>2018-05-14T10:42:20.000Z</time>
      </trkpt>
      <trkpt lat="42.21619667" lon="-8.72757167">
        <ele>24.0</ele>
        <time>2018-05-14T10:42:21.000Z</time>
      </trkpt>
      <trkpt lat="42.21622" lon="-8.72753833">
        <ele>24.0</ele>
        <time>2018-05-14T10:42:22.000Z</time>
      </trkpt>
      <trkpt lat="42.21624667" lon="-8.72751167">
        <ele>24.0</ele>
        <time>2018-05-14T10:42:23.000Z</time>
      </trkpt>
      <trkpt lat="42.216275" lon="-8.72749333">
        <ele>24.0</ele>
        <time>2018-05-14T10:42:24.000Z</time>
      </trkpt>
      <trkpt lat="42.21630333" lon="-8.72747833">
        <ele>24.0</ele>
        <time>2018-05-14T10:42:25.000Z</time>
      </trkpt>
      <trkpt lat="42.21633167" lon="-8.72747">
        <ele>25.0</ele>
        <time>2018-05-14T10:42:26.000Z</time>
      </trkpt>
      <trkpt lat="42.21636167" lon="-8.72747">
        <ele>25.0</ele>
        <time>2018-05-14T10:42:27.000Z</time>
      </trkpt>
      <trkpt lat="42.21639" lon="-8.72746833">
        <ele>25.0</ele>
        <time>2018-05-14T10:42:28.000Z</time>
      </trkpt>
      <trkpt lat="42.21641833" lon="-8.72746667">
        <ele>25.0</ele>
        <time>2018-05-14T10:42:29.000Z</time>
      </trkpt>
      <trkpt lat="42.21644167" lon="-8.72746167">
        <ele>25.0</ele>
        <time>2018-05-14T10:42:30.000Z</time>
      </trkpt>
      <trkpt lat="42.21646667" lon="-8.72745333">
        <ele>25.0</ele>
        <time>2018-05-14T10:42:31.000Z</time>
      </trkpt>
      <trkpt lat="42.21648833" lon="-8.72744167">
        <ele>25.0</ele>
        <time>2018-05-14T10:42:32.000Z</time>
      </trkpt>
      <trkpt lat="42.21650833" lon="-8.72742667">
        <ele>25.0</ele>
        <time>2018-05-14T10:42:33.000Z</time>
      </trkpt>
      <trkpt lat="42.21652667" lon="-8.72740833">
        <ele>25.0</ele>
        <time>2018-05-14T10:42:34.000Z</time>
      </trkpt>
      <trkpt lat="42.21654333" lon="-8.72738333">
        <ele>25.0</ele>
        <time>2018-05-14T10:42:35.000Z</time>
      </trkpt>
      <trkpt lat="42.21656" lon="-8.72735167">
        <ele>25.0</ele>
        <time>2018-05-14T10:42:36.000Z</time>
      </trkpt>
      <trkpt lat="42.21657667" lon="-8.72731667">
        <ele>25.0</ele>
        <time>2018-05-14T10:42:37.000Z</time>
      </trkpt>
      <trkpt lat="42.216595" lon="-8.72728333">
        <ele>25.0</ele>
        <time>2018-05-14T10:42:38.000Z</time>
      </trkpt>
      <trkpt lat="42.21661333" lon="-8.72724333">
        <ele>25.0</ele>
        <time>2018-05-14T10:42:39.000Z</time>
      </trkpt>
      <trkpt lat="42.21663333" lon="-8.72719833">
        <ele>25.0</ele>
        <time>2018-05-14T10:42:40.000Z</time>
      </trkpt>
      <trkpt lat="42.21665167" lon="-8.72715167">
        <ele>25.0</ele>
        <time>2018-05-14T10:42:41.000Z</time>
      </trkpt>
      <trkpt lat="42.21667167" lon="-8.727105">
        <ele>25.0</ele>
        <time>2018-05-14T10:42:42.000Z</time>
      </trkpt>
      <trkpt lat="42.21669" lon="-8.72705667">
        <ele>25.0</ele>
        <time>2018-05-14T10:42:43.000Z</time>
      </trkpt>
      <trkpt lat="42.21670667" lon="-8.72701">
        <ele>25.0</ele>
        <time>2018-05-14T10:42:44.000Z</time>
      </trkpt>
      <trkpt lat="42.21672167" lon="-8.72696667">
        <ele>25.0</ele>
        <time>2018-05-14T10:42:45.000Z</time>
      </trkpt>
      <trkpt lat="42.21673833" lon="-8.72692333">
        <ele>25.0</ele>
        <time>2018-05-14T10:42:46.000Z</time>
      </trkpt>
      <trkpt lat="42.21675333" lon="-8.72687667">
        <ele>25.0</ele>
        <time>2018-05-14T10:42:47.000Z</time>
      </trkpt>
      <trkpt lat="42.21676667" lon="-8.726835">
        <ele>25.0</ele>
        <time>2018-05-14T10:42:48.000Z</time>
      </trkpt>
      <trkpt lat="42.21677833" lon="-8.72679">
        <ele>25.0</ele>
        <time>2018-05-14T10:42:49.000Z</time>
      </trkpt>
      <trkpt lat="42.21679167" lon="-8.72674833">
        <ele>25.0</ele>
        <time>2018-05-14T10:42:50.000Z</time>
      </trkpt>
      <trkpt lat="42.21680333" lon="-8.72670667">
        <ele>25.0</ele>
        <time>2018-05-14T10:42:51.000Z</time>
      </trkpt>
      <trkpt lat="42.21681667" lon="-8.726665">
        <ele>24.0</ele>
        <time>2018-05-14T10:42:52.000Z</time>
      </trkpt>
      <trkpt lat="42.21682833" lon="-8.72661667">
        <ele>24.0</ele>
        <time>2018-05-14T10:42:53.000Z</time>
      </trkpt>
      <trkpt lat="42.21683833" lon="-8.72656833">
        <ele>24.0</ele>
        <time>2018-05-14T10:42:54.000Z</time>
      </trkpt>
      <trkpt lat="42.21684833" lon="-8.726525">
        <ele>24.0</ele>
        <time>2018-05-14T10:42:55.000Z</time>
      </trkpt>
      <trkpt lat="42.21686" lon="-8.72648167">
        <ele>24.0</ele>
        <time>2018-05-14T10:42:56.000Z</time>
      </trkpt>
      <trkpt lat="42.21687167" lon="-8.72643833">
        <ele>24.0</ele>
        <time>2018-05-14T10:42:57.000Z</time>
      </trkpt>
      <trkpt lat="42.21688167" lon="-8.726395">
        <ele>24.0</ele>
        <time>2018-05-14T10:42:58.000Z</time>
      </trkpt>
      <trkpt lat="42.21689333" lon="-8.72634667">
        <ele>24.0</ele>
        <time>2018-05-14T10:42:59.000Z</time>
      </trkpt>
      <trkpt lat="42.216905" lon="-8.72630167">
        <ele>24.0</ele>
        <time>2018-05-14T10:43:00.000Z</time>
      </trkpt>
      <trkpt lat="42.216915" lon="-8.72625833">
        <ele>24.0</ele>
        <time>2018-05-14T10:43:01.000Z</time>
      </trkpt>
      <trkpt lat="42.216925" lon="-8.72621667">
        <ele>23.0</ele>
        <time>2018-05-14T10:43:02.000Z</time>
      </trkpt>
      <trkpt lat="42.21693333" lon="-8.726175">
        <ele>23.0</ele>
        <time>2018-05-14T10:43:03.000Z</time>
      </trkpt>
      <trkpt lat="42.216945" lon="-8.726135">
        <ele>23.0</ele>
        <time>2018-05-14T10:43:04.000Z</time>
      </trkpt>
      <trkpt lat="42.216955" lon="-8.72609667">
        <ele>23.0</ele>
        <time>2018-05-14T10:43:05.000Z</time>
      </trkpt>
      <trkpt lat="42.216965" lon="-8.72605833">
        <ele>23.0</ele>
        <time>2018-05-14T10:43:06.000Z</time>
      </trkpt>
      <trkpt lat="42.21697667" lon="-8.72602167">
        <ele>23.0</ele>
        <time>2018-05-14T10:43:07.000Z</time>
      </trkpt>
      <trkpt lat="42.21698667" lon="-8.725985">
        <ele>23.0</ele>
        <time>2018-05-14T10:43:08.000Z</time>
      </trkpt>
      <trkpt lat="42.21699667" lon="-8.725945">
        <ele>23.0</ele>
        <time>2018-05-14T10:43:09.000Z</time>
      </trkpt>
      <trkpt lat="42.217005" lon="-8.725905">
        <ele>22.0</ele>
        <time>2018-05-14T10:43:10.000Z</time>
      </trkpt>
      <trkpt lat="42.21701333" lon="-8.72586167">
        <ele>22.0</ele>
        <time>2018-05-14T10:43:11.000Z</time>
      </trkpt>
      <trkpt lat="42.21702167" lon="-8.72582">
        <ele>22.0</ele>
        <time>2018-05-14T10:43:12.000Z</time>
      </trkpt>
      <trkpt lat="42.21702833" lon="-8.72577667">
        <ele>22.0</ele>
        <time>2018-05-14T10:43:13.000Z</time>
      </trkpt>
      <trkpt lat="42.217035" lon="-8.72573833">
        <ele>22.0</ele>
        <time>2018-05-14T10:43:14.000Z</time>
      </trkpt>
      <trkpt lat="42.21704333" lon="-8.72569667">
        <ele>22.0</ele>
        <time>2018-05-14T10:43:15.000Z</time>
      </trkpt>
      <trkpt lat="42.21705333" lon="-8.72565667">
        <ele>22.0</ele>
        <time>2018-05-14T10:43:16.000Z</time>
      </trkpt>
      <trkpt lat="42.217065" lon="-8.72561833">
        <ele>22.0</ele>
        <time>2018-05-14T10:43:17.000Z</time>
      </trkpt>
      <trkpt lat="42.21707833" lon="-8.72558333">
        <ele>22.0</ele>
        <time>2018-05-14T10:43:18.000Z</time>
      </trkpt>
      <trkpt lat="42.217095" lon="-8.72554333">
        <ele>22.0</ele>
        <time>2018-05-14T10:43:19.000Z</time>
      </trkpt>
      <trkpt lat="42.21711167" lon="-8.7255">
        <ele>22.0</ele>
        <time>2018-05-14T10:43:20.000Z</time>
      </trkpt>
      <trkpt lat="42.217125" lon="-8.72546">
        <ele>22.0</ele>
        <time>2018-05-14T10:43:21.000Z</time>
      </trkpt>
      <trkpt lat="42.21714" lon="-8.72542167">
        <ele>21.0</ele>
        <time>2018-05-14T10:43:22.000Z</time>
      </trkpt>
      <trkpt lat="42.21715833" lon="-8.725385">
        <ele>21.0</ele>
        <time>2018-05-14T10:43:23.000Z</time>
      </trkpt>
      <trkpt lat="42.21717667" lon="-8.72535167">
        <ele>21.0</ele>
        <time>2018-05-14T10:43:24.000Z</time>
      </trkpt>
      <trkpt lat="42.217195" lon="-8.72531667">
        <ele>21.0</ele>
        <time>2018-05-14T10:43:25.000Z</time>
      </trkpt>
      <trkpt lat="42.21721" lon="-8.72528">
        <ele>21.0</ele>
        <time>2018-05-14T10:43:26.000Z</time>
      </trkpt>
      <trkpt lat="42.21722333" lon="-8.72524833">
        <ele>21.0</ele>
        <time>2018-05-14T10:43:27.000Z</time>
      </trkpt>
      <trkpt lat="42.217235" lon="-8.72521667">
        <ele>21.0</ele>
        <time>2018-05-14T10:43:28.000Z</time>
      </trkpt>
      <trkpt lat="42.217245" lon="-8.72518167">
        <ele>21.0</ele>
        <time>2018-05-14T10:43:29.000Z</time>
      </trkpt>
      <trkpt lat="42.217255" lon="-8.72514333">
        <ele>21.0</ele>
        <time>2018-05-14T10:43:30.000Z</time>
      </trkpt>
      <trkpt lat="42.21726167" lon="-8.72510167">
        <ele>21.0</ele>
        <time>2018-05-14T10:43:31.000Z</time>
      </trkpt>
      <trkpt lat="42.217265" lon="-8.72505667">
        <ele>21.0</ele>
        <time>2018-05-14T10:43:32.000Z</time>
      </trkpt>
      <trkpt lat="42.21726667" lon="-8.72501">
        <ele>20.0</ele>
        <time>2018-05-14T10:43:33.000Z</time>
      </trkpt>
      <trkpt lat="42.21726167" lon="-8.724965">
        <ele>20.0</ele>
        <time>2018-05-14T10:43:34.000Z</time>
      </trkpt>
      <trkpt lat="42.21725667" lon="-8.72492333">
        <ele>20.0</ele>
        <time>2018-05-14T10:43:35.000Z</time>
      </trkpt>
      <trkpt lat="42.21725" lon="-8.72488333">
        <ele>20.0</ele>
        <time>2018-05-14T10:43:36.000Z</time>
      </trkpt>
      <trkpt lat="42.21724167" lon="-8.724845">
        <ele>20.0</ele>
        <time>2018-05-14T10:43:37.000Z</time>
      </trkpt>
      <trkpt lat="42.21723" lon="-8.72480667">
        <ele>20.0</ele>
        <time>2018-05-14T10:43:38.000Z</time>
      </trkpt>
      <trkpt lat="42.21721667" lon="-8.724765">
        <ele>20.0</ele>
        <time>2018-05-14T10:43:39.000Z</time>
      </trkpt>
      <trkpt lat="42.21720167" lon="-8.72472333">
        <ele>20.0</ele>
        <time>2018-05-14T10:43:40.000Z</time>
      </trkpt>
      <trkpt lat="42.21719" lon="-8.72468167">
        <ele>20.0</ele>
        <time>2018-05-14T10:43:41.000Z</time>
      </trkpt>
      <trkpt lat="42.21717833" lon="-8.72464167">
        <ele>20.0</ele>
        <time>2018-05-14T10:43:42.000Z</time>
      </trkpt>
      <trkpt lat="42.21716667" lon="-8.72459833">
        <ele>19.0</ele>
        <time>2018-05-14T10:43:43.000Z</time>
      </trkpt>
      <trkpt lat="42.21715333" lon="-8.72455667">
        <ele>19.0</ele>
        <time>2018-05-14T10:43:44.000Z</time>
      </trkpt>
      <trkpt lat="42.21713833" lon="-8.72451667">
        <ele>19.0</ele>
        <time>2018-05-14T10:43:45.000Z</time>
      </trkpt>
      <trkpt lat="42.21712333" lon="-8.724475">
        <ele>19.0</ele>
        <time>2018-05-14T10:43:46.000Z</time>
      </trkpt>
      <trkpt lat="42.21710833" lon="-8.72443667">
        <ele>19.0</ele>
        <time>2018-05-14T10:43:47.000Z</time>
      </trkpt>
      <trkpt lat="42.217095" lon="-8.7244">
        <ele>19.0</ele>
        <time>2018-05-14T10:43:48.000Z</time>
      </trkpt>
      <trkpt lat="42.21708333" lon="-8.72436333">
        <ele>19.0</ele>
        <time>2018-05-14T10:43:49.000Z</time>
      </trkpt>
      <trkpt lat="42.21706833" lon="-8.72433167">
        <ele>18.0</ele>
        <time>2018-05-14T10:43:50.000Z</time>
      </trkpt>
      <trkpt lat="42.21705333" lon="-8.72430167">
        <ele>18.0</ele>
        <time>2018-05-14T10:43:51.000Z</time>
      </trkpt>
      <trkpt lat="42.21704" lon="-8.72427167">
        <ele>18.0</ele>
        <time>2018-05-14T10:43:52.000Z</time>
      </trkpt>
      <trkpt lat="42.21702667" lon="-8.72424">
        <ele>18.0</ele>
        <time>2018-05-14T10:43:53.000Z</time>
      </trkpt>
      <trkpt lat="42.21701" lon="-8.72420833">
        <ele>18.0</ele>
        <time>2018-05-14T10:43:54.000Z</time>
      </trkpt>
      <trkpt lat="42.21699167" lon="-8.72417833">
        <ele>18.0</ele>
        <time>2018-05-14T10:43:55.000Z</time>
      </trkpt>
      <trkpt lat="42.21696833" lon="-8.72415167">
        <ele>18.0</ele>
        <time>2018-05-14T10:43:56.000Z</time>
      </trkpt>
      <trkpt lat="42.21694333" lon="-8.72412667">
        <ele>17.0</ele>
        <time>2018-05-14T10:43:57.000Z</time>
      </trkpt>
      <trkpt lat="42.21691833" lon="-8.72410167">
        <ele>17.0</ele>
        <time>2018-05-14T10:43:58.000Z</time>
      </trkpt>
      <trkpt lat="42.21689167" lon="-8.724075">
        <ele>17.0</ele>
        <time>2018-05-14T10:43:59.000Z</time>
      </trkpt>
      <trkpt lat="42.216865" lon="-8.72404667">
        <ele>17.0</ele>
        <time>2018-05-14T10:44:00.000Z</time>
      </trkpt>
      <trkpt lat="42.21683833" lon="-8.72402">
        <ele>17.0</ele>
        <time>2018-05-14T10:44:01.000Z</time>
      </trkpt>
      <trkpt lat="42.21681167" lon="-8.72398667">
        <ele>17.0</ele>
        <time>2018-05-14T10:44:02.000Z</time>
      </trkpt>
      <trkpt lat="42.216785" lon="-8.723955">
        <ele>17.0</ele>
        <time>2018-05-14T10:44:03.000Z</time>
      </trkpt>
      <trkpt lat="42.21676167" lon="-8.72392167">
        <ele>17.0</ele>
        <time>2018-05-14T10:44:04.000Z</time>
      </trkpt>
      <trkpt lat="42.21674" lon="-8.72388833">
        <ele>17.0</ele>
        <time>2018-05-14T10:44:05.000Z</time>
      </trkpt>
      <trkpt lat="42.21672167" lon="-8.72385333">
        <ele>17.0</ele>
        <time>2018-05-14T10:44:06.000Z</time>
      </trkpt>
      <trkpt lat="42.21670833" lon="-8.72382167">
        <ele>17.0</ele>
        <time>2018-05-14T10:44:07.000Z</time>
      </trkpt>
      <trkpt lat="42.216695" lon="-8.72379167">
        <ele>17.0</ele>
        <time>2018-05-14T10:44:08.000Z</time>
      </trkpt>
      <trkpt lat="42.21668333" lon="-8.72377">
        <ele>17.0</ele>
        <time>2018-05-14T10:44:09.000Z</time>
      </trkpt>
      <trkpt lat="42.21668" lon="-8.72376833">
        <ele>17.0</ele>
        <time>2018-05-14T10:44:10.000Z</time>
      </trkpt>
      <trkpt lat="42.216685" lon="-8.72378167">
        <ele>17.0</ele>
        <time>2018-05-14T10:44:11.000Z</time>
      </trkpt>
      <trkpt lat="42.21669833" lon="-8.72380667">
        <ele>18.0</ele>
        <time>2018-05-14T10:44:12.000Z</time>
      </trkpt>
      <trkpt lat="42.21672167" lon="-8.72383833">
        <ele>18.0</ele>
        <time>2018-05-14T10:44:13.000Z</time>
      </trkpt>
      <trkpt lat="42.216745" lon="-8.72386667">
        <ele>18.0</ele>
        <time>2018-05-14T10:44:14.000Z</time>
      </trkpt>
      <trkpt lat="42.21676833" lon="-8.72389833">
        <ele>18.0</ele>
        <time>2018-05-14T10:44:15.000Z</time>
      </trkpt>
      <trkpt lat="42.21679333" lon="-8.723925">
        <ele>18.0</ele>
        <time>2018-05-14T10:44:16.000Z</time>
      </trkpt>
      <trkpt lat="42.21682" lon="-8.72394833">
        <ele>18.0</ele>
        <time>2018-05-14T10:44:17.000Z</time>
      </trkpt>
      <trkpt lat="42.21684833" lon="-8.72397">
        <ele>18.0</ele>
        <time>2018-05-14T10:44:18.000Z</time>
      </trkpt>
      <trkpt lat="42.21687833" lon="-8.72399">
        <ele>18.0</ele>
        <time>2018-05-14T10:44:19.000Z</time>
      </trkpt>
      <trkpt lat="42.21690667" lon="-8.72401667">
        <ele>18.0</ele>
        <time>2018-05-14T10:44:20.000Z</time>
      </trkpt>
      <trkpt lat="42.216935" lon="-8.72404667">
        <ele>18.0</ele>
        <time>2018-05-14T10:44:21.000Z</time>
      </trkpt>
      <trkpt lat="42.21696167" lon="-8.72408167">
        <ele>18.0</ele>
        <time>2018-05-14T10:44:22.000Z</time>
      </trkpt>
      <trkpt lat="42.21698833" lon="-8.72411833">
        <ele>18.0</ele>
        <time>2018-05-14T10:44:23.000Z</time>
      </trkpt>
      <trkpt lat="42.21701333" lon="-8.724155">
        <ele>19.0</ele>
        <time>2018-05-14T10:44:24.000Z</time>
      </trkpt>
      <trkpt lat="42.21704" lon="-8.72419167">
        <ele>19.0</ele>
        <time>2018-05-14T10:44:25.000Z</time>
      </trkpt>
      <trkpt lat="42.217065" lon="-8.72423">
        <ele>19.0</ele>
        <time>2018-05-14T10:44:26.000Z</time>
      </trkpt>
      <trkpt lat="42.21708667" lon="-8.72426833">
        <ele>19.0</ele>
        <time>2018-05-14T10:44:27.000Z</time>
      </trkpt>
      <trkpt lat="42.21710833" lon="-8.724305">
        <ele>19.0</ele>
        <time>2018-05-14T10:44:28.000Z</time>
      </trkpt>
      <trkpt lat="42.21712667" lon="-8.72434167">
        <ele>19.0</ele>
        <time>2018-05-14T10:44:29.000Z</time>
      </trkpt>
      <trkpt lat="42.21714667" lon="-8.72437667">
        <ele>19.0</ele>
        <time>2018-05-14T10:44:30.000Z</time>
      </trkpt>
      <trkpt lat="42.21716333" lon="-8.72441">
        <ele>19.0</ele>
        <time>2018-05-14T10:44:31.000Z</time>
      </trkpt>
      <trkpt lat="42.21718167" lon="-8.72444333">
        <ele>19.0</ele>
        <time>2018-05-14T10:44:32.000Z</time>
      </trkpt>
      <trkpt lat="42.2172" lon="-8.72447333">
        <ele>19.0</ele>
        <time>2018-05-14T10:44:33.000Z</time>
      </trkpt>
      <trkpt lat="42.21721667" lon="-8.72450167">
        <ele>19.0</ele>
        <time>2018-05-14T10:44:34.000Z</time>
      </trkpt>
      <trkpt lat="42.21723333" lon="-8.72453">
        <ele>19.0</ele>
        <time>2018-05-14T10:44:35.000Z</time>
      </trkpt>
      <trkpt lat="42.21724833" lon="-8.72456">
        <ele>19.0</ele>
        <time>2018-05-14T10:44:36.000Z</time>
      </trkpt>
      <trkpt lat="42.21726333" lon="-8.72459167">
        <ele>19.0</ele>
        <time>2018-05-14T10:44:37.000Z</time>
      </trkpt>
      <trkpt lat="42.21727833" lon="-8.72462333">
        <ele>19.0</ele>
        <time>2018-05-14T10:44:38.000Z</time>
      </trkpt>
      <trkpt lat="42.21729333" lon="-8.72465833">
        <ele>19.0</ele>
        <time>2018-05-14T10:44:39.000Z</time>
      </trkpt>
      <trkpt lat="42.21730667" lon="-8.724695">
        <ele>19.0</ele>
        <time>2018-05-14T10:44:40.000Z</time>
      </trkpt>
      <trkpt lat="42.21731833" lon="-8.72473167">
        <ele>19.0</ele>
        <time>2018-05-14T10:44:41.000Z</time>
      </trkpt>
      <trkpt lat="42.21732667" lon="-8.72477667">
        <ele>19.0</ele>
        <time>2018-05-14T10:44:42.000Z</time>
      </trkpt>
      <trkpt lat="42.21733167" lon="-8.72482167">
        <ele>18.0</ele>
        <time>2018-05-14T10:44:43.000Z</time>
      </trkpt>
      <trkpt lat="42.21733167" lon="-8.72486667">
        <ele>18.0</ele>
        <time>2018-05-14T10:44:44.000Z</time>
      </trkpt>
      <trkpt lat="42.21733333" lon="-8.72490833">
        <ele>18.0</ele>
        <time>2018-05-14T10:44:45.000Z</time>
      </trkpt>
      <trkpt lat="42.21733333" lon="-8.72495">
        <ele>18.0</ele>
        <time>2018-05-14T10:44:46.000Z</time>
      </trkpt>
      <trkpt lat="42.21733167" lon="-8.72499333">
        <ele>18.0</ele>
        <time>2018-05-14T10:44:47.000Z</time>
      </trkpt>
      <trkpt lat="42.21732833" lon="-8.72503333">
        <ele>18.0</ele>
        <time>2018-05-14T10:44:48.000Z</time>
      </trkpt>
      <trkpt lat="42.21732333" lon="-8.72507">
        <ele>18.0</ele>
        <time>2018-05-14T10:44:49.000Z</time>
      </trkpt>
      <trkpt lat="42.217315" lon="-8.725105">
        <ele>18.0</ele>
        <time>2018-05-14T10:44:50.000Z</time>
      </trkpt>
      <trkpt lat="42.21730333" lon="-8.72514">
        <ele>18.0</ele>
        <time>2018-05-14T10:44:51.000Z</time>
      </trkpt>
      <trkpt lat="42.21729" lon="-8.72517167">
        <ele>18.0</ele>
        <time>2018-05-14T10:44:52.000Z</time>
      </trkpt>
      <trkpt lat="42.217275" lon="-8.725205">
        <ele>18.0</ele>
        <time>2018-05-14T10:44:53.000Z</time>
      </trkpt>
      <trkpt lat="42.21726167" lon="-8.72524167">
        <ele>17.0</ele>
        <time>2018-05-14T10:44:54.000Z</time>
      </trkpt>
      <trkpt lat="42.21724667" lon="-8.72527667">
        <ele>17.0</ele>
        <time>2018-05-14T10:44:55.000Z</time>
      </trkpt>
      <trkpt lat="42.21723" lon="-8.725315">
        <ele>17.0</ele>
        <time>2018-05-14T10:44:56.000Z</time>
      </trkpt>
      <trkpt lat="42.21721167" lon="-8.72535167">
        <ele>17.0</ele>
        <time>2018-05-14T10:44:57.000Z</time>
      </trkpt>
      <trkpt lat="42.21719333" lon="-8.72539">
        <ele>17.0</ele>
        <time>2018-05-14T10:44:58.000Z</time>
      </trkpt>
      <trkpt lat="42.21717833" lon="-8.72542667">
        <ele>17.0</ele>
        <time>2018-05-14T10:44:59.000Z</time>
      </trkpt>
      <trkpt lat="42.217165" lon="-8.72546333">
        <ele>17.0</ele>
        <time>2018-05-14T10:45:00.000Z</time>
      </trkpt>
      <trkpt lat="42.21715167" lon="-8.725505">
        <ele>17.0</ele>
        <time>2018-05-14T10:45:01.000Z</time>
      </trkpt>
      <trkpt lat="42.21714333" lon="-8.725545">
        <ele>17.0</ele>
        <time>2018-05-14T10:45:02.000Z</time>
      </trkpt>
      <trkpt lat="42.21713167" lon="-8.72559167">
        <ele>17.0</ele>
        <time>2018-05-14T10:45:03.000Z</time>
      </trkpt>
      <trkpt lat="42.21712167" lon="-8.72564167">
        <ele>16.0</ele>
        <time>2018-05-14T10:45:04.000Z</time>
      </trkpt>
      <trkpt lat="42.21711167" lon="-8.72569333">
        <ele>16.0</ele>
        <time>2018-05-14T10:45:05.000Z</time>
      </trkpt>
      <trkpt lat="42.21710333" lon="-8.72574167">
        <ele>16.0</ele>
        <time>2018-05-14T10:45:06.000Z</time>
      </trkpt>
      <trkpt lat="42.21709167" lon="-8.72579333">
        <ele>16.0</ele>
        <time>2018-05-14T10:45:07.000Z</time>
      </trkpt>
      <trkpt lat="42.217085" lon="-8.72584333">
        <ele>16.0</ele>
        <time>2018-05-14T10:45:08.000Z</time>
      </trkpt>
      <trkpt lat="42.21707833" lon="-8.72589">
        <ele>16.0</ele>
        <time>2018-05-14T10:45:09.000Z</time>
      </trkpt>
      <trkpt lat="42.217075" lon="-8.72593667">
        <ele>16.0</ele>
        <time>2018-05-14T10:45:10.000Z</time>
      </trkpt>
      <trkpt lat="42.21707" lon="-8.725985">
        <ele>16.0</ele>
        <time>2018-05-14T10:45:11.000Z</time>
      </trkpt>
      <trkpt lat="42.217065" lon="-8.72603833">
        <ele>16.0</ele>
        <time>2018-05-14T10:45:12.000Z</time>
      </trkpt>
      <trkpt lat="42.21705833" lon="-8.72609167">
        <ele>16.0</ele>
        <time>2018-05-14T10:45:13.000Z</time>
      </trkpt>
      <trkpt lat="42.21705167" lon="-8.72614167">
        <ele>16.0</ele>
        <time>2018-05-14T10:45:14.000Z</time>
      </trkpt>
      <trkpt lat="42.217045" lon="-8.72619167">
        <ele>16.0</ele>
        <time>2018-05-14T10:45:15.000Z</time>
      </trkpt>
      <trkpt lat="42.21703833" lon="-8.72624167">
        <ele>16.0</ele>
        <time>2018-05-14T10:45:16.000Z</time>
      </trkpt>
      <trkpt lat="42.21703" lon="-8.72628833">
        <ele>16.0</ele>
        <time>2018-05-14T10:45:17.000Z</time>
      </trkpt>
      <trkpt lat="42.21702333" lon="-8.72633333">
        <ele>16.0</ele>
        <time>2018-05-14T10:45:18.000Z</time>
      </trkpt>
      <trkpt lat="42.21701833" lon="-8.72637667">
        <ele>16.0</ele>
        <time>2018-05-14T10:45:19.000Z</time>
      </trkpt>
      <trkpt lat="42.21701333" lon="-8.72641833">
        <ele>16.0</ele>
        <time>2018-05-14T10:45:20.000Z</time>
      </trkpt>
      <trkpt lat="42.21700667" lon="-8.72646">
        <ele>16.0</ele>
        <time>2018-05-14T10:45:21.000Z</time>
      </trkpt>
      <trkpt lat="42.217" lon="-8.72650667">
        <ele>16.0</ele>
        <time>2018-05-14T10:45:22.000Z</time>
      </trkpt>
      <trkpt lat="42.216995" lon="-8.72655167">
        <ele>16.0</ele>
        <time>2018-05-14T10:45:23.000Z</time>
      </trkpt>
      <trkpt lat="42.21698833" lon="-8.726595">
        <ele>16.0</ele>
        <time>2018-05-14T10:45:24.000Z</time>
      </trkpt>
      <trkpt lat="42.216985" lon="-8.72663667">
        <ele>16.0</ele>
        <time>2018-05-14T10:45:25.000Z</time>
      </trkpt>
      <trkpt lat="42.21698" lon="-8.72667833">
        <ele>15.0</ele>
        <time>2018-05-14T10:45:26.000Z</time>
      </trkpt>
      <trkpt lat="42.21697333" lon="-8.72671833">
        <ele>15.0</ele>
        <time>2018-05-14T10:45:27.000Z</time>
      </trkpt>
      <trkpt lat="42.21696667" lon="-8.72676">
        <ele>15.0</ele>
        <time>2018-05-14T10:45:28.000Z</time>
      </trkpt>
      <trkpt lat="42.21695833" lon="-8.72680333">
        <ele>15.0</ele>
        <time>2018-05-14T10:45:29.000Z</time>
      </trkpt>
      <trkpt lat="42.21695167" lon="-8.726845">
        <ele>15.0</ele>
        <time>2018-05-14T10:45:30.000Z</time>
      </trkpt>
      <trkpt lat="42.21694333" lon="-8.72689333">
        <ele>15.0</ele>
        <time>2018-05-14T10:45:31.000Z</time>
      </trkpt>
      <trkpt lat="42.21693667" lon="-8.72694">
        <ele>15.0</ele>
        <time>2018-05-14T10:45:32.000Z</time>
      </trkpt>
      <trkpt lat="42.216925" lon="-8.72698667">
        <ele>15.0</ele>
        <time>2018-05-14T10:45:33.000Z</time>
      </trkpt>
      <trkpt lat="42.21691167" lon="-8.72703">
        <ele>15.0</ele>
        <time>2018-05-14T10:45:34.000Z</time>
      </trkpt>
      <trkpt lat="42.2169" lon="-8.72707">
        <ele>15.0</ele>
        <time>2018-05-14T10:45:35.000Z</time>
      </trkpt>
      <trkpt lat="42.21688833" lon="-8.72711167">
        <ele>15.0</ele>
        <time>2018-05-14T10:45:36.000Z</time>
      </trkpt>
      <trkpt lat="42.21687333" lon="-8.72715">
        <ele>15.0</ele>
        <time>2018-05-14T10:45:37.000Z</time>
      </trkpt>
      <trkpt lat="42.21685833" lon="-8.72719">
        <ele>15.0</ele>
        <time>2018-05-14T10:45:38.000Z</time>
      </trkpt>
      <trkpt lat="42.21684" lon="-8.72723333">
        <ele>15.0</ele>
        <time>2018-05-14T10:45:39.000Z</time>
      </trkpt>
      <trkpt lat="42.21682333" lon="-8.72727833">
        <ele>15.0</ele>
        <time>2018-05-14T10:45:40.000Z</time>
      </trkpt>
      <trkpt lat="42.21680833" lon="-8.727325">
        <ele>15.0</ele>
        <time>2018-05-14T10:45:41.000Z</time>
      </trkpt>
      <trkpt lat="42.216795" lon="-8.727375">
        <ele>15.0</ele>
        <time>2018-05-14T10:45:42.000Z</time>
      </trkpt>
      <trkpt lat="42.21677833" lon="-8.72742333">
        <ele>15.0</ele>
        <time>2018-05-14T10:45:43.000Z</time>
      </trkpt>
      <trkpt lat="42.21676" lon="-8.72746667">
        <ele>16.0</ele>
        <time>2018-05-14T10:45:44.000Z</time>
      </trkpt>
      <trkpt lat="42.21674" lon="-8.727505">
        <ele>16.0</ele>
        <time>2018-05-14T10:45:45.000Z</time>
      </trkpt>
      <trkpt lat="42.21672" lon="-8.72754">
        <ele>16.0</ele>
        <time>2018-05-14T10:45:46.000Z</time>
      </trkpt>
      <trkpt lat="42.21669833" lon="-8.72757667">
        <ele>16.0</ele>
        <time>2018-05-14T10:45:47.000Z</time>
      </trkpt>
      <trkpt lat="42.216675" lon="-8.72761333">
        <ele>16.0</ele>
        <time>2018-05-14T10:45:48.000Z</time>
      </trkpt>
      <trkpt lat="42.21665167" lon="-8.72765">
        <ele>16.0</ele>
        <time>2018-05-14T10:45:49.000Z</time>
      </trkpt>
      <trkpt lat="42.21663" lon="-8.72768833">
        <ele>16.0</ele>
        <time>2018-05-14T10:45:50.000Z</time>
      </trkpt>
      <trkpt lat="42.21660667" lon="-8.72772833">
        <ele>16.0</ele>
        <time>2018-05-14T10:45:51.000Z</time>
      </trkpt>
      <trkpt lat="42.21658667" lon="-8.72776833">
        <ele>16.0</ele>
        <time>2018-05-14T10:45:52.000Z</time>
      </trkpt>
      <trkpt lat="42.21656833" lon="-8.72781">
        <ele>15.0</ele>
        <time>2018-05-14T10:45:53.000Z</time>
      </trkpt>
      <trkpt lat="42.21655167" lon="-8.72784833">
        <ele>15.0</ele>
        <time>2018-05-14T10:45:54.000Z</time>
      </trkpt>
      <trkpt lat="42.21653667" lon="-8.727885">
        <ele>15.0</ele>
        <time>2018-05-14T10:45:55.000Z</time>
      </trkpt>
      <trkpt lat="42.21652333" lon="-8.72792167">
        <ele>15.0</ele>
        <time>2018-05-14T10:45:56.000Z</time>
      </trkpt>
      <trkpt lat="42.21650667" lon="-8.72795833">
        <ele>15.0</ele>
        <time>2018-05-14T10:45:57.000Z</time>
      </trkpt>
      <trkpt lat="42.21648833" lon="-8.72799667">
        <ele>15.0</ele>
        <time>2018-05-14T10:45:58.000Z</time>
      </trkpt>
      <trkpt lat="42.216475" lon="-8.728035">
        <ele>15.0</ele>
        <time>2018-05-14T10:45:59.000Z</time>
      </trkpt>
      <trkpt lat="42.21646167" lon="-8.72807333">
        <ele>15.0</ele>
        <time>2018-05-14T10:46:00.000Z</time>
      </trkpt>
      <trkpt lat="42.21645" lon="-8.72811167">
        <ele>15.0</ele>
        <time>2018-05-14T10:46:01.000Z</time>
      </trkpt>
      <trkpt lat="42.21643833" lon="-8.72815167">
        <ele>15.0</ele>
        <time>2018-05-14T10:46:02.000Z</time>
      </trkpt>
      <trkpt lat="42.21642833" lon="-8.72819">
        <ele>15.0</ele>
        <time>2018-05-14T10:46:03.000Z</time>
      </trkpt>
      <trkpt lat="42.21642" lon="-8.72823333">
        <ele>15.0</ele>
        <time>2018-05-14T10:46:04.000Z</time>
      </trkpt>
      <trkpt lat="42.21641167" lon="-8.72827667">
        <ele>15.0</ele>
        <time>2018-05-14T10:46:05.000Z</time>
      </trkpt>
      <trkpt lat="42.216405" lon="-8.72832167">
        <ele>14.0</ele>
        <time>2018-05-14T10:46:06.000Z</time>
      </trkpt>
      <trkpt lat="42.2164" lon="-8.72836333">
        <ele>14.0</ele>
        <time>2018-05-14T10:46:07.000Z</time>
      </trkpt>
      <trkpt lat="42.21639667" lon="-8.72840667">
        <ele>14.0</ele>
        <time>2018-05-14T10:46:08.000Z</time>
      </trkpt>
      <trkpt lat="42.21639833" lon="-8.72845167">
        <ele>14.0</ele>
        <time>2018-05-14T10:46:09.000Z</time>
      </trkpt>
      <trkpt lat="42.2164" lon="-8.72849667">
        <ele>14.0</ele>
        <time>2018-05-14T10:46:10.000Z</time>
      </trkpt>
      <trkpt lat="42.21639833" lon="-8.72854333">
        <ele>14.0</ele>
        <time>2018-05-14T10:46:11.000Z</time>
      </trkpt>
      <trkpt lat="42.21639667" lon="-8.72858667">
        <ele>14.0</ele>
        <time>2018-05-14T10:46:12.000Z</time>
      </trkpt>
      <trkpt lat="42.216395" lon="-8.72863167">
        <ele>14.0</ele>
        <time>2018-05-14T10:46:13.000Z</time>
      </trkpt>
      <trkpt lat="42.21639667" lon="-8.72867667">
        <ele>14.0</ele>
        <time>2018-05-14T10:46:14.000Z</time>
      </trkpt>
      <trkpt lat="42.216395" lon="-8.72872667">
        <ele>14.0</ele>
        <time>2018-05-14T10:46:15.000Z</time>
      </trkpt>
      <trkpt lat="42.21639333" lon="-8.72877">
        <ele>14.0</ele>
        <time>2018-05-14T10:46:16.000Z</time>
      </trkpt>
      <trkpt lat="42.21639167" lon="-8.72881667">
        <ele>15.0</ele>
        <time>2018-05-14T10:46:17.000Z</time>
      </trkpt>
      <trkpt lat="42.216385" lon="-8.72886333">
        <ele>15.0</ele>
        <time>2018-05-14T10:46:18.000Z</time>
      </trkpt>
      <trkpt lat="42.21637833" lon="-8.72890833">
        <ele>15.0</ele>
        <time>2018-05-14T10:46:19.000Z</time>
      </trkpt>
      <trkpt lat="42.21636667" lon="-8.72894333">
        <ele>15.0</ele>
        <time>2018-05-14T10:46:20.000Z</time>
      </trkpt>
      <trkpt lat="42.21635333" lon="-8.72897333">
        <ele>15.0</ele>
        <time>2018-05-14T10:46:21.000Z</time>
      </trkpt>
      <trkpt lat="42.21633667" lon="-8.72899833">
        <ele>16.0</ele>
        <time>2018-05-14T10:46:22.000Z</time>
      </trkpt>
      <trkpt lat="42.21631333" lon="-8.72901667">
        <ele>16.0</ele>
        <time>2018-05-14T10:46:23.000Z</time>
      </trkpt>
      <trkpt lat="42.21628833" lon="-8.729035">
        <ele>16.0</ele>
        <time>2018-05-14T10:46:24.000Z</time>
      </trkpt>
      <trkpt lat="42.21626167" lon="-8.72904833">
        <ele>16.0</ele>
        <time>2018-05-14T10:46:25.000Z</time>
      </trkpt>
      <trkpt lat="42.21623667" lon="-8.72906167">
        <ele>16.0</ele>
        <time>2018-05-14T10:46:26.000Z</time>
      </trkpt>
      <trkpt lat="42.21621" lon="-8.72907333">
        <ele>17.0</ele>
        <time>2018-05-14T10:46:27.000Z</time>
      </trkpt>
      <trkpt lat="42.216175" lon="-8.72908167">
        <ele>17.0</ele>
        <time>2018-05-14T10:46:28.000Z</time>
      </trkpt>
      <trkpt lat="42.21613833" lon="-8.72908833">
        <ele>17.0</ele>
        <time>2018-05-14T10:46:29.000Z</time>
      </trkpt>
      <trkpt lat="42.2161" lon="-8.729095">
        <ele>17.0</ele>
        <time>2018-05-14T10:46:30.000Z</time>
      </trkpt>
      <trkpt lat="42.21606333" lon="-8.729105">
        <ele>17.0</ele>
        <time>2018-05-14T10:46:31.000Z</time>
      </trkpt>
      <trkpt lat="42.21602167" lon="-8.72911167">
        <ele>17.0</ele>
        <time>2018-05-14T10:46:32.000Z</time>
      </trkpt>
      <trkpt lat="42.21598" lon="-8.72911833">
        <ele>17.0</ele>
        <time>2018-05-14T10:46:33.000Z</time>
      </trkpt>
      <trkpt lat="42.21593833" lon="-8.72912667">
        <ele>17.0</ele>
        <time>2018-05-14T10:46:34.000Z</time>
      </trkpt>
      <trkpt lat="42.21589667" lon="-8.72913667">
        <ele>17.0</ele>
        <time>2018-05-14T10:46:35.000Z</time>
      </trkpt>
      <trkpt lat="42.21585667" lon="-8.72914667">
        <ele>17.0</ele>
        <time>2018-05-14T10:46:36.000Z</time>
      </trkpt>
      <trkpt lat="42.21581833" lon="-8.72915167">
        <ele>17.0</ele>
        <time>2018-05-14T10:46:37.000Z</time>
      </trkpt>
      <trkpt lat="42.21578333" lon="-8.72915833">
        <ele>16.0</ele>
        <time>2018-05-14T10:46:38.000Z</time>
      </trkpt>
      <trkpt lat="42.21574833" lon="-8.72916833">
        <ele>16.0</ele>
        <time>2018-05-14T10:46:39.000Z</time>
      </trkpt>
      <trkpt lat="42.215715" lon="-8.72917333">
        <ele>16.0</ele>
        <time>2018-05-14T10:46:40.000Z</time>
      </trkpt>
      <trkpt lat="42.21568167" lon="-8.72918">
        <ele>16.0</ele>
        <time>2018-05-14T10:46:41.000Z</time>
      </trkpt>
      <trkpt lat="42.21564833" lon="-8.72918667">
        <ele>16.0</ele>
        <time>2018-05-14T10:46:42.000Z</time>
      </trkpt>
      <trkpt lat="42.21561667" lon="-8.729195">
        <ele>15.0</ele>
        <time>2018-05-14T10:46:43.000Z</time>
      </trkpt>
      <trkpt lat="42.215585" lon="-8.729205">
        <ele>15.0</ele>
        <time>2018-05-14T10:46:44.000Z</time>
      </trkpt>
      <trkpt lat="42.215555" lon="-8.729215">
        <ele>15.0</ele>
        <time>2018-05-14T10:46:45.000Z</time>
      </trkpt>
      <trkpt lat="42.21552167" lon="-8.72922667">
        <ele>15.0</ele>
        <time>2018-05-14T10:46:46.000Z</time>
      </trkpt>
      <trkpt lat="42.21549" lon="-8.72923833">
        <ele>15.0</ele>
        <time>2018-05-14T10:46:47.000Z</time>
      </trkpt>
      <trkpt lat="42.21546167" lon="-8.72924833">
        <ele>15.0</ele>
        <time>2018-05-14T10:46:48.000Z</time>
      </trkpt>
      <trkpt lat="42.21543333" lon="-8.729255">
        <ele>15.0</ele>
        <time>2018-05-14T10:46:49.000Z</time>
      </trkpt>
      <trkpt lat="42.215405" lon="-8.72926167">
        <ele>15.0</ele>
        <time>2018-05-14T10:46:50.000Z</time>
      </trkpt>
      <trkpt lat="42.21537833" lon="-8.72926">
        <ele>15.0</ele>
        <time>2018-05-14T10:46:51.000Z</time>
      </trkpt>
      <trkpt lat="42.215355" lon="-8.729255">
        <ele>15.0</ele>
        <time>2018-05-14T10:46:52.000Z</time>
      </trkpt>
      <trkpt lat="42.21533333" lon="-8.72924667">
        <ele>15.0</ele>
        <time>2018-05-14T10:46:53.000Z</time>
      </trkpt>
      <trkpt lat="42.21530833" lon="-8.72923833">
        <ele>15.0</ele>
        <time>2018-05-14T10:46:54.000Z</time>
      </trkpt>
      <trkpt lat="42.215285" lon="-8.72923167">
        <ele>16.0</ele>
        <time>2018-05-14T10:46:55.000Z</time>
      </trkpt>
      <trkpt lat="42.21526167" lon="-8.72922833">
        <ele>16.0</ele>
        <time>2018-05-14T10:46:56.000Z</time>
      </trkpt>
      <trkpt lat="42.21523833" lon="-8.72923167">
        <ele>16.0</ele>
        <time>2018-05-14T10:46:57.000Z</time>
      </trkpt>
      <trkpt lat="42.21521167" lon="-8.729235">
        <ele>16.0</ele>
        <time>2018-05-14T10:46:58.000Z</time>
      </trkpt>
      <trkpt lat="42.21518333" lon="-8.72923667">
        <ele>17.0</ele>
        <time>2018-05-14T10:46:59.000Z</time>
      </trkpt>
      <trkpt lat="42.21515333" lon="-8.72923833">
        <ele>17.0</ele>
        <time>2018-05-14T10:47:00.000Z</time>
      </trkpt>
      <trkpt lat="42.21512333" lon="-8.72924">
        <ele>17.0</ele>
        <time>2018-05-14T10:47:01.000Z</time>
      </trkpt>
      <trkpt lat="42.215095" lon="-8.72924333">
        <ele>17.0</ele>
        <time>2018-05-14T10:47:02.000Z</time>
      </trkpt>
      <trkpt lat="42.215065" lon="-8.72925">
        <ele>18.0</ele>
        <time>2018-05-14T10:47:03.000Z</time>
      </trkpt>
      <trkpt lat="42.21503667" lon="-8.72926333">
        <ele>18.0</ele>
        <time>2018-05-14T10:47:04.000Z</time>
      </trkpt>
      <trkpt lat="42.21500667" lon="-8.72928167">
        <ele>18.0</ele>
        <time>2018-05-14T10:47:05.000Z</time>
      </trkpt>
      <trkpt lat="42.21498" lon="-8.7293">
        <ele>18.0</ele>
        <time>2018-05-14T10:47:06.000Z</time>
      </trkpt>
      <trkpt lat="42.214955" lon="-8.72932167">
        <ele>18.0</ele>
        <time>2018-05-14T10:47:07.000Z</time>
      </trkpt>
      <trkpt lat="42.21492667" lon="-8.72934333">
        <ele>18.0</ele>
        <time>2018-05-14T10:47:08.000Z</time>
      </trkpt>
      <trkpt lat="42.21490167" lon="-8.72936167">
        <ele>18.0</ele>
        <time>2018-05-14T10:47:09.000Z</time>
      </trkpt>
      <trkpt lat="42.214875" lon="-8.72938">
        <ele>19.0</ele>
        <time>2018-05-14T10:47:10.000Z</time>
      </trkpt>
      <trkpt lat="42.21484833" lon="-8.7294">
        <ele>19.0</ele>
        <time>2018-05-14T10:47:11.000Z</time>
      </trkpt>
      <trkpt lat="42.214825" lon="-8.729425">
        <ele>19.0</ele>
        <time>2018-05-14T10:47:12.000Z</time>
      </trkpt>
      <trkpt lat="42.21480167" lon="-8.72944833">
        <ele>19.0</ele>
        <time>2018-05-14T10:47:13.000Z</time>
      </trkpt>
      <trkpt lat="42.214775" lon="-8.72947167">
        <ele>19.0</ele>
        <time>2018-05-14T10:47:14.000Z</time>
      </trkpt>
      <trkpt lat="42.21474833" lon="-8.72949333">
        <ele>19.0</ele>
        <time>2018-05-14T10:47:15.000Z</time>
      </trkpt>
      <trkpt lat="42.21472167" lon="-8.72951333">
        <ele>19.0</ele>
        <time>2018-05-14T10:47:16.000Z</time>
      </trkpt>
      <trkpt lat="42.21469167" lon="-8.72953167">
        <ele>20.0</ele>
        <time>2018-05-14T10:47:17.000Z</time>
      </trkpt>
      <trkpt lat="42.21466167" lon="-8.72954667">
        <ele>20.0</ele>
        <time>2018-05-14T10:47:18.000Z</time>
      </trkpt>
      <trkpt lat="42.21463167" lon="-8.72955667">
        <ele>20.0</ele>
        <time>2018-05-14T10:47:19.000Z</time>
      </trkpt>
      <trkpt lat="42.21460333" lon="-8.729565">
        <ele>20.0</ele>
        <time>2018-05-14T10:47:20.000Z</time>
      </trkpt>
      <trkpt lat="42.21457167" lon="-8.729565">
        <ele>21.0</ele>
        <time>2018-05-14T10:47:21.000Z</time>
      </trkpt>
      <trkpt lat="42.21454" lon="-8.72956333">
        <ele>21.0</ele>
        <time>2018-05-14T10:47:22.000Z</time>
      </trkpt>
      <trkpt lat="42.21451167" lon="-8.729555">
        <ele>21.0</ele>
        <time>2018-05-14T10:47:23.000Z</time>
      </trkpt>
      <trkpt lat="42.21448167" lon="-8.72954333">
        <ele>21.0</ele>
        <time>2018-05-14T10:47:24.000Z</time>
      </trkpt>
      <trkpt lat="42.21445" lon="-8.72953167">
        <ele>21.0</ele>
        <time>2018-05-14T10:47:25.000Z</time>
      </trkpt>
      <trkpt lat="42.21442167" lon="-8.72952">
        <ele>21.0</ele>
        <time>2018-05-14T10:47:26.000Z</time>
      </trkpt>
      <trkpt lat="42.21439167" lon="-8.72950667">
        <ele>21.0</ele>
        <time>2018-05-14T10:47:27.000Z</time>
      </trkpt>
      <trkpt lat="42.21436" lon="-8.72949167">
        <ele>21.0</ele>
        <time>2018-05-14T10:47:28.000Z</time>
      </trkpt>
      <trkpt lat="42.21433" lon="-8.72948">
        <ele>22.0</ele>
        <time>2018-05-14T10:47:29.000Z</time>
      </trkpt>
      <trkpt lat="42.21430167" lon="-8.72947">
        <ele>22.0</ele>
        <time>2018-05-14T10:47:30.000Z</time>
      </trkpt>
      <trkpt lat="42.21427833" lon="-8.72946167">
        <ele>22.0</ele>
        <time>2018-05-14T10:47:31.000Z</time>
      </trkpt>
      <trkpt lat="42.21426" lon="-8.72946">
        <ele>22.0</ele>
        <time>2018-05-14T10:47:32.000Z</time>
      </trkpt>
      <trkpt lat="42.21421667" lon="-8.72937333">
        <ele>17.0</ele>
        <time>2018-05-14T11:18:19.000Z</time>
      </trkpt>
      <trkpt lat="42.214225" lon="-8.72937833">
        <ele>17.0</ele>
        <time>2018-05-14T11:18:20.000Z</time>
      </trkpt>
      <trkpt lat="42.21423333" lon="-8.729385">
        <ele>17.0</ele>
        <time>2018-05-14T11:18:21.000Z</time>
      </trkpt>
      <trkpt lat="42.21424333" lon="-8.72939333">
        <ele>17.0</ele>
        <time>2018-05-14T11:18:22.000Z</time>
      </trkpt>
      <trkpt lat="42.21425667" lon="-8.729405">
        <ele>17.0</ele>
        <time>2018-05-14T11:18:23.000Z</time>
      </trkpt>
      <trkpt lat="42.21427167" lon="-8.72941833">
        <ele>17.0</ele>
        <time>2018-05-14T11:18:24.000Z</time>
      </trkpt>
      <trkpt lat="42.21429333" lon="-8.729435">
        <ele>17.0</ele>
        <time>2018-05-14T11:18:25.000Z</time>
      </trkpt>
      <trkpt lat="42.21431667" lon="-8.729455">
        <ele>17.0</ele>
        <time>2018-05-14T11:18:26.000Z</time>
      </trkpt>
      <trkpt lat="42.21433667" lon="-8.72947667">
        <ele>17.0</ele>
        <time>2018-05-14T11:18:27.000Z</time>
      </trkpt>
      <trkpt lat="42.21436" lon="-8.72950333">
        <ele>17.0</ele>
        <time>2018-05-14T11:18:28.000Z</time>
      </trkpt>
      <trkpt lat="42.21438667" lon="-8.72952833">
        <ele>17.0</ele>
        <time>2018-05-14T11:18:29.000Z</time>
      </trkpt>
      <trkpt lat="42.21441333" lon="-8.72954833">
        <ele>17.0</ele>
        <time>2018-05-14T11:18:30.000Z</time>
      </trkpt>
      <trkpt lat="42.214445" lon="-8.72956167">
        <ele>17.0</ele>
        <time>2018-05-14T11:18:31.000Z</time>
      </trkpt>
      <trkpt lat="42.21447167" lon="-8.72957">
        <ele>17.0</ele>
        <time>2018-05-14T11:18:32.000Z</time>
      </trkpt>
      <trkpt lat="42.21449833" lon="-8.72956667">
        <ele>18.0</ele>
        <time>2018-05-14T11:18:33.000Z</time>
      </trkpt>
      <trkpt lat="42.21452667" lon="-8.72955833">
        <ele>18.0</ele>
        <time>2018-05-14T11:18:34.000Z</time>
      </trkpt>
      <trkpt lat="42.21455167" lon="-8.72955167">
        <ele>18.0</ele>
        <time>2018-05-14T11:18:35.000Z</time>
      </trkpt>
      <trkpt lat="42.21458" lon="-8.72953833">
        <ele>18.0</ele>
        <time>2018-05-14T11:18:36.000Z</time>
      </trkpt>
      <trkpt lat="42.21461" lon="-8.729525">
        <ele>18.0</ele>
        <time>2018-05-14T11:18:37.000Z</time>
      </trkpt>
      <trkpt lat="42.21463833" lon="-8.72950667">
        <ele>18.0</ele>
        <time>2018-05-14T11:18:38.000Z</time>
      </trkpt>
      <trkpt lat="42.21466333" lon="-8.72948833">
        <ele>18.0</ele>
        <time>2018-05-14T11:18:39.000Z</time>
      </trkpt>
      <trkpt lat="42.21469167" lon="-8.729465">
        <ele>18.0</ele>
        <time>2018-05-14T11:18:40.000Z</time>
      </trkpt>
      <trkpt lat="42.21472" lon="-8.72944167">
        <ele>18.0</ele>
        <time>2018-05-14T11:18:41.000Z</time>
      </trkpt>
      <trkpt lat="42.214745" lon="-8.72942">
        <ele>18.0</ele>
        <time>2018-05-14T11:18:42.000Z</time>
      </trkpt>
      <trkpt lat="42.21477167" lon="-8.72939833">
        <ele>19.0</ele>
        <time>2018-05-14T11:18:43.000Z</time>
      </trkpt>
      <trkpt lat="42.21479667" lon="-8.72937667">
        <ele>19.0</ele>
        <time>2018-05-14T11:18:44.000Z</time>
      </trkpt>
      <trkpt lat="42.21482167" lon="-8.729355">
        <ele>19.0</ele>
        <time>2018-05-14T11:18:45.000Z</time>
      </trkpt>
      <trkpt lat="42.21484833" lon="-8.72933167">
        <ele>19.0</ele>
        <time>2018-05-14T11:18:46.000Z</time>
      </trkpt>
      <trkpt lat="42.21487333" lon="-8.72930833">
        <ele>19.0</ele>
        <time>2018-05-14T11:18:47.000Z</time>
      </trkpt>
      <trkpt lat="42.21489833" lon="-8.72928333">
        <ele>20.0</ele>
        <time>2018-05-14T11:18:48.000Z</time>
      </trkpt>
      <trkpt lat="42.21492333" lon="-8.72925833">
        <ele>20.0</ele>
        <time>2018-05-14T11:18:49.000Z</time>
      </trkpt>
      <trkpt lat="42.21495" lon="-8.72923833">
        <ele>20.0</ele>
        <time>2018-05-14T11:18:50.000Z</time>
      </trkpt>
      <trkpt lat="42.214975" lon="-8.72922">
        <ele>20.0</ele>
        <time>2018-05-14T11:18:51.000Z</time>
      </trkpt>
      <trkpt lat="42.21499833" lon="-8.72920167">
        <ele>20.0</ele>
        <time>2018-05-14T11:18:52.000Z</time>
      </trkpt>
      <trkpt lat="42.21502" lon="-8.72918333">
        <ele>20.0</ele>
        <time>2018-05-14T11:18:53.000Z</time>
      </trkpt>
      <trkpt lat="42.21504" lon="-8.729165">
        <ele>21.0</ele>
        <time>2018-05-14T11:18:54.000Z</time>
      </trkpt>
      <trkpt lat="42.21506" lon="-8.72914833">
        <ele>21.0</ele>
        <time>2018-05-14T11:18:55.000Z</time>
      </trkpt>
      <trkpt lat="42.21507833" lon="-8.72912833">
        <ele>21.0</ele>
        <time>2018-05-14T11:18:56.000Z</time>
      </trkpt>
      <trkpt lat="42.21509833" lon="-8.72910833">
        <ele>21.0</ele>
        <time>2018-05-14T11:18:57.000Z</time>
      </trkpt>
      <trkpt lat="42.21512" lon="-8.72908667">
        <ele>21.0</ele>
        <time>2018-05-14T11:18:58.000Z</time>
      </trkpt>
      <trkpt lat="42.21514167" lon="-8.72906833">
        <ele>21.0</ele>
        <time>2018-05-14T11:18:59.000Z</time>
      </trkpt>
      <trkpt lat="42.21516167" lon="-8.72905">
        <ele>21.0</ele>
        <time>2018-05-14T11:19:00.000Z</time>
      </trkpt>
      <trkpt lat="42.21518333" lon="-8.72903167">
        <ele>21.0</ele>
        <time>2018-05-14T11:19:01.000Z</time>
      </trkpt>
      <trkpt lat="42.215205" lon="-8.72901">
        <ele>22.0</ele>
        <time>2018-05-14T11:19:02.000Z</time>
      </trkpt>
      <trkpt lat="42.21522833" lon="-8.72899">
        <ele>22.0</ele>
        <time>2018-05-14T11:19:03.000Z</time>
      </trkpt>
      <trkpt lat="42.21525333" lon="-8.72896833">
        <ele>22.0</ele>
        <time>2018-05-14T11:19:04.000Z</time>
      </trkpt>
      <trkpt lat="42.21528167" lon="-8.72894833">
        <ele>22.0</ele>
        <time>2018-05-14T11:19:05.000Z</time>
      </trkpt>
      <trkpt lat="42.21531" lon="-8.728925">
        <ele>22.0</ele>
        <time>2018-05-14T11:19:06.000Z</time>
      </trkpt>
      <trkpt lat="42.21533667" lon="-8.72890333">
        <ele>22.0</ele>
        <time>2018-05-14T11:19:07.000Z</time>
      </trkpt>
      <trkpt lat="42.215365" lon="-8.72888167">
        <ele>22.0</ele>
        <time>2018-05-14T11:19:08.000Z</time>
      </trkpt>
      <trkpt lat="42.21539333" lon="-8.72886">
        <ele>22.0</ele>
        <time>2018-05-14T11:19:09.000Z</time>
      </trkpt>
      <trkpt lat="42.21541833" lon="-8.72883667">
        <ele>22.0</ele>
        <time>2018-05-14T11:19:10.000Z</time>
      </trkpt>
      <trkpt lat="42.21543667" lon="-8.72881667">
        <ele>22.0</ele>
        <time>2018-05-14T11:19:11.000Z</time>
      </trkpt>
      <trkpt lat="42.215455" lon="-8.72879167">
        <ele>22.0</ele>
        <time>2018-05-14T11:19:12.000Z</time>
      </trkpt>
      <trkpt lat="42.21546833" lon="-8.72876333">
        <ele>22.0</ele>
        <time>2018-05-14T11:19:13.000Z</time>
      </trkpt>
      <trkpt lat="42.21548333" lon="-8.72873167">
        <ele>22.0</ele>
        <time>2018-05-14T11:19:14.000Z</time>
      </trkpt>
      <trkpt lat="42.21549833" lon="-8.72869833">
        <ele>22.0</ele>
        <time>2018-05-14T11:19:15.000Z</time>
      </trkpt>
      <trkpt lat="42.21551333" lon="-8.72866667">
        <ele>22.0</ele>
        <time>2018-05-14T11:19:16.000Z</time>
      </trkpt>
      <trkpt lat="42.21552667" lon="-8.72863333">
        <ele>22.0</ele>
        <time>2018-05-14T11:19:17.000Z</time>
      </trkpt>
      <trkpt lat="42.21554333" lon="-8.7286">
        <ele>22.0</ele>
        <time>2018-05-14T11:19:18.000Z</time>
      </trkpt>
      <trkpt lat="42.21556" lon="-8.72857">
        <ele>23.0</ele>
        <time>2018-05-14T11:19:19.000Z</time>
      </trkpt>
      <trkpt lat="42.215575" lon="-8.72854">
        <ele>23.0</ele>
        <time>2018-05-14T11:19:20.000Z</time>
      </trkpt>
      <trkpt lat="42.21559333" lon="-8.728505">
        <ele>23.0</ele>
        <time>2018-05-14T11:19:21.000Z</time>
      </trkpt>
      <trkpt lat="42.21561167" lon="-8.72846833">
        <ele>23.0</ele>
        <time>2018-05-14T11:19:22.000Z</time>
      </trkpt>
      <trkpt lat="42.21562833" lon="-8.72843833">
        <ele>23.0</ele>
        <time>2018-05-14T11:19:23.000Z</time>
      </trkpt>
      <trkpt lat="42.215645" lon="-8.72840667">
        <ele>23.0</ele>
        <time>2018-05-14T11:19:24.000Z</time>
      </trkpt>
      <trkpt lat="42.21566" lon="-8.728375">
        <ele>23.0</ele>
        <time>2018-05-14T11:19:25.000Z</time>
      </trkpt>
      <trkpt lat="42.21567833" lon="-8.72834333">
        <ele>23.0</ele>
        <time>2018-05-14T11:19:26.000Z</time>
      </trkpt>
      <trkpt lat="42.21569833" lon="-8.72830833">
        <ele>23.0</ele>
        <time>2018-05-14T11:19:27.000Z</time>
      </trkpt>
      <trkpt lat="42.21571833" lon="-8.72827333">
        <ele>23.0</ele>
        <time>2018-05-14T11:19:28.000Z</time>
      </trkpt>
      <trkpt lat="42.21573667" lon="-8.72824333">
        <ele>23.0</ele>
        <time>2018-05-14T11:19:29.000Z</time>
      </trkpt>
      <trkpt lat="42.21575667" lon="-8.728215">
        <ele>23.0</ele>
        <time>2018-05-14T11:19:30.000Z</time>
      </trkpt>
      <trkpt lat="42.21577833" lon="-8.72818833">
        <ele>24.0</ele>
        <time>2018-05-14T11:19:31.000Z</time>
      </trkpt>
      <trkpt lat="42.21579667" lon="-8.728165">
        <ele>24.0</ele>
        <time>2018-05-14T11:19:32.000Z</time>
      </trkpt>
      <trkpt lat="42.215815" lon="-8.72814">
        <ele>24.0</ele>
        <time>2018-05-14T11:19:33.000Z</time>
      </trkpt>
      <trkpt lat="42.21583333" lon="-8.72811167">
        <ele>24.0</ele>
        <time>2018-05-14T11:19:34.000Z</time>
      </trkpt>
      <trkpt lat="42.21585333" lon="-8.728085">
        <ele>24.0</ele>
        <time>2018-05-14T11:19:35.000Z</time>
      </trkpt>
      <trkpt lat="42.21587167" lon="-8.72806">
        <ele>24.0</ele>
        <time>2018-05-14T11:19:36.000Z</time>
      </trkpt>
      <trkpt lat="42.21588667" lon="-8.72803333">
        <ele>24.0</ele>
        <time>2018-05-14T11:19:37.000Z</time>
      </trkpt>
      <trkpt lat="42.21590167" lon="-8.72800667">
        <ele>24.0</ele>
        <time>2018-05-14T11:19:38.000Z</time>
      </trkpt>
      <trkpt lat="42.21591667" lon="-8.72798">
        <ele>24.0</ele>
        <time>2018-05-14T11:19:39.000Z</time>
      </trkpt>
      <trkpt lat="42.215935" lon="-8.72794833">
        <ele>24.0</ele>
        <time>2018-05-14T11:19:40.000Z</time>
      </trkpt>
      <trkpt lat="42.21595833" lon="-8.72791833">
        <ele>24.0</ele>
        <time>2018-05-14T11:19:41.000Z</time>
      </trkpt>
      <trkpt lat="42.21598167" lon="-8.72788667">
        <ele>24.0</ele>
        <time>2018-05-14T11:19:42.000Z</time>
      </trkpt>
      <trkpt lat="42.216005" lon="-8.727855">
        <ele>24.0</ele>
        <time>2018-05-14T11:19:43.000Z</time>
      </trkpt>
      <trkpt lat="42.21602833" lon="-8.72782333">
        <ele>24.0</ele>
        <time>2018-05-14T11:19:44.000Z</time>
      </trkpt>
      <trkpt lat="42.21605167" lon="-8.72779333">
        <ele>24.0</ele>
        <time>2018-05-14T11:19:45.000Z</time>
      </trkpt>
      <trkpt lat="42.21607333" lon="-8.72776167">
        <ele>24.0</ele>
        <time>2018-05-14T11:19:46.000Z</time>
      </trkpt>
      <trkpt lat="42.21609833" lon="-8.72772667">
        <ele>24.0</ele>
        <time>2018-05-14T11:19:47.000Z</time>
      </trkpt>
      <trkpt lat="42.21612167" lon="-8.72769333">
        <ele>24.0</ele>
        <time>2018-05-14T11:19:48.000Z</time>
      </trkpt>
      <trkpt lat="42.216145" lon="-8.72766167">
        <ele>24.0</ele>
        <time>2018-05-14T11:19:49.000Z</time>
      </trkpt>
      <trkpt lat="42.21617167" lon="-8.72763">
        <ele>25.0</ele>
        <time>2018-05-14T11:19:50.000Z</time>
      </trkpt>
      <trkpt lat="42.21619667" lon="-8.72759667">
        <ele>25.0</ele>
        <time>2018-05-14T11:19:51.000Z</time>
      </trkpt>
      <trkpt lat="42.21622333" lon="-8.72756833">
        <ele>25.0</ele>
        <time>2018-05-14T11:19:52.000Z</time>
      </trkpt>
      <trkpt lat="42.21624833" lon="-8.72754">
        <ele>25.0</ele>
        <time>2018-05-14T11:19:53.000Z</time>
      </trkpt>
      <trkpt lat="42.21627333" lon="-8.727515">
        <ele>25.0</ele>
        <time>2018-05-14T11:19:54.000Z</time>
      </trkpt>
      <trkpt lat="42.2163" lon="-8.727495">
        <ele>25.0</ele>
        <time>2018-05-14T11:19:55.000Z</time>
      </trkpt>
      <trkpt lat="42.21632833" lon="-8.72747833">
        <ele>25.0</ele>
        <time>2018-05-14T11:19:56.000Z</time>
      </trkpt>
      <trkpt lat="42.21635667" lon="-8.72746833">
        <ele>26.0</ele>
        <time>2018-05-14T11:19:57.000Z</time>
      </trkpt>
      <trkpt lat="42.21638667" lon="-8.72746167">
        <ele>26.0</ele>
        <time>2018-05-14T11:19:58.000Z</time>
      </trkpt>
      <trkpt lat="42.21641667" lon="-8.72745833">
        <ele>26.0</ele>
        <time>2018-05-14T11:19:59.000Z</time>
      </trkpt>
      <trkpt lat="42.21644833" lon="-8.72745667">
        <ele>26.0</ele>
        <time>2018-05-14T11:20:00.000Z</time>
      </trkpt>
      <trkpt lat="42.21648" lon="-8.727455">
        <ele>26.0</ele>
        <time>2018-05-14T11:20:01.000Z</time>
      </trkpt>
      <trkpt lat="42.216515" lon="-8.72745167">
        <ele>26.0</ele>
        <time>2018-05-14T11:20:02.000Z</time>
      </trkpt>
      <trkpt lat="42.21654667" lon="-8.72744333">
        <ele>26.0</ele>
        <time>2018-05-14T11:20:03.000Z</time>
      </trkpt>
      <trkpt lat="42.21657667" lon="-8.72743333">
        <ele>26.0</ele>
        <time>2018-05-14T11:20:04.000Z</time>
      </trkpt>
      <trkpt lat="42.21660333" lon="-8.72742">
        <ele>26.0</ele>
        <time>2018-05-14T11:20:05.000Z</time>
      </trkpt>
      <trkpt lat="42.21662667" lon="-8.727405">
        <ele>26.0</ele>
        <time>2018-05-14T11:20:06.000Z</time>
      </trkpt>
      <trkpt lat="42.21664833" lon="-8.727385">
        <ele>26.0</ele>
        <time>2018-05-14T11:20:07.000Z</time>
      </trkpt>
      <trkpt lat="42.21667" lon="-8.72735833">
        <ele>26.0</ele>
        <time>2018-05-14T11:20:08.000Z</time>
      </trkpt>
      <trkpt lat="42.21668833" lon="-8.72732833">
        <ele>26.0</ele>
        <time>2018-05-14T11:20:09.000Z</time>
      </trkpt>
      <trkpt lat="42.21670833" lon="-8.727295">
        <ele>26.0</ele>
        <time>2018-05-14T11:20:10.000Z</time>
      </trkpt>
      <trkpt lat="42.21672833" lon="-8.727255">
        <ele>26.0</ele>
        <time>2018-05-14T11:20:11.000Z</time>
      </trkpt>
      <trkpt lat="42.21674667" lon="-8.72721333">
        <ele>26.0</ele>
        <time>2018-05-14T11:20:12.000Z</time>
      </trkpt>
      <trkpt lat="42.21676333" lon="-8.72717167">
        <ele>26.0</ele>
        <time>2018-05-14T11:20:13.000Z</time>
      </trkpt>
      <trkpt lat="42.21677833" lon="-8.72713167">
        <ele>26.0</ele>
        <time>2018-05-14T11:20:14.000Z</time>
      </trkpt>
      <trkpt lat="42.21679333" lon="-8.72709">
        <ele>26.0</ele>
        <time>2018-05-14T11:20:15.000Z</time>
      </trkpt>
      <trkpt lat="42.21680833" lon="-8.72704833">
        <ele>25.0</ele>
        <time>2018-05-14T11:20:16.000Z</time>
      </trkpt>
      <trkpt lat="42.21682167" lon="-8.72700667">
        <ele>25.0</ele>
        <time>2018-05-14T11:20:17.000Z</time>
      </trkpt>
      <trkpt lat="42.216835" lon="-8.72696333">
        <ele>25.0</ele>
        <time>2018-05-14T11:20:18.000Z</time>
      </trkpt>
      <trkpt lat="42.216845" lon="-8.72692333">
        <ele>25.0</ele>
        <time>2018-05-14T11:20:19.000Z</time>
      </trkpt>
      <trkpt lat="42.216855" lon="-8.726885">
        <ele>25.0</ele>
        <time>2018-05-14T11:20:20.000Z</time>
      </trkpt>
      <trkpt lat="42.216865" lon="-8.726845">
        <ele>25.0</ele>
        <time>2018-05-14T11:20:21.000Z</time>
      </trkpt>
      <trkpt lat="42.21687167" lon="-8.72680167">
        <ele>25.0</ele>
        <time>2018-05-14T11:20:22.000Z</time>
      </trkpt>
      <trkpt lat="42.21688167" lon="-8.72676333">
        <ele>25.0</ele>
        <time>2018-05-14T11:20:23.000Z</time>
      </trkpt>
      <trkpt lat="42.21689" lon="-8.72672333">
        <ele>24.0</ele>
        <time>2018-05-14T11:20:24.000Z</time>
      </trkpt>
      <trkpt lat="42.21690167" lon="-8.72668333">
        <ele>24.0</ele>
        <time>2018-05-14T11:20:25.000Z</time>
      </trkpt>
      <trkpt lat="42.21691167" lon="-8.72664667">
        <ele>24.0</ele>
        <time>2018-05-14T11:20:26.000Z</time>
      </trkpt>
      <trkpt lat="42.21691833" lon="-8.72660833">
        <ele>24.0</ele>
        <time>2018-05-14T11:20:27.000Z</time>
      </trkpt>
      <trkpt lat="42.216925" lon="-8.72656667">
        <ele>24.0</ele>
        <time>2018-05-14T11:20:28.000Z</time>
      </trkpt>
      <trkpt lat="42.21693333" lon="-8.72652667">
        <ele>24.0</ele>
        <time>2018-05-14T11:20:29.000Z</time>
      </trkpt>
      <trkpt lat="42.21694167" lon="-8.72648833">
        <ele>24.0</ele>
        <time>2018-05-14T11:20:30.000Z</time>
      </trkpt>
      <trkpt lat="42.21695167" lon="-8.72645333">
        <ele>24.0</ele>
        <time>2018-05-14T11:20:31.000Z</time>
      </trkpt>
      <trkpt lat="42.21696" lon="-8.72641667">
        <ele>24.0</ele>
        <time>2018-05-14T11:20:32.000Z</time>
      </trkpt>
      <trkpt lat="42.21696667" lon="-8.72637833">
        <ele>23.0</ele>
        <time>2018-05-14T11:20:33.000Z</time>
      </trkpt>
      <trkpt lat="42.21697333" lon="-8.72634">
        <ele>23.0</ele>
        <time>2018-05-14T11:20:34.000Z</time>
      </trkpt>
      <trkpt lat="42.21698167" lon="-8.72629833">
        <ele>23.0</ele>
        <time>2018-05-14T11:20:35.000Z</time>
      </trkpt>
      <trkpt lat="42.21698833" lon="-8.72626">
        <ele>23.0</ele>
        <time>2018-05-14T11:20:36.000Z</time>
      </trkpt>
      <trkpt lat="42.216995" lon="-8.72622333">
        <ele>23.0</ele>
        <time>2018-05-14T11:20:37.000Z</time>
      </trkpt>
      <trkpt lat="42.21700333" lon="-8.72618667">
        <ele>23.0</ele>
        <time>2018-05-14T11:20:38.000Z</time>
      </trkpt>
      <trkpt lat="42.21701167" lon="-8.72614833">
        <ele>23.0</ele>
        <time>2018-05-14T11:20:39.000Z</time>
      </trkpt>
      <trkpt lat="42.21702" lon="-8.72611">
        <ele>22.0</ele>
        <time>2018-05-14T11:20:40.000Z</time>
      </trkpt>
      <trkpt lat="42.21702667" lon="-8.72607167">
        <ele>22.0</ele>
        <time>2018-05-14T11:20:41.000Z</time>
      </trkpt>
      <trkpt lat="42.217035" lon="-8.726035">
        <ele>22.0</ele>
        <time>2018-05-14T11:20:42.000Z</time>
      </trkpt>
      <trkpt lat="42.21704333" lon="-8.72599833">
        <ele>22.0</ele>
        <time>2018-05-14T11:20:43.000Z</time>
      </trkpt>
      <trkpt lat="42.21705167" lon="-8.725965">
        <ele>22.0</ele>
        <time>2018-05-14T11:20:44.000Z</time>
      </trkpt>
      <trkpt lat="42.21706167" lon="-8.72592667">
        <ele>22.0</ele>
        <time>2018-05-14T11:20:45.000Z</time>
      </trkpt>
      <trkpt lat="42.21707" lon="-8.72589">
        <ele>22.0</ele>
        <time>2018-05-14T11:20:46.000Z</time>
      </trkpt>
      <trkpt lat="42.217075" lon="-8.725855">
        <ele>22.0</ele>
        <time>2018-05-14T11:20:47.000Z</time>
      </trkpt>
      <trkpt lat="42.21708167" lon="-8.72581667">
        <ele>21.0</ele>
        <time>2018-05-14T11:20:48.000Z</time>
      </trkpt>
      <trkpt lat="42.21708833" lon="-8.72577667">
        <ele>21.0</ele>
        <time>2018-05-14T11:20:49.000Z</time>
      </trkpt>
      <trkpt lat="42.21709167" lon="-8.72573667">
        <ele>21.0</ele>
        <time>2018-05-14T11:20:50.000Z</time>
      </trkpt>
      <trkpt lat="42.21709667" lon="-8.72570167">
        <ele>21.0</ele>
        <time>2018-05-14T11:20:51.000Z</time>
      </trkpt>
      <trkpt lat="42.2171" lon="-8.725665">
        <ele>21.0</ele>
        <time>2018-05-14T11:20:52.000Z</time>
      </trkpt>
      <trkpt lat="42.21710833" lon="-8.72563">
        <ele>21.0</ele>
        <time>2018-05-14T11:20:53.000Z</time>
      </trkpt>
      <trkpt lat="42.21711833" lon="-8.7256">
        <ele>21.0</ele>
        <time>2018-05-14T11:20:54.000Z</time>
      </trkpt>
      <trkpt lat="42.21712833" lon="-8.72556833">
        <ele>21.0</ele>
        <time>2018-05-14T11:20:55.000Z</time>
      </trkpt>
      <trkpt lat="42.21714" lon="-8.725535">
        <ele>20.0</ele>
        <time>2018-05-14T11:20:56.000Z</time>
      </trkpt>
      <trkpt lat="42.21715167" lon="-8.72549667">
        <ele>20.0</ele>
        <time>2018-05-14T11:20:57.000Z</time>
      </trkpt>
      <trkpt lat="42.21716667" lon="-8.72545667">
        <ele>20.0</ele>
        <time>2018-05-14T11:20:58.000Z</time>
      </trkpt>
      <trkpt lat="42.21718" lon="-8.725415">
        <ele>20.0</ele>
        <time>2018-05-14T11:20:59.000Z</time>
      </trkpt>
      <trkpt lat="42.21719333" lon="-8.72537833">
        <ele>20.0</ele>
        <time>2018-05-14T11:21:00.000Z</time>
      </trkpt>
      <trkpt lat="42.21720667" lon="-8.72534">
        <ele>19.0</ele>
        <time>2018-05-14T11:21:01.000Z</time>
      </trkpt>
      <trkpt lat="42.21722" lon="-8.72530333">
        <ele>19.0</ele>
        <time>2018-05-14T11:21:02.000Z</time>
      </trkpt>
      <trkpt lat="42.217235" lon="-8.72527333">
        <ele>19.0</ele>
        <time>2018-05-14T11:21:03.000Z</time>
      </trkpt>
      <trkpt lat="42.21725" lon="-8.72524333">
        <ele>19.0</ele>
        <time>2018-05-14T11:21:04.000Z</time>
      </trkpt>
      <trkpt lat="42.21726167" lon="-8.72521333">
        <ele>19.0</ele>
        <time>2018-05-14T11:21:05.000Z</time>
      </trkpt>
      <trkpt lat="42.21727333" lon="-8.72518333">
        <ele>19.0</ele>
        <time>2018-05-14T11:21:06.000Z</time>
      </trkpt>
      <trkpt lat="42.217285" lon="-8.72515333">
        <ele>19.0</ele>
        <time>2018-05-14T11:21:07.000Z</time>
      </trkpt>
      <trkpt lat="42.217295" lon="-8.72512167">
        <ele>19.0</ele>
        <time>2018-05-14T11:21:08.000Z</time>
      </trkpt>
      <trkpt lat="42.217305" lon="-8.72509167">
        <ele>18.0</ele>
        <time>2018-05-14T11:21:09.000Z</time>
      </trkpt>
      <trkpt lat="42.21731" lon="-8.72506167">
        <ele>18.0</ele>
        <time>2018-05-14T11:21:10.000Z</time>
      </trkpt>
      <trkpt lat="42.21731167" lon="-8.72503167">
        <ele>18.0</ele>
        <time>2018-05-14T11:21:11.000Z</time>
      </trkpt>
      <trkpt lat="42.21731333" lon="-8.724995">
        <ele>18.0</ele>
        <time>2018-05-14T11:21:12.000Z</time>
      </trkpt>
      <trkpt lat="42.21731" lon="-8.72495833">
        <ele>18.0</ele>
        <time>2018-05-14T11:21:13.000Z</time>
      </trkpt>
      <trkpt lat="42.21730167" lon="-8.72491833">
        <ele>18.0</ele>
        <time>2018-05-14T11:21:14.000Z</time>
      </trkpt>
      <trkpt lat="42.21729" lon="-8.72488">
        <ele>18.0</ele>
        <time>2018-05-14T11:21:15.000Z</time>
      </trkpt>
      <trkpt lat="42.21727833" lon="-8.72484333">
        <ele>18.0</ele>
        <time>2018-05-14T11:21:16.000Z</time>
      </trkpt>
      <trkpt lat="42.21726833" lon="-8.72481">
        <ele>18.0</ele>
        <time>2018-05-14T11:21:17.000Z</time>
      </trkpt>
      <trkpt lat="42.217255" lon="-8.72477833">
        <ele>18.0</ele>
        <time>2018-05-14T11:21:18.000Z</time>
      </trkpt>
      <trkpt lat="42.21724" lon="-8.72474667">
        <ele>18.0</ele>
        <time>2018-05-14T11:21:19.000Z</time>
      </trkpt>
      <trkpt lat="42.217225" lon="-8.72471667">
        <ele>18.0</ele>
        <time>2018-05-14T11:21:20.000Z</time>
      </trkpt>
      <trkpt lat="42.21721" lon="-8.72468167">
        <ele>18.0</ele>
        <time>2018-05-14T11:21:21.000Z</time>
      </trkpt>
      <trkpt lat="42.21719333" lon="-8.72464667">
        <ele>18.0</ele>
        <time>2018-05-14T11:21:22.000Z</time>
      </trkpt>
      <trkpt lat="42.217175" lon="-8.72461333">
        <ele>18.0</ele>
        <time>2018-05-14T11:21:23.000Z</time>
      </trkpt>
      <trkpt lat="42.21715667" lon="-8.72457833">
        <ele>18.0</ele>
        <time>2018-05-14T11:21:24.000Z</time>
      </trkpt>
      <trkpt lat="42.21714" lon="-8.72453833">
        <ele>18.0</ele>
        <time>2018-05-14T11:21:25.000Z</time>
      </trkpt>
      <trkpt lat="42.21712333" lon="-8.724495">
        <ele>18.0</ele>
        <time>2018-05-14T11:21:26.000Z</time>
      </trkpt>
      <trkpt lat="42.21710667" lon="-8.72445667">
        <ele>18.0</ele>
        <time>2018-05-14T11:21:27.000Z</time>
      </trkpt>
      <trkpt lat="42.21709" lon="-8.72442">
        <ele>18.0</ele>
        <time>2018-05-14T11:21:28.000Z</time>
      </trkpt>
      <trkpt lat="42.21707667" lon="-8.724385">
        <ele>18.0</ele>
        <time>2018-05-14T11:21:29.000Z</time>
      </trkpt>
      <trkpt lat="42.21706" lon="-8.72435">
        <ele>18.0</ele>
        <time>2018-05-14T11:21:30.000Z</time>
      </trkpt>
      <trkpt lat="42.21704167" lon="-8.72431333">
        <ele>18.0</ele>
        <time>2018-05-14T11:21:31.000Z</time>
      </trkpt>
      <trkpt lat="42.21702667" lon="-8.72427667">
        <ele>18.0</ele>
        <time>2018-05-14T11:21:32.000Z</time>
      </trkpt>
      <trkpt lat="42.21700833" lon="-8.72424333">
        <ele>18.0</ele>
        <time>2018-05-14T11:21:33.000Z</time>
      </trkpt>
      <trkpt lat="42.21699167" lon="-8.72421333">
        <ele>18.0</ele>
        <time>2018-05-14T11:21:34.000Z</time>
      </trkpt>
      <trkpt lat="42.21697333" lon="-8.724185">
        <ele>18.0</ele>
        <time>2018-05-14T11:21:35.000Z</time>
      </trkpt>
      <trkpt lat="42.21694833" lon="-8.72416">
        <ele>18.0</ele>
        <time>2018-05-14T11:21:36.000Z</time>
      </trkpt>
      <trkpt lat="42.21692667" lon="-8.72413667">
        <ele>18.0</ele>
        <time>2018-05-14T11:21:37.000Z</time>
      </trkpt>
      <trkpt lat="42.21690333" lon="-8.72410833">
        <ele>17.0</ele>
        <time>2018-05-14T11:21:38.000Z</time>
      </trkpt>
      <trkpt lat="42.21687833" lon="-8.72408333">
        <ele>17.0</ele>
        <time>2018-05-14T11:21:39.000Z</time>
      </trkpt>
      <trkpt lat="42.21685167" lon="-8.72406">
        <ele>17.0</ele>
        <time>2018-05-14T11:21:40.000Z</time>
      </trkpt>
      <trkpt lat="42.21682167" lon="-8.724035">
        <ele>17.0</ele>
        <time>2018-05-14T11:21:41.000Z</time>
      </trkpt>
      <trkpt lat="42.21679167" lon="-8.72400833">
        <ele>17.0</ele>
        <time>2018-05-14T11:21:42.000Z</time>
      </trkpt>
      <trkpt lat="42.21676667" lon="-8.72398333">
        <ele>17.0</ele>
        <time>2018-05-14T11:21:43.000Z</time>
      </trkpt>
      <trkpt lat="42.21674167" lon="-8.72395667">
        <ele>17.0</ele>
        <time>2018-05-14T11:21:44.000Z</time>
      </trkpt>
      <trkpt lat="42.21671833" lon="-8.72392833">
        <ele>17.0</ele>
        <time>2018-05-14T11:21:45.000Z</time>
      </trkpt>
      <trkpt lat="42.21669833" lon="-8.72389833">
        <ele>17.0</ele>
        <time>2018-05-14T11:21:46.000Z</time>
      </trkpt>
      <trkpt lat="42.21668167" lon="-8.72386167">
        <ele>17.0</ele>
        <time>2018-05-14T11:21:47.000Z</time>
      </trkpt>
      <trkpt lat="42.21666833" lon="-8.72382333">
        <ele>17.0</ele>
        <time>2018-05-14T11:21:48.000Z</time>
      </trkpt>
      <trkpt lat="42.21665833" lon="-8.72378333">
        <ele>17.0</ele>
        <time>2018-05-14T11:21:49.000Z</time>
      </trkpt>
      <trkpt lat="42.21665" lon="-8.723745">
        <ele>17.0</ele>
        <time>2018-05-14T11:21:50.000Z</time>
      </trkpt>
      <trkpt lat="42.216645" lon="-8.723705">
        <ele>18.0</ele>
        <time>2018-05-14T11:21:51.000Z</time>
      </trkpt>
      <trkpt lat="42.21664333" lon="-8.72366667">
        <ele>18.0</ele>
        <time>2018-05-14T11:21:52.000Z</time>
      </trkpt>
      <trkpt lat="42.216645" lon="-8.72362667">
        <ele>18.0</ele>
        <time>2018-05-14T11:21:53.000Z</time>
      </trkpt>
      <trkpt lat="42.216655" lon="-8.723585">
        <ele>18.0</ele>
        <time>2018-05-14T11:21:54.000Z</time>
      </trkpt>
      <trkpt lat="42.21667167" lon="-8.72354667">
        <ele>18.0</ele>
        <time>2018-05-14T11:21:55.000Z</time>
      </trkpt>
      <trkpt lat="42.21669333" lon="-8.72351167">
        <ele>18.0</ele>
        <time>2018-05-14T11:21:56.000Z</time>
      </trkpt>
      <trkpt lat="42.21671833" lon="-8.72347833">
        <ele>18.0</ele>
        <time>2018-05-14T11:21:57.000Z</time>
      </trkpt>
      <trkpt lat="42.21674667" lon="-8.72344667">
        <ele>18.0</ele>
        <time>2018-05-14T11:21:58.000Z</time>
      </trkpt>
      <trkpt lat="42.21677333" lon="-8.72341667">
        <ele>18.0</ele>
        <time>2018-05-14T11:21:59.000Z</time>
      </trkpt>
      <trkpt lat="42.21680167" lon="-8.72339">
        <ele>19.0</ele>
        <time>2018-05-14T11:22:00.000Z</time>
      </trkpt>
      <trkpt lat="42.21682667" lon="-8.72336167">
        <ele>19.0</ele>
        <time>2018-05-14T11:22:01.000Z</time>
      </trkpt>
      <trkpt lat="42.21685167" lon="-8.72333333">
        <ele>19.0</ele>
        <time>2018-05-14T11:22:02.000Z</time>
      </trkpt>
      <trkpt lat="42.21688" lon="-8.72330667">
        <ele>19.0</ele>
        <time>2018-05-14T11:22:03.000Z</time>
      </trkpt>
      <trkpt lat="42.21690667" lon="-8.72328">
        <ele>19.0</ele>
        <time>2018-05-14T11:22:04.000Z</time>
      </trkpt>
      <trkpt lat="42.21693333" lon="-8.72325333">
        <ele>19.0</ele>
        <time>2018-05-14T11:22:05.000Z</time>
      </trkpt>
      <trkpt lat="42.21695833" lon="-8.72322833">
        <ele>19.0</ele>
        <time>2018-05-14T11:22:06.000Z</time>
      </trkpt>
      <trkpt lat="42.21698167" lon="-8.723205">
        <ele>19.0</ele>
        <time>2018-05-14T11:22:07.000Z</time>
      </trkpt>
      <trkpt lat="42.217005" lon="-8.72317833">
        <ele>19.0</ele>
        <time>2018-05-14T11:22:08.000Z</time>
      </trkpt>
      <trkpt lat="42.21702667" lon="-8.72315">
        <ele>19.0</ele>
        <time>2018-05-14T11:22:09.000Z</time>
      </trkpt>
      <trkpt lat="42.217045" lon="-8.72311833">
        <ele>19.0</ele>
        <time>2018-05-14T11:22:10.000Z</time>
      </trkpt>
      <trkpt lat="42.21706" lon="-8.72308667">
        <ele>19.0</ele>
        <time>2018-05-14T11:22:11.000Z</time>
      </trkpt>
      <trkpt lat="42.21707" lon="-8.72305333">
        <ele>19.0</ele>
        <time>2018-05-14T11:22:12.000Z</time>
      </trkpt>
      <trkpt lat="42.21707833" lon="-8.72301833">
        <ele>19.0</ele>
        <time>2018-05-14T11:22:13.000Z</time>
      </trkpt>
      <trkpt lat="42.21708333" lon="-8.72298667">
        <ele>18.0</ele>
        <time>2018-05-14T11:22:14.000Z</time>
      </trkpt>
      <trkpt lat="42.217085" lon="-8.72295333">
        <ele>18.0</ele>
        <time>2018-05-14T11:22:15.000Z</time>
      </trkpt>
      <trkpt lat="42.21708" lon="-8.72292167">
        <ele>18.0</ele>
        <time>2018-05-14T11:22:16.000Z</time>
      </trkpt>
      <trkpt lat="42.21707167" lon="-8.72289">
        <ele>18.0</ele>
        <time>2018-05-14T11:22:17.000Z</time>
      </trkpt>
      <trkpt lat="42.21706333" lon="-8.72285667">
        <ele>18.0</ele>
        <time>2018-05-14T11:22:18.000Z</time>
      </trkpt>
      <trkpt lat="42.21705333" lon="-8.722825">
        <ele>18.0</ele>
        <time>2018-05-14T11:22:19.000Z</time>
      </trkpt>
      <trkpt lat="42.21704167" lon="-8.72279333">
        <ele>18.0</ele>
        <time>2018-05-14T11:22:20.000Z</time>
      </trkpt>
      <trkpt lat="42.217035" lon="-8.72276">
        <ele>18.0</ele>
        <time>2018-05-14T11:22:21.000Z</time>
      </trkpt>
      <trkpt lat="42.21703" lon="-8.72273">
        <ele>18.0</ele>
        <time>2018-05-14T11:22:22.000Z</time>
      </trkpt>
      <trkpt lat="42.21702333" lon="-8.72270167">
        <ele>18.0</ele>
        <time>2018-05-14T11:22:23.000Z</time>
      </trkpt>
      <trkpt lat="42.21701667" lon="-8.72267167">
        <ele>18.0</ele>
        <time>2018-05-14T11:22:24.000Z</time>
      </trkpt>
      <trkpt lat="42.21701167" lon="-8.72264167">
        <ele>18.0</ele>
        <time>2018-05-14T11:22:25.000Z</time>
      </trkpt>
      <trkpt lat="42.21700833" lon="-8.72260667">
        <ele>18.0</ele>
        <time>2018-05-14T11:22:26.000Z</time>
      </trkpt>
      <trkpt lat="42.21700833" lon="-8.72257">
        <ele>18.0</ele>
        <time>2018-05-14T11:22:27.000Z</time>
      </trkpt>
      <trkpt lat="42.21701333" lon="-8.72253167">
        <ele>18.0</ele>
        <time>2018-05-14T11:22:28.000Z</time>
      </trkpt>
      <trkpt lat="42.21702167" lon="-8.722495">
        <ele>18.0</ele>
        <time>2018-05-14T11:22:29.000Z</time>
      </trkpt>
      <trkpt lat="42.217035" lon="-8.72246333">
        <ele>18.0</ele>
        <time>2018-05-14T11:22:30.000Z</time>
      </trkpt>
      <trkpt lat="42.21704833" lon="-8.72243167">
        <ele>18.0</ele>
        <time>2018-05-14T11:22:31.000Z</time>
      </trkpt>
      <trkpt lat="42.21706667" lon="-8.72239833">
        <ele>18.0</ele>
        <time>2018-05-14T11:22:32.000Z</time>
      </trkpt>
      <trkpt lat="42.21708333" lon="-8.72236667">
        <ele>18.0</ele>
        <time>2018-05-14T11:22:33.000Z</time>
      </trkpt>
      <trkpt lat="42.21710333" lon="-8.72233667">
        <ele>18.0</ele>
        <time>2018-05-14T11:22:34.000Z</time>
      </trkpt>
      <trkpt lat="42.217125" lon="-8.72230667">
        <ele>18.0</ele>
        <time>2018-05-14T11:22:35.000Z</time>
      </trkpt>
      <trkpt lat="42.217145" lon="-8.72227833">
        <ele>18.0</ele>
        <time>2018-05-14T11:22:36.000Z</time>
      </trkpt>
      <trkpt lat="42.217165" lon="-8.72225">
        <ele>18.0</ele>
        <time>2018-05-14T11:22:37.000Z</time>
      </trkpt>
      <trkpt lat="42.21718333" lon="-8.722225">
        <ele>19.0</ele>
        <time>2018-05-14T11:22:38.000Z</time>
      </trkpt>
      <trkpt lat="42.21720167" lon="-8.72220333">
        <ele>19.0</ele>
        <time>2018-05-14T11:22:39.000Z</time>
      </trkpt>
      <trkpt lat="42.21722333" lon="-8.72218167">
        <ele>19.0</ele>
        <time>2018-05-14T11:22:40.000Z</time>
      </trkpt>
      <trkpt lat="42.217245" lon="-8.72216167">
        <ele>19.0</ele>
        <time>2018-05-14T11:22:41.000Z</time>
      </trkpt>
      <trkpt lat="42.21726667" lon="-8.72214">
        <ele>19.0</ele>
        <time>2018-05-14T11:22:42.000Z</time>
      </trkpt>
      <trkpt lat="42.21728667" lon="-8.72211833">
        <ele>19.0</ele>
        <time>2018-05-14T11:22:43.000Z</time>
      </trkpt>
      <trkpt lat="42.21731" lon="-8.72209833">
        <ele>19.0</ele>
        <time>2018-05-14T11:22:44.000Z</time>
      </trkpt>
      <trkpt lat="42.21733333" lon="-8.72208167">
        <ele>19.0</ele>
        <time>2018-05-14T11:22:45.000Z</time>
      </trkpt>
      <trkpt lat="42.21735833" lon="-8.722065">
        <ele>19.0</ele>
        <time>2018-05-14T11:22:46.000Z</time>
      </trkpt>
      <trkpt lat="42.21738167" lon="-8.722045">
        <ele>20.0</ele>
        <time>2018-05-14T11:22:47.000Z</time>
      </trkpt>
      <trkpt lat="42.21740667" lon="-8.722025">
        <ele>20.0</ele>
        <time>2018-05-14T11:22:48.000Z</time>
      </trkpt>
      <trkpt lat="42.21743333" lon="-8.722005">
        <ele>20.0</ele>
        <time>2018-05-14T11:22:49.000Z</time>
      </trkpt>
      <trkpt lat="42.21746" lon="-8.72198333">
        <ele>20.0</ele>
        <time>2018-05-14T11:22:50.000Z</time>
      </trkpt>
      <trkpt lat="42.21749" lon="-8.72196667">
        <ele>20.0</ele>
        <time>2018-05-14T11:22:51.000Z</time>
      </trkpt>
      <trkpt lat="42.21752167" lon="-8.72195667">
        <ele>20.0</ele>
        <time>2018-05-14T11:22:52.000Z</time>
      </trkpt>
      <trkpt lat="42.21755167" lon="-8.721955">
        <ele>20.0</ele>
        <time>2018-05-14T11:22:53.000Z</time>
      </trkpt>
      <trkpt lat="42.21758" lon="-8.72197167">
        <ele>20.0</ele>
        <time>2018-05-14T11:22:54.000Z</time>
      </trkpt>
      <trkpt lat="42.21760667" lon="-8.72199667">
        <ele>19.0</ele>
        <time>2018-05-14T11:22:55.000Z</time>
      </trkpt>
      <trkpt lat="42.21763333" lon="-8.72201833">
        <ele>19.0</ele>
        <time>2018-05-14T11:22:56.000Z</time>
      </trkpt>
      <trkpt lat="42.21765667" lon="-8.72203167">
        <ele>19.0</ele>
        <time>2018-05-14T11:22:57.000Z</time>
      </trkpt>
      <trkpt lat="42.21768" lon="-8.72204">
        <ele>19.0</ele>
        <time>2018-05-14T11:22:58.000Z</time>
      </trkpt>
      <trkpt lat="42.21770167" lon="-8.72203833">
        <ele>19.0</ele>
        <time>2018-05-14T11:22:59.000Z</time>
      </trkpt>
      <trkpt lat="42.217725" lon="-8.72203">
        <ele>19.0</ele>
        <time>2018-05-14T11:23:00.000Z</time>
      </trkpt>
      <trkpt lat="42.21775167" lon="-8.72201333">
        <ele>19.0</ele>
        <time>2018-05-14T11:23:01.000Z</time>
      </trkpt>
      <trkpt lat="42.21777833" lon="-8.72199333">
        <ele>18.0</ele>
        <time>2018-05-14T11:23:02.000Z</time>
      </trkpt>
      <trkpt lat="42.217805" lon="-8.72197">
        <ele>18.0</ele>
        <time>2018-05-14T11:23:03.000Z</time>
      </trkpt>
      <trkpt lat="42.21783333" lon="-8.72195333">
        <ele>18.0</ele>
        <time>2018-05-14T11:23:04.000Z</time>
      </trkpt>
      <trkpt lat="42.21786" lon="-8.721935">
        <ele>18.0</ele>
        <time>2018-05-14T11:23:05.000Z</time>
      </trkpt>
      <trkpt lat="42.21788667" lon="-8.721915">
        <ele>19.0</ele>
        <time>2018-05-14T11:23:06.000Z</time>
      </trkpt>
      <trkpt lat="42.21791167" lon="-8.72189833">
        <ele>19.0</ele>
        <time>2018-05-14T11:23:07.000Z</time>
      </trkpt>
      <trkpt lat="42.21793667" lon="-8.72188833">
        <ele>19.0</ele>
        <time>2018-05-14T11:23:08.000Z</time>
      </trkpt>
      <trkpt lat="42.21796167" lon="-8.721885">
        <ele>19.0</ele>
        <time>2018-05-14T11:23:09.000Z</time>
      </trkpt>
      <trkpt lat="42.21798833" lon="-8.72188333">
        <ele>19.0</ele>
        <time>2018-05-14T11:23:10.000Z</time>
      </trkpt>
      <trkpt lat="42.21801333" lon="-8.721885">
        <ele>19.0</ele>
        <time>2018-05-14T11:23:11.000Z</time>
      </trkpt>
      <trkpt lat="42.21803667" lon="-8.72188833">
        <ele>19.0</ele>
        <time>2018-05-14T11:23:12.000Z</time>
      </trkpt>
      <trkpt lat="42.21806" lon="-8.72189">
        <ele>19.0</ele>
        <time>2018-05-14T11:23:13.000Z</time>
      </trkpt>
      <trkpt lat="42.218085" lon="-8.72189333">
        <ele>19.0</ele>
        <time>2018-05-14T11:23:14.000Z</time>
      </trkpt>
      <trkpt lat="42.21810833" lon="-8.72189667">
        <ele>19.0</ele>
        <time>2018-05-14T11:23:15.000Z</time>
      </trkpt>
      <trkpt lat="42.21813" lon="-8.72190167">
        <ele>19.0</ele>
        <time>2018-05-14T11:23:16.000Z</time>
      </trkpt>
      <trkpt lat="42.21815333" lon="-8.721905">
        <ele>19.0</ele>
        <time>2018-05-14T11:23:17.000Z</time>
      </trkpt>
      <trkpt lat="42.21817833" lon="-8.72190667">
        <ele>19.0</ele>
        <time>2018-05-14T11:23:18.000Z</time>
      </trkpt>
      <trkpt lat="42.21820333" lon="-8.72190333">
        <ele>19.0</ele>
        <time>2018-05-14T11:23:19.000Z</time>
      </trkpt>
      <trkpt lat="42.21822833" lon="-8.721895">
        <ele>19.0</ele>
        <time>2018-05-14T11:23:20.000Z</time>
      </trkpt>
      <trkpt lat="42.21825667" lon="-8.72188167">
        <ele>19.0</ele>
        <time>2018-05-14T11:23:21.000Z</time>
      </trkpt>
      <trkpt lat="42.21828667" lon="-8.721865">
        <ele>19.0</ele>
        <time>2018-05-14T11:23:22.000Z</time>
      </trkpt>
      <trkpt lat="42.218315" lon="-8.721845">
        <ele>20.0</ele>
        <time>2018-05-14T11:23:23.000Z</time>
      </trkpt>
      <trkpt lat="42.21834" lon="-8.721825">
        <ele>20.0</ele>
        <time>2018-05-14T11:23:24.000Z</time>
      </trkpt>
      <trkpt lat="42.21836" lon="-8.721805">
        <ele>20.0</ele>
        <time>2018-05-14T11:23:25.000Z</time>
      </trkpt>
      <trkpt lat="42.21838167" lon="-8.72177667">
        <ele>20.0</ele>
        <time>2018-05-14T11:23:26.000Z</time>
      </trkpt>
      <trkpt lat="42.21840167" lon="-8.72174833">
        <ele>20.0</ele>
        <time>2018-05-14T11:23:27.000Z</time>
      </trkpt>
      <trkpt lat="42.21842333" lon="-8.72171833">
        <ele>20.0</ele>
        <time>2018-05-14T11:23:28.000Z</time>
      </trkpt>
      <trkpt lat="42.21844333" lon="-8.72168667">
        <ele>20.0</ele>
        <time>2018-05-14T11:23:29.000Z</time>
      </trkpt>
      <trkpt lat="42.21846667" lon="-8.721655">
        <ele>20.0</ele>
        <time>2018-05-14T11:23:30.000Z</time>
      </trkpt>
      <trkpt lat="42.21849" lon="-8.72163">
        <ele>19.0</ele>
        <time>2018-05-14T11:23:31.000Z</time>
      </trkpt>
      <trkpt lat="42.218515" lon="-8.721605">
        <ele>20.0</ele>
        <time>2018-05-14T11:23:32.000Z</time>
      </trkpt>
      <trkpt lat="42.21854" lon="-8.72157833">
        <ele>20.0</ele>
        <time>2018-05-14T11:23:33.000Z</time>
      </trkpt>
      <trkpt lat="42.218565" lon="-8.721555">
        <ele>20.0</ele>
        <time>2018-05-14T11:23:34.000Z</time>
      </trkpt>
      <trkpt lat="42.21859333" lon="-8.721535">
        <ele>20.0</ele>
        <time>2018-05-14T11:23:35.000Z</time>
      </trkpt>
      <trkpt lat="42.21862167" lon="-8.721515">
        <ele>20.0</ele>
        <time>2018-05-14T11:23:36.000Z</time>
      </trkpt>
      <trkpt lat="42.21865" lon="-8.72149333">
        <ele>20.0</ele>
        <time>2018-05-14T11:23:37.000Z</time>
      </trkpt>
      <trkpt lat="42.21868" lon="-8.721475">
        <ele>20.0</ele>
        <time>2018-05-14T11:23:38.000Z</time>
      </trkpt>
      <trkpt lat="42.21871" lon="-8.72146">
        <ele>20.0</ele>
        <time>2018-05-14T11:23:39.000Z</time>
      </trkpt>
      <trkpt lat="42.21874" lon="-8.72145">
        <ele>20.0</ele>
        <time>2018-05-14T11:23:40.000Z</time>
      </trkpt>
      <trkpt lat="42.21877" lon="-8.72143833">
        <ele>20.0</ele>
        <time>2018-05-14T11:23:41.000Z</time>
      </trkpt>
      <trkpt lat="42.21880167" lon="-8.72143167">
        <ele>20.0</ele>
        <time>2018-05-14T11:23:42.000Z</time>
      </trkpt>
      <trkpt lat="42.218835" lon="-8.72142833">
        <ele>20.0</ele>
        <time>2018-05-14T11:23:43.000Z</time>
      </trkpt>
      <trkpt lat="42.21886833" lon="-8.72142833">
        <ele>20.0</ele>
        <time>2018-05-14T11:23:44.000Z</time>
      </trkpt>
      <trkpt lat="42.2189" lon="-8.72143167">
        <ele>20.0</ele>
        <time>2018-05-14T11:23:45.000Z</time>
      </trkpt>
      <trkpt lat="42.21893" lon="-8.72143667">
        <ele>21.0</ele>
        <time>2018-05-14T11:23:46.000Z</time>
      </trkpt>
      <trkpt lat="42.21896" lon="-8.721445">
        <ele>21.0</ele>
        <time>2018-05-14T11:23:47.000Z</time>
      </trkpt>
      <trkpt lat="42.21898667" lon="-8.721455">
        <ele>21.0</ele>
        <time>2018-05-14T11:23:48.000Z</time>
      </trkpt>
      <trkpt lat="42.21901333" lon="-8.72146333">
        <ele>21.0</ele>
        <time>2018-05-14T11:23:49.000Z</time>
      </trkpt>
      <trkpt lat="42.21903833" lon="-8.72147667">
        <ele>21.0</ele>
        <time>2018-05-14T11:23:50.000Z</time>
      </trkpt>
      <trkpt lat="42.219065" lon="-8.721495">
        <ele>21.0</ele>
        <time>2018-05-14T11:23:51.000Z</time>
      </trkpt>
      <trkpt lat="42.21909" lon="-8.72151333">
        <ele>21.0</ele>
        <time>2018-05-14T11:23:52.000Z</time>
      </trkpt>
      <trkpt lat="42.219115" lon="-8.72153333">
        <ele>21.0</ele>
        <time>2018-05-14T11:23:53.000Z</time>
      </trkpt>
      <trkpt lat="42.21914" lon="-8.721555">
        <ele>21.0</ele>
        <time>2018-05-14T11:23:54.000Z</time>
      </trkpt>
      <trkpt lat="42.21916333" lon="-8.72158">
        <ele>21.0</ele>
        <time>2018-05-14T11:23:55.000Z</time>
      </trkpt>
      <trkpt lat="42.21918333" lon="-8.72160333">
        <ele>21.0</ele>
        <time>2018-05-14T11:23:56.000Z</time>
      </trkpt>
      <trkpt lat="42.2192" lon="-8.72162833">
        <ele>21.0</ele>
        <time>2018-05-14T11:23:57.000Z</time>
      </trkpt>
      <trkpt lat="42.21921833" lon="-8.72165333">
        <ele>21.0</ele>
        <time>2018-05-14T11:23:58.000Z</time>
      </trkpt>
      <trkpt lat="42.21923833" lon="-8.721675">
        <ele>21.0</ele>
        <time>2018-05-14T11:23:59.000Z</time>
      </trkpt>
      <trkpt lat="42.21926167" lon="-8.7217">
        <ele>21.0</ele>
        <time>2018-05-14T11:24:00.000Z</time>
      </trkpt>
      <trkpt lat="42.219285" lon="-8.72173">
        <ele>21.0</ele>
        <time>2018-05-14T11:24:01.000Z</time>
      </trkpt>
      <trkpt lat="42.21931167" lon="-8.72175667">
        <ele>21.0</ele>
        <time>2018-05-14T11:24:02.000Z</time>
      </trkpt>
      <trkpt lat="42.219335" lon="-8.72177833">
        <ele>21.0</ele>
        <time>2018-05-14T11:24:03.000Z</time>
      </trkpt>
      <trkpt lat="42.21936167" lon="-8.72180167">
        <ele>20.0</ele>
        <time>2018-05-14T11:24:04.000Z</time>
      </trkpt>
      <trkpt lat="42.21939" lon="-8.72181833">
        <ele>20.0</ele>
        <time>2018-05-14T11:24:05.000Z</time>
      </trkpt>
      <trkpt lat="42.21941667" lon="-8.72183167">
        <ele>20.0</ele>
        <time>2018-05-14T11:24:06.000Z</time>
      </trkpt>
      <trkpt lat="42.219445" lon="-8.72184333">
        <ele>20.0</ele>
        <time>2018-05-14T11:24:07.000Z</time>
      </trkpt>
      <trkpt lat="42.21946833" lon="-8.72185">
        <ele>20.0</ele>
        <time>2018-05-14T11:24:08.000Z</time>
      </trkpt>
      <trkpt lat="42.21949167" lon="-8.72185">
        <ele>19.0</ele>
        <time>2018-05-14T11:24:09.000Z</time>
      </trkpt>
      <trkpt lat="42.21951333" lon="-8.72184333">
        <ele>19.0</ele>
        <time>2018-05-14T11:24:10.000Z</time>
      </trkpt>
      <trkpt lat="42.219535" lon="-8.72182667">
        <ele>19.0</ele>
        <time>2018-05-14T11:24:11.000Z</time>
      </trkpt>
      <trkpt lat="42.21955833" lon="-8.72180833">
        <ele>19.0</ele>
        <time>2018-05-14T11:24:12.000Z</time>
      </trkpt>
      <trkpt lat="42.21958167" lon="-8.72178833">
        <ele>19.0</ele>
        <time>2018-05-14T11:24:13.000Z</time>
      </trkpt>
      <trkpt lat="42.21960667" lon="-8.72176667">
        <ele>19.0</ele>
        <time>2018-05-14T11:24:14.000Z</time>
      </trkpt>
      <trkpt lat="42.21963167" lon="-8.72174167">
        <ele>19.0</ele>
        <time>2018-05-14T11:24:15.000Z</time>
      </trkpt>
      <trkpt lat="42.21965667" lon="-8.72171833">
        <ele>18.0</ele>
        <time>2018-05-14T11:24:16.000Z</time>
      </trkpt>
      <trkpt lat="42.21968167" lon="-8.72169333">
        <ele>18.0</ele>
        <time>2018-05-14T11:24:17.000Z</time>
      </trkpt>
      <trkpt lat="42.21970667" lon="-8.72166167">
        <ele>18.0</ele>
        <time>2018-05-14T11:24:18.000Z</time>
      </trkpt>
      <trkpt lat="42.21973" lon="-8.72163167">
        <ele>18.0</ele>
        <time>2018-05-14T11:24:19.000Z</time>
      </trkpt>
      <trkpt lat="42.21975333" lon="-8.72159833">
        <ele>18.0</ele>
        <time>2018-05-14T11:24:20.000Z</time>
      </trkpt>
      <trkpt lat="42.219775" lon="-8.72156333">
        <ele>18.0</ele>
        <time>2018-05-14T11:24:21.000Z</time>
      </trkpt>
      <trkpt lat="42.21979667" lon="-8.721525">
        <ele>18.0</ele>
        <time>2018-05-14T11:24:22.000Z</time>
      </trkpt>
      <trkpt lat="42.219815" lon="-8.72148667">
        <ele>18.0</ele>
        <time>2018-05-14T11:24:23.000Z</time>
      </trkpt>
      <trkpt lat="42.21983333" lon="-8.72145">
        <ele>18.0</ele>
        <time>2018-05-14T11:24:24.000Z</time>
      </trkpt>
      <trkpt lat="42.21985" lon="-8.721415">
        <ele>18.0</ele>
        <time>2018-05-14T11:24:25.000Z</time>
      </trkpt>
      <trkpt lat="42.219865" lon="-8.72137833">
        <ele>18.0</ele>
        <time>2018-05-14T11:24:26.000Z</time>
      </trkpt>
      <trkpt lat="42.21988" lon="-8.72134">
        <ele>18.0</ele>
        <time>2018-05-14T11:24:27.000Z</time>
      </trkpt>
      <trkpt lat="42.21989667" lon="-8.72130167">
        <ele>18.0</ele>
        <time>2018-05-14T11:24:28.000Z</time>
      </trkpt>
      <trkpt lat="42.21991333" lon="-8.721265">
        <ele>18.0</ele>
        <time>2018-05-14T11:24:29.000Z</time>
      </trkpt>
      <trkpt lat="42.21992833" lon="-8.72122833">
        <ele>18.0</ele>
        <time>2018-05-14T11:24:30.000Z</time>
      </trkpt>
      <trkpt lat="42.21994333" lon="-8.721195">
        <ele>18.0</ele>
        <time>2018-05-14T11:24:31.000Z</time>
      </trkpt>
      <trkpt lat="42.21995833" lon="-8.72116167">
        <ele>18.0</ele>
        <time>2018-05-14T11:24:32.000Z</time>
      </trkpt>
      <trkpt lat="42.21997167" lon="-8.721125">
        <ele>18.0</ele>
        <time>2018-05-14T11:24:33.000Z</time>
      </trkpt>
      <trkpt lat="42.21998333" lon="-8.72108833">
        <ele>18.0</ele>
        <time>2018-05-14T11:24:34.000Z</time>
      </trkpt>
      <trkpt lat="42.21999167" lon="-8.721045">
        <ele>18.0</ele>
        <time>2018-05-14T11:24:35.000Z</time>
      </trkpt>
      <trkpt lat="42.21999833" lon="-8.72100167">
        <ele>18.0</ele>
        <time>2018-05-14T11:24:36.000Z</time>
      </trkpt>
      <trkpt lat="42.22000167" lon="-8.72096167">
        <ele>18.0</ele>
        <time>2018-05-14T11:24:37.000Z</time>
      </trkpt>
      <trkpt lat="42.22000167" lon="-8.72092333">
        <ele>18.0</ele>
        <time>2018-05-14T11:24:38.000Z</time>
      </trkpt>
      <trkpt lat="42.22" lon="-8.72088667">
        <ele>18.0</ele>
        <time>2018-05-14T11:24:39.000Z</time>
      </trkpt>
      <trkpt lat="42.21999667" lon="-8.72085167">
        <ele>18.0</ele>
        <time>2018-05-14T11:24:40.000Z</time>
      </trkpt>
      <trkpt lat="42.21999" lon="-8.720815">
        <ele>18.0</ele>
        <time>2018-05-14T11:24:41.000Z</time>
      </trkpt>
      <trkpt lat="42.21997833" lon="-8.72077667">
        <ele>18.0</ele>
        <time>2018-05-14T11:24:42.000Z</time>
      </trkpt>
      <trkpt lat="42.21996667" lon="-8.720735">
        <ele>18.0</ele>
        <time>2018-05-14T11:24:43.000Z</time>
      </trkpt>
      <trkpt lat="42.219955" lon="-8.72069667">
        <ele>18.0</ele>
        <time>2018-05-14T11:24:44.000Z</time>
      </trkpt>
      <trkpt lat="42.21994333" lon="-8.72066">
        <ele>18.0</ele>
        <time>2018-05-14T11:24:45.000Z</time>
      </trkpt>
      <trkpt lat="42.21992833" lon="-8.72062333">
        <ele>18.0</ele>
        <time>2018-05-14T11:24:46.000Z</time>
      </trkpt>
      <trkpt lat="42.21991167" lon="-8.72058667">
        <ele>18.0</ele>
        <time>2018-05-14T11:24:47.000Z</time>
      </trkpt>
      <trkpt lat="42.21989667" lon="-8.72055">
        <ele>18.0</ele>
        <time>2018-05-14T11:24:48.000Z</time>
      </trkpt>
      <trkpt lat="42.21988" lon="-8.720515">
        <ele>18.0</ele>
        <time>2018-05-14T11:24:49.000Z</time>
      </trkpt>
      <trkpt lat="42.21986167" lon="-8.72047833">
        <ele>18.0</ele>
        <time>2018-05-14T11:24:50.000Z</time>
      </trkpt>
      <trkpt lat="42.21984333" lon="-8.72043833">
        <ele>18.0</ele>
        <time>2018-05-14T11:24:51.000Z</time>
      </trkpt>
      <trkpt lat="42.21982667" lon="-8.720395">
        <ele>18.0</ele>
        <time>2018-05-14T11:24:52.000Z</time>
      </trkpt>
      <trkpt lat="42.21981" lon="-8.72035167">
        <ele>18.0</ele>
        <time>2018-05-14T11:24:53.000Z</time>
      </trkpt>
      <trkpt lat="42.219795" lon="-8.72031">
        <ele>18.0</ele>
        <time>2018-05-14T11:24:54.000Z</time>
      </trkpt>
      <trkpt lat="42.21977833" lon="-8.72027">
        <ele>18.0</ele>
        <time>2018-05-14T11:24:55.000Z</time>
      </trkpt>
      <trkpt lat="42.21976" lon="-8.72023167">
        <ele>18.0</ele>
        <time>2018-05-14T11:24:56.000Z</time>
      </trkpt>
      <trkpt lat="42.21974333" lon="-8.720195">
        <ele>18.0</ele>
        <time>2018-05-14T11:24:57.000Z</time>
      </trkpt>
      <trkpt lat="42.219725" lon="-8.72015833">
        <ele>18.0</ele>
        <time>2018-05-14T11:24:58.000Z</time>
      </trkpt>
      <trkpt lat="42.21970833" lon="-8.72012333">
        <ele>18.0</ele>
        <time>2018-05-14T11:24:59.000Z</time>
      </trkpt>
      <trkpt lat="42.219695" lon="-8.72009167">
        <ele>18.0</ele>
        <time>2018-05-14T11:25:00.000Z</time>
      </trkpt>
      <trkpt lat="42.21968167" lon="-8.72006167">
        <ele>18.0</ele>
        <time>2018-05-14T11:25:01.000Z</time>
      </trkpt>
      <trkpt lat="42.21966833" lon="-8.72003333">
        <ele>18.0</ele>
        <time>2018-05-14T11:25:02.000Z</time>
      </trkpt>
      <trkpt lat="42.21965167" lon="-8.72000333">
        <ele>18.0</ele>
        <time>2018-05-14T11:25:03.000Z</time>
      </trkpt>
      <trkpt lat="42.21963167" lon="-8.71997833">
        <ele>17.0</ele>
        <time>2018-05-14T11:25:04.000Z</time>
      </trkpt>
      <trkpt lat="42.21960667" lon="-8.719955">
        <ele>17.0</ele>
        <time>2018-05-14T11:25:05.000Z</time>
      </trkpt>
      <trkpt lat="42.21958" lon="-8.71993333">
        <ele>17.0</ele>
        <time>2018-05-14T11:25:06.000Z</time>
      </trkpt>
      <trkpt lat="42.21955333" lon="-8.719915">
        <ele>17.0</ele>
        <time>2018-05-14T11:25:07.000Z</time>
      </trkpt>
      <trkpt lat="42.21952833" lon="-8.71989667">
        <ele>17.0</ele>
        <time>2018-05-14T11:25:08.000Z</time>
      </trkpt>
      <trkpt lat="42.219505" lon="-8.71987333">
        <ele>17.0</ele>
        <time>2018-05-14T11:25:09.000Z</time>
      </trkpt>
      <trkpt lat="42.21947833" lon="-8.71985167">
        <ele>17.0</ele>
        <time>2018-05-14T11:25:10.000Z</time>
      </trkpt>
      <trkpt lat="42.219455" lon="-8.71982833">
        <ele>17.0</ele>
        <time>2018-05-14T11:25:11.000Z</time>
      </trkpt>
      <trkpt lat="42.21943167" lon="-8.71980333">
        <ele>17.0</ele>
        <time>2018-05-14T11:25:12.000Z</time>
      </trkpt>
      <trkpt lat="42.21941" lon="-8.71977667">
        <ele>17.0</ele>
        <time>2018-05-14T11:25:13.000Z</time>
      </trkpt>
      <trkpt lat="42.21938667" lon="-8.71975167">
        <ele>17.0</ele>
        <time>2018-05-14T11:25:14.000Z</time>
      </trkpt>
      <trkpt lat="42.219365" lon="-8.71972833">
        <ele>17.0</ele>
        <time>2018-05-14T11:25:15.000Z</time>
      </trkpt>
      <trkpt lat="42.21934333" lon="-8.71970333">
        <ele>17.0</ele>
        <time>2018-05-14T11:25:16.000Z</time>
      </trkpt>
      <trkpt lat="42.21931667" lon="-8.71968167">
        <ele>17.0</ele>
        <time>2018-05-14T11:25:17.000Z</time>
      </trkpt>
      <trkpt lat="42.21929167" lon="-8.71966167">
        <ele>17.0</ele>
        <time>2018-05-14T11:25:18.000Z</time>
      </trkpt>
      <trkpt lat="42.219265" lon="-8.71964167">
        <ele>17.0</ele>
        <time>2018-05-14T11:25:19.000Z</time>
      </trkpt>
      <trkpt lat="42.21924167" lon="-8.71962333">
        <ele>17.0</ele>
        <time>2018-05-14T11:25:20.000Z</time>
      </trkpt>
      <trkpt lat="42.21922" lon="-8.7196">
        <ele>17.0</ele>
        <time>2018-05-14T11:25:21.000Z</time>
      </trkpt>
      <trkpt lat="42.2192" lon="-8.71957167">
        <ele>17.0</ele>
        <time>2018-05-14T11:25:22.000Z</time>
      </trkpt>
      <trkpt lat="42.21918167" lon="-8.71953833">
        <ele>17.0</ele>
        <time>2018-05-14T11:25:23.000Z</time>
      </trkpt>
      <trkpt lat="42.21916333" lon="-8.71950667">
        <ele>17.0</ele>
        <time>2018-05-14T11:25:24.000Z</time>
      </trkpt>
      <trkpt lat="42.21914667" lon="-8.71947833">
        <ele>17.0</ele>
        <time>2018-05-14T11:25:25.000Z</time>
      </trkpt>
      <trkpt lat="42.21913167" lon="-8.719445">
        <ele>17.0</ele>
        <time>2018-05-14T11:25:26.000Z</time>
      </trkpt>
      <trkpt lat="42.21911667" lon="-8.71941">
        <ele>17.0</ele>
        <time>2018-05-14T11:25:27.000Z</time>
      </trkpt>
      <trkpt lat="42.21910167" lon="-8.71937167">
        <ele>17.0</ele>
        <time>2018-05-14T11:25:28.000Z</time>
      </trkpt>
      <trkpt lat="42.21908833" lon="-8.71933667">
        <ele>17.0</ele>
        <time>2018-05-14T11:25:29.000Z</time>
      </trkpt>
      <trkpt lat="42.21907333" lon="-8.71930167">
        <ele>17.0</ele>
        <time>2018-05-14T11:25:30.000Z</time>
      </trkpt>
      <trkpt lat="42.21906" lon="-8.71926667">
        <ele>17.0</ele>
        <time>2018-05-14T11:25:31.000Z</time>
      </trkpt>
      <trkpt lat="42.21904833" lon="-8.71923167">
        <ele>17.0</ele>
        <time>2018-05-14T11:25:32.000Z</time>
      </trkpt>
      <trkpt lat="42.21903833" lon="-8.719195">
        <ele>17.0</ele>
        <time>2018-05-14T11:25:33.000Z</time>
      </trkpt>
      <trkpt lat="42.21903333" lon="-8.71916">
        <ele>17.0</ele>
        <time>2018-05-14T11:25:34.000Z</time>
      </trkpt>
      <trkpt lat="42.21903167" lon="-8.71912167">
        <ele>17.0</ele>
        <time>2018-05-14T11:25:35.000Z</time>
      </trkpt>
      <trkpt lat="42.21903167" lon="-8.719085">
        <ele>17.0</ele>
        <time>2018-05-14T11:25:36.000Z</time>
      </trkpt>
      <trkpt lat="42.21903167" lon="-8.719055">
        <ele>17.0</ele>
        <time>2018-05-14T11:25:37.000Z</time>
      </trkpt>
      <trkpt lat="42.21903167" lon="-8.71902167">
        <ele>17.0</ele>
        <time>2018-05-14T11:25:38.000Z</time>
      </trkpt>
      <trkpt lat="42.21903167" lon="-8.71898667">
        <ele>17.0</ele>
        <time>2018-05-14T11:25:39.000Z</time>
      </trkpt>
      <trkpt lat="42.21903167" lon="-8.71894833">
        <ele>17.0</ele>
        <time>2018-05-14T11:25:40.000Z</time>
      </trkpt>
      <trkpt lat="42.21903167" lon="-8.71891167">
        <ele>17.0</ele>
        <time>2018-05-14T11:25:41.000Z</time>
      </trkpt>
      <trkpt lat="42.21903" lon="-8.71887167">
        <ele>17.0</ele>
        <time>2018-05-14T11:25:42.000Z</time>
      </trkpt>
      <trkpt lat="42.21902833" lon="-8.71882833">
        <ele>17.0</ele>
        <time>2018-05-14T11:25:43.000Z</time>
      </trkpt>
      <trkpt lat="42.21903" lon="-8.71878833">
        <ele>18.0</ele>
        <time>2018-05-14T11:25:44.000Z</time>
      </trkpt>
      <trkpt lat="42.21903" lon="-8.71874667">
        <ele>18.0</ele>
        <time>2018-05-14T11:25:45.000Z</time>
      </trkpt>
      <trkpt lat="42.21902833" lon="-8.71870333">
        <ele>18.0</ele>
        <time>2018-05-14T11:25:46.000Z</time>
      </trkpt>
      <trkpt lat="42.21902833" lon="-8.71865667">
        <ele>18.0</ele>
        <time>2018-05-14T11:25:47.000Z</time>
      </trkpt>
      <trkpt lat="42.21902667" lon="-8.71861">
        <ele>18.0</ele>
        <time>2018-05-14T11:25:48.000Z</time>
      </trkpt>
      <trkpt lat="42.21903" lon="-8.718565">
        <ele>18.0</ele>
        <time>2018-05-14T11:25:49.000Z</time>
      </trkpt>
      <trkpt lat="42.219035" lon="-8.71852">
        <ele>18.0</ele>
        <time>2018-05-14T11:25:50.000Z</time>
      </trkpt>
      <trkpt lat="42.21904333" lon="-8.718475">
        <ele>18.0</ele>
        <time>2018-05-14T11:25:51.000Z</time>
      </trkpt>
      <trkpt lat="42.21905167" lon="-8.71842667">
        <ele>18.0</ele>
        <time>2018-05-14T11:25:52.000Z</time>
      </trkpt>
      <trkpt lat="42.21905833" lon="-8.71837833">
        <ele>19.0</ele>
        <time>2018-05-14T11:25:53.000Z</time>
      </trkpt>
      <trkpt lat="42.21906333" lon="-8.71833">
        <ele>19.0</ele>
        <time>2018-05-14T11:25:54.000Z</time>
      </trkpt>
      <trkpt lat="42.21906833" lon="-8.71828333">
        <ele>19.0</ele>
        <time>2018-05-14T11:25:55.000Z</time>
      </trkpt>
      <trkpt lat="42.21907833" lon="-8.718235">
        <ele>19.0</ele>
        <time>2018-05-14T11:25:56.000Z</time>
      </trkpt>
      <trkpt lat="42.21908667" lon="-8.71818667">
        <ele>19.0</ele>
        <time>2018-05-14T11:25:57.000Z</time>
      </trkpt>
      <trkpt lat="42.21909333" lon="-8.71814">
        <ele>19.0</ele>
        <time>2018-05-14T11:25:58.000Z</time>
      </trkpt>
      <trkpt lat="42.219095" lon="-8.71809167">
        <ele>19.0</ele>
        <time>2018-05-14T11:25:59.000Z</time>
      </trkpt>
      <trkpt lat="42.219095" lon="-8.71804667">
        <ele>19.0</ele>
        <time>2018-05-14T11:26:00.000Z</time>
      </trkpt>
      <trkpt lat="42.219095" lon="-8.71800333">
        <ele>19.0</ele>
        <time>2018-05-14T11:26:01.000Z</time>
      </trkpt>
      <trkpt lat="42.21909167" lon="-8.71796">
        <ele>19.0</ele>
        <time>2018-05-14T11:26:02.000Z</time>
      </trkpt>
      <trkpt lat="42.21908833" lon="-8.717915">
        <ele>19.0</ele>
        <time>2018-05-14T11:26:03.000Z</time>
      </trkpt>
      <trkpt lat="42.219085" lon="-8.71787333">
        <ele>19.0</ele>
        <time>2018-05-14T11:26:04.000Z</time>
      </trkpt>
      <trkpt lat="42.21908167" lon="-8.71783333">
        <ele>19.0</ele>
        <time>2018-05-14T11:26:05.000Z</time>
      </trkpt>
      <trkpt lat="42.21908167" lon="-8.717795">
        <ele>19.0</ele>
        <time>2018-05-14T11:26:06.000Z</time>
      </trkpt>
      <trkpt lat="42.21908333" lon="-8.717755">
        <ele>19.0</ele>
        <time>2018-05-14T11:26:07.000Z</time>
      </trkpt>
      <trkpt lat="42.21908667" lon="-8.71771833">
        <ele>20.0</ele>
        <time>2018-05-14T11:26:08.000Z</time>
      </trkpt>
      <trkpt lat="42.21909167" lon="-8.71768167">
        <ele>20.0</ele>
        <time>2018-05-14T11:26:09.000Z</time>
      </trkpt>
      <trkpt lat="42.21909667" lon="-8.71765">
        <ele>20.0</ele>
        <time>2018-05-14T11:26:10.000Z</time>
      </trkpt>
      <trkpt lat="42.21910167" lon="-8.71761833">
        <ele>20.0</ele>
        <time>2018-05-14T11:26:11.000Z</time>
      </trkpt>
      <trkpt lat="42.21910833" lon="-8.71758167">
        <ele>20.0</ele>
        <time>2018-05-14T11:26:12.000Z</time>
      </trkpt>
      <trkpt lat="42.21911833" lon="-8.71754167">
        <ele>20.0</ele>
        <time>2018-05-14T11:26:13.000Z</time>
      </trkpt>
      <trkpt lat="42.21913167" lon="-8.71750333">
        <ele>20.0</ele>
        <time>2018-05-14T11:26:14.000Z</time>
      </trkpt>
      <trkpt lat="42.21915" lon="-8.71746667">
        <ele>20.0</ele>
        <time>2018-05-14T11:26:15.000Z</time>
      </trkpt>
      <trkpt lat="42.21916833" lon="-8.71742833">
        <ele>21.0</ele>
        <time>2018-05-14T11:26:16.000Z</time>
      </trkpt>
      <trkpt lat="42.219185" lon="-8.71739">
        <ele>21.0</ele>
        <time>2018-05-14T11:26:17.000Z</time>
      </trkpt>
      <trkpt lat="42.2192" lon="-8.71735333">
        <ele>21.0</ele>
        <time>2018-05-14T11:26:18.000Z</time>
      </trkpt>
      <trkpt lat="42.21921167" lon="-8.71731667">
        <ele>21.0</ele>
        <time>2018-05-14T11:26:19.000Z</time>
      </trkpt>
      <trkpt lat="42.21922167" lon="-8.71727667">
        <ele>21.0</ele>
        <time>2018-05-14T11:26:20.000Z</time>
      </trkpt>
      <trkpt lat="42.219225" lon="-8.717235">
        <ele>21.0</ele>
        <time>2018-05-14T11:26:21.000Z</time>
      </trkpt>
      <trkpt lat="42.21922667" lon="-8.71718667">
        <ele>21.0</ele>
        <time>2018-05-14T11:26:22.000Z</time>
      </trkpt>
      <trkpt lat="42.21922833" lon="-8.71714">
        <ele>21.0</ele>
        <time>2018-05-14T11:26:23.000Z</time>
      </trkpt>
      <trkpt lat="42.219225" lon="-8.71709333">
        <ele>21.0</ele>
        <time>2018-05-14T11:26:24.000Z</time>
      </trkpt>
      <trkpt lat="42.21922" lon="-8.71704667">
        <ele>21.0</ele>
        <time>2018-05-14T11:26:25.000Z</time>
      </trkpt>
      <trkpt lat="42.21920833" lon="-8.717005">
        <ele>21.0</ele>
        <time>2018-05-14T11:26:26.000Z</time>
      </trkpt>
      <trkpt lat="42.219195" lon="-8.71696667">
        <ele>22.0</ele>
        <time>2018-05-14T11:26:27.000Z</time>
      </trkpt>
      <trkpt lat="42.219175" lon="-8.71693167">
        <ele>22.0</ele>
        <time>2018-05-14T11:26:28.000Z</time>
      </trkpt>
      <trkpt lat="42.21915" lon="-8.71690333">
        <ele>22.0</ele>
        <time>2018-05-14T11:26:29.000Z</time>
      </trkpt>
      <trkpt lat="42.219125" lon="-8.71688">
        <ele>22.0</ele>
        <time>2018-05-14T11:26:30.000Z</time>
      </trkpt>
      <trkpt lat="42.21909833" lon="-8.71686167">
        <ele>22.0</ele>
        <time>2018-05-14T11:26:31.000Z</time>
      </trkpt>
      <trkpt lat="42.21907167" lon="-8.71684833">
        <ele>22.0</ele>
        <time>2018-05-14T11:26:32.000Z</time>
      </trkpt>
      <trkpt lat="42.21904833" lon="-8.71683333">
        <ele>22.0</ele>
        <time>2018-05-14T11:26:33.000Z</time>
      </trkpt>
      <trkpt lat="42.21902333" lon="-8.71682167">
        <ele>22.0</ele>
        <time>2018-05-14T11:26:34.000Z</time>
      </trkpt>
      <trkpt lat="42.21899667" lon="-8.71681">
        <ele>22.0</ele>
        <time>2018-05-14T11:26:35.000Z</time>
      </trkpt>
      <trkpt lat="42.21896667" lon="-8.7168">
        <ele>22.0</ele>
        <time>2018-05-14T11:26:36.000Z</time>
      </trkpt>
      <trkpt lat="42.21893667" lon="-8.71679">
        <ele>22.0</ele>
        <time>2018-05-14T11:26:37.000Z</time>
      </trkpt>
      <trkpt lat="42.218905" lon="-8.71677833">
        <ele>22.0</ele>
        <time>2018-05-14T11:26:38.000Z</time>
      </trkpt>
      <trkpt lat="42.21887667" lon="-8.71676333">
        <ele>22.0</ele>
        <time>2018-05-14T11:26:39.000Z</time>
      </trkpt>
      <trkpt lat="42.21885" lon="-8.71674167">
        <ele>22.0</ele>
        <time>2018-05-14T11:26:40.000Z</time>
      </trkpt>
      <trkpt lat="42.21882667" lon="-8.71671167">
        <ele>23.0</ele>
        <time>2018-05-14T11:26:41.000Z</time>
      </trkpt>
      <trkpt lat="42.21881" lon="-8.71668167">
        <ele>23.0</ele>
        <time>2018-05-14T11:26:42.000Z</time>
      </trkpt>
      <trkpt lat="42.2188" lon="-8.71664833">
        <ele>23.0</ele>
        <time>2018-05-14T11:26:43.000Z</time>
      </trkpt>
      <trkpt lat="42.21879333" lon="-8.716615">
        <ele>23.0</ele>
        <time>2018-05-14T11:26:44.000Z</time>
      </trkpt>
      <trkpt lat="42.21879167" lon="-8.71658167">
        <ele>23.0</ele>
        <time>2018-05-14T11:26:45.000Z</time>
      </trkpt>
      <trkpt lat="42.21879333" lon="-8.71654667">
        <ele>23.0</ele>
        <time>2018-05-14T11:26:46.000Z</time>
      </trkpt>
      <trkpt lat="42.2188" lon="-8.71651">
        <ele>23.0</ele>
        <time>2018-05-14T11:26:47.000Z</time>
      </trkpt>
      <trkpt lat="42.21881167" lon="-8.716475">
        <ele>23.0</ele>
        <time>2018-05-14T11:26:48.000Z</time>
      </trkpt>
      <trkpt lat="42.218825" lon="-8.716435">
        <ele>23.0</ele>
        <time>2018-05-14T11:26:49.000Z</time>
      </trkpt>
      <trkpt lat="42.21884333" lon="-8.71639667">
        <ele>23.0</ele>
        <time>2018-05-14T11:26:50.000Z</time>
      </trkpt>
      <trkpt lat="42.218865" lon="-8.71635833">
        <ele>23.0</ele>
        <time>2018-05-14T11:26:51.000Z</time>
      </trkpt>
      <trkpt lat="42.21888667" lon="-8.71632">
        <ele>23.0</ele>
        <time>2018-05-14T11:26:52.000Z</time>
      </trkpt>
      <trkpt lat="42.21891167" lon="-8.71628667">
        <ele>23.0</ele>
        <time>2018-05-14T11:26:53.000Z</time>
      </trkpt>
      <trkpt lat="42.21894167" lon="-8.716255">
        <ele>23.0</ele>
        <time>2018-05-14T11:26:54.000Z</time>
      </trkpt>
      <trkpt lat="42.21897333" lon="-8.71622333">
        <ele>23.0</ele>
        <time>2018-05-14T11:26:55.000Z</time>
      </trkpt>
      <trkpt lat="42.21900833" lon="-8.716195">
        <ele>23.0</ele>
        <time>2018-05-14T11:26:56.000Z</time>
      </trkpt>
      <trkpt lat="42.21904" lon="-8.71617">
        <ele>23.0</ele>
        <time>2018-05-14T11:26:57.000Z</time>
      </trkpt>
      <trkpt lat="42.21907" lon="-8.71614667">
        <ele>23.0</ele>
        <time>2018-05-14T11:26:58.000Z</time>
      </trkpt>
      <trkpt lat="42.21909667" lon="-8.71612667">
        <ele>23.0</ele>
        <time>2018-05-14T11:26:59.000Z</time>
      </trkpt>
      <trkpt lat="42.21912167" lon="-8.71610333">
        <ele>23.0</ele>
        <time>2018-05-14T11:27:00.000Z</time>
      </trkpt>
      <trkpt lat="42.21913833" lon="-8.716075">
        <ele>23.0</ele>
        <time>2018-05-14T11:27:01.000Z</time>
      </trkpt>
      <trkpt lat="42.21915167" lon="-8.716045">
        <ele>22.0</ele>
        <time>2018-05-14T11:27:02.000Z</time>
      </trkpt>
      <trkpt lat="42.21916" lon="-8.71601333">
        <ele>22.0</ele>
        <time>2018-05-14T11:27:03.000Z</time>
      </trkpt>
      <trkpt lat="42.21916" lon="-8.71598">
        <ele>22.0</ele>
        <time>2018-05-14T11:27:04.000Z</time>
      </trkpt>
      <trkpt lat="42.219155" lon="-8.71595">
        <ele>22.0</ele>
        <time>2018-05-14T11:27:05.000Z</time>
      </trkpt>
      <trkpt lat="42.21914333" lon="-8.715925">
        <ele>22.0</ele>
        <time>2018-05-14T11:27:06.000Z</time>
      </trkpt>
      <trkpt lat="42.21912833" lon="-8.71590833">
        <ele>22.0</ele>
        <time>2018-05-14T11:27:07.000Z</time>
      </trkpt>
      <trkpt lat="42.21911333" lon="-8.71590167">
        <ele>22.0</ele>
        <time>2018-05-14T11:27:08.000Z</time>
      </trkpt>
      <trkpt lat="42.2191" lon="-8.71590833">
        <ele>22.0</ele>
        <time>2018-05-14T11:27:09.000Z</time>
      </trkpt>
      <trkpt lat="42.21908333" lon="-8.71591833">
        <ele>22.0</ele>
        <time>2018-05-14T11:27:10.000Z</time>
      </trkpt>
      <trkpt lat="42.21906667" lon="-8.71593167">
        <ele>22.0</ele>
        <time>2018-05-14T11:27:11.000Z</time>
      </trkpt>
      <trkpt lat="42.219045" lon="-8.71594833">
        <ele>22.0</ele>
        <time>2018-05-14T11:27:12.000Z</time>
      </trkpt>
      <trkpt lat="42.21902167" lon="-8.71596667">
        <ele>22.0</ele>
        <time>2018-05-14T11:27:13.000Z</time>
      </trkpt>
      <trkpt lat="42.21899667" lon="-8.715985">
        <ele>22.0</ele>
        <time>2018-05-14T11:27:14.000Z</time>
      </trkpt>
      <trkpt lat="42.21896833" lon="-8.71599833">
        <ele>22.0</ele>
        <time>2018-05-14T11:27:15.000Z</time>
      </trkpt>
      <trkpt lat="42.21894" lon="-8.71601833">
        <ele>22.0</ele>
        <time>2018-05-14T11:27:16.000Z</time>
      </trkpt>
      <trkpt lat="42.21891167" lon="-8.71603833">
        <ele>22.0</ele>
        <time>2018-05-14T11:27:17.000Z</time>
      </trkpt>
      <trkpt lat="42.21888167" lon="-8.71606333">
        <ele>22.0</ele>
        <time>2018-05-14T11:27:18.000Z</time>
      </trkpt>
      <trkpt lat="42.21885667" lon="-8.716095">
        <ele>22.0</ele>
        <time>2018-05-14T11:27:19.000Z</time>
      </trkpt>
      <trkpt lat="42.21883167" lon="-8.71612833">
        <ele>22.0</ele>
        <time>2018-05-14T11:27:20.000Z</time>
      </trkpt>
      <trkpt lat="42.21881" lon="-8.71616167">
        <ele>23.0</ele>
        <time>2018-05-14T11:27:21.000Z</time>
      </trkpt>
      <trkpt lat="42.21879" lon="-8.7162">
        <ele>23.0</ele>
        <time>2018-05-14T11:27:22.000Z</time>
      </trkpt>
      <trkpt lat="42.21877333" lon="-8.71623833">
        <ele>23.0</ele>
        <time>2018-05-14T11:27:23.000Z</time>
      </trkpt>
      <trkpt lat="42.218755" lon="-8.71628333">
        <ele>23.0</ele>
        <time>2018-05-14T11:27:24.000Z</time>
      </trkpt>
      <trkpt lat="42.21874" lon="-8.716325">
        <ele>23.0</ele>
        <time>2018-05-14T11:27:25.000Z</time>
      </trkpt>
      <trkpt lat="42.21872667" lon="-8.71636667">
        <ele>23.0</ele>
        <time>2018-05-14T11:27:26.000Z</time>
      </trkpt>
      <trkpt lat="42.21871" lon="-8.71640667">
        <ele>23.0</ele>
        <time>2018-05-14T11:27:27.000Z</time>
      </trkpt>
      <trkpt lat="42.21869667" lon="-8.716445">
        <ele>23.0</ele>
        <time>2018-05-14T11:27:28.000Z</time>
      </trkpt>
      <trkpt lat="42.218685" lon="-8.71648167">
        <ele>23.0</ele>
        <time>2018-05-14T11:27:29.000Z</time>
      </trkpt>
      <trkpt lat="42.218675" lon="-8.71652167">
        <ele>23.0</ele>
        <time>2018-05-14T11:27:30.000Z</time>
      </trkpt>
      <trkpt lat="42.21866667" lon="-8.71656167">
        <ele>23.0</ele>
        <time>2018-05-14T11:27:31.000Z</time>
      </trkpt>
      <trkpt lat="42.21865833" lon="-8.71659833">
        <ele>23.0</ele>
        <time>2018-05-14T11:27:32.000Z</time>
      </trkpt>
      <trkpt lat="42.21865333" lon="-8.71663333">
        <ele>23.0</ele>
        <time>2018-05-14T11:27:33.000Z</time>
      </trkpt>
      <trkpt lat="42.21865" lon="-8.71667">
        <ele>23.0</ele>
        <time>2018-05-14T11:27:34.000Z</time>
      </trkpt>
      <trkpt lat="42.218645" lon="-8.71670833">
        <ele>23.0</ele>
        <time>2018-05-14T11:27:35.000Z</time>
      </trkpt>
      <trkpt lat="42.21864167" lon="-8.71674333">
        <ele>23.0</ele>
        <time>2018-05-14T11:27:36.000Z</time>
      </trkpt>
      <trkpt lat="42.21864167" lon="-8.71677833">
        <ele>23.0</ele>
        <time>2018-05-14T11:27:37.000Z</time>
      </trkpt>
      <trkpt lat="42.21864167" lon="-8.716815">
        <ele>23.0</ele>
        <time>2018-05-14T11:27:38.000Z</time>
      </trkpt>
      <trkpt lat="42.21864833" lon="-8.71685167">
        <ele>23.0</ele>
        <time>2018-05-14T11:27:39.000Z</time>
      </trkpt>
      <trkpt lat="42.21865667" lon="-8.71688667">
        <ele>23.0</ele>
        <time>2018-05-14T11:27:40.000Z</time>
      </trkpt>
      <trkpt lat="42.21866833" lon="-8.71691833">
        <ele>23.0</ele>
        <time>2018-05-14T11:27:41.000Z</time>
      </trkpt>
      <trkpt lat="42.218685" lon="-8.71694167">
        <ele>23.0</ele>
        <time>2018-05-14T11:27:42.000Z</time>
      </trkpt>
      <trkpt lat="42.21870667" lon="-8.71695833">
        <ele>23.0</ele>
        <time>2018-05-14T11:27:43.000Z</time>
      </trkpt>
      <trkpt lat="42.21873167" lon="-8.71696833">
        <ele>23.0</ele>
        <time>2018-05-14T11:27:44.000Z</time>
      </trkpt>
      <trkpt lat="42.21876" lon="-8.71697333">
        <ele>23.0</ele>
        <time>2018-05-14T11:27:45.000Z</time>
      </trkpt>
      <trkpt lat="42.21879167" lon="-8.71697667">
        <ele>23.0</ele>
        <time>2018-05-14T11:27:46.000Z</time>
      </trkpt>
      <trkpt lat="42.218825" lon="-8.71698">
        <ele>23.0</ele>
        <time>2018-05-14T11:27:47.000Z</time>
      </trkpt>
      <trkpt lat="42.21885833" lon="-8.716985">
        <ele>23.0</ele>
        <time>2018-05-14T11:27:48.000Z</time>
      </trkpt>
      <trkpt lat="42.21889" lon="-8.71699333">
        <ele>23.0</ele>
        <time>2018-05-14T11:27:49.000Z</time>
      </trkpt>
      <trkpt lat="42.21892167" lon="-8.71700333">
        <ele>23.0</ele>
        <time>2018-05-14T11:27:50.000Z</time>
      </trkpt>
      <trkpt lat="42.21895167" lon="-8.71701333">
        <ele>23.0</ele>
        <time>2018-05-14T11:27:51.000Z</time>
      </trkpt>
      <trkpt lat="42.21897833" lon="-8.71703">
        <ele>23.0</ele>
        <time>2018-05-14T11:27:52.000Z</time>
      </trkpt>
      <trkpt lat="42.219" lon="-8.71704667">
        <ele>23.0</ele>
        <time>2018-05-14T11:27:53.000Z</time>
      </trkpt>
      <trkpt lat="42.21901833" lon="-8.71706833">
        <ele>23.0</ele>
        <time>2018-05-14T11:27:54.000Z</time>
      </trkpt>
      <trkpt lat="42.21903" lon="-8.717095">
        <ele>23.0</ele>
        <time>2018-05-14T11:27:55.000Z</time>
      </trkpt>
      <trkpt lat="42.21904" lon="-8.71712833">
        <ele>23.0</ele>
        <time>2018-05-14T11:27:56.000Z</time>
      </trkpt>
      <trkpt lat="42.21904333" lon="-8.717165">
        <ele>23.0</ele>
        <time>2018-05-14T11:27:57.000Z</time>
      </trkpt>
      <trkpt lat="42.21904667" lon="-8.71719833">
        <ele>23.0</ele>
        <time>2018-05-14T11:27:58.000Z</time>
      </trkpt>
      <trkpt lat="42.21905167" lon="-8.71723">
        <ele>23.0</ele>
        <time>2018-05-14T11:27:59.000Z</time>
      </trkpt>
      <trkpt lat="42.21905333" lon="-8.71726167">
        <ele>23.0</ele>
        <time>2018-05-14T11:28:00.000Z</time>
      </trkpt>
      <trkpt lat="42.21905" lon="-8.71729833">
        <ele>23.0</ele>
        <time>2018-05-14T11:28:01.000Z</time>
      </trkpt>
      <trkpt lat="42.21904667" lon="-8.71733167">
        <ele>23.0</ele>
        <time>2018-05-14T11:28:02.000Z</time>
      </trkpt>
      <trkpt lat="42.21904167" lon="-8.71736833">
        <ele>23.0</ele>
        <time>2018-05-14T11:28:03.000Z</time>
      </trkpt>
      <trkpt lat="42.219035" lon="-8.717405">
        <ele>23.0</ele>
        <time>2018-05-14T11:28:04.000Z</time>
      </trkpt>
      <trkpt lat="42.219025" lon="-8.71744167">
        <ele>23.0</ele>
        <time>2018-05-14T11:28:05.000Z</time>
      </trkpt>
      <trkpt lat="42.21901667" lon="-8.71747833">
        <ele>23.0</ele>
        <time>2018-05-14T11:28:06.000Z</time>
      </trkpt>
      <trkpt lat="42.21901167" lon="-8.717515">
        <ele>23.0</ele>
        <time>2018-05-14T11:28:07.000Z</time>
      </trkpt>
      <trkpt lat="42.21900833" lon="-8.717555">
        <ele>23.0</ele>
        <time>2018-05-14T11:28:08.000Z</time>
      </trkpt>
      <trkpt lat="42.21900833" lon="-8.71759167">
        <ele>23.0</ele>
        <time>2018-05-14T11:28:09.000Z</time>
      </trkpt>
      <trkpt lat="42.21900833" lon="-8.71763333">
        <ele>23.0</ele>
        <time>2018-05-14T11:28:10.000Z</time>
      </trkpt>
      <trkpt lat="42.21900833" lon="-8.71767667">
        <ele>23.0</ele>
        <time>2018-05-14T11:28:11.000Z</time>
      </trkpt>
      <trkpt lat="42.219005" lon="-8.71772167">
        <ele>23.0</ele>
        <time>2018-05-14T11:28:12.000Z</time>
      </trkpt>
      <trkpt lat="42.219" lon="-8.71776333">
        <ele>23.0</ele>
        <time>2018-05-14T11:28:13.000Z</time>
      </trkpt>
      <trkpt lat="42.21899833" lon="-8.71780333">
        <ele>23.0</ele>
        <time>2018-05-14T11:28:14.000Z</time>
      </trkpt>
      <trkpt lat="42.218995" lon="-8.71784167">
        <ele>23.0</ele>
        <time>2018-05-14T11:28:15.000Z</time>
      </trkpt>
      <trkpt lat="42.21899167" lon="-8.71788">
        <ele>22.0</ele>
        <time>2018-05-14T11:28:16.000Z</time>
      </trkpt>
      <trkpt lat="42.21898833" lon="-8.71791667">
        <ele>22.0</ele>
        <time>2018-05-14T11:28:17.000Z</time>
      </trkpt>
      <trkpt lat="42.218985" lon="-8.71795">
        <ele>22.0</ele>
        <time>2018-05-14T11:28:18.000Z</time>
      </trkpt>
      <trkpt lat="42.21897833" lon="-8.71797833">
        <ele>22.0</ele>
        <time>2018-05-14T11:28:19.000Z</time>
      </trkpt>
      <trkpt lat="42.21897" lon="-8.718">
        <ele>22.0</ele>
        <time>2018-05-14T11:28:20.000Z</time>
      </trkpt>
      <trkpt lat="42.21896333" lon="-8.718025">
        <ele>22.0</ele>
        <time>2018-05-14T11:28:21.000Z</time>
      </trkpt>
      <trkpt lat="42.21895833" lon="-8.71805167">
        <ele>22.0</ele>
        <time>2018-05-14T11:28:22.000Z</time>
      </trkpt>
      <trkpt lat="42.21895333" lon="-8.71808333">
        <ele>22.0</ele>
        <time>2018-05-14T11:28:23.000Z</time>
      </trkpt>
      <trkpt lat="42.21894667" lon="-8.71811667">
        <ele>22.0</ele>
        <time>2018-05-14T11:28:24.000Z</time>
      </trkpt>
      <trkpt lat="42.21894" lon="-8.71815167">
        <ele>22.0</ele>
        <time>2018-05-14T11:28:25.000Z</time>
      </trkpt>
      <trkpt lat="42.21893167" lon="-8.71818833">
        <ele>22.0</ele>
        <time>2018-05-14T11:28:26.000Z</time>
      </trkpt>
      <trkpt lat="42.218925" lon="-8.71822333">
        <ele>22.0</ele>
        <time>2018-05-14T11:28:27.000Z</time>
      </trkpt>
      <trkpt lat="42.21892167" lon="-8.71825833">
        <ele>22.0</ele>
        <time>2018-05-14T11:28:28.000Z</time>
      </trkpt>
      <trkpt lat="42.218915" lon="-8.718295">
        <ele>22.0</ele>
        <time>2018-05-14T11:28:29.000Z</time>
      </trkpt>
      <trkpt lat="42.21891167" lon="-8.71833">
        <ele>22.0</ele>
        <time>2018-05-14T11:28:30.000Z</time>
      </trkpt>
      <trkpt lat="42.21891" lon="-8.718365">
        <ele>22.0</ele>
        <time>2018-05-14T11:28:31.000Z</time>
      </trkpt>
      <trkpt lat="42.21890833" lon="-8.71840333">
        <ele>22.0</ele>
        <time>2018-05-14T11:28:32.000Z</time>
      </trkpt>
      <trkpt lat="42.21890667" lon="-8.71844333">
        <ele>22.0</ele>
        <time>2018-05-14T11:28:33.000Z</time>
      </trkpt>
      <trkpt lat="42.21890167" lon="-8.71847833">
        <ele>22.0</ele>
        <time>2018-05-14T11:28:34.000Z</time>
      </trkpt>
      <trkpt lat="42.21889833" lon="-8.71851333">
        <ele>22.0</ele>
        <time>2018-05-14T11:28:35.000Z</time>
      </trkpt>
      <trkpt lat="42.21889667" lon="-8.71855">
        <ele>22.0</ele>
        <time>2018-05-14T11:28:36.000Z</time>
      </trkpt>
      <trkpt lat="42.21889667" lon="-8.71858833">
        <ele>22.0</ele>
        <time>2018-05-14T11:28:37.000Z</time>
      </trkpt>
      <trkpt lat="42.21889833" lon="-8.71862667">
        <ele>22.0</ele>
        <time>2018-05-14T11:28:38.000Z</time>
      </trkpt>
      <trkpt lat="42.2189" lon="-8.71866667">
        <ele>22.0</ele>
        <time>2018-05-14T11:28:39.000Z</time>
      </trkpt>
      <trkpt lat="42.21890167" lon="-8.71870833">
        <ele>22.0</ele>
        <time>2018-05-14T11:28:40.000Z</time>
      </trkpt>
      <trkpt lat="42.21890667" lon="-8.71874667">
        <ele>22.0</ele>
        <time>2018-05-14T11:28:41.000Z</time>
      </trkpt>
      <trkpt lat="42.21891167" lon="-8.71878667">
        <ele>22.0</ele>
        <time>2018-05-14T11:28:42.000Z</time>
      </trkpt>
      <trkpt lat="42.21891667" lon="-8.71882167">
        <ele>22.0</ele>
        <time>2018-05-14T11:28:43.000Z</time>
      </trkpt>
      <trkpt lat="42.21892167" lon="-8.718855">
        <ele>22.0</ele>
        <time>2018-05-14T11:28:44.000Z</time>
      </trkpt>
      <trkpt lat="42.218925" lon="-8.71888667">
        <ele>22.0</ele>
        <time>2018-05-14T11:28:45.000Z</time>
      </trkpt>
      <trkpt lat="42.21892833" lon="-8.71892167">
        <ele>22.0</ele>
        <time>2018-05-14T11:28:46.000Z</time>
      </trkpt>
      <trkpt lat="42.21892833" lon="-8.71895667">
        <ele>22.0</ele>
        <time>2018-05-14T11:28:47.000Z</time>
      </trkpt>
      <trkpt lat="42.21893" lon="-8.71899333">
        <ele>22.0</ele>
        <time>2018-05-14T11:28:48.000Z</time>
      </trkpt>
      <trkpt lat="42.21893" lon="-8.71903">
        <ele>22.0</ele>
        <time>2018-05-14T11:28:49.000Z</time>
      </trkpt>
      <trkpt lat="42.21893" lon="-8.71906833">
        <ele>22.0</ele>
        <time>2018-05-14T11:28:50.000Z</time>
      </trkpt>
      <trkpt lat="42.21893" lon="-8.71910833">
        <ele>22.0</ele>
        <time>2018-05-14T11:28:51.000Z</time>
      </trkpt>
      <trkpt lat="42.21893333" lon="-8.71914833">
        <ele>22.0</ele>
        <time>2018-05-14T11:28:52.000Z</time>
      </trkpt>
      <trkpt lat="42.218935" lon="-8.719185">
        <ele>22.0</ele>
        <time>2018-05-14T11:28:53.000Z</time>
      </trkpt>
      <trkpt lat="42.21893833" lon="-8.71922333">
        <ele>22.0</ele>
        <time>2018-05-14T11:28:54.000Z</time>
      </trkpt>
      <trkpt lat="42.21894167" lon="-8.71926333">
        <ele>22.0</ele>
        <time>2018-05-14T11:28:55.000Z</time>
      </trkpt>
      <trkpt lat="42.21894667" lon="-8.71930333">
        <ele>22.0</ele>
        <time>2018-05-14T11:28:56.000Z</time>
      </trkpt>
      <trkpt lat="42.218955" lon="-8.719345">
        <ele>22.0</ele>
        <time>2018-05-14T11:28:57.000Z</time>
      </trkpt>
      <trkpt lat="42.21896667" lon="-8.71938333">
        <ele>22.0</ele>
        <time>2018-05-14T11:28:58.000Z</time>
      </trkpt>
      <trkpt lat="42.21897833" lon="-8.71942167">
        <ele>22.0</ele>
        <time>2018-05-14T11:28:59.000Z</time>
      </trkpt>
      <trkpt lat="42.21899" lon="-8.71946">
        <ele>22.0</ele>
        <time>2018-05-14T11:29:00.000Z</time>
      </trkpt>
      <trkpt lat="42.21900333" lon="-8.71949833">
        <ele>22.0</ele>
        <time>2018-05-14T11:29:01.000Z</time>
      </trkpt>
      <trkpt lat="42.21901667" lon="-8.719535">
        <ele>22.0</ele>
        <time>2018-05-14T11:29:02.000Z</time>
      </trkpt>
      <trkpt lat="42.21903333" lon="-8.71956667">
        <ele>22.0</ele>
        <time>2018-05-14T11:29:03.000Z</time>
      </trkpt>
      <trkpt lat="42.21904833" lon="-8.71959833">
        <ele>22.0</ele>
        <time>2018-05-14T11:29:04.000Z</time>
      </trkpt>
      <trkpt lat="42.21906667" lon="-8.71962833">
        <ele>22.0</ele>
        <time>2018-05-14T11:29:05.000Z</time>
      </trkpt>
      <trkpt lat="42.21908833" lon="-8.71965667">
        <ele>23.0</ele>
        <time>2018-05-14T11:29:06.000Z</time>
      </trkpt>
      <trkpt lat="42.21911333" lon="-8.71968167">
        <ele>23.0</ele>
        <time>2018-05-14T11:29:07.000Z</time>
      </trkpt>
      <trkpt lat="42.21914167" lon="-8.71970333">
        <ele>23.0</ele>
        <time>2018-05-14T11:29:08.000Z</time>
      </trkpt>
      <trkpt lat="42.21917167" lon="-8.71972333">
        <ele>23.0</ele>
        <time>2018-05-14T11:29:09.000Z</time>
      </trkpt>
      <trkpt lat="42.2192" lon="-8.71974333">
        <ele>23.0</ele>
        <time>2018-05-14T11:29:10.000Z</time>
      </trkpt>
      <trkpt lat="42.21922667" lon="-8.71977">
        <ele>23.0</ele>
        <time>2018-05-14T11:29:11.000Z</time>
      </trkpt>
      <trkpt lat="42.21925167" lon="-8.71980167">
        <ele>23.0</ele>
        <time>2018-05-14T11:29:12.000Z</time>
      </trkpt>
      <trkpt lat="42.21927333" lon="-8.71983833">
        <ele>23.0</ele>
        <time>2018-05-14T11:29:13.000Z</time>
      </trkpt>
      <trkpt lat="42.2193" lon="-8.719875">
        <ele>23.0</ele>
        <time>2018-05-14T11:29:14.000Z</time>
      </trkpt>
      <trkpt lat="42.21932833" lon="-8.71991333">
        <ele>23.0</ele>
        <time>2018-05-14T11:29:15.000Z</time>
      </trkpt>
      <trkpt lat="42.21935333" lon="-8.71995">
        <ele>23.0</ele>
        <time>2018-05-14T11:29:16.000Z</time>
      </trkpt>
      <trkpt lat="42.21937833" lon="-8.71998333">
        <ele>23.0</ele>
        <time>2018-05-14T11:29:17.000Z</time>
      </trkpt>
      <trkpt lat="42.219405" lon="-8.72001333">
        <ele>22.0</ele>
        <time>2018-05-14T11:29:18.000Z</time>
      </trkpt>
      <trkpt lat="42.21943167" lon="-8.72004167">
        <ele>22.0</ele>
        <time>2018-05-14T11:29:19.000Z</time>
      </trkpt>
      <trkpt lat="42.21945833" lon="-8.72006833">
        <ele>22.0</ele>
        <time>2018-05-14T11:29:20.000Z</time>
      </trkpt>
      <trkpt lat="42.219485" lon="-8.72009833">
        <ele>22.0</ele>
        <time>2018-05-14T11:29:21.000Z</time>
      </trkpt>
      <trkpt lat="42.21950833" lon="-8.72013">
        <ele>22.0</ele>
        <time>2018-05-14T11:29:22.000Z</time>
      </trkpt>
      <trkpt lat="42.21952833" lon="-8.720165">
        <ele>22.0</ele>
        <time>2018-05-14T11:29:23.000Z</time>
      </trkpt>
      <trkpt lat="42.219545" lon="-8.72020333">
        <ele>22.0</ele>
        <time>2018-05-14T11:29:24.000Z</time>
      </trkpt>
      <trkpt lat="42.21955667" lon="-8.72024167">
        <ele>22.0</ele>
        <time>2018-05-14T11:29:25.000Z</time>
      </trkpt>
      <trkpt lat="42.21956333" lon="-8.720285">
        <ele>22.0</ele>
        <time>2018-05-14T11:29:26.000Z</time>
      </trkpt>
      <trkpt lat="42.21957167" lon="-8.72032667">
        <ele>22.0</ele>
        <time>2018-05-14T11:29:27.000Z</time>
      </trkpt>
      <trkpt lat="42.21958167" lon="-8.72037">
        <ele>22.0</ele>
        <time>2018-05-14T11:29:28.000Z</time>
      </trkpt>
      <trkpt lat="42.21959333" lon="-8.72041333">
        <ele>22.0</ele>
        <time>2018-05-14T11:29:29.000Z</time>
      </trkpt>
      <trkpt lat="42.21960167" lon="-8.72045667">
        <ele>22.0</ele>
        <time>2018-05-14T11:29:30.000Z</time>
      </trkpt>
      <trkpt lat="42.21961167" lon="-8.72049833">
        <ele>22.0</ele>
        <time>2018-05-14T11:29:31.000Z</time>
      </trkpt>
      <trkpt lat="42.219625" lon="-8.72054">
        <ele>22.0</ele>
        <time>2018-05-14T11:29:32.000Z</time>
      </trkpt>
      <trkpt lat="42.21963833" lon="-8.72058">
        <ele>22.0</ele>
        <time>2018-05-14T11:29:33.000Z</time>
      </trkpt>
      <trkpt lat="42.21965333" lon="-8.72061833">
        <ele>22.0</ele>
        <time>2018-05-14T11:29:34.000Z</time>
      </trkpt>
      <trkpt lat="42.21966833" lon="-8.72066">
        <ele>22.0</ele>
        <time>2018-05-14T11:29:35.000Z</time>
      </trkpt>
      <trkpt lat="42.21968" lon="-8.72070333">
        <ele>22.0</ele>
        <time>2018-05-14T11:29:36.000Z</time>
      </trkpt>
      <trkpt lat="42.21969" lon="-8.72074333">
        <ele>22.0</ele>
        <time>2018-05-14T11:29:37.000Z</time>
      </trkpt>
      <trkpt lat="42.21969667" lon="-8.72078">
        <ele>22.0</ele>
        <time>2018-05-14T11:29:38.000Z</time>
      </trkpt>
      <trkpt lat="42.219705" lon="-8.72082">
        <ele>22.0</ele>
        <time>2018-05-14T11:29:39.000Z</time>
      </trkpt>
      <trkpt lat="42.21971333" lon="-8.72086333">
        <ele>22.0</ele>
        <time>2018-05-14T11:29:40.000Z</time>
      </trkpt>
      <trkpt lat="42.21972" lon="-8.72091">
        <ele>22.0</ele>
        <time>2018-05-14T11:29:41.000Z</time>
      </trkpt>
      <trkpt lat="42.21972333" lon="-8.72095667">
        <ele>22.0</ele>
        <time>2018-05-14T11:29:42.000Z</time>
      </trkpt>
      <trkpt lat="42.21972167" lon="-8.72100667">
        <ele>22.0</ele>
        <time>2018-05-14T11:29:43.000Z</time>
      </trkpt>
      <trkpt lat="42.21972" lon="-8.721055">
        <ele>22.0</ele>
        <time>2018-05-14T11:29:44.000Z</time>
      </trkpt>
      <trkpt lat="42.21971333" lon="-8.7211">
        <ele>22.0</ele>
        <time>2018-05-14T11:29:45.000Z</time>
      </trkpt>
      <trkpt lat="42.219705" lon="-8.721145">
        <ele>22.0</ele>
        <time>2018-05-14T11:29:46.000Z</time>
      </trkpt>
      <trkpt lat="42.21969167" lon="-8.72118833">
        <ele>22.0</ele>
        <time>2018-05-14T11:29:47.000Z</time>
      </trkpt>
      <trkpt lat="42.21968" lon="-8.72123">
        <ele>22.0</ele>
        <time>2018-05-14T11:29:48.000Z</time>
      </trkpt>
      <trkpt lat="42.21967" lon="-8.721265">
        <ele>22.0</ele>
        <time>2018-05-14T11:29:49.000Z</time>
      </trkpt>
      <trkpt lat="42.219655" lon="-8.7213">
        <ele>22.0</ele>
        <time>2018-05-14T11:29:50.000Z</time>
      </trkpt>
      <trkpt lat="42.21963833" lon="-8.72132833">
        <ele>22.0</ele>
        <time>2018-05-14T11:29:51.000Z</time>
      </trkpt>
      <trkpt lat="42.21961833" lon="-8.72135167">
        <ele>22.0</ele>
        <time>2018-05-14T11:29:52.000Z</time>
      </trkpt>
      <trkpt lat="42.21959333" lon="-8.72136833">
        <ele>22.0</ele>
        <time>2018-05-14T11:29:53.000Z</time>
      </trkpt>
      <trkpt lat="42.21956833" lon="-8.72138167">
        <ele>21.0</ele>
        <time>2018-05-14T11:29:54.000Z</time>
      </trkpt>
      <trkpt lat="42.21954167" lon="-8.72138833">
        <ele>21.0</ele>
        <time>2018-05-14T11:29:55.000Z</time>
      </trkpt>
      <trkpt lat="42.21951667" lon="-8.72139667">
        <ele>21.0</ele>
        <time>2018-05-14T11:29:56.000Z</time>
      </trkpt>
      <trkpt lat="42.21948667" lon="-8.7214">
        <ele>21.0</ele>
        <time>2018-05-14T11:29:57.000Z</time>
      </trkpt>
      <trkpt lat="42.21945833" lon="-8.721395">
        <ele>21.0</ele>
        <time>2018-05-14T11:29:58.000Z</time>
      </trkpt>
      <trkpt lat="42.21942833" lon="-8.72138667">
        <ele>21.0</ele>
        <time>2018-05-14T11:29:59.000Z</time>
      </trkpt>
      <trkpt lat="42.21939833" lon="-8.72137833">
        <ele>21.0</ele>
        <time>2018-05-14T11:30:00.000Z</time>
      </trkpt>
      <trkpt lat="42.21937167" lon="-8.72136833">
        <ele>21.0</ele>
        <time>2018-05-14T11:30:01.000Z</time>
      </trkpt>
      <trkpt lat="42.219345" lon="-8.72135833">
        <ele>20.0</ele>
        <time>2018-05-14T11:30:02.000Z</time>
      </trkpt>
      <trkpt lat="42.21931667" lon="-8.72134667">
        <ele>20.0</ele>
        <time>2018-05-14T11:30:03.000Z</time>
      </trkpt>
      <trkpt lat="42.21928833" lon="-8.721335">
        <ele>20.0</ele>
        <time>2018-05-14T11:30:04.000Z</time>
      </trkpt>
      <trkpt lat="42.21925833" lon="-8.721325">
        <ele>20.0</ele>
        <time>2018-05-14T11:30:05.000Z</time>
      </trkpt>
      <trkpt lat="42.21922833" lon="-8.72131833">
        <ele>20.0</ele>
        <time>2018-05-14T11:30:06.000Z</time>
      </trkpt>
      <trkpt lat="42.21919667" lon="-8.72131167">
        <ele>20.0</ele>
        <time>2018-05-14T11:30:07.000Z</time>
      </trkpt>
      <trkpt lat="42.21916667" lon="-8.72130167">
        <ele>20.0</ele>
        <time>2018-05-14T11:30:08.000Z</time>
      </trkpt>
      <trkpt lat="42.21913333" lon="-8.72128833">
        <ele>19.0</ele>
        <time>2018-05-14T11:30:09.000Z</time>
      </trkpt>
      <trkpt lat="42.21909833" lon="-8.72127">
        <ele>19.0</ele>
        <time>2018-05-14T11:30:10.000Z</time>
      </trkpt>
      <trkpt lat="42.21906167" lon="-8.721255">
        <ele>19.0</ele>
        <time>2018-05-14T11:30:11.000Z</time>
      </trkpt>
      <trkpt lat="42.21902667" lon="-8.72124167">
        <ele>19.0</ele>
        <time>2018-05-14T11:30:12.000Z</time>
      </trkpt>
      <trkpt lat="42.21898833" lon="-8.72123167">
        <ele>19.0</ele>
        <time>2018-05-14T11:30:13.000Z</time>
      </trkpt>
      <trkpt lat="42.21895167" lon="-8.72122167">
        <ele>19.0</ele>
        <time>2018-05-14T11:30:14.000Z</time>
      </trkpt>
      <trkpt lat="42.21891667" lon="-8.72121667">
        <ele>19.0</ele>
        <time>2018-05-14T11:30:15.000Z</time>
      </trkpt>
      <trkpt lat="42.21888" lon="-8.72121667">
        <ele>19.0</ele>
        <time>2018-05-14T11:30:16.000Z</time>
      </trkpt>
      <trkpt lat="42.21884667" lon="-8.72122333">
        <ele>19.0</ele>
        <time>2018-05-14T11:30:17.000Z</time>
      </trkpt>
      <trkpt lat="42.21881333" lon="-8.72123">
        <ele>20.0</ele>
        <time>2018-05-14T11:30:18.000Z</time>
      </trkpt>
      <trkpt lat="42.21878" lon="-8.72123833">
        <ele>20.0</ele>
        <time>2018-05-14T11:30:19.000Z</time>
      </trkpt>
      <trkpt lat="42.218745" lon="-8.72124667">
        <ele>20.0</ele>
        <time>2018-05-14T11:30:20.000Z</time>
      </trkpt>
      <trkpt lat="42.21871" lon="-8.72125667">
        <ele>20.0</ele>
        <time>2018-05-14T11:30:21.000Z</time>
      </trkpt>
      <trkpt lat="42.218675" lon="-8.72126333">
        <ele>20.0</ele>
        <time>2018-05-14T11:30:22.000Z</time>
      </trkpt>
      <trkpt lat="42.21863833" lon="-8.72127">
        <ele>20.0</ele>
        <time>2018-05-14T11:30:23.000Z</time>
      </trkpt>
      <trkpt lat="42.21860333" lon="-8.72127667">
        <ele>20.0</ele>
        <time>2018-05-14T11:30:24.000Z</time>
      </trkpt>
      <trkpt lat="42.21857167" lon="-8.721285">
        <ele>20.0</ele>
        <time>2018-05-14T11:30:25.000Z</time>
      </trkpt>
      <trkpt lat="42.21854333" lon="-8.72129667">
        <ele>20.0</ele>
        <time>2018-05-14T11:30:26.000Z</time>
      </trkpt>
      <trkpt lat="42.21851167" lon="-8.72131333">
        <ele>20.0</ele>
        <time>2018-05-14T11:30:27.000Z</time>
      </trkpt>
      <trkpt lat="42.21848167" lon="-8.72133167">
        <ele>20.0</ele>
        <time>2018-05-14T11:30:28.000Z</time>
      </trkpt>
      <trkpt lat="42.218455" lon="-8.72135">
        <ele>20.0</ele>
        <time>2018-05-14T11:30:29.000Z</time>
      </trkpt>
      <trkpt lat="42.21843" lon="-8.72136833">
        <ele>20.0</ele>
        <time>2018-05-14T11:30:30.000Z</time>
      </trkpt>
      <trkpt lat="42.218405" lon="-8.721385">
        <ele>20.0</ele>
        <time>2018-05-14T11:30:31.000Z</time>
      </trkpt>
      <trkpt lat="42.21838" lon="-8.7214">
        <ele>21.0</ele>
        <time>2018-05-14T11:30:32.000Z</time>
      </trkpt>
      <trkpt lat="42.21835167" lon="-8.72141167">
        <ele>21.0</ele>
        <time>2018-05-14T11:30:33.000Z</time>
      </trkpt>
      <trkpt lat="42.218325" lon="-8.72142333">
        <ele>21.0</ele>
        <time>2018-05-14T11:30:34.000Z</time>
      </trkpt>
      <trkpt lat="42.2183" lon="-8.721435">
        <ele>21.0</ele>
        <time>2018-05-14T11:30:35.000Z</time>
      </trkpt>
      <trkpt lat="42.218275" lon="-8.72144667">
        <ele>21.0</ele>
        <time>2018-05-14T11:30:36.000Z</time>
      </trkpt>
      <trkpt lat="42.21824667" lon="-8.72145667">
        <ele>21.0</ele>
        <time>2018-05-14T11:30:37.000Z</time>
      </trkpt>
      <trkpt lat="42.21821833" lon="-8.72146667">
        <ele>21.0</ele>
        <time>2018-05-14T11:30:38.000Z</time>
      </trkpt>
      <trkpt lat="42.21819167" lon="-8.72147667">
        <ele>21.0</ele>
        <time>2018-05-14T11:30:39.000Z</time>
      </trkpt>
      <trkpt lat="42.21816333" lon="-8.72149">
        <ele>21.0</ele>
        <time>2018-05-14T11:30:40.000Z</time>
      </trkpt>
      <trkpt lat="42.218135" lon="-8.721505">
        <ele>21.0</ele>
        <time>2018-05-14T11:30:41.000Z</time>
      </trkpt>
      <trkpt lat="42.21810333" lon="-8.72152167">
        <ele>22.0</ele>
        <time>2018-05-14T11:30:42.000Z</time>
      </trkpt>
      <trkpt lat="42.21807167" lon="-8.72154">
        <ele>22.0</ele>
        <time>2018-05-14T11:30:43.000Z</time>
      </trkpt>
      <trkpt lat="42.21803833" lon="-8.72156167">
        <ele>22.0</ele>
        <time>2018-05-14T11:30:44.000Z</time>
      </trkpt>
      <trkpt lat="42.21800667" lon="-8.72158333">
        <ele>22.0</ele>
        <time>2018-05-14T11:30:45.000Z</time>
      </trkpt>
      <trkpt lat="42.21797667" lon="-8.721605">
        <ele>22.0</ele>
        <time>2018-05-14T11:30:46.000Z</time>
      </trkpt>
      <trkpt lat="42.217945" lon="-8.72162833">
        <ele>22.0</ele>
        <time>2018-05-14T11:30:47.000Z</time>
      </trkpt>
      <trkpt lat="42.21791333" lon="-8.72164833">
        <ele>23.0</ele>
        <time>2018-05-14T11:30:48.000Z</time>
      </trkpt>
      <trkpt lat="42.21788167" lon="-8.72166667">
        <ele>23.0</ele>
        <time>2018-05-14T11:30:49.000Z</time>
      </trkpt>
      <trkpt lat="42.21784833" lon="-8.72168167">
        <ele>23.0</ele>
        <time>2018-05-14T11:30:50.000Z</time>
      </trkpt>
      <trkpt lat="42.21781833" lon="-8.72170167">
        <ele>23.0</ele>
        <time>2018-05-14T11:30:51.000Z</time>
      </trkpt>
      <trkpt lat="42.21779167" lon="-8.72172">
        <ele>23.0</ele>
        <time>2018-05-14T11:30:52.000Z</time>
      </trkpt>
      <trkpt lat="42.21776" lon="-8.72174167">
        <ele>23.0</ele>
        <time>2018-05-14T11:30:53.000Z</time>
      </trkpt>
      <trkpt lat="42.21773333" lon="-8.72176167">
        <ele>23.0</ele>
        <time>2018-05-14T11:30:54.000Z</time>
      </trkpt>
      <trkpt lat="42.21770833" lon="-8.72178">
        <ele>23.0</ele>
        <time>2018-05-14T11:30:55.000Z</time>
      </trkpt>
      <trkpt lat="42.21768333" lon="-8.721795">
        <ele>23.0</ele>
        <time>2018-05-14T11:30:56.000Z</time>
      </trkpt>
      <trkpt lat="42.21766" lon="-8.72181167">
        <ele>23.0</ele>
        <time>2018-05-14T11:30:57.000Z</time>
      </trkpt>
      <trkpt lat="42.21764" lon="-8.72183">
        <ele>23.0</ele>
        <time>2018-05-14T11:30:58.000Z</time>
      </trkpt>
      <trkpt lat="42.21762" lon="-8.72184833">
        <ele>23.0</ele>
        <time>2018-05-14T11:30:59.000Z</time>
      </trkpt>
      <trkpt lat="42.21759833" lon="-8.72187167">
        <ele>23.0</ele>
        <time>2018-05-14T11:31:00.000Z</time>
      </trkpt>
      <trkpt lat="42.21757667" lon="-8.721895">
        <ele>23.0</ele>
        <time>2018-05-14T11:31:01.000Z</time>
      </trkpt>
      <trkpt lat="42.21755333" lon="-8.72191667">
        <ele>23.0</ele>
        <time>2018-05-14T11:31:02.000Z</time>
      </trkpt>
      <trkpt lat="42.21753" lon="-8.72194167">
        <ele>23.0</ele>
        <time>2018-05-14T11:31:03.000Z</time>
      </trkpt>
      <trkpt lat="42.21750667" lon="-8.72196167">
        <ele>23.0</ele>
        <time>2018-05-14T11:31:04.000Z</time>
      </trkpt>
      <trkpt lat="42.21748167" lon="-8.72198">
        <ele>23.0</ele>
        <time>2018-05-14T11:31:05.000Z</time>
      </trkpt>
      <trkpt lat="42.21745667" lon="-8.72199667">
        <ele>22.0</ele>
        <time>2018-05-14T11:31:06.000Z</time>
      </trkpt>
      <trkpt lat="42.21742833" lon="-8.72201167">
        <ele>22.0</ele>
        <time>2018-05-14T11:31:07.000Z</time>
      </trkpt>
      <trkpt lat="42.2174" lon="-8.72202833">
        <ele>22.0</ele>
        <time>2018-05-14T11:31:08.000Z</time>
      </trkpt>
      <trkpt lat="42.21737667" lon="-8.722045">
        <ele>22.0</ele>
        <time>2018-05-14T11:31:09.000Z</time>
      </trkpt>
      <trkpt lat="42.21735333" lon="-8.72206">
        <ele>22.0</ele>
        <time>2018-05-14T11:31:10.000Z</time>
      </trkpt>
      <trkpt lat="42.21732667" lon="-8.722075">
        <ele>22.0</ele>
        <time>2018-05-14T11:31:11.000Z</time>
      </trkpt>
      <trkpt lat="42.21730167" lon="-8.72209">
        <ele>22.0</ele>
        <time>2018-05-14T11:31:12.000Z</time>
      </trkpt>
      <trkpt lat="42.21727833" lon="-8.72210667">
        <ele>22.0</ele>
        <time>2018-05-14T11:31:13.000Z</time>
      </trkpt>
      <trkpt lat="42.217255" lon="-8.722125">
        <ele>22.0</ele>
        <time>2018-05-14T11:31:14.000Z</time>
      </trkpt>
      <trkpt lat="42.217235" lon="-8.72214833">
        <ele>22.0</ele>
        <time>2018-05-14T11:31:15.000Z</time>
      </trkpt>
      <trkpt lat="42.21721333" lon="-8.72217167">
        <ele>22.0</ele>
        <time>2018-05-14T11:31:16.000Z</time>
      </trkpt>
      <trkpt lat="42.21719333" lon="-8.7222">
        <ele>22.0</ele>
        <time>2018-05-14T11:31:17.000Z</time>
      </trkpt>
      <trkpt lat="42.21717167" lon="-8.72223167">
        <ele>22.0</ele>
        <time>2018-05-14T11:31:18.000Z</time>
      </trkpt>
      <trkpt lat="42.21715167" lon="-8.722265">
        <ele>22.0</ele>
        <time>2018-05-14T11:31:19.000Z</time>
      </trkpt>
      <trkpt lat="42.21712833" lon="-8.72229833">
        <ele>22.0</ele>
        <time>2018-05-14T11:31:20.000Z</time>
      </trkpt>
      <trkpt lat="42.21710667" lon="-8.722335">
        <ele>22.0</ele>
        <time>2018-05-14T11:31:21.000Z</time>
      </trkpt>
      <trkpt lat="42.21708833" lon="-8.72237">
        <ele>22.0</ele>
        <time>2018-05-14T11:31:22.000Z</time>
      </trkpt>
      <trkpt lat="42.21707167" lon="-8.722405">
        <ele>22.0</ele>
        <time>2018-05-14T11:31:23.000Z</time>
      </trkpt>
      <trkpt lat="42.21705667" lon="-8.72244333">
        <ele>22.0</ele>
        <time>2018-05-14T11:31:24.000Z</time>
      </trkpt>
      <trkpt lat="42.21704333" lon="-8.72248333">
        <ele>21.0</ele>
        <time>2018-05-14T11:31:25.000Z</time>
      </trkpt>
      <trkpt lat="42.21703167" lon="-8.72252">
        <ele>21.0</ele>
        <time>2018-05-14T11:31:26.000Z</time>
      </trkpt>
      <trkpt lat="42.21702167" lon="-8.72255667">
        <ele>21.0</ele>
        <time>2018-05-14T11:31:27.000Z</time>
      </trkpt>
      <trkpt lat="42.21701667" lon="-8.72259333">
        <ele>21.0</ele>
        <time>2018-05-14T11:31:28.000Z</time>
      </trkpt>
      <trkpt lat="42.21701333" lon="-8.72262833">
        <ele>21.0</ele>
        <time>2018-05-14T11:31:29.000Z</time>
      </trkpt>
      <trkpt lat="42.21700833" lon="-8.72266833">
        <ele>21.0</ele>
        <time>2018-05-14T11:31:30.000Z</time>
      </trkpt>
      <trkpt lat="42.21700833" lon="-8.722705">
        <ele>21.0</ele>
        <time>2018-05-14T11:31:31.000Z</time>
      </trkpt>
      <trkpt lat="42.217015" lon="-8.72274333">
        <ele>21.0</ele>
        <time>2018-05-14T11:31:32.000Z</time>
      </trkpt>
      <trkpt lat="42.21702333" lon="-8.72278167">
        <ele>21.0</ele>
        <time>2018-05-14T11:31:33.000Z</time>
      </trkpt>
      <trkpt lat="42.21703333" lon="-8.72281667">
        <ele>21.0</ele>
        <time>2018-05-14T11:31:34.000Z</time>
      </trkpt>
      <trkpt lat="42.217045" lon="-8.72285333">
        <ele>21.0</ele>
        <time>2018-05-14T11:31:35.000Z</time>
      </trkpt>
      <trkpt lat="42.21705667" lon="-8.72289333">
        <ele>21.0</ele>
        <time>2018-05-14T11:31:36.000Z</time>
      </trkpt>
      <trkpt lat="42.217065" lon="-8.722935">
        <ele>21.0</ele>
        <time>2018-05-14T11:31:37.000Z</time>
      </trkpt>
      <trkpt lat="42.21707167" lon="-8.72298">
        <ele>21.0</ele>
        <time>2018-05-14T11:31:38.000Z</time>
      </trkpt>
      <trkpt lat="42.21707667" lon="-8.72302667">
        <ele>21.0</ele>
        <time>2018-05-14T11:31:39.000Z</time>
      </trkpt>
      <trkpt lat="42.21707667" lon="-8.72307167">
        <ele>21.0</ele>
        <time>2018-05-14T11:31:40.000Z</time>
      </trkpt>
      <trkpt lat="42.21707" lon="-8.723115">
        <ele>21.0</ele>
        <time>2018-05-14T11:31:41.000Z</time>
      </trkpt>
      <trkpt lat="42.21706167" lon="-8.72315167">
        <ele>21.0</ele>
        <time>2018-05-14T11:31:42.000Z</time>
      </trkpt>
      <trkpt lat="42.21704833" lon="-8.72318833">
        <ele>21.0</ele>
        <time>2018-05-14T11:31:43.000Z</time>
      </trkpt>
      <trkpt lat="42.21703" lon="-8.72321667">
        <ele>21.0</ele>
        <time>2018-05-14T11:31:44.000Z</time>
      </trkpt>
      <trkpt lat="42.21701333" lon="-8.72324">
        <ele>21.0</ele>
        <time>2018-05-14T11:31:45.000Z</time>
      </trkpt>
      <trkpt lat="42.216995" lon="-8.72326167">
        <ele>21.0</ele>
        <time>2018-05-14T11:31:46.000Z</time>
      </trkpt>
      <trkpt lat="42.21697667" lon="-8.72328333">
        <ele>21.0</ele>
        <time>2018-05-14T11:31:47.000Z</time>
      </trkpt>
      <trkpt lat="42.216955" lon="-8.72330667">
        <ele>21.0</ele>
        <time>2018-05-14T11:31:48.000Z</time>
      </trkpt>
      <trkpt lat="42.21693333" lon="-8.72333">
        <ele>21.0</ele>
        <time>2018-05-14T11:31:49.000Z</time>
      </trkpt>
      <trkpt lat="42.21691167" lon="-8.723355">
        <ele>21.0</ele>
        <time>2018-05-14T11:31:50.000Z</time>
      </trkpt>
      <trkpt lat="42.21689167" lon="-8.72338167">
        <ele>21.0</ele>
        <time>2018-05-14T11:31:51.000Z</time>
      </trkpt>
      <trkpt lat="42.21687333" lon="-8.723415">
        <ele>21.0</ele>
        <time>2018-05-14T11:31:52.000Z</time>
      </trkpt>
      <trkpt lat="42.21685333" lon="-8.72344833">
        <ele>21.0</ele>
        <time>2018-05-14T11:31:53.000Z</time>
      </trkpt>
      <trkpt lat="42.216835" lon="-8.72348">
        <ele>21.0</ele>
        <time>2018-05-14T11:31:54.000Z</time>
      </trkpt>
      <trkpt lat="42.21681667" lon="-8.72351333">
        <ele>21.0</ele>
        <time>2018-05-14T11:31:55.000Z</time>
      </trkpt>
      <trkpt lat="42.2168" lon="-8.72354833">
        <ele>21.0</ele>
        <time>2018-05-14T11:31:56.000Z</time>
      </trkpt>
      <trkpt lat="42.21678" lon="-8.72358167">
        <ele>21.0</ele>
        <time>2018-05-14T11:31:57.000Z</time>
      </trkpt>
      <trkpt lat="42.21676333" lon="-8.723615">
        <ele>21.0</ele>
        <time>2018-05-14T11:31:58.000Z</time>
      </trkpt>
      <trkpt lat="42.21675" lon="-8.72365167">
        <ele>21.0</ele>
        <time>2018-05-14T11:31:59.000Z</time>
      </trkpt>
      <trkpt lat="42.21673667" lon="-8.72369333">
        <ele>21.0</ele>
        <time>2018-05-14T11:32:00.000Z</time>
      </trkpt>
      <trkpt lat="42.21672833" lon="-8.72373333">
        <ele>21.0</ele>
        <time>2018-05-14T11:32:01.000Z</time>
      </trkpt>
      <trkpt lat="42.216725" lon="-8.723775">
        <ele>21.0</ele>
        <time>2018-05-14T11:32:02.000Z</time>
      </trkpt>
      <trkpt lat="42.216725" lon="-8.72381167">
        <ele>21.0</ele>
        <time>2018-05-14T11:32:03.000Z</time>
      </trkpt>
      <trkpt lat="42.21673167" lon="-8.72384833">
        <ele>21.0</ele>
        <time>2018-05-14T11:32:04.000Z</time>
      </trkpt>
      <trkpt lat="42.21674167" lon="-8.72388333">
        <ele>21.0</ele>
        <time>2018-05-14T11:32:05.000Z</time>
      </trkpt>
      <trkpt lat="42.21675167" lon="-8.72391667">
        <ele>21.0</ele>
        <time>2018-05-14T11:32:06.000Z</time>
      </trkpt>
      <trkpt lat="42.21677" lon="-8.72394667">
        <ele>21.0</ele>
        <time>2018-05-14T11:32:07.000Z</time>
      </trkpt>
      <trkpt lat="42.21678667" lon="-8.72397333">
        <ele>21.0</ele>
        <time>2018-05-14T11:32:08.000Z</time>
      </trkpt>
      <trkpt lat="42.216805" lon="-8.72399333">
        <ele>21.0</ele>
        <time>2018-05-14T11:32:09.000Z</time>
      </trkpt>
      <trkpt lat="42.216825" lon="-8.72401667">
        <ele>21.0</ele>
        <time>2018-05-14T11:32:10.000Z</time>
      </trkpt>
      <trkpt lat="42.21684667" lon="-8.724035">
        <ele>21.0</ele>
        <time>2018-05-14T11:32:11.000Z</time>
      </trkpt>
      <trkpt lat="42.21686833" lon="-8.72405167">
        <ele>21.0</ele>
        <time>2018-05-14T11:32:12.000Z</time>
      </trkpt>
      <trkpt lat="42.21689" lon="-8.72407167">
        <ele>21.0</ele>
        <time>2018-05-14T11:32:13.000Z</time>
      </trkpt>
      <trkpt lat="42.21691333" lon="-8.72409667">
        <ele>21.0</ele>
        <time>2018-05-14T11:32:14.000Z</time>
      </trkpt>
      <trkpt lat="42.21693667" lon="-8.724125">
        <ele>21.0</ele>
        <time>2018-05-14T11:32:15.000Z</time>
      </trkpt>
      <trkpt lat="42.21695833" lon="-8.724155">
        <ele>21.0</ele>
        <time>2018-05-14T11:32:16.000Z</time>
      </trkpt>
      <trkpt lat="42.21697667" lon="-8.72418667">
        <ele>21.0</ele>
        <time>2018-05-14T11:32:17.000Z</time>
      </trkpt>
      <trkpt lat="42.21699667" lon="-8.72421667">
        <ele>20.0</ele>
        <time>2018-05-14T11:32:18.000Z</time>
      </trkpt>
      <trkpt lat="42.21702" lon="-8.72425">
        <ele>20.0</ele>
        <time>2018-05-14T11:32:19.000Z</time>
      </trkpt>
      <trkpt lat="42.21704167" lon="-8.72428667">
        <ele>20.0</ele>
        <time>2018-05-14T11:32:20.000Z</time>
      </trkpt>
      <trkpt lat="42.21706333" lon="-8.72432167">
        <ele>20.0</ele>
        <time>2018-05-14T11:32:21.000Z</time>
      </trkpt>
      <trkpt lat="42.21708167" lon="-8.724355">
        <ele>20.0</ele>
        <time>2018-05-14T11:32:22.000Z</time>
      </trkpt>
      <trkpt lat="42.21710333" lon="-8.72438833">
        <ele>20.0</ele>
        <time>2018-05-14T11:32:23.000Z</time>
      </trkpt>
      <trkpt lat="42.21712333" lon="-8.72442">
        <ele>20.0</ele>
        <time>2018-05-14T11:32:24.000Z</time>
      </trkpt>
      <trkpt lat="42.21714" lon="-8.72444833">
        <ele>20.0</ele>
        <time>2018-05-14T11:32:25.000Z</time>
      </trkpt>
      <trkpt lat="42.21715667" lon="-8.72448">
        <ele>20.0</ele>
        <time>2018-05-14T11:32:26.000Z</time>
      </trkpt>
      <trkpt lat="42.21717333" lon="-8.72451">
        <ele>20.0</ele>
        <time>2018-05-14T11:32:27.000Z</time>
      </trkpt>
      <trkpt lat="42.21719167" lon="-8.72454167">
        <ele>20.0</ele>
        <time>2018-05-14T11:32:28.000Z</time>
      </trkpt>
      <trkpt lat="42.21720833" lon="-8.72456833">
        <ele>20.0</ele>
        <time>2018-05-14T11:32:29.000Z</time>
      </trkpt>
      <trkpt lat="42.21722167" lon="-8.724595">
        <ele>20.0</ele>
        <time>2018-05-14T11:32:30.000Z</time>
      </trkpt>
      <trkpt lat="42.217235" lon="-8.724625">
        <ele>20.0</ele>
        <time>2018-05-14T11:32:31.000Z</time>
      </trkpt>
      <trkpt lat="42.21724833" lon="-8.724655">
        <ele>20.0</ele>
        <time>2018-05-14T11:32:32.000Z</time>
      </trkpt>
      <trkpt lat="42.21726167" lon="-8.724685">
        <ele>20.0</ele>
        <time>2018-05-14T11:32:33.000Z</time>
      </trkpt>
      <trkpt lat="42.21727333" lon="-8.72472">
        <ele>20.0</ele>
        <time>2018-05-14T11:32:34.000Z</time>
      </trkpt>
      <trkpt lat="42.21728333" lon="-8.72475167">
        <ele>20.0</ele>
        <time>2018-05-14T11:32:35.000Z</time>
      </trkpt>
      <trkpt lat="42.21729167" lon="-8.724785">
        <ele>20.0</ele>
        <time>2018-05-14T11:32:36.000Z</time>
      </trkpt>
      <trkpt lat="42.21729667" lon="-8.72482167">
        <ele>20.0</ele>
        <time>2018-05-14T11:32:37.000Z</time>
      </trkpt>
      <trkpt lat="42.21729833" lon="-8.72485667">
        <ele>20.0</ele>
        <time>2018-05-14T11:32:38.000Z</time>
      </trkpt>
      <trkpt lat="42.21730167" lon="-8.72489167">
        <ele>20.0</ele>
        <time>2018-05-14T11:32:39.000Z</time>
      </trkpt>
      <trkpt lat="42.21730333" lon="-8.72492833">
        <ele>20.0</ele>
        <time>2018-05-14T11:32:40.000Z</time>
      </trkpt>
      <trkpt lat="42.217305" lon="-8.72496667">
        <ele>20.0</ele>
        <time>2018-05-14T11:32:41.000Z</time>
      </trkpt>
      <trkpt lat="42.21730333" lon="-8.72500833">
        <ele>20.0</ele>
        <time>2018-05-14T11:32:42.000Z</time>
      </trkpt>
      <trkpt lat="42.21729833" lon="-8.72505167">
        <ele>20.0</ele>
        <time>2018-05-14T11:32:43.000Z</time>
      </trkpt>
      <trkpt lat="42.21729333" lon="-8.725095">
        <ele>20.0</ele>
        <time>2018-05-14T11:32:44.000Z</time>
      </trkpt>
      <trkpt lat="42.21728667" lon="-8.72513833">
        <ele>20.0</ele>
        <time>2018-05-14T11:32:45.000Z</time>
      </trkpt>
      <trkpt lat="42.21727833" lon="-8.725175">
        <ele>20.0</ele>
        <time>2018-05-14T11:32:46.000Z</time>
      </trkpt>
      <trkpt lat="42.21727" lon="-8.72521">
        <ele>20.0</ele>
        <time>2018-05-14T11:32:47.000Z</time>
      </trkpt>
      <trkpt lat="42.21726167" lon="-8.72524333">
        <ele>19.0</ele>
        <time>2018-05-14T11:32:48.000Z</time>
      </trkpt>
      <trkpt lat="42.21724833" lon="-8.72528">
        <ele>19.0</ele>
        <time>2018-05-14T11:32:49.000Z</time>
      </trkpt>
      <trkpt lat="42.21723667" lon="-8.72531833">
        <ele>19.0</ele>
        <time>2018-05-14T11:32:50.000Z</time>
      </trkpt>
      <trkpt lat="42.21722667" lon="-8.725355">
        <ele>19.0</ele>
        <time>2018-05-14T11:32:51.000Z</time>
      </trkpt>
      <trkpt lat="42.21721333" lon="-8.72539">
        <ele>19.0</ele>
        <time>2018-05-14T11:32:52.000Z</time>
      </trkpt>
      <trkpt lat="42.21720333" lon="-8.72542333">
        <ele>19.0</ele>
        <time>2018-05-14T11:32:53.000Z</time>
      </trkpt>
      <trkpt lat="42.21719167" lon="-8.72546">
        <ele>19.0</ele>
        <time>2018-05-14T11:32:54.000Z</time>
      </trkpt>
      <trkpt lat="42.21718167" lon="-8.725495">
        <ele>19.0</ele>
        <time>2018-05-14T11:32:55.000Z</time>
      </trkpt>
      <trkpt lat="42.21717167" lon="-8.72553167">
        <ele>19.0</ele>
        <time>2018-05-14T11:32:56.000Z</time>
      </trkpt>
      <trkpt lat="42.21716333" lon="-8.72557">
        <ele>19.0</ele>
        <time>2018-05-14T11:32:57.000Z</time>
      </trkpt>
      <trkpt lat="42.21715667" lon="-8.72561333">
        <ele>19.0</ele>
        <time>2018-05-14T11:32:58.000Z</time>
      </trkpt>
      <trkpt lat="42.21714833" lon="-8.72565667">
        <ele>19.0</ele>
        <time>2018-05-14T11:32:59.000Z</time>
      </trkpt>
      <trkpt lat="42.21714167" lon="-8.725705">
        <ele>18.0</ele>
        <time>2018-05-14T11:33:00.000Z</time>
      </trkpt>
      <trkpt lat="42.21713667" lon="-8.725755">
        <ele>18.0</ele>
        <time>2018-05-14T11:33:01.000Z</time>
      </trkpt>
      <trkpt lat="42.21712833" lon="-8.72580333">
        <ele>18.0</ele>
        <time>2018-05-14T11:33:02.000Z</time>
      </trkpt>
      <trkpt lat="42.21712" lon="-8.72585333">
        <ele>18.0</ele>
        <time>2018-05-14T11:33:03.000Z</time>
      </trkpt>
      <trkpt lat="42.21711333" lon="-8.72590167">
        <ele>18.0</ele>
        <time>2018-05-14T11:33:04.000Z</time>
      </trkpt>
      <trkpt lat="42.21710333" lon="-8.72594833">
        <ele>18.0</ele>
        <time>2018-05-14T11:33:05.000Z</time>
      </trkpt>
      <trkpt lat="42.217095" lon="-8.72599167">
        <ele>18.0</ele>
        <time>2018-05-14T11:33:06.000Z</time>
      </trkpt>
      <trkpt lat="42.217085" lon="-8.72603667">
        <ele>17.0</ele>
        <time>2018-05-14T11:33:07.000Z</time>
      </trkpt>
      <trkpt lat="42.217075" lon="-8.72608167">
        <ele>17.0</ele>
        <time>2018-05-14T11:33:08.000Z</time>
      </trkpt>
      <trkpt lat="42.21706667" lon="-8.726125">
        <ele>17.0</ele>
        <time>2018-05-14T11:33:09.000Z</time>
      </trkpt>
      <trkpt lat="42.217055" lon="-8.72617167">
        <ele>17.0</ele>
        <time>2018-05-14T11:33:10.000Z</time>
      </trkpt>
      <trkpt lat="42.21704333" lon="-8.72621833">
        <ele>17.0</ele>
        <time>2018-05-14T11:33:11.000Z</time>
      </trkpt>
      <trkpt lat="42.21703167" lon="-8.72626333">
        <ele>17.0</ele>
        <time>2018-05-14T11:33:12.000Z</time>
      </trkpt>
      <trkpt lat="42.21702" lon="-8.72630833">
        <ele>17.0</ele>
        <time>2018-05-14T11:33:13.000Z</time>
      </trkpt>
      <trkpt lat="42.21701" lon="-8.72635167">
        <ele>17.0</ele>
        <time>2018-05-14T11:33:14.000Z</time>
      </trkpt>
      <trkpt lat="42.21700167" lon="-8.72639167">
        <ele>17.0</ele>
        <time>2018-05-14T11:33:15.000Z</time>
      </trkpt>
      <trkpt lat="42.21699333" lon="-8.726435">
        <ele>17.0</ele>
        <time>2018-05-14T11:33:16.000Z</time>
      </trkpt>
      <trkpt lat="42.216985" lon="-8.72648167">
        <ele>17.0</ele>
        <time>2018-05-14T11:33:17.000Z</time>
      </trkpt>
      <trkpt lat="42.21697833" lon="-8.726525">
        <ele>17.0</ele>
        <time>2018-05-14T11:33:18.000Z</time>
      </trkpt>
      <trkpt lat="42.21697" lon="-8.72656833">
        <ele>17.0</ele>
        <time>2018-05-14T11:33:19.000Z</time>
      </trkpt>
      <trkpt lat="42.216965" lon="-8.726615">
        <ele>17.0</ele>
        <time>2018-05-14T11:33:20.000Z</time>
      </trkpt>
      <trkpt lat="42.21696" lon="-8.72665667">
        <ele>17.0</ele>
        <time>2018-05-14T11:33:21.000Z</time>
      </trkpt>
      <trkpt lat="42.216955" lon="-8.726695">
        <ele>17.0</ele>
        <time>2018-05-14T11:33:22.000Z</time>
      </trkpt>
      <trkpt lat="42.21695" lon="-8.726735">
        <ele>16.0</ele>
        <time>2018-05-14T11:33:23.000Z</time>
      </trkpt>
      <trkpt lat="42.216945" lon="-8.726775">
        <ele>16.0</ele>
        <time>2018-05-14T11:33:24.000Z</time>
      </trkpt>
      <trkpt lat="42.21694" lon="-8.72681667">
        <ele>16.0</ele>
        <time>2018-05-14T11:33:25.000Z</time>
      </trkpt>
      <trkpt lat="42.21693333" lon="-8.72686">
        <ele>16.0</ele>
        <time>2018-05-14T11:33:26.000Z</time>
      </trkpt>
      <trkpt lat="42.21692333" lon="-8.72690167">
        <ele>16.0</ele>
        <time>2018-05-14T11:33:27.000Z</time>
      </trkpt>
      <trkpt lat="42.21691333" lon="-8.726945">
        <ele>16.0</ele>
        <time>2018-05-14T11:33:28.000Z</time>
      </trkpt>
      <trkpt lat="42.216905" lon="-8.72698833">
        <ele>16.0</ele>
        <time>2018-05-14T11:33:29.000Z</time>
      </trkpt>
      <trkpt lat="42.216895" lon="-8.72703333">
        <ele>16.0</ele>
        <time>2018-05-14T11:33:30.000Z</time>
      </trkpt>
      <trkpt lat="42.21688167" lon="-8.72707667">
        <ele>16.0</ele>
        <time>2018-05-14T11:33:31.000Z</time>
      </trkpt>
      <trkpt lat="42.21686667" lon="-8.72711833">
        <ele>16.0</ele>
        <time>2018-05-14T11:33:32.000Z</time>
      </trkpt>
      <trkpt lat="42.21685" lon="-8.72715833">
        <ele>16.0</ele>
        <time>2018-05-14T11:33:33.000Z</time>
      </trkpt>
      <trkpt lat="42.216835" lon="-8.72719833">
        <ele>16.0</ele>
        <time>2018-05-14T11:33:34.000Z</time>
      </trkpt>
      <trkpt lat="42.21682" lon="-8.727235">
        <ele>16.0</ele>
        <time>2018-05-14T11:33:35.000Z</time>
      </trkpt>
      <trkpt lat="42.21680667" lon="-8.727275">
        <ele>16.0</ele>
        <time>2018-05-14T11:33:36.000Z</time>
      </trkpt>
      <trkpt lat="42.21679333" lon="-8.727315">
        <ele>16.0</ele>
        <time>2018-05-14T11:33:37.000Z</time>
      </trkpt>
      <trkpt lat="42.21677833" lon="-8.72735333">
        <ele>16.0</ele>
        <time>2018-05-14T11:33:38.000Z</time>
      </trkpt>
      <trkpt lat="42.21676333" lon="-8.72739333">
        <ele>16.0</ele>
        <time>2018-05-14T11:33:39.000Z</time>
      </trkpt>
      <trkpt lat="42.21674667" lon="-8.72743667">
        <ele>16.0</ele>
        <time>2018-05-14T11:33:40.000Z</time>
      </trkpt>
      <trkpt lat="42.21672833" lon="-8.72748167">
        <ele>16.0</ele>
        <time>2018-05-14T11:33:41.000Z</time>
      </trkpt>
      <trkpt lat="42.216705" lon="-8.72752333">
        <ele>16.0</ele>
        <time>2018-05-14T11:33:42.000Z</time>
      </trkpt>
      <trkpt lat="42.21668" lon="-8.72756167">
        <ele>16.0</ele>
        <time>2018-05-14T11:33:43.000Z</time>
      </trkpt>
      <trkpt lat="42.216655" lon="-8.72759833">
        <ele>16.0</ele>
        <time>2018-05-14T11:33:44.000Z</time>
      </trkpt>
      <trkpt lat="42.21663167" lon="-8.72763">
        <ele>16.0</ele>
        <time>2018-05-14T11:33:45.000Z</time>
      </trkpt>
      <trkpt lat="42.21661" lon="-8.72766">
        <ele>16.0</ele>
        <time>2018-05-14T11:33:46.000Z</time>
      </trkpt>
      <trkpt lat="42.21659333" lon="-8.72768667">
        <ele>16.0</ele>
        <time>2018-05-14T11:33:47.000Z</time>
      </trkpt>
      <trkpt lat="42.21657333" lon="-8.72771833">
        <ele>16.0</ele>
        <time>2018-05-14T11:33:48.000Z</time>
      </trkpt>
      <trkpt lat="42.21655667" lon="-8.72775167">
        <ele>16.0</ele>
        <time>2018-05-14T11:33:49.000Z</time>
      </trkpt>
      <trkpt lat="42.21654" lon="-8.727785">
        <ele>16.0</ele>
        <time>2018-05-14T11:33:50.000Z</time>
      </trkpt>
      <trkpt lat="42.216525" lon="-8.72781833">
        <ele>16.0</ele>
        <time>2018-05-14T11:33:51.000Z</time>
      </trkpt>
      <trkpt lat="42.21650833" lon="-8.72785">
        <ele>16.0</ele>
        <time>2018-05-14T11:33:52.000Z</time>
      </trkpt>
      <trkpt lat="42.21649" lon="-8.72788333">
        <ele>16.0</ele>
        <time>2018-05-14T11:33:53.000Z</time>
      </trkpt>
      <trkpt lat="42.216475" lon="-8.72791667">
        <ele>16.0</ele>
        <time>2018-05-14T11:33:54.000Z</time>
      </trkpt>
      <trkpt lat="42.21646167" lon="-8.72795167">
        <ele>16.0</ele>
        <time>2018-05-14T11:33:55.000Z</time>
      </trkpt>
      <trkpt lat="42.21644833" lon="-8.72798667">
        <ele>16.0</ele>
        <time>2018-05-14T11:33:56.000Z</time>
      </trkpt>
      <trkpt lat="42.21643167" lon="-8.72802333">
        <ele>16.0</ele>
        <time>2018-05-14T11:33:57.000Z</time>
      </trkpt>
      <trkpt lat="42.21641833" lon="-8.728065">
        <ele>16.0</ele>
        <time>2018-05-14T11:33:58.000Z</time>
      </trkpt>
      <trkpt lat="42.216405" lon="-8.72810333">
        <ele>16.0</ele>
        <time>2018-05-14T11:33:59.000Z</time>
      </trkpt>
      <trkpt lat="42.21639333" lon="-8.72814333">
        <ele>16.0</ele>
        <time>2018-05-14T11:34:00.000Z</time>
      </trkpt>
      <trkpt lat="42.216385" lon="-8.72818333">
        <ele>16.0</ele>
        <time>2018-05-14T11:34:01.000Z</time>
      </trkpt>
      <trkpt lat="42.21637667" lon="-8.72822167">
        <ele>16.0</ele>
        <time>2018-05-14T11:34:02.000Z</time>
      </trkpt>
      <trkpt lat="42.21637167" lon="-8.72825833">
        <ele>16.0</ele>
        <time>2018-05-14T11:34:03.000Z</time>
      </trkpt>
      <trkpt lat="42.21636833" lon="-8.728295">
        <ele>16.0</ele>
        <time>2018-05-14T11:34:04.000Z</time>
      </trkpt>
      <trkpt lat="42.21636333" lon="-8.72833667">
        <ele>16.0</ele>
        <time>2018-05-14T11:34:05.000Z</time>
      </trkpt>
      <trkpt lat="42.21635833" lon="-8.72837833">
        <ele>16.0</ele>
        <time>2018-05-14T11:34:06.000Z</time>
      </trkpt>
      <trkpt lat="42.21635333" lon="-8.72841833">
        <ele>16.0</ele>
        <time>2018-05-14T11:34:07.000Z</time>
      </trkpt>
      <trkpt lat="42.21634833" lon="-8.72846167">
        <ele>16.0</ele>
        <time>2018-05-14T11:34:08.000Z</time>
      </trkpt>
      <trkpt lat="42.216345" lon="-8.72850833">
        <ele>16.0</ele>
        <time>2018-05-14T11:34:09.000Z</time>
      </trkpt>
      <trkpt lat="42.21634" lon="-8.72855333">
        <ele>16.0</ele>
        <time>2018-05-14T11:34:10.000Z</time>
      </trkpt>
      <trkpt lat="42.21633833" lon="-8.72859833">
        <ele>16.0</ele>
        <time>2018-05-14T11:34:11.000Z</time>
      </trkpt>
      <trkpt lat="42.21633667" lon="-8.728645">
        <ele>16.0</ele>
        <time>2018-05-14T11:34:12.000Z</time>
      </trkpt>
      <trkpt lat="42.21633333" lon="-8.72869167">
        <ele>16.0</ele>
        <time>2018-05-14T11:34:13.000Z</time>
      </trkpt>
      <trkpt lat="42.21633" lon="-8.72874">
        <ele>16.0</ele>
        <time>2018-05-14T11:34:14.000Z</time>
      </trkpt>
      <trkpt lat="42.216325" lon="-8.72879">
        <ele>16.0</ele>
        <time>2018-05-14T11:34:15.000Z</time>
      </trkpt>
      <trkpt lat="42.21632" lon="-8.728835">
        <ele>16.0</ele>
        <time>2018-05-14T11:34:16.000Z</time>
      </trkpt>
      <trkpt lat="42.21631333" lon="-8.72887833">
        <ele>16.0</ele>
        <time>2018-05-14T11:34:17.000Z</time>
      </trkpt>
      <trkpt lat="42.21630833" lon="-8.728925">
        <ele>16.0</ele>
        <time>2018-05-14T11:34:18.000Z</time>
      </trkpt>
      <trkpt lat="42.216305" lon="-8.72897167">
        <ele>16.0</ele>
        <time>2018-05-14T11:34:19.000Z</time>
      </trkpt>
      <trkpt lat="42.21629833" lon="-8.72901833">
        <ele>16.0</ele>
        <time>2018-05-14T11:34:20.000Z</time>
      </trkpt>
      <trkpt lat="42.21629333" lon="-8.72906333">
        <ele>16.0</ele>
        <time>2018-05-14T11:34:21.000Z</time>
      </trkpt>
      <trkpt lat="42.21629" lon="-8.729105">
        <ele>16.0</ele>
        <time>2018-05-14T11:34:22.000Z</time>
      </trkpt>
      <trkpt lat="42.21628833" lon="-8.72914833">
        <ele>16.0</ele>
        <time>2018-05-14T11:34:23.000Z</time>
      </trkpt>
      <trkpt lat="42.21628833" lon="-8.72919167">
        <ele>16.0</ele>
        <time>2018-05-14T11:34:24.000Z</time>
      </trkpt>
      <trkpt lat="42.21628833" lon="-8.72923333">
        <ele>16.0</ele>
        <time>2018-05-14T11:34:25.000Z</time>
      </trkpt>
      <trkpt lat="42.21628833" lon="-8.72927167">
        <ele>16.0</ele>
        <time>2018-05-14T11:34:26.000Z</time>
      </trkpt>
      <trkpt lat="42.21628667" lon="-8.72931">
        <ele>16.0</ele>
        <time>2018-05-14T11:34:27.000Z</time>
      </trkpt>
      <trkpt lat="42.21628167" lon="-8.72935333">
        <ele>16.0</ele>
        <time>2018-05-14T11:34:28.000Z</time>
      </trkpt>
      <trkpt lat="42.21627667" lon="-8.72939333">
        <ele>16.0</ele>
        <time>2018-05-14T11:34:29.000Z</time>
      </trkpt>
      <trkpt lat="42.21627167" lon="-8.72943167">
        <ele>16.0</ele>
        <time>2018-05-14T11:34:30.000Z</time>
      </trkpt>
      <trkpt lat="42.21626333" lon="-8.72947333">
        <ele>16.0</ele>
        <time>2018-05-14T11:34:31.000Z</time>
      </trkpt>
      <trkpt lat="42.21625667" lon="-8.729515">
        <ele>16.0</ele>
        <time>2018-05-14T11:34:32.000Z</time>
      </trkpt>
      <trkpt lat="42.21625" lon="-8.72955667">
        <ele>16.0</ele>
        <time>2018-05-14T11:34:33.000Z</time>
      </trkpt>
      <trkpt lat="42.21624" lon="-8.72959667">
        <ele>17.0</ele>
        <time>2018-05-14T11:34:34.000Z</time>
      </trkpt>
      <trkpt lat="42.216225" lon="-8.72963167">
        <ele>17.0</ele>
        <time>2018-05-14T11:34:35.000Z</time>
      </trkpt>
      <trkpt lat="42.21620833" lon="-8.72966">
        <ele>17.0</ele>
        <time>2018-05-14T11:34:36.000Z</time>
      </trkpt>
      <trkpt lat="42.216185" lon="-8.72968167">
        <ele>17.0</ele>
        <time>2018-05-14T11:34:37.000Z</time>
      </trkpt>
      <trkpt lat="42.21616" lon="-8.72970167">
        <ele>17.0</ele>
        <time>2018-05-14T11:34:38.000Z</time>
      </trkpt>
      <trkpt lat="42.216135" lon="-8.72972167">
        <ele>17.0</ele>
        <time>2018-05-14T11:34:39.000Z</time>
      </trkpt>
      <trkpt lat="42.21611" lon="-8.72974167">
        <ele>17.0</ele>
        <time>2018-05-14T11:34:40.000Z</time>
      </trkpt>
      <trkpt lat="42.21608333" lon="-8.72976333">
        <ele>17.0</ele>
        <time>2018-05-14T11:34:41.000Z</time>
      </trkpt>
      <trkpt lat="42.216055" lon="-8.729785">
        <ele>17.0</ele>
        <time>2018-05-14T11:34:42.000Z</time>
      </trkpt>
      <trkpt lat="42.21602833" lon="-8.729805">
        <ele>17.0</ele>
        <time>2018-05-14T11:34:43.000Z</time>
      </trkpt>
      <trkpt lat="42.21599833" lon="-8.72982667">
        <ele>17.0</ele>
        <time>2018-05-14T11:34:44.000Z</time>
      </trkpt>
      <trkpt lat="42.21597167" lon="-8.72984667">
        <ele>18.0</ele>
        <time>2018-05-14T11:34:45.000Z</time>
      </trkpt>
      <trkpt lat="42.215945" lon="-8.729865">
        <ele>18.0</ele>
        <time>2018-05-14T11:34:46.000Z</time>
      </trkpt>
      <trkpt lat="42.215915" lon="-8.72988333">
        <ele>18.0</ele>
        <time>2018-05-14T11:34:47.000Z</time>
      </trkpt>
      <trkpt lat="42.21588667" lon="-8.7299">
        <ele>18.0</ele>
        <time>2018-05-14T11:34:48.000Z</time>
      </trkpt>
      <trkpt lat="42.21585833" lon="-8.72991667">
        <ele>18.0</ele>
        <time>2018-05-14T11:34:49.000Z</time>
      </trkpt>
      <trkpt lat="42.21583" lon="-8.72993167">
        <ele>18.0</ele>
        <time>2018-05-14T11:34:50.000Z</time>
      </trkpt>
      <trkpt lat="42.21579833" lon="-8.72995">
        <ele>18.0</ele>
        <time>2018-05-14T11:34:51.000Z</time>
      </trkpt>
      <trkpt lat="42.21577" lon="-8.72996667">
        <ele>18.0</ele>
        <time>2018-05-14T11:34:52.000Z</time>
      </trkpt>
      <trkpt lat="42.21574" lon="-8.72998667">
        <ele>18.0</ele>
        <time>2018-05-14T11:34:53.000Z</time>
      </trkpt>
      <trkpt lat="42.21571" lon="-8.730005">
        <ele>18.0</ele>
        <time>2018-05-14T11:34:54.000Z</time>
      </trkpt>
      <trkpt lat="42.21567667" lon="-8.73002167">
        <ele>18.0</ele>
        <time>2018-05-14T11:34:55.000Z</time>
      </trkpt>
      <trkpt lat="42.21564667" lon="-8.73003833">
        <ele>18.0</ele>
        <time>2018-05-14T11:34:56.000Z</time>
      </trkpt>
      <trkpt lat="42.215615" lon="-8.73005167">
        <ele>18.0</ele>
        <time>2018-05-14T11:34:57.000Z</time>
      </trkpt>
      <trkpt lat="42.21558167" lon="-8.73006333">
        <ele>18.0</ele>
        <time>2018-05-14T11:34:58.000Z</time>
      </trkpt>
      <trkpt lat="42.21554833" lon="-8.73007333">
        <ele>18.0</ele>
        <time>2018-05-14T11:34:59.000Z</time>
      </trkpt>
      <trkpt lat="42.21551167" lon="-8.73008">
        <ele>18.0</ele>
        <time>2018-05-14T11:35:00.000Z</time>
      </trkpt>
      <trkpt lat="42.21547667" lon="-8.73008667">
        <ele>18.0</ele>
        <time>2018-05-14T11:35:01.000Z</time>
      </trkpt>
      <trkpt lat="42.215445" lon="-8.73009333">
        <ele>18.0</ele>
        <time>2018-05-14T11:35:02.000Z</time>
      </trkpt>
      <trkpt lat="42.21541333" lon="-8.73009667">
        <ele>18.0</ele>
        <time>2018-05-14T11:35:03.000Z</time>
      </trkpt>
      <trkpt lat="42.21538167" lon="-8.73009667">
        <ele>18.0</ele>
        <time>2018-05-14T11:35:04.000Z</time>
      </trkpt>
      <trkpt lat="42.21535167" lon="-8.7301">
        <ele>18.0</ele>
        <time>2018-05-14T11:35:05.000Z</time>
      </trkpt>
      <trkpt lat="42.21532167" lon="-8.730105">
        <ele>18.0</ele>
        <time>2018-05-14T11:35:06.000Z</time>
      </trkpt>
      <trkpt lat="42.21529" lon="-8.730115">
        <ele>18.0</ele>
        <time>2018-05-14T11:35:07.000Z</time>
      </trkpt>
      <trkpt lat="42.21525833" lon="-8.73012167">
        <ele>18.0</ele>
        <time>2018-05-14T11:35:08.000Z</time>
      </trkpt>
      <trkpt lat="42.21523" lon="-8.73013">
        <ele>18.0</ele>
        <time>2018-05-14T11:35:09.000Z</time>
      </trkpt>
      <trkpt lat="42.2152" lon="-8.73014167">
        <ele>18.0</ele>
        <time>2018-05-14T11:35:10.000Z</time>
      </trkpt>
      <trkpt lat="42.21517333" lon="-8.73015167">
        <ele>18.0</ele>
        <time>2018-05-14T11:35:11.000Z</time>
      </trkpt>
      <trkpt lat="42.21514667" lon="-8.73016167">
        <ele>18.0</ele>
        <time>2018-05-14T11:35:12.000Z</time>
      </trkpt>
      <trkpt lat="42.21512167" lon="-8.73017167">
        <ele>18.0</ele>
        <time>2018-05-14T11:35:13.000Z</time>
      </trkpt>
      <trkpt lat="42.21509833" lon="-8.73018833">
        <ele>18.0</ele>
        <time>2018-05-14T11:35:14.000Z</time>
      </trkpt>
      <trkpt lat="42.21507167" lon="-8.73020333">
        <ele>18.0</ele>
        <time>2018-05-14T11:35:15.000Z</time>
      </trkpt>
      <trkpt lat="42.215045" lon="-8.73022167">
        <ele>18.0</ele>
        <time>2018-05-14T11:35:16.000Z</time>
      </trkpt>
      <trkpt lat="42.21501833" lon="-8.73024167">
        <ele>18.0</ele>
        <time>2018-05-14T11:35:17.000Z</time>
      </trkpt>
      <trkpt lat="42.21499333" lon="-8.730265">
        <ele>18.0</ele>
        <time>2018-05-14T11:35:18.000Z</time>
      </trkpt>
      <trkpt lat="42.21497" lon="-8.73029167">
        <ele>18.0</ele>
        <time>2018-05-14T11:35:19.000Z</time>
      </trkpt>
      <trkpt lat="42.21494833" lon="-8.73032167">
        <ele>18.0</ele>
        <time>2018-05-14T11:35:20.000Z</time>
      </trkpt>
      <trkpt lat="42.21492667" lon="-8.730355">
        <ele>18.0</ele>
        <time>2018-05-14T11:35:21.000Z</time>
      </trkpt>
      <trkpt lat="42.21490833" lon="-8.73039">
        <ele>18.0</ele>
        <time>2018-05-14T11:35:22.000Z</time>
      </trkpt>
      <trkpt lat="42.21489167" lon="-8.73042667">
        <ele>18.0</ele>
        <time>2018-05-14T11:35:23.000Z</time>
      </trkpt>
      <trkpt lat="42.21487667" lon="-8.73046667">
        <ele>18.0</ele>
        <time>2018-05-14T11:35:24.000Z</time>
      </trkpt>
      <trkpt lat="42.21486167" lon="-8.73050833">
        <ele>18.0</ele>
        <time>2018-05-14T11:35:25.000Z</time>
      </trkpt>
      <trkpt lat="42.21485167" lon="-8.73055">
        <ele>18.0</ele>
        <time>2018-05-14T11:35:26.000Z</time>
      </trkpt>
      <trkpt lat="42.21484167" lon="-8.73059">
        <ele>18.0</ele>
        <time>2018-05-14T11:35:27.000Z</time>
      </trkpt>
      <trkpt lat="42.21483167" lon="-8.73063">
        <ele>18.0</ele>
        <time>2018-05-14T11:35:28.000Z</time>
      </trkpt>
      <trkpt lat="42.21481833" lon="-8.73067167">
        <ele>18.0</ele>
        <time>2018-05-14T11:35:29.000Z</time>
      </trkpt>
      <trkpt lat="42.21480167" lon="-8.73071333">
        <ele>18.0</ele>
        <time>2018-05-14T11:35:30.000Z</time>
      </trkpt>
      <trkpt lat="42.21478167" lon="-8.73075">
        <ele>18.0</ele>
        <time>2018-05-14T11:35:31.000Z</time>
      </trkpt>
      <trkpt lat="42.21476167" lon="-8.73079">
        <ele>18.0</ele>
        <time>2018-05-14T11:35:32.000Z</time>
      </trkpt>
      <trkpt lat="42.21474167" lon="-8.73082833">
        <ele>18.0</ele>
        <time>2018-05-14T11:35:33.000Z</time>
      </trkpt>
      <trkpt lat="42.21472167" lon="-8.73086667">
        <ele>18.0</ele>
        <time>2018-05-14T11:35:34.000Z</time>
      </trkpt>
      <trkpt lat="42.21469833" lon="-8.73090333">
        <ele>18.0</ele>
        <time>2018-05-14T11:35:35.000Z</time>
      </trkpt>
      <trkpt lat="42.21467333" lon="-8.73093833">
        <ele>18.0</ele>
        <time>2018-05-14T11:35:36.000Z</time>
      </trkpt>
      <trkpt lat="42.21464833" lon="-8.73097">
        <ele>18.0</ele>
        <time>2018-05-14T11:35:37.000Z</time>
      </trkpt>
      <trkpt lat="42.21462167" lon="-8.73099833">
        <ele>18.0</ele>
        <time>2018-05-14T11:35:38.000Z</time>
      </trkpt>
      <trkpt lat="42.21459167" lon="-8.731025">
        <ele>18.0</ele>
        <time>2018-05-14T11:35:39.000Z</time>
      </trkpt>
      <trkpt lat="42.21456333" lon="-8.73104833">
        <ele>18.0</ele>
        <time>2018-05-14T11:35:40.000Z</time>
      </trkpt>
      <trkpt lat="42.214535" lon="-8.73106667">
        <ele>18.0</ele>
        <time>2018-05-14T11:35:41.000Z</time>
      </trkpt>
      <trkpt lat="42.21450667" lon="-8.73108">
        <ele>18.0</ele>
        <time>2018-05-14T11:35:42.000Z</time>
      </trkpt>
      <trkpt lat="42.21448" lon="-8.73108833">
        <ele>18.0</ele>
        <time>2018-05-14T11:35:43.000Z</time>
      </trkpt>
      <trkpt lat="42.21445" lon="-8.73109667">
        <ele>18.0</ele>
        <time>2018-05-14T11:35:44.000Z</time>
      </trkpt>
      <trkpt lat="42.21441667" lon="-8.73110333">
        <ele>18.0</ele>
        <time>2018-05-14T11:35:45.000Z</time>
      </trkpt>
      <trkpt lat="42.21438333" lon="-8.73111">
        <ele>18.0</ele>
        <time>2018-05-14T11:35:46.000Z</time>
      </trkpt>
      <trkpt lat="42.21435167" lon="-8.731115">
        <ele>18.0</ele>
        <time>2018-05-14T11:35:47.000Z</time>
      </trkpt>
      <trkpt lat="42.21432" lon="-8.73112333">
        <ele>18.0</ele>
        <time>2018-05-14T11:35:48.000Z</time>
      </trkpt>
      <trkpt lat="42.21428667" lon="-8.731135">
        <ele>18.0</ele>
        <time>2018-05-14T11:35:49.000Z</time>
      </trkpt>
      <trkpt lat="42.21425333" lon="-8.73115">
        <ele>18.0</ele>
        <time>2018-05-14T11:35:50.000Z</time>
      </trkpt>
      <trkpt lat="42.21422" lon="-8.731165">
        <ele>18.0</ele>
        <time>2018-05-14T11:35:51.000Z</time>
      </trkpt>
      <trkpt lat="42.214185" lon="-8.73118167">
        <ele>18.0</ele>
        <time>2018-05-14T11:35:52.000Z</time>
      </trkpt>
      <trkpt lat="42.21414833" lon="-8.73119667">
        <ele>18.0</ele>
        <time>2018-05-14T11:35:53.000Z</time>
      </trkpt>
      <trkpt lat="42.21411167" lon="-8.73121333">
        <ele>18.0</ele>
        <time>2018-05-14T11:35:54.000Z</time>
      </trkpt>
      <trkpt lat="42.21407833" lon="-8.73123">
        <ele>18.0</ele>
        <time>2018-05-14T11:35:55.000Z</time>
      </trkpt>
      <trkpt lat="42.214045" lon="-8.73124333">
        <ele>18.0</ele>
        <time>2018-05-14T11:35:56.000Z</time>
      </trkpt>
      <trkpt lat="42.21401333" lon="-8.73126">
        <ele>18.0</ele>
        <time>2018-05-14T11:35:57.000Z</time>
      </trkpt>
      <trkpt lat="42.21398" lon="-8.73127167">
        <ele>19.0</ele>
        <time>2018-05-14T11:35:58.000Z</time>
      </trkpt>
      <trkpt lat="42.21394833" lon="-8.731285">
        <ele>19.0</ele>
        <time>2018-05-14T11:35:59.000Z</time>
      </trkpt>
      <trkpt lat="42.213915" lon="-8.7313">
        <ele>19.0</ele>
        <time>2018-05-14T11:36:00.000Z</time>
      </trkpt>
      <trkpt lat="42.213885" lon="-8.73131167">
        <ele>19.0</ele>
        <time>2018-05-14T11:36:01.000Z</time>
      </trkpt>
      <trkpt lat="42.213855" lon="-8.73132333">
        <ele>18.0</ele>
        <time>2018-05-14T11:36:02.000Z</time>
      </trkpt>
      <trkpt lat="42.213825" lon="-8.73133167">
        <ele>18.0</ele>
        <time>2018-05-14T11:36:03.000Z</time>
      </trkpt>
      <trkpt lat="42.21379667" lon="-8.73134167">
        <ele>18.0</ele>
        <time>2018-05-14T11:36:04.000Z</time>
      </trkpt>
      <trkpt lat="42.21376667" lon="-8.73135333">
        <ele>18.0</ele>
        <time>2018-05-14T11:36:05.000Z</time>
      </trkpt>
      <trkpt lat="42.21373667" lon="-8.73136667">
        <ele>18.0</ele>
        <time>2018-05-14T11:36:06.000Z</time>
      </trkpt>
      <trkpt lat="42.213705" lon="-8.73137667">
        <ele>18.0</ele>
        <time>2018-05-14T11:36:07.000Z</time>
      </trkpt>
      <trkpt lat="42.21367833" lon="-8.73138667">
        <ele>18.0</ele>
        <time>2018-05-14T11:36:08.000Z</time>
      </trkpt>
      <trkpt lat="42.21365167" lon="-8.7314">
        <ele>18.0</ele>
        <time>2018-05-14T11:36:09.000Z</time>
      </trkpt>
      <trkpt lat="42.21362333" lon="-8.731415">
        <ele>18.0</ele>
        <time>2018-05-14T11:36:10.000Z</time>
      </trkpt>
      <trkpt lat="42.213595" lon="-8.73143167">
        <ele>18.0</ele>
        <time>2018-05-14T11:36:11.000Z</time>
      </trkpt>
      <trkpt lat="42.213565" lon="-8.73144833">
        <ele>18.0</ele>
        <time>2018-05-14T11:36:12.000Z</time>
      </trkpt>
      <trkpt lat="42.21353833" lon="-8.731465">
        <ele>18.0</ele>
        <time>2018-05-14T11:36:13.000Z</time>
      </trkpt>
      <trkpt lat="42.21351" lon="-8.73148667">
        <ele>18.0</ele>
        <time>2018-05-14T11:36:14.000Z</time>
      </trkpt>
      <trkpt lat="42.21348167" lon="-8.73150833">
        <ele>18.0</ele>
        <time>2018-05-14T11:36:15.000Z</time>
      </trkpt>
      <trkpt lat="42.213455" lon="-8.73152833">
        <ele>18.0</ele>
        <time>2018-05-14T11:36:16.000Z</time>
      </trkpt>
      <trkpt lat="42.21343" lon="-8.73154833">
        <ele>18.0</ele>
        <time>2018-05-14T11:36:17.000Z</time>
      </trkpt>
      <trkpt lat="42.21340167" lon="-8.73156833">
        <ele>18.0</ele>
        <time>2018-05-14T11:36:18.000Z</time>
      </trkpt>
      <trkpt lat="42.21337333" lon="-8.73158667">
        <ele>18.0</ele>
        <time>2018-05-14T11:36:19.000Z</time>
      </trkpt>
      <trkpt lat="42.213345" lon="-8.73160333">
        <ele>19.0</ele>
        <time>2018-05-14T11:36:20.000Z</time>
      </trkpt>
      <trkpt lat="42.21331667" lon="-8.73161833">
        <ele>19.0</ele>
        <time>2018-05-14T11:36:21.000Z</time>
      </trkpt>
      <trkpt lat="42.213285" lon="-8.73163667">
        <ele>19.0</ele>
        <time>2018-05-14T11:36:22.000Z</time>
      </trkpt>
      <trkpt lat="42.213255" lon="-8.73166">
        <ele>19.0</ele>
        <time>2018-05-14T11:36:23.000Z</time>
      </trkpt>
      <trkpt lat="42.21322833" lon="-8.73168167">
        <ele>19.0</ele>
        <time>2018-05-14T11:36:24.000Z</time>
      </trkpt>
      <trkpt lat="42.21320333" lon="-8.73170167">
        <ele>20.0</ele>
        <time>2018-05-14T11:36:25.000Z</time>
      </trkpt>
      <trkpt lat="42.21318167" lon="-8.73171667">
        <ele>20.0</ele>
        <time>2018-05-14T11:36:26.000Z</time>
      </trkpt>
      <trkpt lat="42.21316" lon="-8.73173333">
        <ele>20.0</ele>
        <time>2018-05-14T11:36:27.000Z</time>
      </trkpt>
      <trkpt lat="42.21314" lon="-8.73174833">
        <ele>20.0</ele>
        <time>2018-05-14T11:36:28.000Z</time>
      </trkpt>
      <trkpt lat="42.213115" lon="-8.73176167">
        <ele>21.0</ele>
        <time>2018-05-14T11:36:29.000Z</time>
      </trkpt>
      <trkpt lat="42.21308833" lon="-8.731775">
        <ele>21.0</ele>
        <time>2018-05-14T11:36:30.000Z</time>
      </trkpt>
      <trkpt lat="42.21305833" lon="-8.73178667">
        <ele>21.0</ele>
        <time>2018-05-14T11:36:31.000Z</time>
      </trkpt>
      <trkpt lat="42.21302833" lon="-8.73179167">
        <ele>21.0</ele>
        <time>2018-05-14T11:36:32.000Z</time>
      </trkpt>
      <trkpt lat="42.21299833" lon="-8.73179333">
        <ele>21.0</ele>
        <time>2018-05-14T11:36:33.000Z</time>
      </trkpt>
      <trkpt lat="42.21296833" lon="-8.73179">
        <ele>22.0</ele>
        <time>2018-05-14T11:36:34.000Z</time>
      </trkpt>
      <trkpt lat="42.21294333" lon="-8.73178">
        <ele>22.0</ele>
        <time>2018-05-14T11:36:35.000Z</time>
      </trkpt>
      <trkpt lat="42.21292167" lon="-8.731765">
        <ele>22.0</ele>
        <time>2018-05-14T11:36:36.000Z</time>
      </trkpt>
      <trkpt lat="42.21290333" lon="-8.73174333">
        <ele>21.0</ele>
        <time>2018-05-14T11:36:37.000Z</time>
      </trkpt>
      <trkpt lat="42.21289" lon="-8.73172167">
        <ele>21.0</ele>
        <time>2018-05-14T11:36:38.000Z</time>
      </trkpt>
      <trkpt lat="42.21288333" lon="-8.73169">
        <ele>21.0</ele>
        <time>2018-05-14T11:36:39.000Z</time>
      </trkpt>
      <trkpt lat="42.21288333" lon="-8.73164833">
        <ele>21.0</ele>
        <time>2018-05-14T11:36:40.000Z</time>
      </trkpt>
      <trkpt lat="42.21288167" lon="-8.731605">
        <ele>21.0</ele>
        <time>2018-05-14T11:36:41.000Z</time>
      </trkpt>
      <trkpt lat="42.21288333" lon="-8.73156167">
        <ele>21.0</ele>
        <time>2018-05-14T11:36:42.000Z</time>
      </trkpt>
      <trkpt lat="42.21288333" lon="-8.73152">
        <ele>21.0</ele>
        <time>2018-05-14T11:36:43.000Z</time>
      </trkpt>
      <trkpt lat="42.212885" lon="-8.73148">
        <ele>21.0</ele>
        <time>2018-05-14T11:36:44.000Z</time>
      </trkpt>
      <trkpt lat="42.212885" lon="-8.73143833">
        <ele>21.0</ele>
        <time>2018-05-14T11:36:45.000Z</time>
      </trkpt>
      <trkpt lat="42.21288667" lon="-8.73139833">
        <ele>21.0</ele>
        <time>2018-05-14T11:36:46.000Z</time>
      </trkpt>
      <trkpt lat="42.21288833" lon="-8.731355">
        <ele>21.0</ele>
        <time>2018-05-14T11:36:47.000Z</time>
      </trkpt>
      <trkpt lat="42.21289333" lon="-8.731315">
        <ele>20.0</ele>
        <time>2018-05-14T11:36:48.000Z</time>
      </trkpt>
      <trkpt lat="42.21290167" lon="-8.73127333">
        <ele>20.0</ele>
        <time>2018-05-14T11:36:49.000Z</time>
      </trkpt>
      <trkpt lat="42.21291667" lon="-8.73122667">
        <ele>20.0</ele>
        <time>2018-05-14T11:36:50.000Z</time>
      </trkpt>
      <trkpt lat="42.21293167" lon="-8.73118167">
        <ele>20.0</ele>
        <time>2018-05-14T11:36:51.000Z</time>
      </trkpt>
      <trkpt lat="42.21295" lon="-8.73113833">
        <ele>20.0</ele>
        <time>2018-05-14T11:36:52.000Z</time>
      </trkpt>
      <trkpt lat="42.21297" lon="-8.73109167">
        <ele>20.0</ele>
        <time>2018-05-14T11:36:53.000Z</time>
      </trkpt>
      <trkpt lat="42.21299" lon="-8.73104833">
        <ele>20.0</ele>
        <time>2018-05-14T11:36:54.000Z</time>
      </trkpt>
      <trkpt lat="42.21300833" lon="-8.731005">
        <ele>20.0</ele>
        <time>2018-05-14T11:36:55.000Z</time>
      </trkpt>
      <trkpt lat="42.21303" lon="-8.73095833">
        <ele>19.0</ele>
        <time>2018-05-14T11:36:56.000Z</time>
      </trkpt>
      <trkpt lat="42.21305" lon="-8.73091667">
        <ele>19.0</ele>
        <time>2018-05-14T11:36:57.000Z</time>
      </trkpt>
      <trkpt lat="42.21307" lon="-8.73087667">
        <ele>19.0</ele>
        <time>2018-05-14T11:36:58.000Z</time>
      </trkpt>
      <trkpt lat="42.21309" lon="-8.73083667">
        <ele>19.0</ele>
        <time>2018-05-14T11:36:59.000Z</time>
      </trkpt>
      <trkpt lat="42.21311" lon="-8.73079667">
        <ele>19.0</ele>
        <time>2018-05-14T11:37:00.000Z</time>
      </trkpt>
      <trkpt lat="42.21313" lon="-8.73075667">
        <ele>19.0</ele>
        <time>2018-05-14T11:37:01.000Z</time>
      </trkpt>
      <trkpt lat="42.21315" lon="-8.73072">
        <ele>19.0</ele>
        <time>2018-05-14T11:37:02.000Z</time>
      </trkpt>
      <trkpt lat="42.21317" lon="-8.730685">
        <ele>19.0</ele>
        <time>2018-05-14T11:37:03.000Z</time>
      </trkpt>
      <trkpt lat="42.21318833" lon="-8.73065333">
        <ele>19.0</ele>
        <time>2018-05-14T11:37:04.000Z</time>
      </trkpt>
      <trkpt lat="42.21320667" lon="-8.73062667">
        <ele>19.0</ele>
        <time>2018-05-14T11:37:05.000Z</time>
      </trkpt>
      <trkpt lat="42.21322833" lon="-8.73060333">
        <ele>19.0</ele>
        <time>2018-05-14T11:37:06.000Z</time>
      </trkpt>
      <trkpt lat="42.21325333" lon="-8.730585">
        <ele>19.0</ele>
        <time>2018-05-14T11:37:07.000Z</time>
      </trkpt>
      <trkpt lat="42.21328" lon="-8.73056833">
        <ele>19.0</ele>
        <time>2018-05-14T11:37:08.000Z</time>
      </trkpt>
      <trkpt lat="42.21331167" lon="-8.730555">
        <ele>20.0</ele>
        <time>2018-05-14T11:37:09.000Z</time>
      </trkpt>
      <trkpt lat="42.213345" lon="-8.730545">
        <ele>20.0</ele>
        <time>2018-05-14T11:37:10.000Z</time>
      </trkpt>
      <trkpt lat="42.21337667" lon="-8.73053333">
        <ele>20.0</ele>
        <time>2018-05-14T11:37:11.000Z</time>
      </trkpt>
      <trkpt lat="42.21341167" lon="-8.73052167">
        <ele>20.0</ele>
        <time>2018-05-14T11:37:12.000Z</time>
      </trkpt>
      <trkpt lat="42.21345" lon="-8.73050833">
        <ele>20.0</ele>
        <time>2018-05-14T11:37:13.000Z</time>
      </trkpt>
      <trkpt lat="42.21348667" lon="-8.73049333">
        <ele>20.0</ele>
        <time>2018-05-14T11:37:14.000Z</time>
      </trkpt>
      <trkpt lat="42.21352167" lon="-8.73048">
        <ele>21.0</ele>
        <time>2018-05-14T11:37:15.000Z</time>
      </trkpt>
      <trkpt lat="42.21355667" lon="-8.73046833">
        <ele>21.0</ele>
        <time>2018-05-14T11:37:16.000Z</time>
      </trkpt>
      <trkpt lat="42.21359333" lon="-8.73045833">
        <ele>21.0</ele>
        <time>2018-05-14T11:37:17.000Z</time>
      </trkpt>
      <trkpt lat="42.21363167" lon="-8.73045">
        <ele>22.0</ele>
        <time>2018-05-14T11:37:18.000Z</time>
      </trkpt>
      <trkpt lat="42.21367" lon="-8.73044333">
        <ele>22.0</ele>
        <time>2018-05-14T11:37:19.000Z</time>
      </trkpt>
      <trkpt lat="42.21370833" lon="-8.73044">
        <ele>22.0</ele>
        <time>2018-05-14T11:37:20.000Z</time>
      </trkpt>
      <trkpt lat="42.213745" lon="-8.73043333">
        <ele>22.0</ele>
        <time>2018-05-14T11:37:21.000Z</time>
      </trkpt>
      <trkpt lat="42.21378333" lon="-8.73042667">
        <ele>23.0</ele>
        <time>2018-05-14T11:37:22.000Z</time>
      </trkpt>
      <trkpt lat="42.21382" lon="-8.73041833">
        <ele>23.0</ele>
        <time>2018-05-14T11:37:23.000Z</time>
      </trkpt>
      <trkpt lat="42.213855" lon="-8.73041167">
        <ele>23.0</ele>
        <time>2018-05-14T11:37:24.000Z</time>
      </trkpt>
      <trkpt lat="42.21389" lon="-8.730405">
        <ele>23.0</ele>
        <time>2018-05-14T11:37:25.000Z</time>
      </trkpt>
      <trkpt lat="42.21392" lon="-8.73040167">
        <ele>23.0</ele>
        <time>2018-05-14T11:37:26.000Z</time>
      </trkpt>
      <trkpt lat="42.213955" lon="-8.730395">
        <ele>24.0</ele>
        <time>2018-05-14T11:37:27.000Z</time>
      </trkpt>
      <trkpt lat="42.21399" lon="-8.73038167">
        <ele>24.0</ele>
        <time>2018-05-14T11:37:28.000Z</time>
      </trkpt>
      <trkpt lat="42.21402333" lon="-8.73036833">
        <ele>24.0</ele>
        <time>2018-05-14T11:37:29.000Z</time>
      </trkpt>
      <trkpt lat="42.21405167" lon="-8.73035333">
        <ele>24.0</ele>
        <time>2018-05-14T11:37:30.000Z</time>
      </trkpt>
      <trkpt lat="42.21408" lon="-8.73033167">
        <ele>24.0</ele>
        <time>2018-05-14T11:37:31.000Z</time>
      </trkpt>
      <trkpt lat="42.21410667" lon="-8.73030667">
        <ele>24.0</ele>
        <time>2018-05-14T11:37:32.000Z</time>
      </trkpt>
      <trkpt lat="42.21413333" lon="-8.73028167">
        <ele>24.0</ele>
        <time>2018-05-14T11:37:33.000Z</time>
      </trkpt>
      <trkpt lat="42.21415833" lon="-8.73025667">
        <ele>24.0</ele>
        <time>2018-05-14T11:37:34.000Z</time>
      </trkpt>
      <trkpt lat="42.21418167" lon="-8.73023">
        <ele>24.0</ele>
        <time>2018-05-14T11:37:35.000Z</time>
      </trkpt>
      <trkpt lat="42.214205" lon="-8.730205">
        <ele>24.0</ele>
        <time>2018-05-14T11:37:36.000Z</time>
      </trkpt>
      <trkpt lat="42.21423167" lon="-8.73017667">
        <ele>24.0</ele>
        <time>2018-05-14T11:37:37.000Z</time>
      </trkpt>
      <trkpt lat="42.21425667" lon="-8.73014833">
        <ele>25.0</ele>
        <time>2018-05-14T11:37:38.000Z</time>
      </trkpt>
      <trkpt lat="42.21428333" lon="-8.73012167">
        <ele>25.0</ele>
        <time>2018-05-14T11:37:39.000Z</time>
      </trkpt>
      <trkpt lat="42.21430667" lon="-8.730095">
        <ele>25.0</ele>
        <time>2018-05-14T11:37:40.000Z</time>
      </trkpt>
      <trkpt lat="42.21433" lon="-8.73006667">
        <ele>25.0</ele>
        <time>2018-05-14T11:37:41.000Z</time>
      </trkpt>
      <trkpt lat="42.21435167" lon="-8.73003333">
        <ele>25.0</ele>
        <time>2018-05-14T11:37:42.000Z</time>
      </trkpt>
      <trkpt lat="42.21437333" lon="-8.73">
        <ele>25.0</ele>
        <time>2018-05-14T11:37:43.000Z</time>
      </trkpt>
      <trkpt lat="42.21439333" lon="-8.729965">
        <ele>25.0</ele>
        <time>2018-05-14T11:37:44.000Z</time>
      </trkpt>
      <trkpt lat="42.21441167" lon="-8.72992833">
        <ele>25.0</ele>
        <time>2018-05-14T11:37:45.000Z</time>
      </trkpt>
      <trkpt lat="42.21442833" lon="-8.72989333">
        <ele>25.0</ele>
        <time>2018-05-14T11:37:46.000Z</time>
      </trkpt>
      <trkpt lat="42.21444667" lon="-8.72986">
        <ele>25.0</ele>
        <time>2018-05-14T11:37:47.000Z</time>
      </trkpt>
      <trkpt lat="42.21446333" lon="-8.72982667">
        <ele>25.0</ele>
        <time>2018-05-14T11:37:48.000Z</time>
      </trkpt>
      <trkpt lat="42.21447833" lon="-8.72979333">
        <ele>25.0</ele>
        <time>2018-05-14T11:37:49.000Z</time>
      </trkpt>
      <trkpt lat="42.21449167" lon="-8.72976167">
        <ele>25.0</ele>
        <time>2018-05-14T11:37:50.000Z</time>
      </trkpt>
      <trkpt lat="42.21450667" lon="-8.72973">
        <ele>25.0</ele>
        <time>2018-05-14T11:37:51.000Z</time>
      </trkpt>
      <trkpt lat="42.21451833" lon="-8.7297">
        <ele>25.0</ele>
        <time>2018-05-14T11:37:52.000Z</time>
      </trkpt>
      <trkpt lat="42.21453167" lon="-8.72967167">
        <ele>25.0</ele>
        <time>2018-05-14T11:37:53.000Z</time>
      </trkpt>
      <trkpt lat="42.214545" lon="-8.729645">
        <ele>26.0</ele>
        <time>2018-05-14T11:37:54.000Z</time>
      </trkpt>
      <trkpt lat="42.21455833" lon="-8.72961833">
        <ele>26.0</ele>
        <time>2018-05-14T11:37:55.000Z</time>
      </trkpt>
      <trkpt lat="42.21457" lon="-8.729595">
        <ele>26.0</ele>
        <time>2018-05-14T11:37:56.000Z</time>
      </trkpt>
      <trkpt lat="42.21458667" lon="-8.72957333">
        <ele>26.0</ele>
        <time>2018-05-14T11:37:57.000Z</time>
      </trkpt>
      <trkpt lat="42.21460667" lon="-8.72955333">
        <ele>26.0</ele>
        <time>2018-05-14T11:37:58.000Z</time>
      </trkpt>
      <trkpt lat="42.21462333" lon="-8.72953">
        <ele>27.0</ele>
        <time>2018-05-14T11:37:59.000Z</time>
      </trkpt>
      <trkpt lat="42.214645" lon="-8.72950333">
        <ele>27.0</ele>
        <time>2018-05-14T11:38:00.000Z</time>
      </trkpt>
      <trkpt lat="42.21466833" lon="-8.72947667">
        <ele>27.0</ele>
        <time>2018-05-14T11:38:01.000Z</time>
      </trkpt>
      <trkpt lat="42.21469" lon="-8.72945">
        <ele>27.0</ele>
        <time>2018-05-14T11:38:02.000Z</time>
      </trkpt>
      <trkpt lat="42.21471333" lon="-8.72942333">
        <ele>27.0</ele>
        <time>2018-05-14T11:38:03.000Z</time>
      </trkpt>
      <trkpt lat="42.21473667" lon="-8.729395">
        <ele>27.0</ele>
        <time>2018-05-14T11:38:04.000Z</time>
      </trkpt>
      <trkpt lat="42.21475833" lon="-8.72936167">
        <ele>27.0</ele>
        <time>2018-05-14T11:38:05.000Z</time>
      </trkpt>
      <trkpt lat="42.214785" lon="-8.72933">
        <ele>27.0</ele>
        <time>2018-05-14T11:38:06.000Z</time>
      </trkpt>
      <trkpt lat="42.21481" lon="-8.72929833">
        <ele>27.0</ele>
        <time>2018-05-14T11:38:07.000Z</time>
      </trkpt>
      <trkpt lat="42.214835" lon="-8.72926833">
        <ele>28.0</ele>
        <time>2018-05-14T11:38:08.000Z</time>
      </trkpt>
      <trkpt lat="42.21485833" lon="-8.72924">
        <ele>28.0</ele>
        <time>2018-05-14T11:38:09.000Z</time>
      </trkpt>
      <trkpt lat="42.214885" lon="-8.729215">
        <ele>28.0</ele>
        <time>2018-05-14T11:38:10.000Z</time>
      </trkpt>
      <trkpt lat="42.21491" lon="-8.72919">
        <ele>28.0</ele>
        <time>2018-05-14T11:38:11.000Z</time>
      </trkpt>
      <trkpt lat="42.21493667" lon="-8.72916833">
        <ele>28.0</ele>
        <time>2018-05-14T11:38:12.000Z</time>
      </trkpt>
      <trkpt lat="42.21496167" lon="-8.729145">
        <ele>28.0</ele>
        <time>2018-05-14T11:38:13.000Z</time>
      </trkpt>
      <trkpt lat="42.214985" lon="-8.729125">
        <ele>28.0</ele>
        <time>2018-05-14T11:38:14.000Z</time>
      </trkpt>
      <trkpt lat="42.21501167" lon="-8.729105">
        <ele>28.0</ele>
        <time>2018-05-14T11:38:15.000Z</time>
      </trkpt>
      <trkpt lat="42.21504" lon="-8.729085">
        <ele>28.0</ele>
        <time>2018-05-14T11:38:16.000Z</time>
      </trkpt>
      <trkpt lat="42.21507167" lon="-8.729065">
        <ele>29.0</ele>
        <time>2018-05-14T11:38:17.000Z</time>
      </trkpt>
      <trkpt lat="42.21510167" lon="-8.72904333">
        <ele>29.0</ele>
        <time>2018-05-14T11:38:18.000Z</time>
      </trkpt>
      <trkpt lat="42.21513333" lon="-8.72902167">
        <ele>29.0</ele>
        <time>2018-05-14T11:38:19.000Z</time>
      </trkpt>
      <trkpt lat="42.21516667" lon="-8.72899833">
        <ele>29.0</ele>
        <time>2018-05-14T11:38:20.000Z</time>
      </trkpt>
      <trkpt lat="42.21519833" lon="-8.72897667">
        <ele>29.0</ele>
        <time>2018-05-14T11:38:21.000Z</time>
      </trkpt>
      <trkpt lat="42.21522667" lon="-8.72895833">
        <ele>29.0</ele>
        <time>2018-05-14T11:38:22.000Z</time>
      </trkpt>
      <trkpt lat="42.21525833" lon="-8.728935">
        <ele>29.0</ele>
        <time>2018-05-14T11:38:23.000Z</time>
      </trkpt>
      <trkpt lat="42.21529" lon="-8.72891333">
        <ele>29.0</ele>
        <time>2018-05-14T11:38:24.000Z</time>
      </trkpt>
      <trkpt lat="42.21532167" lon="-8.72889167">
        <ele>29.0</ele>
        <time>2018-05-14T11:38:25.000Z</time>
      </trkpt>
      <trkpt lat="42.21535333" lon="-8.72887167">
        <ele>29.0</ele>
        <time>2018-05-14T11:38:26.000Z</time>
      </trkpt>
      <trkpt lat="42.215385" lon="-8.72884833">
        <ele>29.0</ele>
        <time>2018-05-14T11:38:27.000Z</time>
      </trkpt>
      <trkpt lat="42.215415" lon="-8.728825">
        <ele>29.0</ele>
        <time>2018-05-14T11:38:28.000Z</time>
      </trkpt>
      <trkpt lat="42.215445" lon="-8.72880167">
        <ele>29.0</ele>
        <time>2018-05-14T11:38:29.000Z</time>
      </trkpt>
      <trkpt lat="42.21547333" lon="-8.72877667">
        <ele>29.0</ele>
        <time>2018-05-14T11:38:30.000Z</time>
      </trkpt>
      <trkpt lat="42.2155" lon="-8.72875167">
        <ele>29.0</ele>
        <time>2018-05-14T11:38:31.000Z</time>
      </trkpt>
      <trkpt lat="42.21552167" lon="-8.72872167">
        <ele>29.0</ele>
        <time>2018-05-14T11:38:32.000Z</time>
      </trkpt>
      <trkpt lat="42.21554" lon="-8.72869">
        <ele>29.0</ele>
        <time>2018-05-14T11:38:33.000Z</time>
      </trkpt>
      <trkpt lat="42.21555833" lon="-8.72865833">
        <ele>29.0</ele>
        <time>2018-05-14T11:38:34.000Z</time>
      </trkpt>
      <trkpt lat="42.21557333" lon="-8.72862333">
        <ele>29.0</ele>
        <time>2018-05-14T11:38:35.000Z</time>
      </trkpt>
      <trkpt lat="42.21559" lon="-8.72859">
        <ele>29.0</ele>
        <time>2018-05-14T11:38:36.000Z</time>
      </trkpt>
      <trkpt lat="42.21560333" lon="-8.72855833">
        <ele>29.0</ele>
        <time>2018-05-14T11:38:37.000Z</time>
      </trkpt>
      <trkpt lat="42.21561833" lon="-8.728525">
        <ele>29.0</ele>
        <time>2018-05-14T11:38:38.000Z</time>
      </trkpt>
      <trkpt lat="42.21563167" lon="-8.72849167">
        <ele>29.0</ele>
        <time>2018-05-14T11:38:39.000Z</time>
      </trkpt>
      <trkpt lat="42.21565" lon="-8.72845833">
        <ele>30.0</ele>
        <time>2018-05-14T11:38:40.000Z</time>
      </trkpt>
      <trkpt lat="42.21566667" lon="-8.72842333">
        <ele>30.0</ele>
        <time>2018-05-14T11:38:41.000Z</time>
      </trkpt>
      <trkpt lat="42.21568333" lon="-8.72838833">
        <ele>30.0</ele>
        <time>2018-05-14T11:38:42.000Z</time>
      </trkpt>
      <trkpt lat="42.2157" lon="-8.72834833">
        <ele>30.0</ele>
        <time>2018-05-14T11:38:43.000Z</time>
      </trkpt>
      <trkpt lat="42.21572" lon="-8.72831">
        <ele>30.0</ele>
        <time>2018-05-14T11:38:44.000Z</time>
      </trkpt>
      <trkpt lat="42.21573667" lon="-8.72827333">
        <ele>30.0</ele>
        <time>2018-05-14T11:38:45.000Z</time>
      </trkpt>
      <trkpt lat="42.215755" lon="-8.72824">
        <ele>30.0</ele>
        <time>2018-05-14T11:38:46.000Z</time>
      </trkpt>
      <trkpt lat="42.21577" lon="-8.72821333">
        <ele>30.0</ele>
        <time>2018-05-14T11:38:47.000Z</time>
      </trkpt>
      <trkpt lat="42.21578667" lon="-8.72819167">
        <ele>30.0</ele>
        <time>2018-05-14T11:38:48.000Z</time>
      </trkpt>
      <trkpt lat="42.21580167" lon="-8.72816667">
        <ele>31.0</ele>
        <time>2018-05-14T11:38:49.000Z</time>
      </trkpt>
      <trkpt lat="42.21582" lon="-8.72814167">
        <ele>31.0</ele>
        <time>2018-05-14T11:38:50.000Z</time>
      </trkpt>
      <trkpt lat="42.21583833" lon="-8.72811667">
        <ele>31.0</ele>
        <time>2018-05-14T11:38:51.000Z</time>
      </trkpt>
      <trkpt lat="42.21585667" lon="-8.72809">
        <ele>31.0</ele>
        <time>2018-05-14T11:38:52.000Z</time>
      </trkpt>
      <trkpt lat="42.21587667" lon="-8.72806333">
        <ele>31.0</ele>
        <time>2018-05-14T11:38:53.000Z</time>
      </trkpt>
      <trkpt lat="42.21589833" lon="-8.72803667">
        <ele>31.0</ele>
        <time>2018-05-14T11:38:54.000Z</time>
      </trkpt>
      <trkpt lat="42.21592333" lon="-8.72800833">
        <ele>31.0</ele>
        <time>2018-05-14T11:38:55.000Z</time>
      </trkpt>
      <trkpt lat="42.21594667" lon="-8.72798">
        <ele>31.0</ele>
        <time>2018-05-14T11:38:56.000Z</time>
      </trkpt>
      <trkpt lat="42.21597333" lon="-8.72795167">
        <ele>31.0</ele>
        <time>2018-05-14T11:38:57.000Z</time>
      </trkpt>
      <trkpt lat="42.21599833" lon="-8.72792333">
        <ele>31.0</ele>
        <time>2018-05-14T11:38:58.000Z</time>
      </trkpt>
      <trkpt lat="42.21602667" lon="-8.72789167">
        <ele>31.0</ele>
        <time>2018-05-14T11:38:59.000Z</time>
      </trkpt>
      <trkpt lat="42.21605333" lon="-8.72786">
        <ele>31.0</ele>
        <time>2018-05-14T11:39:00.000Z</time>
      </trkpt>
      <trkpt lat="42.21608167" lon="-8.727825">
        <ele>31.0</ele>
        <time>2018-05-14T11:39:01.000Z</time>
      </trkpt>
      <trkpt lat="42.21610833" lon="-8.72778833">
        <ele>31.0</ele>
        <time>2018-05-14T11:39:02.000Z</time>
      </trkpt>
      <trkpt lat="42.216135" lon="-8.72775">
        <ele>31.0</ele>
        <time>2018-05-14T11:39:03.000Z</time>
      </trkpt>
      <trkpt lat="42.21615667" lon="-8.72771167">
        <ele>31.0</ele>
        <time>2018-05-14T11:39:04.000Z</time>
      </trkpt>
      <trkpt lat="42.21617833" lon="-8.72767167">
        <ele>31.0</ele>
        <time>2018-05-14T11:39:05.000Z</time>
      </trkpt>
      <trkpt lat="42.21620333" lon="-8.72763667">
        <ele>31.0</ele>
        <time>2018-05-14T11:39:06.000Z</time>
      </trkpt>
      <trkpt lat="42.21622667" lon="-8.72760167">
        <ele>31.0</ele>
        <time>2018-05-14T11:39:07.000Z</time>
      </trkpt>
      <trkpt lat="42.21624833" lon="-8.72757">
        <ele>31.0</ele>
        <time>2018-05-14T11:39:08.000Z</time>
      </trkpt>
      <trkpt lat="42.21627" lon="-8.72753833">
        <ele>31.0</ele>
        <time>2018-05-14T11:39:09.000Z</time>
      </trkpt>
      <trkpt lat="42.21629333" lon="-8.72751">
        <ele>31.0</ele>
        <time>2018-05-14T11:39:10.000Z</time>
      </trkpt>
      <trkpt lat="42.21631667" lon="-8.72748667">
        <ele>31.0</ele>
        <time>2018-05-14T11:39:11.000Z</time>
      </trkpt>
      <trkpt lat="42.21634167" lon="-8.727475">
        <ele>31.0</ele>
        <time>2018-05-14T11:39:12.000Z</time>
      </trkpt>
      <trkpt lat="42.21636667" lon="-8.72746667">
        <ele>31.0</ele>
        <time>2018-05-14T11:39:13.000Z</time>
      </trkpt>
      <trkpt lat="42.21639333" lon="-8.72745833">
        <ele>31.0</ele>
        <time>2018-05-14T11:39:14.000Z</time>
      </trkpt>
      <trkpt lat="42.21642333" lon="-8.72745167">
        <ele>31.0</ele>
        <time>2018-05-14T11:39:15.000Z</time>
      </trkpt>
      <trkpt lat="42.21645333" lon="-8.727445">
        <ele>31.0</ele>
        <time>2018-05-14T11:39:16.000Z</time>
      </trkpt>
      <trkpt lat="42.21648333" lon="-8.72743333">
        <ele>31.0</ele>
        <time>2018-05-14T11:39:17.000Z</time>
      </trkpt>
      <trkpt lat="42.216515" lon="-8.72741833">
        <ele>31.0</ele>
        <time>2018-05-14T11:39:18.000Z</time>
      </trkpt>
      <trkpt lat="42.216545" lon="-8.72740333">
        <ele>31.0</ele>
        <time>2018-05-14T11:39:19.000Z</time>
      </trkpt>
      <trkpt lat="42.216575" lon="-8.727385">
        <ele>31.0</ele>
        <time>2018-05-14T11:39:20.000Z</time>
      </trkpt>
      <trkpt lat="42.21660667" lon="-8.72736333">
        <ele>31.0</ele>
        <time>2018-05-14T11:39:21.000Z</time>
      </trkpt>
      <trkpt lat="42.21663833" lon="-8.72733833">
        <ele>31.0</ele>
        <time>2018-05-14T11:39:22.000Z</time>
      </trkpt>
      <trkpt lat="42.21666667" lon="-8.72731167">
        <ele>31.0</ele>
        <time>2018-05-14T11:39:23.000Z</time>
      </trkpt>
      <trkpt lat="42.21668833" lon="-8.72728167">
        <ele>31.0</ele>
        <time>2018-05-14T11:39:24.000Z</time>
      </trkpt>
      <trkpt lat="42.21671333" lon="-8.72725">
        <ele>31.0</ele>
        <time>2018-05-14T11:39:25.000Z</time>
      </trkpt>
      <trkpt lat="42.21673667" lon="-8.727215">
        <ele>31.0</ele>
        <time>2018-05-14T11:39:26.000Z</time>
      </trkpt>
      <trkpt lat="42.21676" lon="-8.72717667">
        <ele>30.0</ele>
        <time>2018-05-14T11:39:27.000Z</time>
      </trkpt>
      <trkpt lat="42.21677833" lon="-8.727135">
        <ele>30.0</ele>
        <time>2018-05-14T11:39:28.000Z</time>
      </trkpt>
      <trkpt lat="42.216795" lon="-8.72709333">
        <ele>30.0</ele>
        <time>2018-05-14T11:39:29.000Z</time>
      </trkpt>
      <trkpt lat="42.21681333" lon="-8.72704667">
        <ele>30.0</ele>
        <time>2018-05-14T11:39:30.000Z</time>
      </trkpt>
      <trkpt lat="42.21682833" lon="-8.72700333">
        <ele>29.0</ele>
        <time>2018-05-14T11:39:31.000Z</time>
      </trkpt>
      <trkpt lat="42.21684167" lon="-8.72696333">
        <ele>29.0</ele>
        <time>2018-05-14T11:39:32.000Z</time>
      </trkpt>
      <trkpt lat="42.216855" lon="-8.72691667">
        <ele>29.0</ele>
        <time>2018-05-14T11:39:33.000Z</time>
      </trkpt>
      <trkpt lat="42.21686833" lon="-8.72687667">
        <ele>28.0</ele>
        <time>2018-05-14T11:39:34.000Z</time>
      </trkpt>
      <trkpt lat="42.21687667" lon="-8.72683667">
        <ele>28.0</ele>
        <time>2018-05-14T11:39:35.000Z</time>
      </trkpt>
      <trkpt lat="42.21688667" lon="-8.72679833">
        <ele>28.0</ele>
        <time>2018-05-14T11:39:36.000Z</time>
      </trkpt>
      <trkpt lat="42.21689667" lon="-8.72676">
        <ele>28.0</ele>
        <time>2018-05-14T11:39:37.000Z</time>
      </trkpt>
      <trkpt lat="42.216905" lon="-8.72672167">
        <ele>27.0</ele>
        <time>2018-05-14T11:39:38.000Z</time>
      </trkpt>
      <trkpt lat="42.21691" lon="-8.72668333">
        <ele>27.0</ele>
        <time>2018-05-14T11:39:39.000Z</time>
      </trkpt>
      <trkpt lat="42.21691833" lon="-8.72664333">
        <ele>27.0</ele>
        <time>2018-05-14T11:39:40.000Z</time>
      </trkpt>
      <trkpt lat="42.21692667" lon="-8.72660167">
        <ele>27.0</ele>
        <time>2018-05-14T11:39:41.000Z</time>
      </trkpt>
      <trkpt lat="42.216935" lon="-8.72655833">
        <ele>27.0</ele>
        <time>2018-05-14T11:39:42.000Z</time>
      </trkpt>
      <trkpt lat="42.21694333" lon="-8.726515">
        <ele>26.0</ele>
        <time>2018-05-14T11:39:43.000Z</time>
      </trkpt>
      <trkpt lat="42.21695333" lon="-8.72647167">
        <ele>26.0</ele>
        <time>2018-05-14T11:39:44.000Z</time>
      </trkpt>
      <trkpt lat="42.21696167" lon="-8.72643">
        <ele>26.0</ele>
        <time>2018-05-14T11:39:45.000Z</time>
      </trkpt>
      <trkpt lat="42.21697" lon="-8.72638833">
        <ele>26.0</ele>
        <time>2018-05-14T11:39:46.000Z</time>
      </trkpt>
      <trkpt lat="42.21697833" lon="-8.72634333">
        <ele>26.0</ele>
        <time>2018-05-14T11:39:47.000Z</time>
      </trkpt>
      <trkpt lat="42.216985" lon="-8.72630167">
        <ele>25.0</ele>
        <time>2018-05-14T11:39:48.000Z</time>
      </trkpt>
      <trkpt lat="42.21699167" lon="-8.72626">
        <ele>25.0</ele>
        <time>2018-05-14T11:39:49.000Z</time>
      </trkpt>
      <trkpt lat="42.21699833" lon="-8.72621667">
        <ele>25.0</ele>
        <time>2018-05-14T11:39:50.000Z</time>
      </trkpt>
      <trkpt lat="42.217005" lon="-8.72617167">
        <ele>25.0</ele>
        <time>2018-05-14T11:39:51.000Z</time>
      </trkpt>
      <trkpt lat="42.21701167" lon="-8.726125">
        <ele>25.0</ele>
        <time>2018-05-14T11:39:52.000Z</time>
      </trkpt>
      <trkpt lat="42.21701833" lon="-8.72608333">
        <ele>25.0</ele>
        <time>2018-05-14T11:39:53.000Z</time>
      </trkpt>
      <trkpt lat="42.217025" lon="-8.72604333">
        <ele>24.0</ele>
        <time>2018-05-14T11:39:54.000Z</time>
      </trkpt>
      <trkpt lat="42.21703167" lon="-8.726005">
        <ele>24.0</ele>
        <time>2018-05-14T11:39:55.000Z</time>
      </trkpt>
      <trkpt lat="42.21704" lon="-8.72596833">
        <ele>24.0</ele>
        <time>2018-05-14T11:39:56.000Z</time>
      </trkpt>
      <trkpt lat="42.21704833" lon="-8.72593167">
        <ele>24.0</ele>
        <time>2018-05-14T11:39:57.000Z</time>
      </trkpt>
      <trkpt lat="42.217055" lon="-8.725895">
        <ele>24.0</ele>
        <time>2018-05-14T11:39:58.000Z</time>
      </trkpt>
      <trkpt lat="42.21706167" lon="-8.72586167">
        <ele>24.0</ele>
        <time>2018-05-14T11:39:59.000Z</time>
      </trkpt>
      <trkpt lat="42.21706833" lon="-8.72582833">
        <ele>24.0</ele>
        <time>2018-05-14T11:40:00.000Z</time>
      </trkpt>
      <trkpt lat="42.217075" lon="-8.725795">
        <ele>24.0</ele>
        <time>2018-05-14T11:40:01.000Z</time>
      </trkpt>
      <trkpt lat="42.21708" lon="-8.725765">
        <ele>23.0</ele>
        <time>2018-05-14T11:40:02.000Z</time>
      </trkpt>
      <trkpt lat="42.217085" lon="-8.72573667">
        <ele>23.0</ele>
        <time>2018-05-14T11:40:03.000Z</time>
      </trkpt>
      <trkpt lat="42.21709" lon="-8.72570167">
        <ele>23.0</ele>
        <time>2018-05-14T11:40:04.000Z</time>
      </trkpt>
      <trkpt lat="42.217095" lon="-8.725665">
        <ele>23.0</ele>
        <time>2018-05-14T11:40:05.000Z</time>
      </trkpt>
      <trkpt lat="42.21710167" lon="-8.72562333">
        <ele>23.0</ele>
        <time>2018-05-14T11:40:06.000Z</time>
      </trkpt>
      <trkpt lat="42.21711333" lon="-8.72558167">
        <ele>22.0</ele>
        <time>2018-05-14T11:40:07.000Z</time>
      </trkpt>
      <trkpt lat="42.21712667" lon="-8.72553667">
        <ele>22.0</ele>
        <time>2018-05-14T11:40:08.000Z</time>
      </trkpt>
      <trkpt lat="42.21714333" lon="-8.725495">
        <ele>22.0</ele>
        <time>2018-05-14T11:40:09.000Z</time>
      </trkpt>
      <trkpt lat="42.21716" lon="-8.725455">
        <ele>22.0</ele>
        <time>2018-05-14T11:40:10.000Z</time>
      </trkpt>
      <trkpt lat="42.21717833" lon="-8.72541667">
        <ele>22.0</ele>
        <time>2018-05-14T11:40:11.000Z</time>
      </trkpt>
      <trkpt lat="42.21719667" lon="-8.72538167">
        <ele>22.0</ele>
        <time>2018-05-14T11:40:12.000Z</time>
      </trkpt>
      <trkpt lat="42.21721667" lon="-8.72534667">
        <ele>21.0</ele>
        <time>2018-05-14T11:40:13.000Z</time>
      </trkpt>
      <trkpt lat="42.217235" lon="-8.72531">
        <ele>21.0</ele>
        <time>2018-05-14T11:40:14.000Z</time>
      </trkpt>
      <trkpt lat="42.21725167" lon="-8.72527333">
        <ele>21.0</ele>
        <time>2018-05-14T11:40:15.000Z</time>
      </trkpt>
      <trkpt lat="42.217265" lon="-8.72523333">
        <ele>21.0</ele>
        <time>2018-05-14T11:40:16.000Z</time>
      </trkpt>
      <trkpt lat="42.21727833" lon="-8.72519333">
        <ele>21.0</ele>
        <time>2018-05-14T11:40:17.000Z</time>
      </trkpt>
      <trkpt lat="42.21729167" lon="-8.72515">
        <ele>21.0</ele>
        <time>2018-05-14T11:40:18.000Z</time>
      </trkpt>
      <trkpt lat="42.21730167" lon="-8.72510833">
        <ele>20.0</ele>
        <time>2018-05-14T11:40:19.000Z</time>
      </trkpt>
      <trkpt lat="42.21731167" lon="-8.72506667">
        <ele>20.0</ele>
        <time>2018-05-14T11:40:20.000Z</time>
      </trkpt>
      <trkpt lat="42.21732" lon="-8.72502833">
        <ele>20.0</ele>
        <time>2018-05-14T11:40:21.000Z</time>
      </trkpt>
      <trkpt lat="42.217325" lon="-8.72499">
        <ele>20.0</ele>
        <time>2018-05-14T11:40:22.000Z</time>
      </trkpt>
      <trkpt lat="42.217325" lon="-8.72495167">
        <ele>20.0</ele>
        <time>2018-05-14T11:40:23.000Z</time>
      </trkpt>
      <trkpt lat="42.21732333" lon="-8.724915">
        <ele>20.0</ele>
        <time>2018-05-14T11:40:24.000Z</time>
      </trkpt>
      <trkpt lat="42.21732" lon="-8.72488333">
        <ele>20.0</ele>
        <time>2018-05-14T11:40:25.000Z</time>
      </trkpt>
      <trkpt lat="42.217315" lon="-8.72485333">
        <ele>20.0</ele>
        <time>2018-05-14T11:40:26.000Z</time>
      </trkpt>
      <trkpt lat="42.217305" lon="-8.72482333">
        <ele>20.0</ele>
        <time>2018-05-14T11:40:27.000Z</time>
      </trkpt>
      <trkpt lat="42.21729167" lon="-8.724795">
        <ele>20.0</ele>
        <time>2018-05-14T11:40:28.000Z</time>
      </trkpt>
      <trkpt lat="42.21728" lon="-8.724765">
        <ele>20.0</ele>
        <time>2018-05-14T11:40:29.000Z</time>
      </trkpt>
      <trkpt lat="42.21726833" lon="-8.724735">
        <ele>20.0</ele>
        <time>2018-05-14T11:40:30.000Z</time>
      </trkpt>
      <trkpt lat="42.217255" lon="-8.72470667">
        <ele>20.0</ele>
        <time>2018-05-14T11:40:31.000Z</time>
      </trkpt>
      <trkpt lat="42.21724" lon="-8.72468">
        <ele>20.0</ele>
        <time>2018-05-14T11:40:32.000Z</time>
      </trkpt>
      <trkpt lat="42.21722167" lon="-8.72465">
        <ele>20.0</ele>
        <time>2018-05-14T11:40:33.000Z</time>
      </trkpt>
      <trkpt lat="42.21720333" lon="-8.72461667">
        <ele>20.0</ele>
        <time>2018-05-14T11:40:34.000Z</time>
      </trkpt>
      <trkpt lat="42.21718333" lon="-8.72458">
        <ele>20.0</ele>
        <time>2018-05-14T11:40:35.000Z</time>
      </trkpt>
      <trkpt lat="42.217165" lon="-8.72454">
        <ele>20.0</ele>
        <time>2018-05-14T11:40:36.000Z</time>
      </trkpt>
      <trkpt lat="42.217145" lon="-8.7245">
        <ele>20.0</ele>
        <time>2018-05-14T11:40:37.000Z</time>
      </trkpt>
      <trkpt lat="42.21712667" lon="-8.72446167">
        <ele>19.0</ele>
        <time>2018-05-14T11:40:38.000Z</time>
      </trkpt>
      <trkpt lat="42.21710667" lon="-8.72442333">
        <ele>19.0</ele>
        <time>2018-05-14T11:40:39.000Z</time>
      </trkpt>
      <trkpt lat="42.217085" lon="-8.72438333">
        <ele>19.0</ele>
        <time>2018-05-14T11:40:40.000Z</time>
      </trkpt>
      <trkpt lat="42.217065" lon="-8.72434667">
        <ele>19.0</ele>
        <time>2018-05-14T11:40:41.000Z</time>
      </trkpt>
      <trkpt lat="42.217045" lon="-8.72431333">
        <ele>19.0</ele>
        <time>2018-05-14T11:40:42.000Z</time>
      </trkpt>
      <trkpt lat="42.21702333" lon="-8.72428167">
        <ele>19.0</ele>
        <time>2018-05-14T11:40:43.000Z</time>
      </trkpt>
      <trkpt lat="42.21699833" lon="-8.72425333">
        <ele>19.0</ele>
        <time>2018-05-14T11:40:44.000Z</time>
      </trkpt>
      <trkpt lat="42.21697333" lon="-8.72422833">
        <ele>19.0</ele>
        <time>2018-05-14T11:40:45.000Z</time>
      </trkpt>
      <trkpt lat="42.21694833" lon="-8.72420167">
        <ele>19.0</ele>
        <time>2018-05-14T11:40:46.000Z</time>
      </trkpt>
      <trkpt lat="42.21692333" lon="-8.72417333">
        <ele>19.0</ele>
        <time>2018-05-14T11:40:47.000Z</time>
      </trkpt>
      <trkpt lat="42.21689833" lon="-8.72414667">
        <ele>19.0</ele>
        <time>2018-05-14T11:40:48.000Z</time>
      </trkpt>
      <trkpt lat="42.21687167" lon="-8.72412167">
        <ele>19.0</ele>
        <time>2018-05-14T11:40:49.000Z</time>
      </trkpt>
      <trkpt lat="42.216845" lon="-8.724095">
        <ele>18.0</ele>
        <time>2018-05-14T11:40:50.000Z</time>
      </trkpt>
      <trkpt lat="42.21681833" lon="-8.72406833">
        <ele>18.0</ele>
        <time>2018-05-14T11:40:51.000Z</time>
      </trkpt>
      <trkpt lat="42.21679333" lon="-8.72403833">
        <ele>18.0</ele>
        <time>2018-05-14T11:40:52.000Z</time>
      </trkpt>
      <trkpt lat="42.21676667" lon="-8.72400833">
        <ele>18.0</ele>
        <time>2018-05-14T11:40:53.000Z</time>
      </trkpt>
      <trkpt lat="42.21674167" lon="-8.72398167">
        <ele>18.0</ele>
        <time>2018-05-14T11:40:54.000Z</time>
      </trkpt>
      <trkpt lat="42.21671833" lon="-8.72395167">
        <ele>19.0</ele>
        <time>2018-05-14T11:40:55.000Z</time>
      </trkpt>
      <trkpt lat="42.21669833" lon="-8.72391667">
        <ele>19.0</ele>
        <time>2018-05-14T11:40:56.000Z</time>
      </trkpt>
      <trkpt lat="42.216685" lon="-8.72387667">
        <ele>19.0</ele>
        <time>2018-05-14T11:40:57.000Z</time>
      </trkpt>
      <trkpt lat="42.21667667" lon="-8.72383833">
        <ele>19.0</ele>
        <time>2018-05-14T11:40:58.000Z</time>
      </trkpt>
      <trkpt lat="42.21667167" lon="-8.72379667">
        <ele>19.0</ele>
        <time>2018-05-14T11:40:59.000Z</time>
      </trkpt>
      <trkpt lat="42.21667167" lon="-8.72375333">
        <ele>19.0</ele>
        <time>2018-05-14T11:41:00.000Z</time>
      </trkpt>
      <trkpt lat="42.21668" lon="-8.723705">
        <ele>19.0</ele>
        <time>2018-05-14T11:41:01.000Z</time>
      </trkpt>
      <trkpt lat="42.21669" lon="-8.72365667">
        <ele>19.0</ele>
        <time>2018-05-14T11:41:02.000Z</time>
      </trkpt>
      <trkpt lat="42.216705" lon="-8.72361333">
        <ele>19.0</ele>
        <time>2018-05-14T11:41:03.000Z</time>
      </trkpt>
      <trkpt lat="42.21672333" lon="-8.723575">
        <ele>19.0</ele>
        <time>2018-05-14T11:41:04.000Z</time>
      </trkpt>
      <trkpt lat="42.21674167" lon="-8.723535">
        <ele>19.0</ele>
        <time>2018-05-14T11:41:05.000Z</time>
      </trkpt>
      <trkpt lat="42.21676333" lon="-8.72349667">
        <ele>19.0</ele>
        <time>2018-05-14T11:41:06.000Z</time>
      </trkpt>
      <trkpt lat="42.21678833" lon="-8.72346167">
        <ele>19.0</ele>
        <time>2018-05-14T11:41:07.000Z</time>
      </trkpt>
      <trkpt lat="42.216815" lon="-8.72342833">
        <ele>19.0</ele>
        <time>2018-05-14T11:41:08.000Z</time>
      </trkpt>
      <trkpt lat="42.21684333" lon="-8.723395">
        <ele>19.0</ele>
        <time>2018-05-14T11:41:09.000Z</time>
      </trkpt>
      <trkpt lat="42.21687167" lon="-8.723365">
        <ele>19.0</ele>
        <time>2018-05-14T11:41:10.000Z</time>
      </trkpt>
      <trkpt lat="42.21689667" lon="-8.72333833">
        <ele>19.0</ele>
        <time>2018-05-14T11:41:11.000Z</time>
      </trkpt>
      <trkpt lat="42.21692167" lon="-8.72331">
        <ele>19.0</ele>
        <time>2018-05-14T11:41:12.000Z</time>
      </trkpt>
      <trkpt lat="42.216945" lon="-8.72328167">
        <ele>19.0</ele>
        <time>2018-05-14T11:41:13.000Z</time>
      </trkpt>
      <trkpt lat="42.21697" lon="-8.723255">
        <ele>19.0</ele>
        <time>2018-05-14T11:41:14.000Z</time>
      </trkpt>
      <trkpt lat="42.21699333" lon="-8.72323">
        <ele>19.0</ele>
        <time>2018-05-14T11:41:15.000Z</time>
      </trkpt>
      <trkpt lat="42.217015" lon="-8.72320667">
        <ele>19.0</ele>
        <time>2018-05-14T11:41:16.000Z</time>
      </trkpt>
      <trkpt lat="42.21703667" lon="-8.72318167">
        <ele>19.0</ele>
        <time>2018-05-14T11:41:17.000Z</time>
      </trkpt>
      <trkpt lat="42.21705667" lon="-8.72315667">
        <ele>19.0</ele>
        <time>2018-05-14T11:41:18.000Z</time>
      </trkpt>
      <trkpt lat="42.217075" lon="-8.72312833">
        <ele>19.0</ele>
        <time>2018-05-14T11:41:19.000Z</time>
      </trkpt>
      <trkpt lat="42.21709" lon="-8.72310167">
        <ele>19.0</ele>
        <time>2018-05-14T11:41:20.000Z</time>
      </trkpt>
      <trkpt lat="42.2171" lon="-8.72307667">
        <ele>19.0</ele>
        <time>2018-05-14T11:41:21.000Z</time>
      </trkpt>
      <trkpt lat="42.217105" lon="-8.72304833">
        <ele>19.0</ele>
        <time>2018-05-14T11:41:22.000Z</time>
      </trkpt>
      <trkpt lat="42.21710333" lon="-8.72302167">
        <ele>19.0</ele>
        <time>2018-05-14T11:41:23.000Z</time>
      </trkpt>
      <trkpt lat="42.21709833" lon="-8.72299667">
        <ele>19.0</ele>
        <time>2018-05-14T11:41:24.000Z</time>
      </trkpt>
      <trkpt lat="42.21709167" lon="-8.72297">
        <ele>19.0</ele>
        <time>2018-05-14T11:41:25.000Z</time>
      </trkpt>
      <trkpt lat="42.21708333" lon="-8.72294167">
        <ele>19.0</ele>
        <time>2018-05-14T11:41:26.000Z</time>
      </trkpt>
      <trkpt lat="42.21707667" lon="-8.72291333">
        <ele>19.0</ele>
        <time>2018-05-14T11:41:27.000Z</time>
      </trkpt>
      <trkpt lat="42.217065" lon="-8.72288667">
        <ele>19.0</ele>
        <time>2018-05-14T11:41:28.000Z</time>
      </trkpt>
      <trkpt lat="42.217055" lon="-8.72285667">
        <ele>19.0</ele>
        <time>2018-05-14T11:41:29.000Z</time>
      </trkpt>
      <trkpt lat="42.21704667" lon="-8.722825">
        <ele>20.0</ele>
        <time>2018-05-14T11:41:30.000Z</time>
      </trkpt>
      <trkpt lat="42.21704167" lon="-8.72279333">
        <ele>20.0</ele>
        <time>2018-05-14T11:41:31.000Z</time>
      </trkpt>
      <trkpt lat="42.21703667" lon="-8.72276">
        <ele>20.0</ele>
        <time>2018-05-14T11:41:32.000Z</time>
      </trkpt>
      <trkpt lat="42.21703333" lon="-8.72272833">
        <ele>20.0</ele>
        <time>2018-05-14T11:41:33.000Z</time>
      </trkpt>
      <trkpt lat="42.21703333" lon="-8.72269167">
        <ele>20.0</ele>
        <time>2018-05-14T11:41:34.000Z</time>
      </trkpt>
      <trkpt lat="42.21703833" lon="-8.72265167">
        <ele>20.0</ele>
        <time>2018-05-14T11:41:35.000Z</time>
      </trkpt>
      <trkpt lat="42.21704667" lon="-8.72261167">
        <ele>20.0</ele>
        <time>2018-05-14T11:41:36.000Z</time>
      </trkpt>
      <trkpt lat="42.21705167" lon="-8.72257667">
        <ele>20.0</ele>
        <time>2018-05-14T11:41:37.000Z</time>
      </trkpt>
      <trkpt lat="42.21706167" lon="-8.72254">
        <ele>20.0</ele>
        <time>2018-05-14T11:41:38.000Z</time>
      </trkpt>
      <trkpt lat="42.21707667" lon="-8.722505">
        <ele>20.0</ele>
        <time>2018-05-14T11:41:39.000Z</time>
      </trkpt>
      <trkpt lat="42.21709167" lon="-8.72247167">
        <ele>20.0</ele>
        <time>2018-05-14T11:41:40.000Z</time>
      </trkpt>
      <trkpt lat="42.21710667" lon="-8.72243833">
        <ele>19.0</ele>
        <time>2018-05-14T11:41:41.000Z</time>
      </trkpt>
      <trkpt lat="42.21712167" lon="-8.722405">
        <ele>19.0</ele>
        <time>2018-05-14T11:41:42.000Z</time>
      </trkpt>
      <trkpt lat="42.21713667" lon="-8.72237333">
        <ele>19.0</ele>
        <time>2018-05-14T11:41:43.000Z</time>
      </trkpt>
      <trkpt lat="42.217155" lon="-8.72234333">
        <ele>19.0</ele>
        <time>2018-05-14T11:41:44.000Z</time>
      </trkpt>
      <trkpt lat="42.21717167" lon="-8.722315">
        <ele>19.0</ele>
        <time>2018-05-14T11:41:45.000Z</time>
      </trkpt>
      <trkpt lat="42.21719167" lon="-8.72229">
        <ele>19.0</ele>
        <time>2018-05-14T11:41:46.000Z</time>
      </trkpt>
      <trkpt lat="42.217215" lon="-8.72226333">
        <ele>19.0</ele>
        <time>2018-05-14T11:41:47.000Z</time>
      </trkpt>
      <trkpt lat="42.21723667" lon="-8.72224167">
        <ele>19.0</ele>
        <time>2018-05-14T11:41:48.000Z</time>
      </trkpt>
      <trkpt lat="42.21726167" lon="-8.72221833">
        <ele>19.0</ele>
        <time>2018-05-14T11:41:49.000Z</time>
      </trkpt>
      <trkpt lat="42.21728667" lon="-8.72219667">
        <ele>19.0</ele>
        <time>2018-05-14T11:41:50.000Z</time>
      </trkpt>
      <trkpt lat="42.21731167" lon="-8.72217333">
        <ele>19.0</ele>
        <time>2018-05-14T11:41:51.000Z</time>
      </trkpt>
      <trkpt lat="42.21733667" lon="-8.72214833">
        <ele>19.0</ele>
        <time>2018-05-14T11:41:52.000Z</time>
      </trkpt>
      <trkpt lat="42.21735833" lon="-8.72212667">
        <ele>20.0</ele>
        <time>2018-05-14T11:41:53.000Z</time>
      </trkpt>
      <trkpt lat="42.21737833" lon="-8.722105">
        <ele>20.0</ele>
        <time>2018-05-14T11:41:54.000Z</time>
      </trkpt>
      <trkpt lat="42.21740167" lon="-8.72208333">
        <ele>20.0</ele>
        <time>2018-05-14T11:41:55.000Z</time>
      </trkpt>
      <trkpt lat="42.21742667" lon="-8.72206">
        <ele>20.0</ele>
        <time>2018-05-14T11:41:56.000Z</time>
      </trkpt>
      <trkpt lat="42.21745" lon="-8.72203667">
        <ele>20.0</ele>
        <time>2018-05-14T11:41:57.000Z</time>
      </trkpt>
      <trkpt lat="42.21747333" lon="-8.72201">
        <ele>20.0</ele>
        <time>2018-05-14T11:41:58.000Z</time>
      </trkpt>
      <trkpt lat="42.21749667" lon="-8.72198167">
        <ele>20.0</ele>
        <time>2018-05-14T11:41:59.000Z</time>
      </trkpt>
      <trkpt lat="42.21752" lon="-8.72195167">
        <ele>20.0</ele>
        <time>2018-05-14T11:42:00.000Z</time>
      </trkpt>
      <trkpt lat="42.217545" lon="-8.72192">
        <ele>20.0</ele>
        <time>2018-05-14T11:42:01.000Z</time>
      </trkpt>
      <trkpt lat="42.21757167" lon="-8.72188833">
        <ele>20.0</ele>
        <time>2018-05-14T11:42:02.000Z</time>
      </trkpt>
      <trkpt lat="42.2176" lon="-8.72185667">
        <ele>20.0</ele>
        <time>2018-05-14T11:42:03.000Z</time>
      </trkpt>
      <trkpt lat="42.21763167" lon="-8.72182333">
        <ele>20.0</ele>
        <time>2018-05-14T11:42:04.000Z</time>
      </trkpt>
      <trkpt lat="42.217665" lon="-8.72179333">
        <ele>20.0</ele>
        <time>2018-05-14T11:42:05.000Z</time>
      </trkpt>
      <trkpt lat="42.21769833" lon="-8.72176333">
        <ele>20.0</ele>
        <time>2018-05-14T11:42:06.000Z</time>
      </trkpt>
      <trkpt lat="42.217735" lon="-8.72173667">
        <ele>20.0</ele>
        <time>2018-05-14T11:42:07.000Z</time>
      </trkpt>
      <trkpt lat="42.217775" lon="-8.72171167">
        <ele>20.0</ele>
        <time>2018-05-14T11:42:08.000Z</time>
      </trkpt>
      <trkpt lat="42.21781167" lon="-8.72168833">
        <ele>20.0</ele>
        <time>2018-05-14T11:42:09.000Z</time>
      </trkpt>
      <trkpt lat="42.21784833" lon="-8.72167">
        <ele>20.0</ele>
        <time>2018-05-14T11:42:10.000Z</time>
      </trkpt>
      <trkpt lat="42.21788333" lon="-8.72165333">
        <ele>20.0</ele>
        <time>2018-05-14T11:42:11.000Z</time>
      </trkpt>
      <trkpt lat="42.217915" lon="-8.72163833">
        <ele>20.0</ele>
        <time>2018-05-14T11:42:12.000Z</time>
      </trkpt>
      <trkpt lat="42.21794667" lon="-8.72162333">
        <ele>20.0</ele>
        <time>2018-05-14T11:42:13.000Z</time>
      </trkpt>
      <trkpt lat="42.21797833" lon="-8.72160667">
        <ele>20.0</ele>
        <time>2018-05-14T11:42:14.000Z</time>
      </trkpt>
      <trkpt lat="42.21800833" lon="-8.72159167">
        <ele>20.0</ele>
        <time>2018-05-14T11:42:15.000Z</time>
      </trkpt>
      <trkpt lat="42.21803833" lon="-8.72157833">
        <ele>20.0</ele>
        <time>2018-05-14T11:42:16.000Z</time>
      </trkpt>
      <trkpt lat="42.21807" lon="-8.72156333">
        <ele>20.0</ele>
        <time>2018-05-14T11:42:17.000Z</time>
      </trkpt>
      <trkpt lat="42.21810167" lon="-8.72155167">
        <ele>20.0</ele>
        <time>2018-05-14T11:42:18.000Z</time>
      </trkpt>
      <trkpt lat="42.218135" lon="-8.72154">
        <ele>20.0</ele>
        <time>2018-05-14T11:42:19.000Z</time>
      </trkpt>
      <trkpt lat="42.21816833" lon="-8.72152667">
        <ele>21.0</ele>
        <time>2018-05-14T11:42:20.000Z</time>
      </trkpt>
      <trkpt lat="42.2182" lon="-8.72151333">
        <ele>21.0</ele>
        <time>2018-05-14T11:42:21.000Z</time>
      </trkpt>
      <trkpt lat="42.21822833" lon="-8.721495">
        <ele>21.0</ele>
        <time>2018-05-14T11:42:22.000Z</time>
      </trkpt>
      <trkpt lat="42.21825667" lon="-8.72147833">
        <ele>21.0</ele>
        <time>2018-05-14T11:42:23.000Z</time>
      </trkpt>
      <trkpt lat="42.21828667" lon="-8.72146333">
        <ele>21.0</ele>
        <time>2018-05-14T11:42:24.000Z</time>
      </trkpt>
      <trkpt lat="42.21831667" lon="-8.72145">
        <ele>21.0</ele>
        <time>2018-05-14T11:42:25.000Z</time>
      </trkpt>
      <trkpt lat="42.21834667" lon="-8.72143167">
        <ele>22.0</ele>
        <time>2018-05-14T11:42:26.000Z</time>
      </trkpt>
      <trkpt lat="42.21837667" lon="-8.72141667">
        <ele>22.0</ele>
        <time>2018-05-14T11:42:27.000Z</time>
      </trkpt>
      <trkpt lat="42.218405" lon="-8.72139833">
        <ele>22.0</ele>
        <time>2018-05-14T11:42:28.000Z</time>
      </trkpt>
      <trkpt lat="42.218435" lon="-8.72137667">
        <ele>22.0</ele>
        <time>2018-05-14T11:42:29.000Z</time>
      </trkpt>
      <trkpt lat="42.21846167" lon="-8.72135333">
        <ele>22.0</ele>
        <time>2018-05-14T11:42:30.000Z</time>
      </trkpt>
      <trkpt lat="42.21849" lon="-8.72132667">
        <ele>22.0</ele>
        <time>2018-05-14T11:42:31.000Z</time>
      </trkpt>
      <trkpt lat="42.21851667" lon="-8.72129833">
        <ele>23.0</ele>
        <time>2018-05-14T11:42:32.000Z</time>
      </trkpt>
      <trkpt lat="42.21854333" lon="-8.72127167">
        <ele>23.0</ele>
        <time>2018-05-14T11:42:33.000Z</time>
      </trkpt>
      <trkpt lat="42.21857167" lon="-8.72124167">
        <ele>23.0</ele>
        <time>2018-05-14T11:42:34.000Z</time>
      </trkpt>
      <trkpt lat="42.2186" lon="-8.72121333">
        <ele>23.0</ele>
        <time>2018-05-14T11:42:35.000Z</time>
      </trkpt>
      <trkpt lat="42.21863" lon="-8.721185">
        <ele>24.0</ele>
        <time>2018-05-14T11:42:36.000Z</time>
      </trkpt>
      <trkpt lat="42.21866333" lon="-8.72115667">
        <ele>24.0</ele>
        <time>2018-05-14T11:42:37.000Z</time>
      </trkpt>
      <trkpt lat="42.218695" lon="-8.72113333">
        <ele>24.0</ele>
        <time>2018-05-14T11:42:38.000Z</time>
      </trkpt>
      <trkpt lat="42.21872833" lon="-8.72110833">
        <ele>24.0</ele>
        <time>2018-05-14T11:42:39.000Z</time>
      </trkpt>
      <trkpt lat="42.21875833" lon="-8.721085">
        <ele>25.0</ele>
        <time>2018-05-14T11:42:40.000Z</time>
      </trkpt>
      <trkpt lat="42.21879" lon="-8.721065">
        <ele>25.0</ele>
        <time>2018-05-14T11:42:41.000Z</time>
      </trkpt>
      <trkpt lat="42.21882" lon="-8.721045">
        <ele>25.0</ele>
        <time>2018-05-14T11:42:42.000Z</time>
      </trkpt>
      <trkpt lat="42.21885" lon="-8.72102333">
        <ele>26.0</ele>
        <time>2018-05-14T11:42:43.000Z</time>
      </trkpt>
      <trkpt lat="42.21888" lon="-8.72100333">
        <ele>26.0</ele>
        <time>2018-05-14T11:42:44.000Z</time>
      </trkpt>
      <trkpt lat="42.21890667" lon="-8.72098333">
        <ele>27.0</ele>
        <time>2018-05-14T11:42:45.000Z</time>
      </trkpt>
      <trkpt lat="42.218935" lon="-8.72096667">
        <ele>27.0</ele>
        <time>2018-05-14T11:42:46.000Z</time>
      </trkpt>
      <trkpt lat="42.21896167" lon="-8.72095167">
        <ele>27.0</ele>
        <time>2018-05-14T11:42:47.000Z</time>
      </trkpt>
      <trkpt lat="42.21898667" lon="-8.720935">
        <ele>28.0</ele>
        <time>2018-05-14T11:42:48.000Z</time>
      </trkpt>
      <trkpt lat="42.21901167" lon="-8.72091667">
        <ele>28.0</ele>
        <time>2018-05-14T11:42:49.000Z</time>
      </trkpt>
      <trkpt lat="42.21903833" lon="-8.720895">
        <ele>28.0</ele>
        <time>2018-05-14T11:42:50.000Z</time>
      </trkpt>
      <trkpt lat="42.21906167" lon="-8.72087333">
        <ele>28.0</ele>
        <time>2018-05-14T11:42:51.000Z</time>
      </trkpt>
      <trkpt lat="42.21908667" lon="-8.72085167">
        <ele>28.0</ele>
        <time>2018-05-14T11:42:52.000Z</time>
      </trkpt>
      <trkpt lat="42.21911167" lon="-8.72082667">
        <ele>28.0</ele>
        <time>2018-05-14T11:42:53.000Z</time>
      </trkpt>
      <trkpt lat="42.219135" lon="-8.72080333">
        <ele>29.0</ele>
        <time>2018-05-14T11:42:54.000Z</time>
      </trkpt>
      <trkpt lat="42.21915667" lon="-8.72078">
        <ele>29.0</ele>
        <time>2018-05-14T11:42:55.000Z</time>
      </trkpt>
      <trkpt lat="42.21917833" lon="-8.72075833">
        <ele>29.0</ele>
        <time>2018-05-14T11:42:56.000Z</time>
      </trkpt>
      <trkpt lat="42.2192" lon="-8.72073667">
        <ele>29.0</ele>
        <time>2018-05-14T11:42:57.000Z</time>
      </trkpt>
      <trkpt lat="42.21922167" lon="-8.72071833">
        <ele>29.0</ele>
        <time>2018-05-14T11:42:58.000Z</time>
      </trkpt>
      <trkpt lat="42.21924167" lon="-8.7207">
        <ele>29.0</ele>
        <time>2018-05-14T11:42:59.000Z</time>
      </trkpt>
      <trkpt lat="42.219265" lon="-8.72068167">
        <ele>29.0</ele>
        <time>2018-05-14T11:43:00.000Z</time>
      </trkpt>
      <trkpt lat="42.21929" lon="-8.72066167">
        <ele>29.0</ele>
        <time>2018-05-14T11:43:01.000Z</time>
      </trkpt>
      <trkpt lat="42.21931167" lon="-8.72064167">
        <ele>29.0</ele>
        <time>2018-05-14T11:43:02.000Z</time>
      </trkpt>
      <trkpt lat="42.21933167" lon="-8.720615">
        <ele>29.0</ele>
        <time>2018-05-14T11:43:03.000Z</time>
      </trkpt>
      <trkpt lat="42.21935167" lon="-8.72058333">
        <ele>29.0</ele>
        <time>2018-05-14T11:43:04.000Z</time>
      </trkpt>
      <trkpt lat="42.21937" lon="-8.72055167">
        <ele>29.0</ele>
        <time>2018-05-14T11:43:05.000Z</time>
      </trkpt>
      <trkpt lat="42.21938833" lon="-8.72052333">
        <ele>29.0</ele>
        <time>2018-05-14T11:43:06.000Z</time>
      </trkpt>
      <trkpt lat="42.21940667" lon="-8.72049333">
        <ele>29.0</ele>
        <time>2018-05-14T11:43:07.000Z</time>
      </trkpt>
      <trkpt lat="42.219425" lon="-8.720465">
        <ele>29.0</ele>
        <time>2018-05-14T11:43:08.000Z</time>
      </trkpt>
      <trkpt lat="42.21944167" lon="-8.720435">
        <ele>29.0</ele>
        <time>2018-05-14T11:43:09.000Z</time>
      </trkpt>
      <trkpt lat="42.219455" lon="-8.72040333">
        <ele>29.0</ele>
        <time>2018-05-14T11:43:10.000Z</time>
      </trkpt>
      <trkpt lat="42.21946833" lon="-8.72036833">
        <ele>29.0</ele>
        <time>2018-05-14T11:43:11.000Z</time>
      </trkpt>
      <trkpt lat="42.21948333" lon="-8.72033">
        <ele>29.0</ele>
        <time>2018-05-14T11:43:12.000Z</time>
      </trkpt>
      <trkpt lat="42.21949833" lon="-8.72029167">
        <ele>29.0</ele>
        <time>2018-05-14T11:43:13.000Z</time>
      </trkpt>
      <trkpt lat="42.21951333" lon="-8.72025833">
        <ele>29.0</ele>
        <time>2018-05-14T11:43:14.000Z</time>
      </trkpt>
      <trkpt lat="42.21952833" lon="-8.72022833">
        <ele>29.0</ele>
        <time>2018-05-14T11:43:15.000Z</time>
      </trkpt>
      <trkpt lat="42.219545" lon="-8.72020667">
        <ele>29.0</ele>
        <time>2018-05-14T11:43:16.000Z</time>
      </trkpt>
      <trkpt lat="42.21956167" lon="-8.72019333">
        <ele>29.0</ele>
        <time>2018-05-14T11:43:17.000Z</time>
      </trkpt>
      <trkpt lat="42.21958" lon="-8.72018667">
        <ele>29.0</ele>
        <time>2018-05-14T11:43:18.000Z</time>
      </trkpt>
      <trkpt lat="42.219595" lon="-8.72018833">
        <ele>29.0</ele>
        <time>2018-05-14T11:43:19.000Z</time>
      </trkpt>
      <trkpt lat="42.219605" lon="-8.72020667">
        <ele>28.0</ele>
        <time>2018-05-14T11:43:20.000Z</time>
      </trkpt>
      <trkpt lat="42.21960667" lon="-8.72023667">
        <ele>28.0</ele>
        <time>2018-05-14T11:43:21.000Z</time>
      </trkpt>
      <trkpt lat="42.219605" lon="-8.720275">
        <ele>28.0</ele>
        <time>2018-05-14T11:43:22.000Z</time>
      </trkpt>
      <trkpt lat="42.21960833" lon="-8.720315">
        <ele>28.0</ele>
        <time>2018-05-14T11:43:23.000Z</time>
      </trkpt>
      <trkpt lat="42.21961" lon="-8.72036167">
        <ele>28.0</ele>
        <time>2018-05-14T11:43:24.000Z</time>
      </trkpt>
      <trkpt lat="42.21961167" lon="-8.72040667">
        <ele>28.0</ele>
        <time>2018-05-14T11:43:25.000Z</time>
      </trkpt>
      <trkpt lat="42.21961333" lon="-8.72044833">
        <ele>28.0</ele>
        <time>2018-05-14T11:43:26.000Z</time>
      </trkpt>
      <trkpt lat="42.21961667" lon="-8.72049167">
        <ele>27.0</ele>
        <time>2018-05-14T11:43:27.000Z</time>
      </trkpt>
      <trkpt lat="42.21962" lon="-8.72053667">
        <ele>27.0</ele>
        <time>2018-05-14T11:43:28.000Z</time>
      </trkpt>
      <trkpt lat="42.21962667" lon="-8.72058">
        <ele>27.0</ele>
        <time>2018-05-14T11:43:29.000Z</time>
      </trkpt>
      <trkpt lat="42.21963167" lon="-8.72062167">
        <ele>27.0</ele>
        <time>2018-05-14T11:43:30.000Z</time>
      </trkpt>
      <trkpt lat="42.21963667" lon="-8.720665">
        <ele>27.0</ele>
        <time>2018-05-14T11:43:31.000Z</time>
      </trkpt>
      <trkpt lat="42.21964167" lon="-8.72070667">
        <ele>26.0</ele>
        <time>2018-05-14T11:43:32.000Z</time>
      </trkpt>
      <trkpt lat="42.219645" lon="-8.72074667">
        <ele>26.0</ele>
        <time>2018-05-14T11:43:33.000Z</time>
      </trkpt>
      <trkpt lat="42.21965" lon="-8.72079">
        <ele>26.0</ele>
        <time>2018-05-14T11:43:34.000Z</time>
      </trkpt>
      <trkpt lat="42.21965667" lon="-8.720835">
        <ele>26.0</ele>
        <time>2018-05-14T11:43:35.000Z</time>
      </trkpt>
      <trkpt lat="42.21966333" lon="-8.72087833">
        <ele>26.0</ele>
        <time>2018-05-14T11:43:36.000Z</time>
      </trkpt>
      <trkpt lat="42.21966833" lon="-8.720925">
        <ele>26.0</ele>
        <time>2018-05-14T11:43:37.000Z</time>
      </trkpt>
      <trkpt lat="42.21967" lon="-8.72097667">
        <ele>26.0</ele>
        <time>2018-05-14T11:43:38.000Z</time>
      </trkpt>
      <trkpt lat="42.21967167" lon="-8.72102667">
        <ele>26.0</ele>
        <time>2018-05-14T11:43:39.000Z</time>
      </trkpt>
      <trkpt lat="42.21967167" lon="-8.721075">
        <ele>26.0</ele>
        <time>2018-05-14T11:43:40.000Z</time>
      </trkpt>
      <trkpt lat="42.21966833" lon="-8.72112">
        <ele>26.0</ele>
        <time>2018-05-14T11:43:41.000Z</time>
      </trkpt>
      <trkpt lat="42.21966167" lon="-8.72116">
        <ele>26.0</ele>
        <time>2018-05-14T11:43:42.000Z</time>
      </trkpt>
      <trkpt lat="42.21965167" lon="-8.7212">
        <ele>26.0</ele>
        <time>2018-05-14T11:43:43.000Z</time>
      </trkpt>
      <trkpt lat="42.21963833" lon="-8.72123667">
        <ele>26.0</ele>
        <time>2018-05-14T11:43:44.000Z</time>
      </trkpt>
      <trkpt lat="42.219625" lon="-8.72127167">
        <ele>26.0</ele>
        <time>2018-05-14T11:43:45.000Z</time>
      </trkpt>
      <trkpt lat="42.21960833" lon="-8.7213">
        <ele>26.0</ele>
        <time>2018-05-14T11:43:46.000Z</time>
      </trkpt>
      <trkpt lat="42.21959" lon="-8.721325">
        <ele>26.0</ele>
        <time>2018-05-14T11:43:47.000Z</time>
      </trkpt>
      <trkpt lat="42.21956667" lon="-8.72134333">
        <ele>26.0</ele>
        <time>2018-05-14T11:43:48.000Z</time>
      </trkpt>
      <trkpt lat="42.21954167" lon="-8.72135833">
        <ele>26.0</ele>
        <time>2018-05-14T11:43:49.000Z</time>
      </trkpt>
      <trkpt lat="42.219515" lon="-8.72136667">
        <ele>26.0</ele>
        <time>2018-05-14T11:43:50.000Z</time>
      </trkpt>
      <trkpt lat="42.21949167" lon="-8.721375">
        <ele>25.0</ele>
        <time>2018-05-14T11:43:51.000Z</time>
      </trkpt>
      <trkpt lat="42.219465" lon="-8.72138">
        <ele>25.0</ele>
        <time>2018-05-14T11:43:52.000Z</time>
      </trkpt>
      <trkpt lat="42.219435" lon="-8.72138">
        <ele>25.0</ele>
        <time>2018-05-14T11:43:53.000Z</time>
      </trkpt>
      <trkpt lat="42.21940167" lon="-8.72137667">
        <ele>25.0</ele>
        <time>2018-05-14T11:43:54.000Z</time>
      </trkpt>
      <trkpt lat="42.21937" lon="-8.72137167">
        <ele>25.0</ele>
        <time>2018-05-14T11:43:55.000Z</time>
      </trkpt>
      <trkpt lat="42.21934" lon="-8.721365">
        <ele>25.0</ele>
        <time>2018-05-14T11:43:56.000Z</time>
      </trkpt>
      <trkpt lat="42.21931" lon="-8.721355">
        <ele>25.0</ele>
        <time>2018-05-14T11:43:57.000Z</time>
      </trkpt>
      <trkpt lat="42.21927667" lon="-8.72134333">
        <ele>25.0</ele>
        <time>2018-05-14T11:43:58.000Z</time>
      </trkpt>
      <trkpt lat="42.21924667" lon="-8.72133">
        <ele>25.0</ele>
        <time>2018-05-14T11:43:59.000Z</time>
      </trkpt>
      <trkpt lat="42.21921667" lon="-8.72131667">
        <ele>25.0</ele>
        <time>2018-05-14T11:44:00.000Z</time>
      </trkpt>
      <trkpt lat="42.21918667" lon="-8.721305">
        <ele>24.0</ele>
        <time>2018-05-14T11:44:01.000Z</time>
      </trkpt>
      <trkpt lat="42.219155" lon="-8.72129333">
        <ele>24.0</ele>
        <time>2018-05-14T11:44:02.000Z</time>
      </trkpt>
      <trkpt lat="42.219125" lon="-8.72128333">
        <ele>24.0</ele>
        <time>2018-05-14T11:44:03.000Z</time>
      </trkpt>
      <trkpt lat="42.21909667" lon="-8.72127167">
        <ele>24.0</ele>
        <time>2018-05-14T11:44:04.000Z</time>
      </trkpt>
      <trkpt lat="42.21906833" lon="-8.72126">
        <ele>24.0</ele>
        <time>2018-05-14T11:44:05.000Z</time>
      </trkpt>
      <trkpt lat="42.21904" lon="-8.721245">
        <ele>24.0</ele>
        <time>2018-05-14T11:44:06.000Z</time>
      </trkpt>
      <trkpt lat="42.21901" lon="-8.72122667">
        <ele>24.0</ele>
        <time>2018-05-14T11:44:07.000Z</time>
      </trkpt>
      <trkpt lat="42.21897833" lon="-8.72121333">
        <ele>24.0</ele>
        <time>2018-05-14T11:44:08.000Z</time>
      </trkpt>
      <trkpt lat="42.21894833" lon="-8.72120333">
        <ele>24.0</ele>
        <time>2018-05-14T11:44:09.000Z</time>
      </trkpt>
      <trkpt lat="42.21891667" lon="-8.721195">
        <ele>24.0</ele>
        <time>2018-05-14T11:44:10.000Z</time>
      </trkpt>
      <trkpt lat="42.218885" lon="-8.72118833">
        <ele>24.0</ele>
        <time>2018-05-14T11:44:11.000Z</time>
      </trkpt>
      <trkpt lat="42.21885333" lon="-8.72118667">
        <ele>24.0</ele>
        <time>2018-05-14T11:44:12.000Z</time>
      </trkpt>
      <trkpt lat="42.21882" lon="-8.72119">
        <ele>24.0</ele>
        <time>2018-05-14T11:44:13.000Z</time>
      </trkpt>
      <trkpt lat="42.21878833" lon="-8.721195">
        <ele>24.0</ele>
        <time>2018-05-14T11:44:14.000Z</time>
      </trkpt>
      <trkpt lat="42.21876" lon="-8.72120333">
        <ele>24.0</ele>
        <time>2018-05-14T11:44:15.000Z</time>
      </trkpt>
      <trkpt lat="42.21873333" lon="-8.72121167">
        <ele>25.0</ele>
        <time>2018-05-14T11:44:16.000Z</time>
      </trkpt>
      <trkpt lat="42.218705" lon="-8.72121833">
        <ele>25.0</ele>
        <time>2018-05-14T11:44:17.000Z</time>
      </trkpt>
      <trkpt lat="42.21867667" lon="-8.72122333">
        <ele>25.0</ele>
        <time>2018-05-14T11:44:18.000Z</time>
      </trkpt>
      <trkpt lat="42.21864833" lon="-8.72123167">
        <ele>25.0</ele>
        <time>2018-05-14T11:44:19.000Z</time>
      </trkpt>
      <trkpt lat="42.21862167" lon="-8.72124">
        <ele>24.0</ele>
        <time>2018-05-14T11:44:20.000Z</time>
      </trkpt>
      <trkpt lat="42.21859833" lon="-8.721255">
        <ele>24.0</ele>
        <time>2018-05-14T11:44:21.000Z</time>
      </trkpt>
      <trkpt lat="42.218575" lon="-8.72127167">
        <ele>24.0</ele>
        <time>2018-05-14T11:44:22.000Z</time>
      </trkpt>
      <trkpt lat="42.21855167" lon="-8.72128667">
        <ele>24.0</ele>
        <time>2018-05-14T11:44:23.000Z</time>
      </trkpt>
      <trkpt lat="42.21852833" lon="-8.7213">
        <ele>24.0</ele>
        <time>2018-05-14T11:44:24.000Z</time>
      </trkpt>
      <trkpt lat="42.21850333" lon="-8.72131167">
        <ele>24.0</ele>
        <time>2018-05-14T11:44:25.000Z</time>
      </trkpt>
      <trkpt lat="42.21847833" lon="-8.72132333">
        <ele>24.0</ele>
        <time>2018-05-14T11:44:26.000Z</time>
      </trkpt>
      <trkpt lat="42.21845167" lon="-8.72133667">
        <ele>24.0</ele>
        <time>2018-05-14T11:44:27.000Z</time>
      </trkpt>
      <trkpt lat="42.218425" lon="-8.72134833">
        <ele>24.0</ele>
        <time>2018-05-14T11:44:28.000Z</time>
      </trkpt>
      <trkpt lat="42.21839667" lon="-8.721365">
        <ele>24.0</ele>
        <time>2018-05-14T11:44:29.000Z</time>
      </trkpt>
      <trkpt lat="42.21836833" lon="-8.72138167">
        <ele>24.0</ele>
        <time>2018-05-14T11:44:30.000Z</time>
      </trkpt>
      <trkpt lat="42.21834167" lon="-8.72139667">
        <ele>24.0</ele>
        <time>2018-05-14T11:44:31.000Z</time>
      </trkpt>
      <trkpt lat="42.218315" lon="-8.72141">
        <ele>24.0</ele>
        <time>2018-05-14T11:44:32.000Z</time>
      </trkpt>
      <trkpt lat="42.21828667" lon="-8.721425">
        <ele>24.0</ele>
        <time>2018-05-14T11:44:33.000Z</time>
      </trkpt>
      <trkpt lat="42.21826" lon="-8.72144333">
        <ele>24.0</ele>
        <time>2018-05-14T11:44:34.000Z</time>
      </trkpt>
      <trkpt lat="42.218235" lon="-8.72146167">
        <ele>24.0</ele>
        <time>2018-05-14T11:44:35.000Z</time>
      </trkpt>
      <trkpt lat="42.21820667" lon="-8.72148">
        <ele>24.0</ele>
        <time>2018-05-14T11:44:36.000Z</time>
      </trkpt>
      <trkpt lat="42.21817833" lon="-8.72149667">
        <ele>24.0</ele>
        <time>2018-05-14T11:44:37.000Z</time>
      </trkpt>
      <trkpt lat="42.21814833" lon="-8.72151167">
        <ele>24.0</ele>
        <time>2018-05-14T11:44:38.000Z</time>
      </trkpt>
      <trkpt lat="42.21812" lon="-8.72153">
        <ele>24.0</ele>
        <time>2018-05-14T11:44:39.000Z</time>
      </trkpt>
      <trkpt lat="42.21809" lon="-8.72154667">
        <ele>24.0</ele>
        <time>2018-05-14T11:44:40.000Z</time>
      </trkpt>
      <trkpt lat="42.21806167" lon="-8.72156">
        <ele>24.0</ele>
        <time>2018-05-14T11:44:41.000Z</time>
      </trkpt>
      <trkpt lat="42.21803333" lon="-8.72157667">
        <ele>24.0</ele>
        <time>2018-05-14T11:44:42.000Z</time>
      </trkpt>
      <trkpt lat="42.21800333" lon="-8.721595">
        <ele>24.0</ele>
        <time>2018-05-14T11:44:43.000Z</time>
      </trkpt>
      <trkpt lat="42.21797" lon="-8.72161167">
        <ele>24.0</ele>
        <time>2018-05-14T11:44:44.000Z</time>
      </trkpt>
      <trkpt lat="42.21793667" lon="-8.72162833">
        <ele>24.0</ele>
        <time>2018-05-14T11:44:45.000Z</time>
      </trkpt>
      <trkpt lat="42.21790167" lon="-8.72164333">
        <ele>24.0</ele>
        <time>2018-05-14T11:44:46.000Z</time>
      </trkpt>
      <trkpt lat="42.21787" lon="-8.72165833">
        <ele>24.0</ele>
        <time>2018-05-14T11:44:47.000Z</time>
      </trkpt>
      <trkpt lat="42.217835" lon="-8.72167833">
        <ele>24.0</ele>
        <time>2018-05-14T11:44:48.000Z</time>
      </trkpt>
      <trkpt lat="42.217805" lon="-8.72169667">
        <ele>24.0</ele>
        <time>2018-05-14T11:44:49.000Z</time>
      </trkpt>
      <trkpt lat="42.217775" lon="-8.721715">
        <ele>24.0</ele>
        <time>2018-05-14T11:44:50.000Z</time>
      </trkpt>
      <trkpt lat="42.21774667" lon="-8.72173167">
        <ele>24.0</ele>
        <time>2018-05-14T11:44:51.000Z</time>
      </trkpt>
      <trkpt lat="42.21772" lon="-8.72174667">
        <ele>24.0</ele>
        <time>2018-05-14T11:44:52.000Z</time>
      </trkpt>
      <trkpt lat="42.21769667" lon="-8.721765">
        <ele>24.0</ele>
        <time>2018-05-14T11:44:53.000Z</time>
      </trkpt>
      <trkpt lat="42.21767667" lon="-8.72178667">
        <ele>24.0</ele>
        <time>2018-05-14T11:44:54.000Z</time>
      </trkpt>
      <trkpt lat="42.21766" lon="-8.72181667">
        <ele>24.0</ele>
        <time>2018-05-14T11:44:55.000Z</time>
      </trkpt>
      <trkpt lat="42.21764" lon="-8.72184667">
        <ele>24.0</ele>
        <time>2018-05-14T11:44:56.000Z</time>
      </trkpt>
      <trkpt lat="42.21761833" lon="-8.721875">
        <ele>24.0</ele>
        <time>2018-05-14T11:44:57.000Z</time>
      </trkpt>
      <trkpt lat="42.21759167" lon="-8.72189667">
        <ele>24.0</ele>
        <time>2018-05-14T11:44:58.000Z</time>
      </trkpt>
      <trkpt lat="42.21756" lon="-8.72191667">
        <ele>24.0</ele>
        <time>2018-05-14T11:44:59.000Z</time>
      </trkpt>
      <trkpt lat="42.21753167" lon="-8.72193667">
        <ele>24.0</ele>
        <time>2018-05-14T11:45:00.000Z</time>
      </trkpt>
      <trkpt lat="42.21750333" lon="-8.72195833">
        <ele>23.0</ele>
        <time>2018-05-14T11:45:01.000Z</time>
      </trkpt>
      <trkpt lat="42.217475" lon="-8.72198">
        <ele>23.0</ele>
        <time>2018-05-14T11:45:02.000Z</time>
      </trkpt>
      <trkpt lat="42.21744333" lon="-8.72200167">
        <ele>23.0</ele>
        <time>2018-05-14T11:45:03.000Z</time>
      </trkpt>
      <trkpt lat="42.217415" lon="-8.72202333">
        <ele>23.0</ele>
        <time>2018-05-14T11:45:04.000Z</time>
      </trkpt>
      <trkpt lat="42.217385" lon="-8.72204333">
        <ele>23.0</ele>
        <time>2018-05-14T11:45:05.000Z</time>
      </trkpt>
      <trkpt lat="42.21735333" lon="-8.72206">
        <ele>23.0</ele>
        <time>2018-05-14T11:45:06.000Z</time>
      </trkpt>
      <trkpt lat="42.21732667" lon="-8.72207833">
        <ele>23.0</ele>
        <time>2018-05-14T11:45:07.000Z</time>
      </trkpt>
      <trkpt lat="42.21729833" lon="-8.72209667">
        <ele>22.0</ele>
        <time>2018-05-14T11:45:08.000Z</time>
      </trkpt>
      <trkpt lat="42.21727167" lon="-8.72211667">
        <ele>22.0</ele>
        <time>2018-05-14T11:45:09.000Z</time>
      </trkpt>
      <trkpt lat="42.21724833" lon="-8.72213667">
        <ele>22.0</ele>
        <time>2018-05-14T11:45:10.000Z</time>
      </trkpt>
      <trkpt lat="42.217225" lon="-8.722155">
        <ele>22.0</ele>
        <time>2018-05-14T11:45:11.000Z</time>
      </trkpt>
      <trkpt lat="42.2172" lon="-8.722175">
        <ele>22.0</ele>
        <time>2018-05-14T11:45:12.000Z</time>
      </trkpt>
      <trkpt lat="42.21717833" lon="-8.7222">
        <ele>22.0</ele>
        <time>2018-05-14T11:45:13.000Z</time>
      </trkpt>
      <trkpt lat="42.21715667" lon="-8.72222333">
        <ele>22.0</ele>
        <time>2018-05-14T11:45:14.000Z</time>
      </trkpt>
      <trkpt lat="42.21713667" lon="-8.72225333">
        <ele>22.0</ele>
        <time>2018-05-14T11:45:15.000Z</time>
      </trkpt>
      <trkpt lat="42.21711833" lon="-8.72228833">
        <ele>21.0</ele>
        <time>2018-05-14T11:45:16.000Z</time>
      </trkpt>
      <trkpt lat="42.217105" lon="-8.72232667">
        <ele>21.0</ele>
        <time>2018-05-14T11:45:17.000Z</time>
      </trkpt>
      <trkpt lat="42.21708833" lon="-8.722365">
        <ele>21.0</ele>
        <time>2018-05-14T11:45:18.000Z</time>
      </trkpt>
      <trkpt lat="42.21707167" lon="-8.722405">
        <ele>21.0</ele>
        <time>2018-05-14T11:45:19.000Z</time>
      </trkpt>
      <trkpt lat="42.21706" lon="-8.72244667">
        <ele>20.0</ele>
        <time>2018-05-14T11:45:20.000Z</time>
      </trkpt>
      <trkpt lat="42.21705" lon="-8.72248833">
        <ele>20.0</ele>
        <time>2018-05-14T11:45:21.000Z</time>
      </trkpt>
      <trkpt lat="42.21704" lon="-8.72253167">
        <ele>20.0</ele>
        <time>2018-05-14T11:45:22.000Z</time>
      </trkpt>
      <trkpt lat="42.21703333" lon="-8.72257167">
        <ele>20.0</ele>
        <time>2018-05-14T11:45:23.000Z</time>
      </trkpt>
      <trkpt lat="42.21702833" lon="-8.72261">
        <ele>20.0</ele>
        <time>2018-05-14T11:45:24.000Z</time>
      </trkpt>
      <trkpt lat="42.21702667" lon="-8.72265">
        <ele>20.0</ele>
        <time>2018-05-14T11:45:25.000Z</time>
      </trkpt>
      <trkpt lat="42.21703" lon="-8.72269167">
        <ele>20.0</ele>
        <time>2018-05-14T11:45:26.000Z</time>
      </trkpt>
      <trkpt lat="42.21703" lon="-8.72272833">
        <ele>19.0</ele>
        <time>2018-05-14T11:45:27.000Z</time>
      </trkpt>
      <trkpt lat="42.21703167" lon="-8.722765">
        <ele>19.0</ele>
        <time>2018-05-14T11:45:28.000Z</time>
      </trkpt>
      <trkpt lat="42.217035" lon="-8.72280667">
        <ele>20.0</ele>
        <time>2018-05-14T11:45:29.000Z</time>
      </trkpt>
      <trkpt lat="42.21704167" lon="-8.722845">
        <ele>20.0</ele>
        <time>2018-05-14T11:45:30.000Z</time>
      </trkpt>
      <trkpt lat="42.21705333" lon="-8.722885">
        <ele>20.0</ele>
        <time>2018-05-14T11:45:31.000Z</time>
      </trkpt>
      <trkpt lat="42.217065" lon="-8.72293">
        <ele>19.0</ele>
        <time>2018-05-14T11:45:32.000Z</time>
      </trkpt>
      <trkpt lat="42.21707333" lon="-8.722975">
        <ele>19.0</ele>
        <time>2018-05-14T11:45:33.000Z</time>
      </trkpt>
      <trkpt lat="42.21708167" lon="-8.72302333">
        <ele>19.0</ele>
        <time>2018-05-14T11:45:34.000Z</time>
      </trkpt>
      <trkpt lat="42.21708833" lon="-8.72307167">
        <ele>19.0</ele>
        <time>2018-05-14T11:45:35.000Z</time>
      </trkpt>
      <trkpt lat="42.21709" lon="-8.72311833">
        <ele>19.0</ele>
        <time>2018-05-14T11:45:36.000Z</time>
      </trkpt>
      <trkpt lat="42.21708667" lon="-8.72316">
        <ele>19.0</ele>
        <time>2018-05-14T11:45:37.000Z</time>
      </trkpt>
      <trkpt lat="42.21707833" lon="-8.723195">
        <ele>19.0</ele>
        <time>2018-05-14T11:45:38.000Z</time>
      </trkpt>
      <trkpt lat="42.21706667" lon="-8.72322167">
        <ele>19.0</ele>
        <time>2018-05-14T11:45:39.000Z</time>
      </trkpt>
      <trkpt lat="42.21704833" lon="-8.723245">
        <ele>19.0</ele>
        <time>2018-05-14T11:45:40.000Z</time>
      </trkpt>
      <trkpt lat="42.21703" lon="-8.723265">
        <ele>19.0</ele>
        <time>2018-05-14T11:45:41.000Z</time>
      </trkpt>
      <trkpt lat="42.21701167" lon="-8.72328667">
        <ele>19.0</ele>
        <time>2018-05-14T11:45:42.000Z</time>
      </trkpt>
      <trkpt lat="42.21699333" lon="-8.72330167">
        <ele>18.0</ele>
        <time>2018-05-14T11:45:43.000Z</time>
      </trkpt>
      <trkpt lat="42.21697667" lon="-8.723315">
        <ele>18.0</ele>
        <time>2018-05-14T11:45:44.000Z</time>
      </trkpt>
      <trkpt lat="42.21695833" lon="-8.72332833">
        <ele>18.0</ele>
        <time>2018-05-14T11:45:45.000Z</time>
      </trkpt>
      <trkpt lat="42.21693667" lon="-8.72334667">
        <ele>18.0</ele>
        <time>2018-05-14T11:45:46.000Z</time>
      </trkpt>
      <trkpt lat="42.21691833" lon="-8.72337">
        <ele>18.0</ele>
        <time>2018-05-14T11:45:47.000Z</time>
      </trkpt>
      <trkpt lat="42.21689667" lon="-8.72339833">
        <ele>18.0</ele>
        <time>2018-05-14T11:45:48.000Z</time>
      </trkpt>
      <trkpt lat="42.21687667" lon="-8.72343">
        <ele>18.0</ele>
        <time>2018-05-14T11:45:49.000Z</time>
      </trkpt>
      <trkpt lat="42.21685167" lon="-8.72346333">
        <ele>18.0</ele>
        <time>2018-05-14T11:45:50.000Z</time>
      </trkpt>
      <trkpt lat="42.21682833" lon="-8.723495">
        <ele>18.0</ele>
        <time>2018-05-14T11:45:51.000Z</time>
      </trkpt>
      <trkpt lat="42.216805" lon="-8.72353">
        <ele>18.0</ele>
        <time>2018-05-14T11:45:52.000Z</time>
      </trkpt>
      <trkpt lat="42.21678333" lon="-8.723565">
        <ele>18.0</ele>
        <time>2018-05-14T11:45:53.000Z</time>
      </trkpt>
      <trkpt lat="42.21676167" lon="-8.72360167">
        <ele>18.0</ele>
        <time>2018-05-14T11:45:54.000Z</time>
      </trkpt>
      <trkpt lat="42.216745" lon="-8.72363833">
        <ele>18.0</ele>
        <time>2018-05-14T11:45:55.000Z</time>
      </trkpt>
      <trkpt lat="42.216735" lon="-8.72367833">
        <ele>18.0</ele>
        <time>2018-05-14T11:45:56.000Z</time>
      </trkpt>
      <trkpt lat="42.21672667" lon="-8.72372">
        <ele>18.0</ele>
        <time>2018-05-14T11:45:57.000Z</time>
      </trkpt>
      <trkpt lat="42.216725" lon="-8.72376">
        <ele>18.0</ele>
        <time>2018-05-14T11:45:58.000Z</time>
      </trkpt>
      <trkpt lat="42.21672667" lon="-8.7238">
        <ele>18.0</ele>
        <time>2018-05-14T11:45:59.000Z</time>
      </trkpt>
      <trkpt lat="42.21673333" lon="-8.72383667">
        <ele>17.0</ele>
        <time>2018-05-14T11:46:00.000Z</time>
      </trkpt>
      <trkpt lat="42.21674333" lon="-8.72387">
        <ele>17.0</ele>
        <time>2018-05-14T11:46:01.000Z</time>
      </trkpt>
      <trkpt lat="42.21676167" lon="-8.72390333">
        <ele>17.0</ele>
        <time>2018-05-14T11:46:02.000Z</time>
      </trkpt>
      <trkpt lat="42.21678333" lon="-8.72393667">
        <ele>17.0</ele>
        <time>2018-05-14T11:46:03.000Z</time>
      </trkpt>
      <trkpt lat="42.21680667" lon="-8.72396833">
        <ele>17.0</ele>
        <time>2018-05-14T11:46:04.000Z</time>
      </trkpt>
      <trkpt lat="42.216835" lon="-8.72399833">
        <ele>16.0</ele>
        <time>2018-05-14T11:46:05.000Z</time>
      </trkpt>
      <trkpt lat="42.21686167" lon="-8.72402333">
        <ele>16.0</ele>
        <time>2018-05-14T11:46:06.000Z</time>
      </trkpt>
      <trkpt lat="42.21689" lon="-8.72404833">
        <ele>16.0</ele>
        <time>2018-05-14T11:46:07.000Z</time>
      </trkpt>
      <trkpt lat="42.21691833" lon="-8.72407333">
        <ele>16.0</ele>
        <time>2018-05-14T11:46:08.000Z</time>
      </trkpt>
      <trkpt lat="42.21694667" lon="-8.724105">
        <ele>16.0</ele>
        <time>2018-05-14T11:46:09.000Z</time>
      </trkpt>
      <trkpt lat="42.21697167" lon="-8.72414">
        <ele>16.0</ele>
        <time>2018-05-14T11:46:10.000Z</time>
      </trkpt>
      <trkpt lat="42.21699667" lon="-8.72417667">
        <ele>16.0</ele>
        <time>2018-05-14T11:46:11.000Z</time>
      </trkpt>
      <trkpt lat="42.21701833" lon="-8.72421333">
        <ele>16.0</ele>
        <time>2018-05-14T11:46:12.000Z</time>
      </trkpt>
      <trkpt lat="42.21704" lon="-8.72425">
        <ele>16.0</ele>
        <time>2018-05-14T11:46:13.000Z</time>
      </trkpt>
      <trkpt lat="42.21706167" lon="-8.724285">
        <ele>16.0</ele>
        <time>2018-05-14T11:46:14.000Z</time>
      </trkpt>
      <trkpt lat="42.21708333" lon="-8.72432167">
        <ele>15.0</ele>
        <time>2018-05-14T11:46:15.000Z</time>
      </trkpt>
      <trkpt lat="42.217105" lon="-8.72436333">
        <ele>15.0</ele>
        <time>2018-05-14T11:46:16.000Z</time>
      </trkpt>
      <trkpt lat="42.217125" lon="-8.72440167">
        <ele>15.0</ele>
        <time>2018-05-14T11:46:17.000Z</time>
      </trkpt>
      <trkpt lat="42.217145" lon="-8.72443667">
        <ele>15.0</ele>
        <time>2018-05-14T11:46:18.000Z</time>
      </trkpt>
      <trkpt lat="42.21716333" lon="-8.72447333">
        <ele>15.0</ele>
        <time>2018-05-14T11:46:19.000Z</time>
      </trkpt>
      <trkpt lat="42.21718" lon="-8.72450667">
        <ele>15.0</ele>
        <time>2018-05-14T11:46:20.000Z</time>
      </trkpt>
      <trkpt lat="42.217195" lon="-8.72453833">
        <ele>15.0</ele>
        <time>2018-05-14T11:46:21.000Z</time>
      </trkpt>
      <trkpt lat="42.21721167" lon="-8.72457">
        <ele>15.0</ele>
        <time>2018-05-14T11:46:22.000Z</time>
      </trkpt>
      <trkpt lat="42.21722833" lon="-8.72459833">
        <ele>15.0</ele>
        <time>2018-05-14T11:46:23.000Z</time>
      </trkpt>
      <trkpt lat="42.21724333" lon="-8.72462667">
        <ele>15.0</ele>
        <time>2018-05-14T11:46:24.000Z</time>
      </trkpt>
      <trkpt lat="42.217255" lon="-8.724655">
        <ele>15.0</ele>
        <time>2018-05-14T11:46:25.000Z</time>
      </trkpt>
      <trkpt lat="42.21726833" lon="-8.724685">
        <ele>15.0</ele>
        <time>2018-05-14T11:46:26.000Z</time>
      </trkpt>
      <trkpt lat="42.21728167" lon="-8.724715">
        <ele>14.0</ele>
        <time>2018-05-14T11:46:27.000Z</time>
      </trkpt>
      <trkpt lat="42.21729167" lon="-8.72474667">
        <ele>14.0</ele>
        <time>2018-05-14T11:46:28.000Z</time>
      </trkpt>
      <trkpt lat="42.217305" lon="-8.72478">
        <ele>14.0</ele>
        <time>2018-05-14T11:46:29.000Z</time>
      </trkpt>
      <trkpt lat="42.217315" lon="-8.724815">
        <ele>14.0</ele>
        <time>2018-05-14T11:46:30.000Z</time>
      </trkpt>
      <trkpt lat="42.21732333" lon="-8.72485333">
        <ele>14.0</ele>
        <time>2018-05-14T11:46:31.000Z</time>
      </trkpt>
      <trkpt lat="42.21732667" lon="-8.72489">
        <ele>14.0</ele>
        <time>2018-05-14T11:46:32.000Z</time>
      </trkpt>
      <trkpt lat="42.21732833" lon="-8.72493">
        <ele>14.0</ele>
        <time>2018-05-14T11:46:33.000Z</time>
      </trkpt>
      <trkpt lat="42.21732833" lon="-8.72496667">
        <ele>14.0</ele>
        <time>2018-05-14T11:46:34.000Z</time>
      </trkpt>
      <trkpt lat="42.21732667" lon="-8.725005">
        <ele>14.0</ele>
        <time>2018-05-14T11:46:35.000Z</time>
      </trkpt>
      <trkpt lat="42.21732333" lon="-8.72504667">
        <ele>14.0</ele>
        <time>2018-05-14T11:46:36.000Z</time>
      </trkpt>
      <trkpt lat="42.21732167" lon="-8.72508667">
        <ele>14.0</ele>
        <time>2018-05-14T11:46:37.000Z</time>
      </trkpt>
      <trkpt lat="42.21731667" lon="-8.72512333">
        <ele>14.0</ele>
        <time>2018-05-14T11:46:38.000Z</time>
      </trkpt>
      <trkpt lat="42.21731" lon="-8.725165">
        <ele>14.0</ele>
        <time>2018-05-14T11:46:39.000Z</time>
      </trkpt>
      <trkpt lat="42.21730167" lon="-8.725205">
        <ele>14.0</ele>
        <time>2018-05-14T11:46:40.000Z</time>
      </trkpt>
      <trkpt lat="42.21728833" lon="-8.72524333">
        <ele>14.0</ele>
        <time>2018-05-14T11:46:41.000Z</time>
      </trkpt>
      <trkpt lat="42.217275" lon="-8.72527833">
        <ele>13.0</ele>
        <time>2018-05-14T11:46:42.000Z</time>
      </trkpt>
      <trkpt lat="42.21726167" lon="-8.725315">
        <ele>13.0</ele>
        <time>2018-05-14T11:46:43.000Z</time>
      </trkpt>
      <trkpt lat="42.21725" lon="-8.72535333">
        <ele>13.0</ele>
        <time>2018-05-14T11:46:44.000Z</time>
      </trkpt>
      <trkpt lat="42.21723833" lon="-8.725395">
        <ele>13.0</ele>
        <time>2018-05-14T11:46:45.000Z</time>
      </trkpt>
      <trkpt lat="42.21722667" lon="-8.72543333">
        <ele>13.0</ele>
        <time>2018-05-14T11:46:46.000Z</time>
      </trkpt>
      <trkpt lat="42.21721167" lon="-8.72546667">
        <ele>13.0</ele>
        <time>2018-05-14T11:46:47.000Z</time>
      </trkpt>
      <trkpt lat="42.21719833" lon="-8.7255">
        <ele>13.0</ele>
        <time>2018-05-14T11:46:48.000Z</time>
      </trkpt>
      <trkpt lat="42.21718667" lon="-8.725535">
        <ele>13.0</ele>
        <time>2018-05-14T11:46:49.000Z</time>
      </trkpt>
      <trkpt lat="42.21717333" lon="-8.725575">
        <ele>13.0</ele>
        <time>2018-05-14T11:46:50.000Z</time>
      </trkpt>
      <trkpt lat="42.21716333" lon="-8.72561333">
        <ele>13.0</ele>
        <time>2018-05-14T11:46:51.000Z</time>
      </trkpt>
      <trkpt lat="42.21715667" lon="-8.725655">
        <ele>13.0</ele>
        <time>2018-05-14T11:46:52.000Z</time>
      </trkpt>
      <trkpt lat="42.21715" lon="-8.7257">
        <ele>13.0</ele>
        <time>2018-05-14T11:46:53.000Z</time>
      </trkpt>
      <trkpt lat="42.21714167" lon="-8.72574333">
        <ele>13.0</ele>
        <time>2018-05-14T11:46:54.000Z</time>
      </trkpt>
      <trkpt lat="42.21713333" lon="-8.72579167">
        <ele>13.0</ele>
        <time>2018-05-14T11:46:55.000Z</time>
      </trkpt>
      <trkpt lat="42.21712333" lon="-8.72584">
        <ele>13.0</ele>
        <time>2018-05-14T11:46:56.000Z</time>
      </trkpt>
      <trkpt lat="42.21711167" lon="-8.725885">
        <ele>13.0</ele>
        <time>2018-05-14T11:46:57.000Z</time>
      </trkpt>
      <trkpt lat="42.21710167" lon="-8.72592833">
        <ele>13.0</ele>
        <time>2018-05-14T11:46:58.000Z</time>
      </trkpt>
      <trkpt lat="42.21709167" lon="-8.72597">
        <ele>13.0</ele>
        <time>2018-05-14T11:46:59.000Z</time>
      </trkpt>
      <trkpt lat="42.21708333" lon="-8.726015">
        <ele>13.0</ele>
        <time>2018-05-14T11:47:00.000Z</time>
      </trkpt>
      <trkpt lat="42.21707167" lon="-8.72606">
        <ele>13.0</ele>
        <time>2018-05-14T11:47:01.000Z</time>
      </trkpt>
      <trkpt lat="42.21706167" lon="-8.72610667">
        <ele>13.0</ele>
        <time>2018-05-14T11:47:02.000Z</time>
      </trkpt>
      <trkpt lat="42.217055" lon="-8.726155">
        <ele>13.0</ele>
        <time>2018-05-14T11:47:03.000Z</time>
      </trkpt>
      <trkpt lat="42.217045" lon="-8.7262">
        <ele>13.0</ele>
        <time>2018-05-14T11:47:04.000Z</time>
      </trkpt>
      <trkpt lat="42.21703667" lon="-8.726245">
        <ele>13.0</ele>
        <time>2018-05-14T11:47:05.000Z</time>
      </trkpt>
      <trkpt lat="42.21702833" lon="-8.72628833">
        <ele>13.0</ele>
        <time>2018-05-14T11:47:06.000Z</time>
      </trkpt>
      <trkpt lat="42.21702" lon="-8.72632833">
        <ele>13.0</ele>
        <time>2018-05-14T11:47:07.000Z</time>
      </trkpt>
      <trkpt lat="42.21701167" lon="-8.72636833">
        <ele>13.0</ele>
        <time>2018-05-14T11:47:08.000Z</time>
      </trkpt>
      <trkpt lat="42.21700167" lon="-8.72641167">
        <ele>13.0</ele>
        <time>2018-05-14T11:47:09.000Z</time>
      </trkpt>
      <trkpt lat="42.21699" lon="-8.72645333">
        <ele>13.0</ele>
        <time>2018-05-14T11:47:10.000Z</time>
      </trkpt>
      <trkpt lat="42.21697667" lon="-8.726495">
        <ele>13.0</ele>
        <time>2018-05-14T11:47:11.000Z</time>
      </trkpt>
      <trkpt lat="42.21696167" lon="-8.72653667">
        <ele>13.0</ele>
        <time>2018-05-14T11:47:12.000Z</time>
      </trkpt>
      <trkpt lat="42.21695" lon="-8.72657833">
        <ele>13.0</ele>
        <time>2018-05-14T11:47:13.000Z</time>
      </trkpt>
      <trkpt lat="42.21694167" lon="-8.72661833">
        <ele>13.0</ele>
        <time>2018-05-14T11:47:14.000Z</time>
      </trkpt>
      <trkpt lat="42.216935" lon="-8.72666167">
        <ele>14.0</ele>
        <time>2018-05-14T11:47:15.000Z</time>
      </trkpt>
      <trkpt lat="42.21693" lon="-8.72670167">
        <ele>14.0</ele>
        <time>2018-05-14T11:47:16.000Z</time>
      </trkpt>
      <trkpt lat="42.216925" lon="-8.72674">
        <ele>14.0</ele>
        <time>2018-05-14T11:47:17.000Z</time>
      </trkpt>
      <trkpt lat="42.21691833" lon="-8.72677833">
        <ele>14.0</ele>
        <time>2018-05-14T11:47:18.000Z</time>
      </trkpt>
      <trkpt lat="42.21691167" lon="-8.72681833">
        <ele>14.0</ele>
        <time>2018-05-14T11:47:19.000Z</time>
      </trkpt>
      <trkpt lat="42.216905" lon="-8.72685667">
        <ele>14.0</ele>
        <time>2018-05-14T11:47:20.000Z</time>
      </trkpt>
      <trkpt lat="42.21689667" lon="-8.726895">
        <ele>14.0</ele>
        <time>2018-05-14T11:47:21.000Z</time>
      </trkpt>
      <trkpt lat="42.21688667" lon="-8.72693667">
        <ele>14.0</ele>
        <time>2018-05-14T11:47:22.000Z</time>
      </trkpt>
      <trkpt lat="42.21687667" lon="-8.72697667">
        <ele>14.0</ele>
        <time>2018-05-14T11:47:23.000Z</time>
      </trkpt>
      <trkpt lat="42.216865" lon="-8.727015">
        <ele>14.0</ele>
        <time>2018-05-14T11:47:24.000Z</time>
      </trkpt>
      <trkpt lat="42.21685167" lon="-8.72705667">
        <ele>14.0</ele>
        <time>2018-05-14T11:47:25.000Z</time>
      </trkpt>
      <trkpt lat="42.21683833" lon="-8.72709833">
        <ele>14.0</ele>
        <time>2018-05-14T11:47:26.000Z</time>
      </trkpt>
      <trkpt lat="42.216825" lon="-8.72714">
        <ele>14.0</ele>
        <time>2018-05-14T11:47:27.000Z</time>
      </trkpt>
      <trkpt lat="42.21680833" lon="-8.72718">
        <ele>14.0</ele>
        <time>2018-05-14T11:47:28.000Z</time>
      </trkpt>
      <trkpt lat="42.21679333" lon="-8.72721833">
        <ele>14.0</ele>
        <time>2018-05-14T11:47:29.000Z</time>
      </trkpt>
      <trkpt lat="42.21677833" lon="-8.72725833">
        <ele>14.0</ele>
        <time>2018-05-14T11:47:30.000Z</time>
      </trkpt>
      <trkpt lat="42.216765" lon="-8.727295">
        <ele>14.0</ele>
        <time>2018-05-14T11:47:31.000Z</time>
      </trkpt>
      <trkpt lat="42.21674833" lon="-8.72733333">
        <ele>14.0</ele>
        <time>2018-05-14T11:47:32.000Z</time>
      </trkpt>
      <trkpt lat="42.21673333" lon="-8.72737">
        <ele>14.0</ele>
        <time>2018-05-14T11:47:33.000Z</time>
      </trkpt>
      <trkpt lat="42.21672167" lon="-8.72740667">
        <ele>14.0</ele>
        <time>2018-05-14T11:47:34.000Z</time>
      </trkpt>
      <trkpt lat="42.216705" lon="-8.72744833">
        <ele>14.0</ele>
        <time>2018-05-14T11:47:35.000Z</time>
      </trkpt>
      <trkpt lat="42.21668333" lon="-8.72748833">
        <ele>14.0</ele>
        <time>2018-05-14T11:47:36.000Z</time>
      </trkpt>
      <trkpt lat="42.21666167" lon="-8.72752167">
        <ele>14.0</ele>
        <time>2018-05-14T11:47:37.000Z</time>
      </trkpt>
      <trkpt lat="42.21664167" lon="-8.72755333">
        <ele>14.0</ele>
        <time>2018-05-14T11:47:38.000Z</time>
      </trkpt>
      <trkpt lat="42.21662333" lon="-8.72758333">
        <ele>14.0</ele>
        <time>2018-05-14T11:47:39.000Z</time>
      </trkpt>
      <trkpt lat="42.21660667" lon="-8.72761">
        <ele>14.0</ele>
        <time>2018-05-14T11:47:40.000Z</time>
      </trkpt>
      <trkpt lat="42.21659" lon="-8.72764167">
        <ele>14.0</ele>
        <time>2018-05-14T11:47:41.000Z</time>
      </trkpt>
      <trkpt lat="42.216575" lon="-8.72767333">
        <ele>14.0</ele>
        <time>2018-05-14T11:47:42.000Z</time>
      </trkpt>
      <trkpt lat="42.21656167" lon="-8.72770667">
        <ele>14.0</ele>
        <time>2018-05-14T11:47:43.000Z</time>
      </trkpt>
      <trkpt lat="42.21655" lon="-8.72774333">
        <ele>14.0</ele>
        <time>2018-05-14T11:47:44.000Z</time>
      </trkpt>
      <trkpt lat="42.21653333" lon="-8.72778167">
        <ele>14.0</ele>
        <time>2018-05-14T11:47:45.000Z</time>
      </trkpt>
      <trkpt lat="42.21652" lon="-8.72782">
        <ele>14.0</ele>
        <time>2018-05-14T11:47:46.000Z</time>
      </trkpt>
      <trkpt lat="42.21650333" lon="-8.72785833">
        <ele>14.0</ele>
        <time>2018-05-14T11:47:47.000Z</time>
      </trkpt>
      <trkpt lat="42.21648833" lon="-8.72789833">
        <ele>14.0</ele>
        <time>2018-05-14T11:47:48.000Z</time>
      </trkpt>
      <trkpt lat="42.216475" lon="-8.72793333">
        <ele>14.0</ele>
        <time>2018-05-14T11:47:49.000Z</time>
      </trkpt>
      <trkpt lat="42.216455" lon="-8.72797">
        <ele>14.0</ele>
        <time>2018-05-14T11:47:50.000Z</time>
      </trkpt>
      <trkpt lat="42.21643667" lon="-8.72800833">
        <ele>14.0</ele>
        <time>2018-05-14T11:47:51.000Z</time>
      </trkpt>
      <trkpt lat="42.21642" lon="-8.728045">
        <ele>13.0</ele>
        <time>2018-05-14T11:47:52.000Z</time>
      </trkpt>
      <trkpt lat="42.21640667" lon="-8.72808167">
        <ele>13.0</ele>
        <time>2018-05-14T11:47:53.000Z</time>
      </trkpt>
      <trkpt lat="42.21639667" lon="-8.72812">
        <ele>13.0</ele>
        <time>2018-05-14T11:47:54.000Z</time>
      </trkpt>
      <trkpt lat="42.21638833" lon="-8.72816">
        <ele>13.0</ele>
        <time>2018-05-14T11:47:55.000Z</time>
      </trkpt>
      <trkpt lat="42.21638333" lon="-8.72819667">
        <ele>13.0</ele>
        <time>2018-05-14T11:47:56.000Z</time>
      </trkpt>
      <trkpt lat="42.21638" lon="-8.72823333">
        <ele>13.0</ele>
        <time>2018-05-14T11:47:57.000Z</time>
      </trkpt>
      <trkpt lat="42.216375" lon="-8.72827">
        <ele>13.0</ele>
        <time>2018-05-14T11:47:58.000Z</time>
      </trkpt>
      <trkpt lat="42.21637167" lon="-8.72830667">
        <ele>13.0</ele>
        <time>2018-05-14T11:47:59.000Z</time>
      </trkpt>
      <trkpt lat="42.21636833" lon="-8.728345">
        <ele>13.0</ele>
        <time>2018-05-14T11:48:00.000Z</time>
      </trkpt>
      <trkpt lat="42.216365" lon="-8.72838167">
        <ele>13.0</ele>
        <time>2018-05-14T11:48:01.000Z</time>
      </trkpt>
      <trkpt lat="42.21636333" lon="-8.72842">
        <ele>13.0</ele>
        <time>2018-05-14T11:48:02.000Z</time>
      </trkpt>
      <trkpt lat="42.21636" lon="-8.728455">
        <ele>13.0</ele>
        <time>2018-05-14T11:48:03.000Z</time>
      </trkpt>
      <trkpt lat="42.21635833" lon="-8.728495">
        <ele>13.0</ele>
        <time>2018-05-14T11:48:04.000Z</time>
      </trkpt>
      <trkpt lat="42.216355" lon="-8.728535">
        <ele>13.0</ele>
        <time>2018-05-14T11:48:05.000Z</time>
      </trkpt>
      <trkpt lat="42.21635333" lon="-8.72857667">
        <ele>13.0</ele>
        <time>2018-05-14T11:48:06.000Z</time>
      </trkpt>
      <trkpt lat="42.21635167" lon="-8.72862">
        <ele>13.0</ele>
        <time>2018-05-14T11:48:07.000Z</time>
      </trkpt>
      <trkpt lat="42.21635" lon="-8.72866667">
        <ele>12.0</ele>
        <time>2018-05-14T11:48:08.000Z</time>
      </trkpt>
      <trkpt lat="42.21634667" lon="-8.72871">
        <ele>12.0</ele>
        <time>2018-05-14T11:48:09.000Z</time>
      </trkpt>
      <trkpt lat="42.21634167" lon="-8.72875167">
        <ele>12.0</ele>
        <time>2018-05-14T11:48:10.000Z</time>
      </trkpt>
      <trkpt lat="42.21633833" lon="-8.72879667">
        <ele>12.0</ele>
        <time>2018-05-14T11:48:11.000Z</time>
      </trkpt>
      <trkpt lat="42.216335" lon="-8.72884167">
        <ele>12.0</ele>
        <time>2018-05-14T11:48:12.000Z</time>
      </trkpt>
      <trkpt lat="42.216335" lon="-8.72888333">
        <ele>12.0</ele>
        <time>2018-05-14T11:48:13.000Z</time>
      </trkpt>
      <trkpt lat="42.216335" lon="-8.72892833">
        <ele>12.0</ele>
        <time>2018-05-14T11:48:14.000Z</time>
      </trkpt>
      <trkpt lat="42.21633333" lon="-8.728975">
        <ele>12.0</ele>
        <time>2018-05-14T11:48:15.000Z</time>
      </trkpt>
      <trkpt lat="42.21633333" lon="-8.72902">
        <ele>12.0</ele>
        <time>2018-05-14T11:48:16.000Z</time>
      </trkpt>
      <trkpt lat="42.21633167" lon="-8.729065">
        <ele>12.0</ele>
        <time>2018-05-14T11:48:17.000Z</time>
      </trkpt>
      <trkpt lat="42.21633" lon="-8.72910833">
        <ele>13.0</ele>
        <time>2018-05-14T11:48:18.000Z</time>
      </trkpt>
      <trkpt lat="42.21632833" lon="-8.72915167">
        <ele>13.0</ele>
        <time>2018-05-14T11:48:19.000Z</time>
      </trkpt>
      <trkpt lat="42.21632833" lon="-8.72919">
        <ele>13.0</ele>
        <time>2018-05-14T11:48:20.000Z</time>
      </trkpt>
      <trkpt lat="42.21632833" lon="-8.72923">
        <ele>13.0</ele>
        <time>2018-05-14T11:48:21.000Z</time>
      </trkpt>
      <trkpt lat="42.21632667" lon="-8.72926667">
        <ele>13.0</ele>
        <time>2018-05-14T11:48:22.000Z</time>
      </trkpt>
      <trkpt lat="42.216325" lon="-8.72930167">
        <ele>13.0</ele>
        <time>2018-05-14T11:48:23.000Z</time>
      </trkpt>
      <trkpt lat="42.21632167" lon="-8.72934">
        <ele>13.0</ele>
        <time>2018-05-14T11:48:24.000Z</time>
      </trkpt>
      <trkpt lat="42.21631667" lon="-8.72938167">
        <ele>13.0</ele>
        <time>2018-05-14T11:48:25.000Z</time>
      </trkpt>
      <trkpt lat="42.21631167" lon="-8.729425">
        <ele>13.0</ele>
        <time>2018-05-14T11:48:26.000Z</time>
      </trkpt>
      <trkpt lat="42.21630333" lon="-8.72947">
        <ele>13.0</ele>
        <time>2018-05-14T11:48:27.000Z</time>
      </trkpt>
      <trkpt lat="42.21629" lon="-8.72951167">
        <ele>13.0</ele>
        <time>2018-05-14T11:48:28.000Z</time>
      </trkpt>
      <trkpt lat="42.21627833" lon="-8.72955167">
        <ele>13.0</ele>
        <time>2018-05-14T11:48:29.000Z</time>
      </trkpt>
      <trkpt lat="42.21626333" lon="-8.72958833">
        <ele>13.0</ele>
        <time>2018-05-14T11:48:30.000Z</time>
      </trkpt>
      <trkpt lat="42.216245" lon="-8.729625">
        <ele>13.0</ele>
        <time>2018-05-14T11:48:31.000Z</time>
      </trkpt>
      <trkpt lat="42.21622333" lon="-8.729655">
        <ele>13.0</ele>
        <time>2018-05-14T11:48:32.000Z</time>
      </trkpt>
      <trkpt lat="42.216195" lon="-8.72968167">
        <ele>13.0</ele>
        <time>2018-05-14T11:48:33.000Z</time>
      </trkpt>
      <trkpt lat="42.216165" lon="-8.729705">
        <ele>13.0</ele>
        <time>2018-05-14T11:48:34.000Z</time>
      </trkpt>
      <trkpt lat="42.216135" lon="-8.72972833">
        <ele>14.0</ele>
        <time>2018-05-14T11:48:35.000Z</time>
      </trkpt>
      <trkpt lat="42.216105" lon="-8.72975333">
        <ele>14.0</ele>
        <time>2018-05-14T11:48:36.000Z</time>
      </trkpt>
      <trkpt lat="42.21607833" lon="-8.72978">
        <ele>14.0</ele>
        <time>2018-05-14T11:48:37.000Z</time>
      </trkpt>
      <trkpt lat="42.21605" lon="-8.72980167">
        <ele>14.0</ele>
        <time>2018-05-14T11:48:38.000Z</time>
      </trkpt>
      <trkpt lat="42.21602" lon="-8.729825">
        <ele>14.0</ele>
        <time>2018-05-14T11:48:39.000Z</time>
      </trkpt>
      <trkpt lat="42.21599" lon="-8.72984667">
        <ele>14.0</ele>
        <time>2018-05-14T11:48:40.000Z</time>
      </trkpt>
      <trkpt lat="42.21595833" lon="-8.72986667">
        <ele>14.0</ele>
        <time>2018-05-14T11:48:41.000Z</time>
      </trkpt>
      <trkpt lat="42.21593" lon="-8.72988333">
        <ele>14.0</ele>
        <time>2018-05-14T11:48:42.000Z</time>
      </trkpt>
      <trkpt lat="42.21590167" lon="-8.72989833">
        <ele>14.0</ele>
        <time>2018-05-14T11:48:43.000Z</time>
      </trkpt>
      <trkpt lat="42.21587667" lon="-8.729915">
        <ele>14.0</ele>
        <time>2018-05-14T11:48:44.000Z</time>
      </trkpt>
      <trkpt lat="42.21585" lon="-8.72993167">
        <ele>14.0</ele>
        <time>2018-05-14T11:48:45.000Z</time>
      </trkpt>
      <trkpt lat="42.21581833" lon="-8.72995167">
        <ele>15.0</ele>
        <time>2018-05-14T11:48:46.000Z</time>
      </trkpt>
      <trkpt lat="42.21579" lon="-8.72997333">
        <ele>15.0</ele>
        <time>2018-05-14T11:48:47.000Z</time>
      </trkpt>
      <trkpt lat="42.21576167" lon="-8.72999167">
        <ele>15.0</ele>
        <time>2018-05-14T11:48:48.000Z</time>
      </trkpt>
      <trkpt lat="42.21573333" lon="-8.73001">
        <ele>15.0</ele>
        <time>2018-05-14T11:48:49.000Z</time>
      </trkpt>
      <trkpt lat="42.21570333" lon="-8.73002667">
        <ele>15.0</ele>
        <time>2018-05-14T11:48:50.000Z</time>
      </trkpt>
      <trkpt lat="42.21567" lon="-8.73004333">
        <ele>15.0</ele>
        <time>2018-05-14T11:48:51.000Z</time>
      </trkpt>
      <trkpt lat="42.21563667" lon="-8.73006167">
        <ele>15.0</ele>
        <time>2018-05-14T11:48:52.000Z</time>
      </trkpt>
      <trkpt lat="42.21560333" lon="-8.73007833">
        <ele>15.0</ele>
        <time>2018-05-14T11:48:53.000Z</time>
      </trkpt>
      <trkpt lat="42.21557167" lon="-8.73009167">
        <ele>15.0</ele>
        <time>2018-05-14T11:48:54.000Z</time>
      </trkpt>
      <trkpt lat="42.21554" lon="-8.73010167">
        <ele>15.0</ele>
        <time>2018-05-14T11:48:55.000Z</time>
      </trkpt>
      <trkpt lat="42.21551" lon="-8.73011167">
        <ele>15.0</ele>
        <time>2018-05-14T11:48:56.000Z</time>
      </trkpt>
      <trkpt lat="42.21548" lon="-8.73012">
        <ele>16.0</ele>
        <time>2018-05-14T11:48:57.000Z</time>
      </trkpt>
      <trkpt lat="42.21545" lon="-8.73012833">
        <ele>16.0</ele>
        <time>2018-05-14T11:48:58.000Z</time>
      </trkpt>
      <trkpt lat="42.21541833" lon="-8.730135">
        <ele>16.0</ele>
        <time>2018-05-14T11:48:59.000Z</time>
      </trkpt>
      <trkpt lat="42.21538833" lon="-8.73014">
        <ele>16.0</ele>
        <time>2018-05-14T11:49:00.000Z</time>
      </trkpt>
      <trkpt lat="42.21536167" lon="-8.73014667">
        <ele>16.0</ele>
        <time>2018-05-14T11:49:01.000Z</time>
      </trkpt>
      <trkpt lat="42.215335" lon="-8.73015667">
        <ele>16.0</ele>
        <time>2018-05-14T11:49:02.000Z</time>
      </trkpt>
      <trkpt lat="42.21531167" lon="-8.73016833">
        <ele>16.0</ele>
        <time>2018-05-14T11:49:03.000Z</time>
      </trkpt>
      <trkpt lat="42.21528833" lon="-8.73017833">
        <ele>16.0</ele>
        <time>2018-05-14T11:49:04.000Z</time>
      </trkpt>
      <trkpt lat="42.21526667" lon="-8.73018333">
        <ele>16.0</ele>
        <time>2018-05-14T11:49:05.000Z</time>
      </trkpt>
      <trkpt lat="42.21524167" lon="-8.73018833">
        <ele>16.0</ele>
        <time>2018-05-14T11:49:06.000Z</time>
      </trkpt>
      <trkpt lat="42.215215" lon="-8.730195">
        <ele>16.0</ele>
        <time>2018-05-14T11:49:07.000Z</time>
      </trkpt>
      <trkpt lat="42.21519333" lon="-8.73019833">
        <ele>16.0</ele>
        <time>2018-05-14T11:49:08.000Z</time>
      </trkpt>
      <trkpt lat="42.21516833" lon="-8.73020333">
        <ele>16.0</ele>
        <time>2018-05-14T11:49:09.000Z</time>
      </trkpt>
      <trkpt lat="42.21514167" lon="-8.73021333">
        <ele>16.0</ele>
        <time>2018-05-14T11:49:10.000Z</time>
      </trkpt>
      <trkpt lat="42.21511167" lon="-8.73022833">
        <ele>16.0</ele>
        <time>2018-05-14T11:49:11.000Z</time>
      </trkpt>
      <trkpt lat="42.21508" lon="-8.730245">
        <ele>16.0</ele>
        <time>2018-05-14T11:49:12.000Z</time>
      </trkpt>
      <trkpt lat="42.21504833" lon="-8.73026333">
        <ele>16.0</ele>
        <time>2018-05-14T11:49:13.000Z</time>
      </trkpt>
      <trkpt lat="42.215015" lon="-8.730285">
        <ele>16.0</ele>
        <time>2018-05-14T11:49:14.000Z</time>
      </trkpt>
      <trkpt lat="42.214985" lon="-8.73031167">
        <ele>16.0</ele>
        <time>2018-05-14T11:49:15.000Z</time>
      </trkpt>
      <trkpt lat="42.21495667" lon="-8.73034167">
        <ele>16.0</ele>
        <time>2018-05-14T11:49:16.000Z</time>
      </trkpt>
      <trkpt lat="42.21493333" lon="-8.73037167">
        <ele>16.0</ele>
        <time>2018-05-14T11:49:17.000Z</time>
      </trkpt>
      <trkpt lat="42.21491333" lon="-8.73040333">
        <ele>16.0</ele>
        <time>2018-05-14T11:49:18.000Z</time>
      </trkpt>
      <trkpt lat="42.21489667" lon="-8.730435">
        <ele>16.0</ele>
        <time>2018-05-14T11:49:19.000Z</time>
      </trkpt>
      <trkpt lat="42.21488667" lon="-8.73046833">
        <ele>16.0</ele>
        <time>2018-05-14T11:49:20.000Z</time>
      </trkpt>
      <trkpt lat="42.21487333" lon="-8.730505">
        <ele>16.0</ele>
        <time>2018-05-14T11:49:21.000Z</time>
      </trkpt>
      <trkpt lat="42.21486333" lon="-8.73054">
        <ele>16.0</ele>
        <time>2018-05-14T11:49:22.000Z</time>
      </trkpt>
      <trkpt lat="42.21485333" lon="-8.730575">
        <ele>16.0</ele>
        <time>2018-05-14T11:49:23.000Z</time>
      </trkpt>
      <trkpt lat="42.214845" lon="-8.73061333">
        <ele>15.0</ele>
        <time>2018-05-14T11:49:24.000Z</time>
      </trkpt>
      <trkpt lat="42.21483333" lon="-8.73065">
        <ele>15.0</ele>
        <time>2018-05-14T11:49:25.000Z</time>
      </trkpt>
      <trkpt lat="42.21482167" lon="-8.73068333">
        <ele>15.0</ele>
        <time>2018-05-14T11:49:26.000Z</time>
      </trkpt>
      <trkpt lat="42.21480667" lon="-8.73071833">
        <ele>15.0</ele>
        <time>2018-05-14T11:49:27.000Z</time>
      </trkpt>
      <trkpt lat="42.21478833" lon="-8.73075333">
        <ele>15.0</ele>
        <time>2018-05-14T11:49:28.000Z</time>
      </trkpt>
      <trkpt lat="42.21477" lon="-8.73078833">
        <ele>15.0</ele>
        <time>2018-05-14T11:49:29.000Z</time>
      </trkpt>
      <trkpt lat="42.21475" lon="-8.73082333">
        <ele>15.0</ele>
        <time>2018-05-14T11:49:30.000Z</time>
      </trkpt>
      <trkpt lat="42.214725" lon="-8.73086">
        <ele>15.0</ele>
        <time>2018-05-14T11:49:31.000Z</time>
      </trkpt>
      <trkpt lat="42.2147" lon="-8.73089333">
        <ele>15.0</ele>
        <time>2018-05-14T11:49:32.000Z</time>
      </trkpt>
      <trkpt lat="42.21467333" lon="-8.730925">
        <ele>15.0</ele>
        <time>2018-05-14T11:49:33.000Z</time>
      </trkpt>
      <trkpt lat="42.21464667" lon="-8.730955">
        <ele>15.0</ele>
        <time>2018-05-14T11:49:34.000Z</time>
      </trkpt>
      <trkpt lat="42.21461833" lon="-8.730985">
        <ele>15.0</ele>
        <time>2018-05-14T11:49:35.000Z</time>
      </trkpt>
      <trkpt lat="42.21458833" lon="-8.73101333">
        <ele>15.0</ele>
        <time>2018-05-14T11:49:36.000Z</time>
      </trkpt>
      <trkpt lat="42.21455833" lon="-8.73103667">
        <ele>16.0</ele>
        <time>2018-05-14T11:49:37.000Z</time>
      </trkpt>
      <trkpt lat="42.21452667" lon="-8.73105333">
        <ele>16.0</ele>
        <time>2018-05-14T11:49:38.000Z</time>
      </trkpt>
      <trkpt lat="42.21449667" lon="-8.73107">
        <ele>16.0</ele>
        <time>2018-05-14T11:49:39.000Z</time>
      </trkpt>
      <trkpt lat="42.21446667" lon="-8.73108167">
        <ele>16.0</ele>
        <time>2018-05-14T11:49:40.000Z</time>
      </trkpt>
      <trkpt lat="42.21443667" lon="-8.73109167">
        <ele>16.0</ele>
        <time>2018-05-14T11:49:41.000Z</time>
      </trkpt>
      <trkpt lat="42.214405" lon="-8.73109833">
        <ele>16.0</ele>
        <time>2018-05-14T11:49:42.000Z</time>
      </trkpt>
      <trkpt lat="42.214375" lon="-8.73110333">
        <ele>16.0</ele>
        <time>2018-05-14T11:49:43.000Z</time>
      </trkpt>
      <trkpt lat="42.21434333" lon="-8.73110667">
        <ele>16.0</ele>
        <time>2018-05-14T11:49:44.000Z</time>
      </trkpt>
      <trkpt lat="42.21431167" lon="-8.73111667">
        <ele>15.0</ele>
        <time>2018-05-14T11:49:45.000Z</time>
      </trkpt>
      <trkpt lat="42.21428167" lon="-8.73112833">
        <ele>15.0</ele>
        <time>2018-05-14T11:49:46.000Z</time>
      </trkpt>
      <trkpt lat="42.21425333" lon="-8.731145">
        <ele>15.0</ele>
        <time>2018-05-14T11:49:47.000Z</time>
      </trkpt>
      <trkpt lat="42.21423" lon="-8.73116333">
        <ele>15.0</ele>
        <time>2018-05-14T11:49:48.000Z</time>
      </trkpt>
      <trkpt lat="42.21421167" lon="-8.73118333">
        <ele>15.0</ele>
        <time>2018-05-14T11:49:49.000Z</time>
      </trkpt>
      <trkpt lat="42.21420167" lon="-8.73121">
        <ele>15.0</ele>
        <time>2018-05-14T11:49:50.000Z</time>
      </trkpt>
      <trkpt lat="42.2142" lon="-8.73124167">
        <ele>15.0</ele>
        <time>2018-05-14T11:49:51.000Z</time>
      </trkpt>
      <trkpt lat="42.21420667" lon="-8.73128333">
        <ele>15.0</ele>
        <time>2018-05-14T11:49:52.000Z</time>
      </trkpt>
      <trkpt lat="42.21421667" lon="-8.731325">
        <ele>15.0</ele>
        <time>2018-05-14T11:49:53.000Z</time>
      </trkpt>
      <trkpt lat="42.21422833" lon="-8.73136833">
        <ele>15.0</ele>
        <time>2018-05-14T11:49:54.000Z</time>
      </trkpt>
      <trkpt lat="42.21424167" lon="-8.731415">
        <ele>15.0</ele>
        <time>2018-05-14T11:49:55.000Z</time>
      </trkpt>
      <trkpt lat="42.21425167" lon="-8.73146333">
        <ele>15.0</ele>
        <time>2018-05-14T11:49:56.000Z</time>
      </trkpt>
      <trkpt lat="42.21426167" lon="-8.73150833">
        <ele>15.0</ele>
        <time>2018-05-14T11:49:57.000Z</time>
      </trkpt>
      <trkpt lat="42.21426833" lon="-8.73155333">
        <ele>15.0</ele>
        <time>2018-05-14T11:49:58.000Z</time>
      </trkpt>
      <trkpt lat="42.21427833" lon="-8.731595">
        <ele>15.0</ele>
        <time>2018-05-14T11:49:59.000Z</time>
      </trkpt>
      <trkpt lat="42.214285" lon="-8.73163167">
        <ele>14.0</ele>
        <time>2018-05-14T11:50:00.000Z</time>
      </trkpt>
      <trkpt lat="42.21429333" lon="-8.73167167">
        <ele>14.0</ele>
        <time>2018-05-14T11:50:01.000Z</time>
      </trkpt>
      <trkpt lat="42.2143" lon="-8.73171167">
        <ele>14.0</ele>
        <time>2018-05-14T11:50:02.000Z</time>
      </trkpt>
      <trkpt lat="42.21430667" lon="-8.73175167">
        <ele>14.0</ele>
        <time>2018-05-14T11:50:03.000Z</time>
      </trkpt>
      <trkpt lat="42.21431167" lon="-8.73179333">
        <ele>14.0</ele>
        <time>2018-05-14T11:50:04.000Z</time>
      </trkpt>
      <trkpt lat="42.214315" lon="-8.73183667">
        <ele>14.0</ele>
        <time>2018-05-14T11:50:05.000Z</time>
      </trkpt>
      <trkpt lat="42.21432167" lon="-8.73187667">
        <ele>14.0</ele>
        <time>2018-05-14T11:50:06.000Z</time>
      </trkpt>
      <trkpt lat="42.21432833" lon="-8.73191667">
        <ele>14.0</ele>
        <time>2018-05-14T11:50:07.000Z</time>
      </trkpt>
      <trkpt lat="42.214335" lon="-8.73195833">
        <ele>14.0</ele>
        <time>2018-05-14T11:50:08.000Z</time>
      </trkpt>
      <trkpt lat="42.21433833" lon="-8.73199833">
        <ele>14.0</ele>
        <time>2018-05-14T11:50:09.000Z</time>
      </trkpt>
      <trkpt lat="42.21434333" lon="-8.73203833">
        <ele>14.0</ele>
        <time>2018-05-14T11:50:10.000Z</time>
      </trkpt>
      <trkpt lat="42.21434833" lon="-8.73207833">
        <ele>14.0</ele>
        <time>2018-05-14T11:50:11.000Z</time>
      </trkpt>
      <trkpt lat="42.21435333" lon="-8.73211667">
        <ele>14.0</ele>
        <time>2018-05-14T11:50:12.000Z</time>
      </trkpt>
      <trkpt lat="42.21436167" lon="-8.73215">
        <ele>15.0</ele>
        <time>2018-05-14T11:50:13.000Z</time>
      </trkpt>
      <trkpt lat="42.21437" lon="-8.73218">
        <ele>15.0</ele>
        <time>2018-05-14T11:50:14.000Z</time>
      </trkpt>
      <trkpt lat="42.21438167" lon="-8.73220667">
        <ele>15.0</ele>
        <time>2018-05-14T11:50:15.000Z</time>
      </trkpt>
      <trkpt lat="42.21439333" lon="-8.73222667">
        <ele>15.0</ele>
        <time>2018-05-14T11:50:16.000Z</time>
      </trkpt>
      <trkpt lat="42.21440833" lon="-8.73224167">
        <ele>15.0</ele>
        <time>2018-05-14T11:50:17.000Z</time>
      </trkpt>
      <trkpt lat="42.21442833" lon="-8.73225167">
        <ele>15.0</ele>
        <time>2018-05-14T11:50:18.000Z</time>
      </trkpt>
      <trkpt lat="42.21444833" lon="-8.73225667">
        <ele>15.0</ele>
        <time>2018-05-14T11:50:19.000Z</time>
      </trkpt>
      <trkpt lat="42.21447" lon="-8.73225833">
        <ele>15.0</ele>
        <time>2018-05-14T11:50:20.000Z</time>
      </trkpt>
      <trkpt lat="42.214495" lon="-8.73225667">
        <ele>15.0</ele>
        <time>2018-05-14T11:50:21.000Z</time>
      </trkpt>
      <trkpt lat="42.21452167" lon="-8.73225667">
        <ele>15.0</ele>
        <time>2018-05-14T11:50:22.000Z</time>
      </trkpt>
      <trkpt lat="42.21454667" lon="-8.73225167">
        <ele>15.0</ele>
        <time>2018-05-14T11:50:23.000Z</time>
      </trkpt>
      <trkpt lat="42.21457167" lon="-8.73224333">
        <ele>15.0</ele>
        <time>2018-05-14T11:50:24.000Z</time>
      </trkpt>
      <trkpt lat="42.21459333" lon="-8.73223833">
        <ele>15.0</ele>
        <time>2018-05-14T11:50:25.000Z</time>
      </trkpt>
      <trkpt lat="42.21461333" lon="-8.732235">
        <ele>15.0</ele>
        <time>2018-05-14T11:50:26.000Z</time>
      </trkpt>
      <trkpt lat="42.21463167" lon="-8.73223">
        <ele>15.0</ele>
        <time>2018-05-14T11:50:27.000Z</time>
      </trkpt>
      <trkpt lat="42.21464667" lon="-8.73222667">
        <ele>15.0</ele>
        <time>2018-05-14T11:50:28.000Z</time>
      </trkpt>
      <trkpt lat="42.21466667" lon="-8.73222667">
        <ele>15.0</ele>
        <time>2018-05-14T11:50:29.000Z</time>
      </trkpt>
      <trkpt lat="42.21468667" lon="-8.73223167">
        <ele>15.0</ele>
        <time>2018-05-14T11:50:30.000Z</time>
      </trkpt>
      <trkpt lat="42.214705" lon="-8.732235">
        <ele>16.0</ele>
        <time>2018-05-14T11:50:31.000Z</time>
      </trkpt>
      <trkpt lat="42.214725" lon="-8.73223667">
        <ele>16.0</ele>
        <time>2018-05-14T11:50:32.000Z</time>
      </trkpt>
      <trkpt lat="42.21474333" lon="-8.73223833">
        <ele>16.0</ele>
        <time>2018-05-14T11:50:33.000Z</time>
      </trkpt>
      <trkpt lat="42.21476167" lon="-8.73224">
        <ele>16.0</ele>
        <time>2018-05-14T11:50:34.000Z</time>
      </trkpt>
      <trkpt lat="42.21477833" lon="-8.73223667">
        <ele>17.0</ele>
        <time>2018-05-14T11:50:35.000Z</time>
      </trkpt>
      <trkpt lat="42.214795" lon="-8.73223">
        <ele>17.0</ele>
        <time>2018-05-14T11:50:36.000Z</time>
      </trkpt>
      <trkpt lat="42.21481167" lon="-8.73221833">
        <ele>17.0</ele>
        <time>2018-05-14T11:50:37.000Z</time>
      </trkpt>
      <trkpt lat="42.21483" lon="-8.73221">
        <ele>18.0</ele>
        <time>2018-05-14T11:50:38.000Z</time>
      </trkpt>
      <trkpt lat="42.21485167" lon="-8.732205">
        <ele>18.0</ele>
        <time>2018-05-14T11:50:39.000Z</time>
      </trkpt>
      <trkpt lat="42.214875" lon="-8.7322">
        <ele>19.0</ele>
        <time>2018-05-14T11:50:40.000Z</time>
      </trkpt>
      <trkpt lat="42.2149" lon="-8.732195">
        <ele>19.0</ele>
        <time>2018-05-14T11:50:41.000Z</time>
      </trkpt>
      <trkpt lat="42.214925" lon="-8.73219">
        <ele>20.0</ele>
        <time>2018-05-14T11:50:42.000Z</time>
      </trkpt>
      <trkpt lat="42.21495167" lon="-8.73218667">
        <ele>20.0</ele>
        <time>2018-05-14T11:50:43.000Z</time>
      </trkpt>
      <trkpt lat="42.21498167" lon="-8.73218667">
        <ele>20.0</ele>
        <time>2018-05-14T11:50:44.000Z</time>
      </trkpt>
      <trkpt lat="42.21501333" lon="-8.732185">
        <ele>21.0</ele>
        <time>2018-05-14T11:50:45.000Z</time>
      </trkpt>
      <trkpt lat="42.21504333" lon="-8.732185">
        <ele>22.0</ele>
        <time>2018-05-14T11:50:46.000Z</time>
      </trkpt>
      <trkpt lat="42.21507333" lon="-8.73218333">
        <ele>22.0</ele>
        <time>2018-05-14T11:50:47.000Z</time>
      </trkpt>
      <trkpt lat="42.21510333" lon="-8.73218167">
        <ele>23.0</ele>
        <time>2018-05-14T11:50:48.000Z</time>
      </trkpt>
      <trkpt lat="42.21513167" lon="-8.73218333">
        <ele>24.0</ele>
        <time>2018-05-14T11:50:49.000Z</time>
      </trkpt>
      <trkpt lat="42.21516167" lon="-8.73218167">
        <ele>24.0</ele>
        <time>2018-05-14T11:50:50.000Z</time>
      </trkpt>
      <trkpt lat="42.21519333" lon="-8.73218167">
        <ele>25.0</ele>
        <time>2018-05-14T11:50:51.000Z</time>
      </trkpt>
      <trkpt lat="42.21522667" lon="-8.73218333">
        <ele>26.0</ele>
        <time>2018-05-14T11:50:52.000Z</time>
      </trkpt>
      <trkpt lat="42.21525667" lon="-8.73218833">
        <ele>27.0</ele>
        <time>2018-05-14T11:50:53.000Z</time>
      </trkpt>
      <trkpt lat="42.21528667" lon="-8.732195">
        <ele>27.0</ele>
        <time>2018-05-14T11:50:54.000Z</time>
      </trkpt>
      <trkpt lat="42.21532" lon="-8.73220667">
        <ele>28.0</ele>
        <time>2018-05-14T11:50:55.000Z</time>
      </trkpt>
      <trkpt lat="42.21535667" lon="-8.73222">
        <ele>29.0</ele>
        <time>2018-05-14T11:50:56.000Z</time>
      </trkpt>
      <trkpt lat="42.21539333" lon="-8.73223">
        <ele>29.0</ele>
        <time>2018-05-14T11:50:57.000Z</time>
      </trkpt>
      <trkpt lat="42.21543333" lon="-8.73223833">
        <ele>30.0</ele>
        <time>2018-05-14T11:50:58.000Z</time>
      </trkpt>
      <trkpt lat="42.21546833" lon="-8.73224667">
        <ele>30.0</ele>
        <time>2018-05-14T11:50:59.000Z</time>
      </trkpt>
      <trkpt lat="42.2155" lon="-8.732255">
        <ele>31.0</ele>
        <time>2018-05-14T11:51:00.000Z</time>
      </trkpt>
      <trkpt lat="42.21553167" lon="-8.73226333">
        <ele>32.0</ele>
        <time>2018-05-14T11:51:01.000Z</time>
      </trkpt>
      <trkpt lat="42.21556333" lon="-8.73227">
        <ele>32.0</ele>
        <time>2018-05-14T11:51:02.000Z</time>
      </trkpt>
      <trkpt lat="42.215595" lon="-8.73227667">
        <ele>33.0</ele>
        <time>2018-05-14T11:51:03.000Z</time>
      </trkpt>
      <trkpt lat="42.215625" lon="-8.73228333">
        <ele>33.0</ele>
        <time>2018-05-14T11:51:04.000Z</time>
      </trkpt>
      <trkpt lat="42.21565333" lon="-8.73228667">
        <ele>34.0</ele>
        <time>2018-05-14T11:51:05.000Z</time>
      </trkpt>
      <trkpt lat="42.21567833" lon="-8.73228667">
        <ele>35.0</ele>
        <time>2018-05-14T11:51:06.000Z</time>
      </trkpt>
      <trkpt lat="42.21570667" lon="-8.732285">
        <ele>35.0</ele>
        <time>2018-05-14T11:51:07.000Z</time>
      </trkpt>
      <trkpt lat="42.215735" lon="-8.73228333">
        <ele>36.0</ele>
        <time>2018-05-14T11:51:08.000Z</time>
      </trkpt>
      <trkpt lat="42.215765" lon="-8.73228333">
        <ele>36.0</ele>
        <time>2018-05-14T11:51:09.000Z</time>
      </trkpt>
      <trkpt lat="42.21579333" lon="-8.73228833">
        <ele>37.0</ele>
        <time>2018-05-14T11:51:10.000Z</time>
      </trkpt>
      <trkpt lat="42.21582167" lon="-8.732295">
        <ele>37.0</ele>
        <time>2018-05-14T11:51:11.000Z</time>
      </trkpt>
      <trkpt lat="42.215845" lon="-8.73229833">
        <ele>38.0</ele>
        <time>2018-05-14T11:51:12.000Z</time>
      </trkpt>
      <trkpt lat="42.21587167" lon="-8.7323">
        <ele>38.0</ele>
        <time>2018-05-14T11:51:13.000Z</time>
      </trkpt>
      <trkpt lat="42.21590167" lon="-8.73230333">
        <ele>39.0</ele>
        <time>2018-05-14T11:51:14.000Z</time>
      </trkpt>
      <trkpt lat="42.21593167" lon="-8.73230833">
        <ele>39.0</ele>
        <time>2018-05-14T11:51:15.000Z</time>
      </trkpt>
      <trkpt lat="42.21596167" lon="-8.73231167">
        <ele>39.0</ele>
        <time>2018-05-14T11:51:16.000Z</time>
      </trkpt>
      <trkpt lat="42.21599167" lon="-8.73231667">
        <ele>39.0</ele>
        <time>2018-05-14T11:51:17.000Z</time>
      </trkpt>
      <trkpt lat="42.21601833" lon="-8.73232167">
        <ele>39.0</ele>
        <time>2018-05-14T11:51:18.000Z</time>
      </trkpt>
      <trkpt lat="42.21604333" lon="-8.73232667">
        <ele>39.0</ele>
        <time>2018-05-14T11:51:19.000Z</time>
      </trkpt>
      <trkpt lat="42.21607" lon="-8.73233167">
        <ele>39.0</ele>
        <time>2018-05-14T11:51:20.000Z</time>
      </trkpt>
      <trkpt lat="42.216095" lon="-8.73233833">
        <ele>39.0</ele>
        <time>2018-05-14T11:51:21.000Z</time>
      </trkpt>
      <trkpt lat="42.21611667" lon="-8.73234667">
        <ele>40.0</ele>
        <time>2018-05-14T11:51:22.000Z</time>
      </trkpt>
      <trkpt lat="42.21614" lon="-8.73235333">
        <ele>40.0</ele>
        <time>2018-05-14T11:51:23.000Z</time>
      </trkpt>
      <trkpt lat="42.21616167" lon="-8.73236">
        <ele>40.0</ele>
        <time>2018-05-14T11:51:24.000Z</time>
      </trkpt>
      <trkpt lat="42.21618333" lon="-8.73236333">
        <ele>41.0</ele>
        <time>2018-05-14T11:51:25.000Z</time>
      </trkpt>
      <trkpt lat="42.21620667" lon="-8.73236667">
        <ele>41.0</ele>
        <time>2018-05-14T11:51:26.000Z</time>
      </trkpt>
      <trkpt lat="42.21622833" lon="-8.73237">
        <ele>41.0</ele>
        <time>2018-05-14T11:51:27.000Z</time>
      </trkpt>
      <trkpt lat="42.21625167" lon="-8.73237">
        <ele>42.0</ele>
        <time>2018-05-14T11:51:28.000Z</time>
      </trkpt>
      <trkpt lat="42.21627333" lon="-8.73236833">
        <ele>42.0</ele>
        <time>2018-05-14T11:51:29.000Z</time>
      </trkpt>
      <trkpt lat="42.216295" lon="-8.73237">
        <ele>42.0</ele>
        <time>2018-05-14T11:51:30.000Z</time>
      </trkpt>
      <trkpt lat="42.21632167" lon="-8.73236833">
        <ele>43.0</ele>
        <time>2018-05-14T11:51:31.000Z</time>
      </trkpt>
      <trkpt lat="42.21634667" lon="-8.732365">
        <ele>43.0</ele>
        <time>2018-05-14T11:51:32.000Z</time>
      </trkpt>
      <trkpt lat="42.21637" lon="-8.73236167">
        <ele>43.0</ele>
        <time>2018-05-14T11:51:33.000Z</time>
      </trkpt>
      <trkpt lat="42.216395" lon="-8.73236">
        <ele>44.0</ele>
        <time>2018-05-14T11:51:34.000Z</time>
      </trkpt>
      <trkpt lat="42.21641667" lon="-8.73235833">
        <ele>44.0</ele>
        <time>2018-05-14T11:51:35.000Z</time>
      </trkpt>
      <trkpt lat="42.21643833" lon="-8.732355">
        <ele>44.0</ele>
        <time>2018-05-14T11:51:36.000Z</time>
      </trkpt>
      <trkpt lat="42.21646" lon="-8.73234833">
        <ele>44.0</ele>
        <time>2018-05-14T11:51:37.000Z</time>
      </trkpt>
      <trkpt lat="42.21648667" lon="-8.73234667">
        <ele>45.0</ele>
        <time>2018-05-14T11:51:38.000Z</time>
      </trkpt>
      <trkpt lat="42.21651333" lon="-8.732345">
        <ele>45.0</ele>
        <time>2018-05-14T11:51:39.000Z</time>
      </trkpt>
      <trkpt lat="42.21654167" lon="-8.73234333">
        <ele>45.0</ele>
        <time>2018-05-14T11:51:40.000Z</time>
      </trkpt>
      <trkpt lat="42.21657" lon="-8.73234167">
        <ele>46.0</ele>
        <time>2018-05-14T11:51:41.000Z</time>
      </trkpt>
      <trkpt lat="42.21659833" lon="-8.732345">
        <ele>46.0</ele>
        <time>2018-05-14T11:51:42.000Z</time>
      </trkpt>
      <trkpt lat="42.21662667" lon="-8.73234667">
        <ele>47.0</ele>
        <time>2018-05-14T11:51:43.000Z</time>
      </trkpt>
      <trkpt lat="42.21665833" lon="-8.73234667">
        <ele>47.0</ele>
        <time>2018-05-14T11:51:44.000Z</time>
      </trkpt>
      <trkpt lat="42.21668667" lon="-8.73234833">
        <ele>47.0</ele>
        <time>2018-05-14T11:51:45.000Z</time>
      </trkpt>
      <trkpt lat="42.21671667" lon="-8.73234667">
        <ele>48.0</ele>
        <time>2018-05-14T11:51:46.000Z</time>
      </trkpt>
      <trkpt lat="42.21674667" lon="-8.73234333">
        <ele>48.0</ele>
        <time>2018-05-14T11:51:47.000Z</time>
      </trkpt>
      <trkpt lat="42.21677667" lon="-8.73234">
        <ele>48.0</ele>
        <time>2018-05-14T11:51:48.000Z</time>
      </trkpt>
      <trkpt lat="42.21680667" lon="-8.732335">
        <ele>48.0</ele>
        <time>2018-05-14T11:51:49.000Z</time>
      </trkpt>
      <trkpt lat="42.216835" lon="-8.732335">
        <ele>49.0</ele>
        <time>2018-05-14T11:51:50.000Z</time>
      </trkpt>
      <trkpt lat="42.21687167" lon="-8.73234">
        <ele>49.0</ele>
        <time>2018-05-14T11:51:51.000Z</time>
      </trkpt>
      <trkpt lat="42.21690667" lon="-8.732345">
        <ele>49.0</ele>
        <time>2018-05-14T11:51:52.000Z</time>
      </trkpt>
      <trkpt lat="42.21693833" lon="-8.73234833">
        <ele>49.0</ele>
        <time>2018-05-14T11:51:53.000Z</time>
      </trkpt>
      <trkpt lat="42.21696833" lon="-8.73235333">
        <ele>49.0</ele>
        <time>2018-05-14T11:51:54.000Z</time>
      </trkpt>
      <trkpt lat="42.21700167" lon="-8.732355">
        <ele>50.0</ele>
        <time>2018-05-14T11:51:55.000Z</time>
      </trkpt>
      <trkpt lat="42.21703333" lon="-8.73236167">
        <ele>50.0</ele>
        <time>2018-05-14T11:51:56.000Z</time>
      </trkpt>
      <trkpt lat="42.21706333" lon="-8.73237">
        <ele>50.0</ele>
        <time>2018-05-14T11:51:57.000Z</time>
      </trkpt>
      <trkpt lat="42.21709333" lon="-8.73237667">
        <ele>50.0</ele>
        <time>2018-05-14T11:51:58.000Z</time>
      </trkpt>
      <trkpt lat="42.21712333" lon="-8.732385">
        <ele>50.0</ele>
        <time>2018-05-14T11:51:59.000Z</time>
      </trkpt>
      <trkpt lat="42.21715" lon="-8.73239333">
        <ele>50.0</ele>
        <time>2018-05-14T11:52:00.000Z</time>
      </trkpt>
      <trkpt lat="42.21717833" lon="-8.73240167">
        <ele>51.0</ele>
        <time>2018-05-14T11:52:01.000Z</time>
      </trkpt>
      <trkpt lat="42.21720667" lon="-8.73240833">
        <ele>51.0</ele>
        <time>2018-05-14T11:52:02.000Z</time>
      </trkpt>
      <trkpt lat="42.217235" lon="-8.73241333">
        <ele>51.0</ele>
        <time>2018-05-14T11:52:03.000Z</time>
      </trkpt>
      <trkpt lat="42.21726167" lon="-8.73241667">
        <ele>51.0</ele>
        <time>2018-05-14T11:52:04.000Z</time>
      </trkpt>
      <trkpt lat="42.21729" lon="-8.73242">
        <ele>52.0</ele>
        <time>2018-05-14T11:52:05.000Z</time>
      </trkpt>
      <trkpt lat="42.21731667" lon="-8.73241833">
        <ele>52.0</ele>
        <time>2018-05-14T11:52:06.000Z</time>
      </trkpt>
      <trkpt lat="42.217345" lon="-8.73241833">
        <ele>52.0</ele>
        <time>2018-05-14T11:52:07.000Z</time>
      </trkpt>
      <trkpt lat="42.21737333" lon="-8.73241833">
        <ele>53.0</ele>
        <time>2018-05-14T11:52:08.000Z</time>
      </trkpt>
      <trkpt lat="42.21740333" lon="-8.73241667">
        <ele>53.0</ele>
        <time>2018-05-14T11:52:09.000Z</time>
      </trkpt>
      <trkpt lat="42.21743167" lon="-8.73241333">
        <ele>54.0</ele>
        <time>2018-05-14T11:52:10.000Z</time>
      </trkpt>
      <trkpt lat="42.21745833" lon="-8.73241167">
        <ele>54.0</ele>
        <time>2018-05-14T11:52:11.000Z</time>
      </trkpt>
      <trkpt lat="42.21748333" lon="-8.73241667">
        <ele>54.0</ele>
        <time>2018-05-14T11:52:12.000Z</time>
      </trkpt>
      <trkpt lat="42.21751333" lon="-8.73243667">
        <ele>54.0</ele>
        <time>2018-05-14T11:52:13.000Z</time>
      </trkpt>
      <trkpt lat="42.21754167" lon="-8.732465">
        <ele>54.0</ele>
        <time>2018-05-14T11:52:14.000Z</time>
      </trkpt>
      <trkpt lat="42.21757" lon="-8.73250167">
        <ele>54.0</ele>
        <time>2018-05-14T11:52:15.000Z</time>
      </trkpt>
      <trkpt lat="42.2176" lon="-8.73254333">
        <ele>53.0</ele>
        <time>2018-05-14T11:52:16.000Z</time>
      </trkpt>
      <trkpt lat="42.21763167" lon="-8.73258667">
        <ele>53.0</ele>
        <time>2018-05-14T11:52:17.000Z</time>
      </trkpt>
      <trkpt lat="42.21766167" lon="-8.73262833">
        <ele>53.0</ele>
        <time>2018-05-14T11:52:18.000Z</time>
      </trkpt>
      <trkpt lat="42.21767333" lon="-8.73266833">
        <ele>53.0</ele>
        <time>2018-05-14T11:52:19.000Z</time>
      </trkpt>
      <trkpt lat="42.21767333" lon="-8.73270667">
        <ele>53.0</ele>
        <time>2018-05-14T11:52:20.000Z</time>
      </trkpt>
      <trkpt lat="42.217665" lon="-8.73273833">
        <ele>52.0</ele>
        <time>2018-05-14T11:52:21.000Z</time>
      </trkpt>
      <trkpt lat="42.21765833" lon="-8.73277">
        <ele>52.0</ele>
        <time>2018-05-14T11:52:22.000Z</time>
      </trkpt>
      <trkpt lat="42.21765" lon="-8.732805">
        <ele>52.0</ele>
        <time>2018-05-14T11:52:23.000Z</time>
      </trkpt>
      <trkpt lat="42.21763667" lon="-8.73284167">
        <ele>52.0</ele>
        <time>2018-05-14T11:52:24.000Z</time>
      </trkpt>
      <trkpt lat="42.21762167" lon="-8.73287667">
        <ele>51.0</ele>
        <time>2018-05-14T11:52:25.000Z</time>
      </trkpt>
      <trkpt lat="42.21760833" lon="-8.73290667">
        <ele>51.0</ele>
        <time>2018-05-14T11:52:26.000Z</time>
      </trkpt>
      <trkpt lat="42.21759333" lon="-8.73293333">
        <ele>51.0</ele>
        <time>2018-05-14T11:52:27.000Z</time>
      </trkpt>
      <trkpt lat="42.21757333" lon="-8.73295667">
        <ele>51.0</ele>
        <time>2018-05-14T11:52:28.000Z</time>
      </trkpt>
      <trkpt lat="42.21755333" lon="-8.732975">
        <ele>51.0</ele>
        <time>2018-05-14T11:52:29.000Z</time>
      </trkpt>
      <trkpt lat="42.21753" lon="-8.73299">
        <ele>51.0</ele>
        <time>2018-05-14T11:52:30.000Z</time>
      </trkpt>
      <trkpt lat="42.21750333" lon="-8.733005">
        <ele>51.0</ele>
        <time>2018-05-14T11:52:31.000Z</time>
      </trkpt>
      <trkpt lat="42.21747667" lon="-8.73302333">
        <ele>51.0</ele>
        <time>2018-05-14T11:52:32.000Z</time>
      </trkpt>
      <trkpt lat="42.21745" lon="-8.733045">
        <ele>50.0</ele>
        <time>2018-05-14T11:52:33.000Z</time>
      </trkpt>
      <trkpt lat="42.21743" lon="-8.73307">
        <ele>50.0</ele>
        <time>2018-05-14T11:52:34.000Z</time>
      </trkpt>
      <trkpt lat="42.21741167" lon="-8.733095">
        <ele>50.0</ele>
        <time>2018-05-14T11:52:35.000Z</time>
      </trkpt>
      <trkpt lat="42.21739667" lon="-8.73311833">
        <ele>50.0</ele>
        <time>2018-05-14T11:52:36.000Z</time>
      </trkpt>
      <trkpt lat="42.217385" lon="-8.733145">
        <ele>50.0</ele>
        <time>2018-05-14T11:52:37.000Z</time>
      </trkpt>
      <trkpt lat="42.21737833" lon="-8.73317667">
        <ele>50.0</ele>
        <time>2018-05-14T11:52:38.000Z</time>
      </trkpt>
      <trkpt lat="42.21737833" lon="-8.73321">
        <ele>50.0</ele>
        <time>2018-05-14T11:52:39.000Z</time>
      </trkpt>
      <trkpt lat="42.21738167" lon="-8.733245">
        <ele>50.0</ele>
        <time>2018-05-14T11:52:40.000Z</time>
      </trkpt>
      <trkpt lat="42.21739" lon="-8.733285">
        <ele>50.0</ele>
        <time>2018-05-14T11:52:41.000Z</time>
      </trkpt>
      <trkpt lat="42.21740167" lon="-8.73332667">
        <ele>50.0</ele>
        <time>2018-05-14T11:52:42.000Z</time>
      </trkpt>
      <trkpt lat="42.21741667" lon="-8.73336833">
        <ele>50.0</ele>
        <time>2018-05-14T11:52:43.000Z</time>
      </trkpt>
      <trkpt lat="42.21743333" lon="-8.73341">
        <ele>49.0</ele>
        <time>2018-05-14T11:52:44.000Z</time>
      </trkpt>
      <trkpt lat="42.21745333" lon="-8.73345167">
        <ele>49.0</ele>
        <time>2018-05-14T11:52:45.000Z</time>
      </trkpt>
      <trkpt lat="42.21747333" lon="-8.73349333">
        <ele>49.0</ele>
        <time>2018-05-14T11:52:46.000Z</time>
      </trkpt>
      <trkpt lat="42.21749333" lon="-8.733535">
        <ele>49.0</ele>
        <time>2018-05-14T11:52:47.000Z</time>
      </trkpt>
      <trkpt lat="42.21751333" lon="-8.73358">
        <ele>49.0</ele>
        <time>2018-05-14T11:52:48.000Z</time>
      </trkpt>
      <trkpt lat="42.21753167" lon="-8.73362167">
        <ele>48.0</ele>
        <time>2018-05-14T11:52:49.000Z</time>
      </trkpt>
      <trkpt lat="42.217545" lon="-8.733665">
        <ele>48.0</ele>
        <time>2018-05-14T11:52:50.000Z</time>
      </trkpt>
      <trkpt lat="42.21756" lon="-8.733705">
        <ele>48.0</ele>
        <time>2018-05-14T11:52:51.000Z</time>
      </trkpt>
      <trkpt lat="42.217575" lon="-8.73374333">
        <ele>48.0</ele>
        <time>2018-05-14T11:52:52.000Z</time>
      </trkpt>
      <trkpt lat="42.21759" lon="-8.73378">
        <ele>48.0</ele>
        <time>2018-05-14T11:52:53.000Z</time>
      </trkpt>
      <trkpt lat="42.217605" lon="-8.733815">
        <ele>48.0</ele>
        <time>2018-05-14T11:52:54.000Z</time>
      </trkpt>
      <trkpt lat="42.21762" lon="-8.73385333">
        <ele>47.0</ele>
        <time>2018-05-14T11:52:55.000Z</time>
      </trkpt>
      <trkpt lat="42.21763" lon="-8.73389333">
        <ele>47.0</ele>
        <time>2018-05-14T11:52:56.000Z</time>
      </trkpt>
      <trkpt lat="42.21764" lon="-8.73394">
        <ele>47.0</ele>
        <time>2018-05-14T11:52:57.000Z</time>
      </trkpt>
      <trkpt lat="42.21765167" lon="-8.73398667">
        <ele>47.0</ele>
        <time>2018-05-14T11:52:58.000Z</time>
      </trkpt>
      <trkpt lat="42.21766333" lon="-8.73403333">
        <ele>46.0</ele>
        <time>2018-05-14T11:52:59.000Z</time>
      </trkpt>
      <trkpt lat="42.21767167" lon="-8.73407833">
        <ele>46.0</ele>
        <time>2018-05-14T11:53:00.000Z</time>
      </trkpt>
      <trkpt lat="42.21768" lon="-8.73412">
        <ele>46.0</ele>
        <time>2018-05-14T11:53:01.000Z</time>
      </trkpt>
      <trkpt lat="42.21769" lon="-8.73416333">
        <ele>46.0</ele>
        <time>2018-05-14T11:53:02.000Z</time>
      </trkpt>
      <trkpt lat="42.21769833" lon="-8.734205">
        <ele>46.0</ele>
        <time>2018-05-14T11:53:03.000Z</time>
      </trkpt>
      <trkpt lat="42.21771167" lon="-8.73424833">
        <ele>45.0</ele>
        <time>2018-05-14T11:53:04.000Z</time>
      </trkpt>
      <trkpt lat="42.217725" lon="-8.73428833">
        <ele>45.0</ele>
        <time>2018-05-14T11:53:05.000Z</time>
      </trkpt>
      <trkpt lat="42.21773667" lon="-8.73432833">
        <ele>45.0</ele>
        <time>2018-05-14T11:53:06.000Z</time>
      </trkpt>
      <trkpt lat="42.21775" lon="-8.734365">
        <ele>45.0</ele>
        <time>2018-05-14T11:53:07.000Z</time>
      </trkpt>
      <trkpt lat="42.21776333" lon="-8.73440167">
        <ele>45.0</ele>
        <time>2018-05-14T11:53:08.000Z</time>
      </trkpt>
      <trkpt lat="42.21777333" lon="-8.73443833">
        <ele>46.0</ele>
        <time>2018-05-14T11:53:09.000Z</time>
      </trkpt>
      <trkpt lat="42.21778167" lon="-8.73447167">
        <ele>46.0</ele>
        <time>2018-05-14T11:53:10.000Z</time>
      </trkpt>
      <trkpt lat="42.21778833" lon="-8.73449833">
        <ele>46.0</ele>
        <time>2018-05-14T11:53:11.000Z</time>
      </trkpt>
      <trkpt lat="42.21779667" lon="-8.73451667">
        <ele>47.0</ele>
        <time>2018-05-14T11:53:12.000Z</time>
      </trkpt>
      <trkpt lat="42.217805" lon="-8.73453667">
        <ele>47.0</ele>
        <time>2018-05-14T11:53:13.000Z</time>
      </trkpt>
      <trkpt lat="42.21781333" lon="-8.73455667">
        <ele>47.0</ele>
        <time>2018-05-14T11:53:14.000Z</time>
      </trkpt>
      <trkpt lat="42.21782167" lon="-8.73457833">
        <ele>47.0</ele>
        <time>2018-05-14T11:53:15.000Z</time>
      </trkpt>
      <trkpt lat="42.217825" lon="-8.73459833">
        <ele>48.0</ele>
        <time>2018-05-14T11:53:16.000Z</time>
      </trkpt>
      <trkpt lat="42.21782833" lon="-8.734615">
        <ele>48.0</ele>
        <time>2018-05-14T11:53:17.000Z</time>
      </trkpt>
      <trkpt lat="42.21783" lon="-8.73463167">
        <ele>48.0</ele>
        <time>2018-05-14T11:53:18.000Z</time>
      </trkpt>
      <trkpt lat="42.21783333" lon="-8.73465333">
        <ele>48.0</ele>
        <time>2018-05-14T11:53:19.000Z</time>
      </trkpt>
      <trkpt lat="42.21784167" lon="-8.73468167">
        <ele>49.0</ele>
        <time>2018-05-14T11:53:20.000Z</time>
      </trkpt>
      <trkpt lat="42.21784833" lon="-8.73471">
        <ele>49.0</ele>
        <time>2018-05-14T11:53:21.000Z</time>
      </trkpt>
      <trkpt lat="42.21785833" lon="-8.73474">
        <ele>49.0</ele>
        <time>2018-05-14T11:53:22.000Z</time>
      </trkpt>
      <trkpt lat="42.21786833" lon="-8.73476833">
        <ele>48.0</ele>
        <time>2018-05-14T11:53:23.000Z</time>
      </trkpt>
      <trkpt lat="42.21788167" lon="-8.734795">
        <ele>48.0</ele>
        <time>2018-05-14T11:53:24.000Z</time>
      </trkpt>
      <trkpt lat="42.21789833" lon="-8.73482">
        <ele>48.0</ele>
        <time>2018-05-14T11:53:25.000Z</time>
      </trkpt>
      <trkpt lat="42.21791833" lon="-8.73484">
        <ele>48.0</ele>
        <time>2018-05-14T11:53:26.000Z</time>
      </trkpt>
      <trkpt lat="42.21794" lon="-8.73486">
        <ele>48.0</ele>
        <time>2018-05-14T11:53:27.000Z</time>
      </trkpt>
      <trkpt lat="42.21796167" lon="-8.73488167">
        <ele>49.0</ele>
        <time>2018-05-14T11:53:28.000Z</time>
      </trkpt>
      <trkpt lat="42.21798167" lon="-8.73490833">
        <ele>49.0</ele>
        <time>2018-05-14T11:53:29.000Z</time>
      </trkpt>
      <trkpt lat="42.218" lon="-8.73493833">
        <ele>49.0</ele>
        <time>2018-05-14T11:53:30.000Z</time>
      </trkpt>
      <trkpt lat="42.21801833" lon="-8.73497333">
        <ele>48.0</ele>
        <time>2018-05-14T11:53:31.000Z</time>
      </trkpt>
      <trkpt lat="42.21803667" lon="-8.73501">
        <ele>48.0</ele>
        <time>2018-05-14T11:53:32.000Z</time>
      </trkpt>
      <trkpt lat="42.21805333" lon="-8.73504667">
        <ele>48.0</ele>
        <time>2018-05-14T11:53:33.000Z</time>
      </trkpt>
      <trkpt lat="42.21807167" lon="-8.735085">
        <ele>48.0</ele>
        <time>2018-05-14T11:53:34.000Z</time>
      </trkpt>
      <trkpt lat="42.21808167" lon="-8.73512833">
        <ele>48.0</ele>
        <time>2018-05-14T11:53:35.000Z</time>
      </trkpt>
      <trkpt lat="42.21808667" lon="-8.73517">
        <ele>48.0</ele>
        <time>2018-05-14T11:53:36.000Z</time>
      </trkpt>
      <trkpt lat="42.21807833" lon="-8.735215">
        <ele>48.0</ele>
        <time>2018-05-14T11:53:37.000Z</time>
      </trkpt>
      <trkpt lat="42.21806667" lon="-8.73525833">
        <ele>48.0</ele>
        <time>2018-05-14T11:53:38.000Z</time>
      </trkpt>
      <trkpt lat="42.21805333" lon="-8.735305">
        <ele>48.0</ele>
        <time>2018-05-14T11:53:39.000Z</time>
      </trkpt>
      <trkpt lat="42.21804333" lon="-8.73534833">
        <ele>47.0</ele>
        <time>2018-05-14T11:53:40.000Z</time>
      </trkpt>
      <trkpt lat="42.218035" lon="-8.73539167">
        <ele>47.0</ele>
        <time>2018-05-14T11:53:41.000Z</time>
      </trkpt>
      <trkpt lat="42.21803" lon="-8.73543167">
        <ele>47.0</ele>
        <time>2018-05-14T11:53:42.000Z</time>
      </trkpt>
      <trkpt lat="42.21803" lon="-8.73546833">
        <ele>47.0</ele>
        <time>2018-05-14T11:53:43.000Z</time>
      </trkpt>
    </trkseg>
  </trk>
</gpx>
